GFSGL_sfc_wetblb_000.txt.gz
Wetbulb
70.10 68.63 67.02 64.59 63.67 63.23 63.28 63.76 62.83 62.32 63.05 63.50 63.50 63.54 63.85 63.78 64.57 64.04 63.95 64.58 64.52 64.76 64.76 64.36 64.39 64.41 63.23 61.61 60.99 60.25 58.96 57.73 55.48 58.68 58.26 60.19 60.29 61.13 61.42 61.74 61.74 61.76 61.59
70.13 67.71 65.77 64.39 64.08 63.71 63.88 64.11 63.73 63.11 62.87 63.57 63.79 63.94 64.38 64.73 64.47 63.90 63.81 65.05 64.34 64.21 64.50 64.08 63.88 63.60 63.12 62.50 60.39 60.46 60.12 59.22 57.81 57.45 59.92 59.24 59.73 61.61 61.39 60.70 60.64 60.83 61.37
69.85 66.10 65.00 64.18 64.49 64.23 64.25 64.14 63.68 63.09 62.81 63.21 64.01 63.71 63.51 63.39 62.70 62.94 63.75 64.08 64.04 64.06 64.10 63.66 63.55 62.67 62.09 61.57 60.94 60.38 60.51 60.26 59.02 57.85 57.89 59.99 59.86 60.90 59.92 60.63 60.31 60.31 60.68
68.51 65.86 64.98 64.42 64.23 65.09 64.85 64.47 63.81 63.68 63.20 63.13 63.22 63.37 62.97 62.38 62.65 63.27 63.59 63.62 63.51 63.59 64.25 64.15 63.16 62.21 62.02 62.25 61.55 61.30 60.86 59.87 59.67 58.07 57.87 58.61 59.19 60.55 59.15 57.49 56.83 58.76 58.58
67.63 66.19 65.98 65.76 65.95 65.18 64.51 64.72 64.28 63.55 63.72 63.63 63.15 62.85 63.08 62.80 62.97 63.71 64.01 63.70 63.55 63.94 64.52 63.75 62.87 62.54 62.65 62.58 62.28 61.96 60.12 59.40 59.20 58.10 57.26 57.84 57.88 58.13 57.36 58.11 56.33 57.36 58.29
67.92 66.94 67.40 66.50 65.74 65.33 65.65 65.54 63.97 63.66 63.31 63.40 62.67 63.21 62.82 63.10 61.63 62.30 64.38 64.09 64.41 63.77 62.98 62.39 61.15 60.81 61.24 61.10 61.70 62.39 62.14 60.62 59.57 58.47 57.75 57.08 58.00 58.50 58.27 56.45 56.06 54.91 53.64
68.33 68.37 67.31 65.22 64.60 64.57 65.13 65.01 64.04 62.82 62.92 62.52 62.89 62.98 62.96 64.02 60.15 60.30 62.56 64.52 62.89 61.74 61.48 60.88 59.94 60.90 61.31 60.04 59.50 59.82 60.84 60.89 61.25 61.53 57.95 58.08 58.01 58.58 58.30 56.55 55.95 54.37 54.73
68.22 68.37 66.21 64.96 64.29 63.94 63.45 62.87 63.79 62.96 62.38 62.72 62.78 63.13 62.89 63.34 59.28 58.91 61.25 63.94 62.97 61.63 60.46 59.80 59.63 59.69 59.00 59.07 59.27 59.30 58.67 58.21 58.34 57.77 58.28 58.21 58.55 59.04 58.60 58.05 55.95 55.90 56.16
67.88 66.99 66.07 65.52 65.12 65.38 63.96 63.62 63.59 63.68 63.30 62.87 63.59 63.44 62.83 62.99 58.33 58.10 59.76 62.82 61.97 61.24 60.02 58.74 57.69 58.82 57.01 56.01 57.73 56.95 56.16 56.35 56.54 56.26 56.26 56.01 55.93 55.84 56.64 56.47 54.48 53.75 52.17
67.06 66.88 66.76 65.83 64.25 63.77 64.47 64.56 63.90 63.89 63.77 64.07 63.45 62.77 60.46 62.48 58.09 57.82 58.64 61.48 60.15 58.46 57.86 58.38 56.06 55.39 53.45 52.57 55.60 54.59 54.41 54.77 54.26 54.44 54.90 55.36 55.89 56.24 56.48 57.70 57.13 53.28 52.20
66.70 67.08 67.70 66.94 66.03 65.49 64.16 63.35 62.86 63.83 63.69 63.08 61.92 60.78 61.94 62.45 62.70 57.00 54.34 59.31 58.50 57.42 56.89 56.47 55.86 52.71 50.93 50.03 50.09 54.31 53.38 53.76 53.04 52.83 52.28 52.93 53.57 53.84 54.96 56.43 56.71 54.55 52.28
66.18 65.96 65.24 65.28 65.62 62.97 61.56 61.71 62.10 61.56 60.62 60.61 61.48 59.35 58.94 61.53 55.65 55.61 52.61 54.80 55.72 56.95 55.89 54.16 54.04 48.88 48.91 49.29 51.78 50.39 49.93 51.33 52.18 51.72 51.08 50.88 51.63 52.36 53.81 54.20 55.72 55.10 55.87
63.45 62.93 64.07 63.89 63.60 62.51 61.66 61.53 61.36 60.87 60.55 60.76 61.02 61.13 61.94 57.74 55.03 51.12 51.33 50.99 52.50 52.80 52.44 51.28 49.15 47.09 46.75 50.11 50.30 50.38 49.82 50.92 50.13 48.72 47.90 49.31 51.18 52.61 53.78 53.85 55.00 55.02 55.70
62.11 62.54 63.03 62.81 62.14 61.71 61.89 62.57 61.57 60.73 59.48 60.60 61.45 60.61 59.05 55.67 54.05 53.03 52.20 52.02 51.22 51.17 48.90 49.14 50.70 50.84 50.46 50.08 49.57 48.62 49.36 49.52 48.84 47.00 46.89 48.69 50.46 51.10 50.38 52.64 51.78 52.58 52.40
61.61 61.03 61.00 61.31 62.20 62.15 61.53 59.81 60.85 58.81 56.75 61.07 60.28 59.43 56.81 54.45 52.52 49.29 49.27 50.61 50.75 48.40 47.18 51.55 51.83 50.46 47.85 47.24 46.10 46.06 46.65 46.80 45.77 45.71 45.54 46.12 47.77 47.95 47.67 50.92 50.87 50.81 50.89
61.48 60.45 59.92 60.96 60.87 60.03 54.08 51.96 46.03 45.14 45.14 44.06 46.15 51.93 51.62 48.12 44.17 42.78 41.27 40.66 40.39 41.80 48.53 50.34 47.99 45.39 45.39 44.23 43.73 43.30 43.96 43.60 43.67 43.81 43.76 44.47 44.33 45.21 45.61 48.24 49.41 49.51 49.08
60.24 58.49 57.76 57.67 59.42 57.58 55.37 53.68 52.40 47.69 42.77 41.15 41.52 41.97 43.36 42.85 41.38 40.68 39.57 39.65 40.07 43.42 48.17 46.11 45.12 43.40 42.55 42.01 41.23 41.21 41.21 41.95 42.70 42.74 42.70 42.74 42.70 43.96 44.51 46.33 47.08 47.94 48.72
59.62 54.71 59.42 58.71 58.66 56.65 55.41 54.41 52.74 51.92 50.76 48.52 43.58 43.90 41.07 40.70 40.95 39.73 39.63 42.33 46.50 44.67 44.51 43.79 42.15 40.46 40.26 40.56 40.48 39.85 40.15 41.02 41.41 40.99 41.27 41.30 41.84 41.74 42.39 44.21 46.31 45.97 47.27
58.86 58.04 58.27 58.31 57.12 55.43 55.19 54.29 53.26 51.74 50.48 49.54 48.42 44.73 42.17 39.94 38.75 40.08 41.26 47.65 46.25 43.77 42.07 40.93 40.63 40.97 41.36 41.51 40.15 38.36 38.16 39.66 39.69 39.67 40.01 40.03 40.86 41.40 42.03 43.65 43.74 44.10 46.84
59.23 56.33 56.17 56.92 55.39 54.67 54.29 53.28 52.16 51.73 50.77 49.98 49.72 49.87 48.38 46.96 47.78 46.98 45.82 44.91 43.69 42.86 41.91 42.51 42.41 42.15 42.16 39.67 37.51 36.97 38.82 39.11 38.78 39.09 38.94 39.68 40.50 41.61 41.92 42.66 43.27 42.45 44.92
57.40 57.34 56.33 56.74 55.78 54.94 54.47 53.99 53.59 52.41 51.60 50.87 51.09 49.30 44.78 49.73 48.41 46.91 45.57 44.99 44.58 44.10 43.75 43.55 42.36 41.05 38.05 36.70 37.63 38.32 38.42 38.69 38.19 38.40 38.82 39.39 40.35 40.75 42.13 43.00 43.10 44.51 45.15
56.01 55.75 56.58 56.92 56.27 55.54 55.14 55.58 55.04 54.41 51.54 51.77 50.54 48.36 41.43 48.96 48.44 46.95 46.20 45.47 45.16 45.16 43.42 41.04 39.01 37.54 36.78 37.04 37.57 37.95 37.83 37.62 38.04 37.75 38.46 39.33 40.35 41.07 42.02 42.48 42.78 43.20 43.81
55.34 54.78 54.65 54.73 54.75 52.96 54.32 54.65 54.47 53.65 52.24 51.57 50.43 48.09 45.73 47.38 47.95 47.27 46.20 45.77 45.19 44.56 41.75 39.75 38.05 36.57 35.77 36.16 36.64 36.88 37.22 37.38 36.80 36.66 37.78 38.99 39.93 40.43 41.25 41.45 41.63 42.07 42.07
54.35 54.24 53.70 53.17 53.14 53.13 52.93 53.05 53.64 49.84 52.33 51.36 48.84 47.31 46.58 46.61 46.48 46.72 46.68 46.52 45.82 43.33 40.31 38.86 37.97 36.81 35.21 35.28 35.64 35.38 35.33 35.87 36.74 37.51 37.72 38.93 39.71 40.02 40.99 41.41 41.16 41.66 41.41
51.66 51.66 51.62 51.68 51.43 51.32 51.36 51.85 52.02 53.16 52.36 50.28 49.86 49.58 48.91 48.22 47.12 46.42 46.88 46.05 44.83 42.06 40.01 38.93 37.69 36.24 34.82 34.19 34.16 34.45 33.03 30.07 34.84 33.67 39.37 39.53 40.05 40.62 40.50 41.00 40.89 41.21 41.09
50.86 51.07 50.65 50.35 50.45 49.95 49.47 49.28 48.98 48.81 49.04 50.43 49.67 49.50 49.05 48.12 47.30 46.61 45.77 44.30 42.69 41.39 40.24 38.82 37.73 36.27 35.49 35.21 35.37 32.94 29.39 29.68 34.72 31.01 39.23 40.47 39.88 40.52 40.65 40.49 40.61 40.64 40.77

GFSGL_sfc_wetblb_003.txt.gz
Wetbulb
75.04 76.05 76.26 75.91 75.97 76.21 73.67 73.18 69.14 70.13 70.66 70.07 70.09 69.41 69.26 69.03 69.38 69.27 69.48 68.63 67.96 68.52 69.38 69.11 69.09 69.84 67.82 67.61 67.66 67.13 65.11 64.15 61.17 62.38 63.75 65.72 65.48 65.58 66.07 66.73 66.31 65.94 64.93
75.73 75.82 75.32 75.47 72.51 72.15 73.17 68.38 69.33 68.35 70.00 70.05 69.83 69.51 69.39 69.34 69.66 69.24 68.49 67.25 67.68 67.69 67.95 68.69 68.19 67.91 68.38 68.42 66.92 66.80 65.47 65.94 63.19 61.77 64.10 63.87 64.96 65.91 65.81 65.55 65.21 65.09 64.82
75.17 74.43 74.36 73.67 72.58 73.50 66.63 69.03 67.44 67.57 67.59 68.57 68.90 68.80 68.95 69.30 69.72 69.97 69.17 68.04 68.24 68.16 68.15 68.16 68.15 68.29 67.79 66.44 66.76 65.53 64.90 66.24 64.74 62.20 61.51 63.27 63.67 64.66 64.37 65.20 64.99 65.00 64.48
74.24 74.20 74.22 72.65 72.35 68.82 68.50 65.94 67.03 66.65 66.90 66.88 68.00 69.30 69.11 69.51 69.28 68.70 67.78 67.79 68.34 68.20 68.63 68.61 68.57 68.10 67.42 67.10 66.16 66.20 65.79 64.89 64.37 62.77 61.83 61.75 62.41 64.71 63.66 61.91 61.35 62.75 62.13
74.75 73.81 73.23 72.80 71.95 69.43 66.29 65.48 64.96 65.51 65.62 65.60 66.43 68.15 68.75 68.22 67.69 67.95 68.09 68.10 68.71 68.60 68.84 69.34 69.21 68.34 65.49 64.97 64.38 65.58 65.48 63.91 62.48 61.38 60.66 60.97 60.83 60.87 61.02 61.66 60.72 61.36 62.37
73.82 73.19 72.98 72.00 69.71 68.78 68.62 65.74 65.25 64.96 65.09 66.36 66.66 66.49 67.15 66.53 62.97 62.57 66.34 68.25 68.85 68.95 68.20 68.67 68.90 65.39 64.61 62.54 62.23 62.62 63.50 63.60 63.21 61.80 60.22 60.51 62.09 61.76 61.82 61.18 60.33 58.89 56.84
72.87 72.76 71.75 70.50 68.75 69.35 68.61 68.02 66.11 63.60 64.66 65.80 66.87 66.06 67.62 67.56 61.69 61.24 63.42 67.86 68.33 68.35 67.57 67.53 67.11 65.82 63.90 65.00 62.45 60.93 61.01 60.93 61.89 63.79 61.39 61.32 61.52 62.28 62.36 60.17 59.44 58.22 57.52
72.29 71.89 71.14 69.97 69.11 68.82 69.17 68.08 67.14 65.11 65.32 67.15 67.48 68.04 67.67 68.29 60.16 59.18 61.66 67.21 66.24 67.21 67.41 67.36 66.56 65.96 65.25 62.61 62.88 62.41 63.04 63.84 64.00 62.85 62.70 62.38 62.33 61.95 60.73 59.69 59.06 58.24 59.17
71.46 71.56 70.33 69.48 69.21 68.68 68.59 68.50 68.02 66.79 66.91 67.08 66.71 67.17 67.45 67.54 58.96 58.51 62.00 65.33 65.24 64.01 66.60 66.58 64.68 63.91 59.15 56.55 59.51 60.67 61.64 61.78 59.82 57.02 56.42 55.64 55.42 55.58 56.66 57.48 55.78 56.58 55.99
71.36 71.51 70.58 69.52 68.91 67.99 68.77 68.73 68.01 67.83 66.22 66.40 66.76 67.82 64.10 67.01 57.32 57.30 61.73 62.55 63.17 62.79 65.40 63.49 57.23 59.25 54.10 53.98 59.60 60.60 59.51 60.17 59.41 59.12 59.07 58.48 58.21 58.74 56.94 59.15 56.81 54.23 55.10
71.83 70.86 70.29 69.98 69.54 69.66 69.67 68.62 67.61 67.27 66.73 67.03 66.42 67.39 66.92 66.45 64.80 55.19 55.01 63.92 63.69 63.25 63.58 63.07 61.99 53.09 51.38 51.06 51.11 59.94 57.81 55.64 57.06 57.25 57.16 57.68 58.23 58.78 59.18 59.60 59.73 57.98 56.51
71.14 69.16 69.27 69.18 69.06 68.50 68.54 67.45 67.52 67.17 67.03 66.65 66.38 66.25 64.84 66.61 56.60 56.34 54.30 54.81 60.01 63.44 63.50 63.11 59.65 49.77 47.74 50.05 52.80 50.98 50.53 51.36 56.27 55.66 55.59 55.37 55.63 56.04 56.93 56.89 57.58 58.30 59.31
68.88 67.70 68.44 68.56 67.54 67.48 66.61 66.48 65.68 66.17 65.37 65.10 64.36 63.48 63.54 64.21 63.28 52.74 51.49 52.01 54.21 60.50 60.67 52.24 48.62 47.40 47.33 49.64 51.90 50.74 49.83 55.46 54.63 53.73 53.31 53.52 54.08 54.87 55.99 55.44 56.37 58.82 59.05
67.59 67.79 68.51 68.73 67.56 67.08 66.70 66.12 65.03 64.56 62.99 62.12 62.76 63.14 63.99 63.44 62.32 60.48 58.56 57.00 51.84 56.13 52.97 56.57 52.68 51.80 50.59 53.64 53.01 53.14 54.58 53.78 52.40 51.85 51.56 52.29 53.21 53.35 52.54 52.54 52.82 55.35 54.86
68.06 68.15 67.78 67.79 66.40 66.25 64.01 62.64 64.52 64.83 59.82 63.41 63.47 64.77 64.37 63.17 61.52 55.64 55.30 58.76 59.48 52.93 53.82 57.79 57.46 57.02 56.12 55.77 54.94 54.22 53.40 52.51 51.11 50.99 50.63 50.48 50.60 50.72 50.52 51.30 52.82 54.44 53.99
67.53 66.91 66.21 65.24 64.55 64.08 61.63 58.80 45.07 45.50 45.20 45.06 45.24 58.15 58.89 49.53 44.92 43.49 43.17 42.63 40.92 43.02 54.15 55.25 55.03 54.65 54.36 54.00 52.89 52.11 51.82 49.41 49.93 49.31 49.55 49.51 48.99 48.58 48.91 49.63 53.12 54.02 53.64
65.92 65.73 64.93 62.94 64.62 63.95 61.70 61.28 60.42 50.24 42.74 40.99 41.79 43.46 46.20 43.95 41.04 39.88 39.31 40.02 40.80 43.72 54.19 54.88 53.82 52.89 52.38 51.89 51.03 50.16 48.89 48.56 48.48 48.19 48.21 48.54 48.23 48.08 47.81 49.00 51.85 52.84 51.09
65.19 56.20 63.52 63.18 63.02 61.77 60.65 61.39 61.49 60.26 59.42 56.06 44.46 46.19 40.67 40.44 39.61 39.09 40.15 43.72 51.07 50.16 54.44 53.37 52.16 50.58 49.99 50.16 50.28 48.67 47.54 46.67 46.62 47.16 47.44 47.70 47.82 47.23 47.36 48.21 50.71 49.18 48.48
63.24 62.55 63.05 63.52 63.42 61.14 62.04 61.39 60.23 60.30 59.49 57.20 53.78 48.11 44.16 38.57 39.43 39.51 40.76 54.65 54.41 53.45 52.21 51.11 50.40 49.84 50.61 50.79 49.71 47.24 45.26 44.67 45.05 46.42 46.76 47.00 47.36 47.14 47.30 47.97 49.34 46.30 47.38
64.80 58.80 60.66 62.41 59.61 59.79 59.89 59.87 59.84 59.07 57.79 57.22 56.83 56.94 54.29 50.63 53.41 53.84 53.79 53.87 53.04 52.14 50.96 50.25 50.12 50.90 50.80 49.65 46.73 45.20 45.10 46.38 46.89 46.44 46.43 46.88 47.24 47.37 47.04 47.34 48.56 49.76 50.73
64.08 62.03 59.06 62.34 61.89 61.49 61.05 60.53 60.49 58.99 58.07 58.10 58.20 56.80 48.74 55.75 55.63 54.85 53.51 52.71 52.19 51.73 50.95 51.43 50.89 50.49 48.80 47.22 45.66 46.07 46.97 46.90 46.81 46.32 46.23 46.41 47.00 46.31 47.44 47.76 48.04 49.59 50.47
62.21 61.75 62.69 62.63 61.76 61.26 60.98 60.44 60.02 59.78 59.54 58.70 58.12 52.40 43.21 54.79 55.81 54.34 53.04 52.61 52.82 52.35 52.26 50.08 48.71 48.37 47.17 46.29 45.87 46.99 47.09 46.80 46.44 45.87 45.85 45.97 46.55 46.55 46.80 47.00 47.27 47.95 49.21
61.67 61.28 60.86 60.93 61.20 56.93 59.58 60.72 60.61 60.32 59.30 58.29 58.34 56.74 53.63 54.98 54.68 53.70 52.49 53.09 52.53 51.89 51.12 49.00 47.58 46.68 45.93 45.14 46.34 47.07 46.67 46.06 45.34 45.00 44.73 45.24 45.67 45.79 46.32 46.31 46.58 46.77 46.81
60.58 60.24 59.88 59.67 60.21 59.79 59.78 59.09 58.62 53.42 58.80 58.50 57.70 56.67 54.60 50.93 51.03 51.37 51.75 52.82 52.47 51.94 49.91 47.86 47.53 46.06 43.77 43.12 44.63 45.65 46.32 46.18 45.66 45.68 44.84 44.93 45.31 45.21 45.94 46.09 46.35 46.68 46.62
59.37 58.77 58.84 58.93 59.04 59.59 58.78 58.82 58.43 58.06 57.55 57.79 57.71 56.55 55.19 54.57 54.22 53.96 53.16 52.94 52.44 51.40 49.30 47.56 46.90 44.81 42.72 41.81 41.59 41.69 36.83 31.10 38.38 34.53 45.27 45.26 45.37 46.09 45.63 45.62 46.05 46.27 46.54
56.58 56.61 56.26 56.59 56.62 56.54 55.59 55.09 55.29 55.44 55.03 55.44 55.60 55.74 56.27 56.02 55.85 54.64 53.23 52.60 51.86 51.05 49.56 47.75 46.27 44.52 42.72 42.61 42.52 35.78 29.94 29.86 37.82 30.74 42.13 45.71 45.19 45.45 45.30 45.03 45.13 45.23 45.72

GFSGL_sfc_wetblb_006.txt.gz
Wetbulb
77.25 78.17 77.77 77.48 77.76 78.34 78.01 77.87 77.53 76.80 75.01 73.57 72.86 71.27 71.03 70.22 70.24 70.12 69.98 68.84 68.08 68.15 68.02 68.62 69.07 70.42 68.12 66.76 66.84 66.32 65.38 64.88 62.27 63.50 64.65 67.11 67.83 67.81 67.88 68.44 68.18 67.83 67.30
77.97 78.49 77.38 77.58 77.66 77.59 78.12 77.07 76.03 76.34 73.96 73.08 71.92 70.97 71.20 70.35 70.30 70.01 68.97 68.24 67.67 67.20 67.77 68.62 68.82 68.39 69.41 69.45 67.42 68.19 66.80 66.89 64.17 63.90 65.66 64.95 67.54 67.87 67.35 67.62 66.97 66.66 66.82
77.06 77.00 76.90 76.69 77.08 77.34 77.45 76.60 76.58 74.18 71.50 70.11 69.81 70.17 70.62 69.90 70.18 70.45 70.14 69.50 68.42 67.99 68.44 68.46 68.53 68.82 68.53 67.62 67.65 66.11 65.54 65.49 65.74 63.58 63.33 65.10 64.97 65.48 66.16 67.32 67.57 67.94 65.92
76.46 76.76 77.19 76.85 76.75 76.94 76.92 73.70 71.62 71.82 70.07 68.21 68.70 69.08 69.00 70.37 70.29 70.17 69.71 69.74 68.52 67.61 68.70 68.74 68.97 68.98 68.28 68.15 67.24 67.62 67.29 65.82 66.10 63.35 63.13 62.94 63.37 65.12 64.77 62.27 62.65 64.11 63.45
76.48 76.42 76.83 77.77 77.54 76.61 75.50 73.32 70.90 70.46 69.93 66.13 67.93 67.02 68.95 69.78 67.99 69.80 69.42 68.53 68.13 68.29 69.05 69.18 69.64 69.45 66.91 66.76 66.44 68.00 67.20 64.99 63.10 62.10 61.78 61.63 60.12 60.64 62.56 62.83 61.72 62.68 64.41
76.70 76.35 77.42 77.31 76.97 75.94 74.44 72.42 71.49 70.15 68.83 67.97 66.63 66.52 67.10 67.94 63.84 63.65 67.27 68.52 68.80 68.91 68.58 69.69 70.18 68.34 67.16 64.41 63.43 62.99 63.84 64.16 63.14 61.51 61.07 61.11 63.18 63.13 63.69 62.28 61.69 60.33 59.02
76.28 76.56 76.95 76.88 75.54 74.43 73.21 72.11 70.52 69.46 68.83 68.72 68.43 67.61 67.47 69.23 62.12 62.14 63.86 67.96 68.57 68.96 69.75 69.55 68.30 66.28 66.29 68.20 64.48 62.12 61.89 61.09 61.08 63.84 62.85 62.83 63.47 64.34 63.72 62.28 61.89 60.81 59.66
75.80 75.77 76.13 75.70 74.48 73.68 72.79 71.33 70.52 68.68 68.37 69.07 69.56 68.97 68.49 69.23 62.07 60.92 63.45 68.65 69.43 70.10 69.52 68.65 67.86 65.79 66.34 66.97 66.89 65.69 65.08 65.42 65.82 64.79 64.73 63.98 64.07 63.89 62.21 61.23 60.59 60.52 60.69
74.47 74.72 75.12 74.73 73.53 71.76 71.18 71.03 71.40 69.52 69.02 69.75 70.24 69.77 69.30 69.64 58.71 58.78 63.00 68.64 68.80 68.78 67.03 67.16 66.44 66.48 61.76 58.60 63.42 63.55 64.09 64.30 61.89 58.98 57.63 56.71 56.02 55.82 57.23 59.39 58.60 57.35 57.10
74.32 74.63 74.84 74.16 73.60 72.01 71.62 71.80 71.13 70.69 69.70 69.12 69.29 69.78 66.62 70.14 57.54 57.05 61.34 67.98 67.74 66.14 64.72 65.74 60.06 62.27 55.83 55.54 61.50 62.56 61.55 62.47 62.89 62.25 62.08 60.69 58.87 60.94 57.66 60.45 58.44 55.87 56.19
75.00 75.09 74.36 73.78 73.40 73.39 72.61 71.44 71.01 70.03 69.42 69.87 69.05 69.72 69.46 66.45 67.98 55.67 56.01 66.82 65.47 64.60 64.96 67.10 66.58 55.35 53.17 52.29 52.45 61.54 60.13 59.07 59.53 60.33 60.30 59.46 59.42 60.66 60.68 61.60 62.11 59.56 56.91
75.21 74.36 72.46 72.75 71.83 72.14 71.47 69.91 68.60 69.11 69.36 68.56 69.86 69.77 69.87 70.57 59.82 55.24 54.23 56.68 61.35 65.82 67.25 66.26 59.81 50.98 49.75 50.74 52.77 52.84 51.98 52.04 59.12 59.48 58.38 56.94 57.71 58.20 58.86 59.14 60.18 59.97 59.13
72.51 71.07 71.41 72.24 70.76 70.32 68.94 67.55 67.32 68.60 68.21 67.49 67.71 67.62 69.46 68.48 62.77 54.15 52.78 53.08 56.08 64.85 67.17 54.25 50.26 48.54 48.00 48.65 52.19 52.46 50.44 58.29 58.83 57.25 55.94 56.43 57.20 57.78 58.65 59.26 60.13 61.80 62.18
72.19 71.89 70.58 69.68 69.99 69.48 68.90 68.75 68.51 67.91 67.24 68.97 68.19 65.65 65.25 65.68 64.84 64.12 59.07 60.59 53.86 58.92 53.71 58.56 55.77 53.01 50.55 53.08 55.54 54.26 58.47 58.73 56.61 55.30 55.78 56.43 56.91 56.54 55.82 56.11 54.07 53.90 56.15
70.36 70.43 69.24 68.86 68.28 69.11 65.83 61.60 67.66 64.09 61.91 66.83 65.58 64.04 62.85 65.73 64.75 59.06 59.01 63.84 63.90 56.79 59.83 61.34 60.12 60.05 59.31 59.43 59.32 58.84 58.40 57.08 55.69 55.76 55.11 54.78 54.29 54.03 53.34 53.71 52.61 53.80 55.31
69.23 68.99 69.07 69.56 69.56 68.65 66.87 63.99 44.81 46.11 45.71 45.93 45.39 56.95 60.44 51.86 45.88 43.62 42.61 42.98 44.63 45.50 56.43 58.96 58.59 58.88 58.15 58.13 57.62 56.74 56.06 53.84 54.69 53.96 53.43 53.27 52.27 51.89 51.31 51.47 52.34 53.71 54.25
69.77 69.76 69.00 66.75 67.87 67.59 67.08 65.46 63.24 52.39 43.02 41.37 41.72 42.86 45.94 45.41 42.01 40.87 40.50 40.78 42.05 44.66 57.44 58.64 57.76 58.05 57.30 56.99 55.61 54.58 53.70 54.24 54.25 52.82 52.45 51.96 51.31 51.03 50.13 50.51 51.17 52.71 53.99
69.50 59.54 67.90 67.63 67.34 66.65 66.19 65.88 65.53 64.23 62.42 59.75 45.45 47.65 40.88 40.28 40.20 39.88 40.46 43.95 54.11 52.33 58.40 58.07 57.22 57.07 55.98 54.78 54.42 53.64 53.22 52.69 51.80 51.25 50.95 50.85 50.85 50.31 49.69 49.94 50.43 51.93 53.65
66.45 66.19 66.93 66.17 65.66 63.54 64.90 64.77 64.66 64.44 63.42 62.37 54.73 48.69 44.10 39.70 39.83 40.68 42.31 57.71 58.58 58.21 58.26 56.54 56.27 55.38 55.00 54.66 54.45 53.24 51.80 50.26 47.97 49.40 50.24 50.10 50.25 49.80 49.76 49.95 50.09 48.25 50.37
65.68 59.95 62.19 65.42 65.47 65.23 65.35 64.72 64.20 63.52 63.27 62.64 60.76 60.28 56.54 52.70 56.68 57.40 57.50 58.54 57.63 57.41 57.46 55.72 55.33 55.34 55.03 54.39 53.01 51.12 49.50 49.10 49.93 49.55 49.85 49.78 49.95 49.88 49.43 49.39 49.72 49.89 53.12
65.68 65.20 61.56 65.41 64.82 64.55 64.01 63.40 63.16 62.95 62.46 61.73 61.84 60.66 52.12 59.56 59.08 58.70 58.44 57.47 56.74 56.75 56.15 55.59 55.44 54.65 54.25 52.52 50.45 49.34 48.73 49.49 49.98 49.58 49.34 49.45 49.42 48.87 49.62 49.66 49.50 50.09 50.68
65.33 64.33 63.63 62.55 63.63 63.26 63.24 64.02 63.31 62.54 61.95 61.38 60.79 56.15 46.56 58.32 58.78 58.94 58.74 57.71 57.40 57.19 56.73 56.05 54.55 53.41 53.10 51.00 49.78 48.19 48.90 49.27 50.01 49.24 48.61 48.67 48.92 49.06 49.00 48.96 48.93 49.42 49.54
63.71 62.75 63.61 64.89 64.82 59.46 62.79 63.00 62.76 62.13 61.83 61.28 61.42 60.36 57.40 58.10 59.05 58.97 58.28 57.75 57.31 56.53 56.16 54.71 53.42 52.32 52.11 49.57 48.58 48.93 48.93 50.40 49.41 48.88 48.02 48.21 48.29 48.39 48.80 48.59 48.50 48.63 48.77
64.16 64.40 64.08 63.73 63.21 61.63 61.49 61.56 62.04 55.97 60.74 61.00 59.96 59.62 58.67 58.73 59.28 58.53 56.63 56.89 56.63 56.21 55.72 54.01 52.86 51.79 49.85 47.64 47.74 48.67 49.53 49.71 48.80 49.08 48.47 48.19 48.33 47.96 48.91 48.58 48.39 48.84 48.80
62.64 62.88 62.91 63.05 61.68 60.76 61.22 60.55 59.91 59.38 59.00 59.72 59.02 58.24 58.38 59.27 58.55 56.81 56.56 56.63 56.60 55.86 54.45 53.31 52.40 50.62 48.16 46.69 45.79 45.91 35.15 32.38 41.64 34.37 47.49 49.01 48.48 49.02 48.55 48.36 48.08 48.37 48.58
60.30 60.34 60.58 60.59 59.72 59.36 58.55 58.45 58.32 58.37 57.86 57.90 58.37 58.41 58.10 57.91 57.95 57.11 56.69 56.89 56.30 55.48 54.48 53.23 52.00 49.86 48.02 46.84 46.02 35.67 30.12 31.34 38.58 31.08 42.71 48.00 48.04 48.27 46.98 47.74 47.52 47.62 47.83

GFSGL_sfc_wetblb_009.txt.gz
Wetbulb
79.43 79.44 79.68 79.06 79.57 80.47 79.94 79.80 79.84 78.72 78.43 76.77 76.26 75.02 72.90 72.15 72.25 72.68 71.70 70.69 70.54 70.86 70.83 69.21 70.11 71.46 67.69 67.05 66.69 66.49 64.78 65.15 61.85 64.37 65.39 68.00 71.16 70.22 69.23 69.64 68.97 69.46 67.89
78.90 79.89 79.71 79.93 79.80 79.22 79.95 80.23 80.09 78.69 78.61 76.97 75.99 74.37 72.97 70.74 68.71 71.92 70.26 70.17 68.63 68.34 68.73 70.09 69.11 68.25 71.39 71.67 67.51 70.56 68.92 68.57 64.67 65.13 66.17 65.32 68.22 69.94 70.84 70.64 68.28 66.78 67.47
78.02 78.10 79.14 78.90 79.52 79.33 79.76 79.87 79.71 79.46 78.32 75.98 75.63 74.31 72.25 72.16 72.24 72.30 71.92 69.30 69.65 69.62 69.73 70.11 69.59 70.69 70.79 68.76 69.85 67.57 67.07 67.43 67.12 63.43 63.30 64.46 64.31 63.54 65.92 69.37 67.56 66.74 66.47
76.06 76.34 78.08 78.90 79.15 79.22 80.15 79.71 79.96 79.07 78.31 75.81 74.98 73.42 72.59 71.89 71.81 71.64 71.48 71.13 71.32 70.76 70.69 70.60 70.51 70.12 70.13 70.42 69.35 70.21 68.84 67.00 66.36 64.61 63.55 63.30 64.64 65.67 66.62 63.58 63.05 62.72 63.00
77.32 77.15 78.14 79.83 79.92 79.84 79.43 80.04 79.55 78.88 77.77 75.43 74.53 72.49 71.95 70.66 70.08 71.34 70.69 69.86 70.09 69.88 69.90 69.73 70.41 70.20 68.01 67.99 68.42 67.75 68.79 66.00 64.66 63.36 62.88 63.16 63.13 63.04 62.68 63.99 63.38 63.62 62.59
78.43 78.06 79.35 80.46 80.02 79.82 79.85 79.95 78.68 77.49 76.29 74.95 72.17 70.26 69.07 68.21 64.51 64.80 69.08 68.58 71.23 70.25 69.36 70.77 70.96 68.77 67.73 65.24 64.86 64.24 64.24 65.67 65.14 62.32 62.36 61.90 63.49 63.92 63.21 62.49 62.90 61.22 58.46
79.27 79.98 80.47 81.11 80.32 80.28 79.47 78.06 76.65 74.86 74.91 73.32 71.16 68.24 67.96 70.15 62.51 62.73 64.63 69.06 69.75 70.41 71.03 70.16 69.25 68.76 67.45 67.68 65.22 63.20 62.76 62.14 61.98 65.10 64.16 63.83 63.60 64.84 64.78 63.87 63.23 61.48 59.93
79.73 79.66 80.66 80.75 79.91 79.58 78.06 76.51 74.79 74.08 73.69 72.13 70.30 69.84 70.40 70.74 62.48 61.16 64.29 69.07 69.74 69.58 71.23 71.50 71.19 70.44 69.10 67.91 67.38 65.05 65.53 67.56 66.98 65.05 65.21 65.73 65.94 65.27 63.26 62.39 62.34 61.82 61.36
77.37 78.49 79.30 78.65 78.09 77.45 75.83 75.22 74.12 72.90 72.48 70.48 69.54 68.92 69.97 71.30 59.95 59.37 63.73 68.95 68.34 70.30 71.16 71.40 70.34 69.16 64.97 60.78 64.94 63.06 63.23 64.46 63.87 61.31 60.34 58.44 57.05 56.94 58.35 59.86 58.15 57.09 56.23
77.05 77.04 78.47 78.42 77.33 75.81 75.47 74.71 74.12 73.98 71.97 70.93 69.46 69.89 67.88 71.07 58.51 57.72 62.58 66.52 66.95 68.24 69.27 70.75 62.26 64.36 57.32 57.31 63.40 62.82 63.10 64.09 64.36 64.29 64.07 61.22 59.29 61.12 57.48 60.61 60.38 57.87 57.25
76.16 76.41 76.97 76.66 76.59 76.19 75.05 74.86 73.89 73.10 71.68 70.13 68.93 70.73 72.02 70.68 69.67 55.70 56.24 66.72 67.94 67.91 67.61 67.14 66.93 55.72 54.95 53.43 54.03 62.75 61.96 60.30 62.63 61.13 60.68 60.95 62.69 62.45 60.16 62.47 63.92 60.51 57.31
77.48 76.48 76.19 76.00 74.95 73.82 73.37 73.83 72.92 71.72 70.53 70.50 70.76 70.85 70.82 72.50 61.55 55.88 54.57 55.72 61.53 66.87 67.89 67.23 66.11 54.68 54.56 52.71 53.58 55.09 53.90 53.53 58.97 58.75 59.41 59.59 59.22 57.96 59.05 60.41 62.91 62.02 60.75
76.63 76.25 75.07 74.01 73.72 73.75 73.57 71.89 69.49 70.00 68.55 69.20 67.81 69.10 70.88 71.99 69.08 56.18 54.17 54.99 56.02 62.44 64.29 54.39 53.24 51.32 50.78 50.09 50.84 54.19 53.00 57.87 58.31 58.83 58.73 57.29 57.11 58.27 61.79 60.80 62.46 63.61 63.41
73.98 72.59 72.32 72.00 71.09 71.22 70.83 69.75 68.42 67.92 68.29 69.34 68.92 68.98 68.99 68.63 67.97 65.81 61.25 62.06 56.22 58.35 56.50 59.67 57.39 55.88 52.96 55.65 56.27 55.51 58.25 59.23 59.30 57.24 55.91 57.27 57.64 56.95 56.21 56.30 54.70 54.09 53.35
73.73 72.53 71.46 70.91 70.36 68.77 66.47 65.69 68.10 65.33 63.72 68.05 68.58 68.60 66.41 64.77 65.04 59.35 58.89 61.95 64.73 59.82 62.57 63.17 61.45 61.15 60.80 60.39 59.95 59.84 58.99 60.00 57.96 57.37 56.34 55.43 54.75 54.68 54.26 54.54 53.11 52.88 52.00
71.52 71.12 70.41 69.94 69.04 68.23 65.85 61.29 45.44 46.97 44.78 44.66 46.64 57.07 62.29 51.31 45.71 43.96 43.03 45.01 46.64 48.49 60.06 60.33 60.18 60.11 59.67 59.44 59.79 59.65 59.37 57.41 57.29 56.61 55.02 54.23 53.43 52.89 52.25 52.11 52.48 52.10 51.89
71.27 71.50 70.09 68.25 69.80 69.27 68.32 67.66 65.21 54.10 43.98 42.54 43.31 45.18 48.50 47.02 42.22 41.90 41.92 43.08 44.85 46.74 57.79 59.00 59.02 59.13 59.02 58.97 58.30 57.40 56.20 56.51 57.42 54.78 53.93 53.20 52.56 52.13 51.37 51.08 51.38 51.45 51.88
71.40 61.05 69.59 68.97 68.50 68.30 67.99 67.10 66.18 64.29 62.76 60.74 46.60 49.39 41.82 41.41 41.47 41.04 41.45 44.95 54.55 51.96 58.22 58.57 58.58 58.59 58.15 57.15 56.40 55.76 55.59 55.03 54.03 53.07 51.88 51.86 51.98 51.17 50.56 50.64 50.82 50.98 51.00
70.06 68.50 69.00 68.71 68.22 66.03 66.60 66.17 65.92 65.63 64.87 62.45 56.59 50.87 45.95 40.72 40.88 41.34 42.14 57.20 59.13 59.14 59.09 58.73 58.38 57.24 56.65 56.30 55.66 55.41 54.75 52.96 50.90 49.89 51.45 51.46 51.30 50.87 50.52 50.59 50.37 47.50 48.80
67.51 62.44 65.08 67.26 65.92 65.42 65.38 64.78 64.62 64.42 63.61 60.84 61.05 59.68 55.77 52.06 55.22 56.47 56.94 59.05 59.23 58.72 58.85 58.08 57.84 57.10 56.46 55.91 55.19 53.94 52.49 51.17 51.04 51.00 50.92 50.86 51.10 50.69 50.10 49.75 49.97 49.55 50.53
66.22 65.85 62.49 66.49 65.70 65.28 65.15 64.44 64.08 63.54 62.92 62.49 61.75 59.51 52.13 58.33 60.19 59.96 59.53 59.76 59.24 58.78 58.37 57.97 57.72 57.58 56.61 55.60 53.93 52.00 50.71 50.12 50.74 50.51 50.31 50.44 50.48 49.61 50.42 50.19 49.91 49.93 50.08
66.20 66.02 65.15 65.24 64.47 64.39 64.13 63.89 63.33 62.84 62.18 62.03 59.68 57.03 47.60 60.87 60.68 60.36 60.64 60.15 59.37 59.64 59.50 58.45 57.41 56.71 55.48 53.89 52.47 50.76 49.48 49.48 50.42 50.37 49.61 49.74 49.84 49.97 49.78 49.70 49.59 49.55 49.62
64.60 64.36 64.71 64.65 64.63 60.74 62.76 63.94 62.66 62.98 61.84 61.17 58.50 58.24 59.63 61.11 60.66 60.14 59.79 59.57 60.73 59.06 59.20 58.37 56.85 55.28 54.73 54.00 51.05 49.47 48.99 49.83 50.39 49.95 49.26 49.22 49.55 49.84 49.62 49.77 49.47 49.27 49.22
64.81 63.26 62.73 63.43 63.80 62.97 62.75 62.92 60.99 56.60 61.49 61.34 61.05 60.49 60.44 60.61 58.94 60.47 59.00 59.63 60.03 58.95 58.01 57.78 56.13 54.69 54.24 52.14 50.01 49.21 49.79 50.57 49.73 49.56 49.69 49.00 49.54 49.35 49.79 49.67 49.38 49.33 49.39
63.56 62.69 62.32 61.44 61.84 61.93 61.40 61.23 60.62 61.00 61.17 60.65 59.89 59.84 59.74 59.46 57.58 58.73 60.44 59.56 56.46 57.27 57.09 56.86 55.74 54.16 52.86 50.89 49.52 48.63 37.52 34.91 43.47 34.90 47.26 49.17 49.95 50.13 49.79 48.92 48.91 48.97 49.39
60.82 62.17 62.61 62.53 61.11 60.77 60.12 59.91 60.05 60.08 59.79 59.55 60.16 60.47 59.26 58.64 58.29 58.48 58.60 57.87 56.75 56.04 56.60 56.76 55.32 54.01 52.23 50.41 48.93 35.99 30.36 33.42 39.50 31.84 42.84 46.80 49.34 49.45 48.28 47.87 48.82 48.46 48.60

GFSGL_sfc_wetblb_012.txt.gz
Wetbulb
78.74 78.59 78.67 78.62 78.79 77.91 78.36 77.38 77.82 76.72 76.18 75.58 74.94 74.00 73.41 72.12 72.23 71.48 70.52 69.34 69.47 69.29 69.30 69.59 68.93 70.15 68.42 67.64 68.81 67.57 65.52 64.68 62.17 62.60 64.63 65.52 65.59 65.83 66.66 67.37 68.91 67.27 66.68
78.43 78.43 78.31 78.64 78.64 78.36 77.37 78.45 77.60 78.22 77.03 75.48 75.20 74.10 73.18 70.97 71.91 70.01 68.90 68.76 69.86 68.88 68.76 68.94 68.15 68.38 69.17 69.30 68.73 67.34 67.09 67.52 64.40 62.60 64.58 64.67 66.19 67.73 68.02 65.99 67.34 66.71 65.66
78.01 77.82 77.83 77.95 78.06 77.99 78.28 77.47 78.89 77.65 76.68 75.05 74.98 73.95 72.97 70.63 71.17 70.08 69.37 69.44 69.36 67.74 68.42 68.32 67.56 68.53 69.10 68.65 68.42 67.35 66.69 66.60 66.56 63.54 62.63 64.25 64.34 63.96 63.51 64.69 64.39 65.95 67.33
77.28 77.18 77.05 77.33 77.61 77.70 78.11 78.47 78.00 78.06 76.70 76.25 74.70 73.96 73.33 71.08 70.37 69.68 70.14 69.98 69.56 68.42 69.76 69.34 68.64 67.66 68.88 68.66 67.82 68.45 67.75 66.95 65.39 62.31 62.71 63.21 64.27 64.67 64.90 62.37 61.89 64.28 63.63
75.86 76.48 76.76 77.82 77.92 78.15 77.86 78.37 78.42 78.08 77.77 77.22 75.62 74.22 73.81 71.32 70.33 70.50 70.52 70.00 69.54 68.25 70.47 69.37 69.56 70.17 68.69 68.29 68.87 67.59 67.79 65.84 63.54 60.86 59.44 60.79 61.23 60.92 60.82 61.48 60.75 61.64 61.98
74.57 75.15 76.43 77.24 77.89 77.41 77.92 77.77 78.30 78.16 78.16 77.21 75.73 73.77 72.81 70.96 65.47 65.78 69.63 69.81 69.93 68.04 68.85 69.86 69.51 68.49 67.18 65.46 64.26 64.62 66.66 65.31 62.60 61.12 59.86 59.17 60.78 61.82 62.49 61.51 60.54 59.02 57.67
74.93 75.47 75.82 76.95 77.47 77.70 77.80 77.78 77.92 77.79 77.86 76.63 75.95 73.57 71.85 70.91 62.95 62.86 66.28 69.55 67.67 68.00 70.03 69.38 68.93 67.74 68.43 68.90 64.75 63.79 63.65 62.92 62.97 61.99 60.22 60.99 61.60 62.60 62.39 60.86 60.49 59.91 58.07
76.82 76.08 76.78 77.77 77.72 77.84 77.79 77.72 78.02 77.96 77.01 75.93 74.23 71.35 70.25 69.29 63.17 61.96 63.76 66.77 67.06 68.28 69.37 69.70 68.59 67.47 68.93 68.34 67.81 67.14 65.37 64.81 64.58 63.73 62.51 62.65 63.70 64.18 63.13 61.29 59.46 58.74 58.91
75.91 78.55 77.73 79.93 78.87 78.65 78.37 78.15 77.99 76.53 74.50 73.28 71.44 68.81 68.09 69.46 61.96 59.71 61.82 66.45 65.91 67.34 69.12 68.28 68.31 68.59 64.90 60.80 66.34 65.24 63.81 65.10 64.33 60.92 62.27 60.71 59.05 57.37 58.87 59.44 57.06 55.77 55.07
77.56 78.23 80.00 79.97 79.39 78.62 78.36 77.36 75.02 73.52 72.80 72.32 69.52 68.87 66.40 69.28 61.38 58.79 60.31 67.15 66.15 67.34 69.00 68.36 62.67 65.97 60.01 58.63 64.69 64.09 62.68 63.30 64.36 64.19 63.78 61.27 59.01 59.81 58.16 58.71 58.36 55.79 55.80
78.88 78.76 79.46 79.58 79.28 78.91 78.15 75.73 73.16 73.41 73.82 71.05 69.25 69.08 69.57 68.07 69.44 56.00 56.37 67.97 68.00 67.99 67.25 66.96 68.27 58.85 56.26 55.72 56.68 63.90 61.60 58.34 60.95 61.65 61.13 59.75 59.92 60.66 60.76 62.05 61.19 59.36 57.39
78.31 78.09 78.25 78.49 76.83 76.64 75.40 73.73 73.66 72.44 70.90 69.94 69.19 68.77 69.89 71.48 61.26 55.62 55.13 57.17 62.42 66.97 68.24 67.61 66.38 53.96 53.12 55.33 53.91 55.28 53.83 54.69 58.12 58.06 57.70 57.45 57.84 57.86 58.61 59.06 59.63 59.34 58.58
76.89 76.83 77.03 76.49 75.43 74.93 73.26 72.69 71.96 71.79 70.19 68.94 69.30 69.05 70.36 71.27 69.39 54.61 54.87 55.08 56.66 60.84 66.58 59.97 54.07 53.22 55.84 53.08 52.87 53.79 54.29 56.47 56.94 56.63 56.71 56.74 56.53 58.16 59.27 58.34 59.76 60.69 60.82
76.12 75.23 74.53 72.90 72.07 72.99 72.33 71.82 70.47 69.80 68.97 69.22 69.31 70.33 70.27 69.60 67.61 65.32 63.58 59.60 56.84 58.50 56.30 56.32 56.24 55.87 55.76 56.92 56.70 52.98 55.65 57.82 58.30 58.61 57.02 57.26 58.61 56.43 55.27 56.13 54.37 53.48 51.20
73.21 72.49 71.22 70.41 70.30 68.51 61.72 64.37 69.29 61.05 61.08 70.06 70.11 69.29 67.80 66.74 66.67 61.60 61.10 62.84 62.67 59.68 59.50 60.39 58.72 58.84 58.64 58.13 57.92 58.39 57.97 58.40 58.14 58.81 57.40 56.58 54.35 54.31 53.89 54.55 52.74 50.84 50.16
71.63 70.84 69.53 69.58 68.55 67.15 63.73 60.04 45.90 46.91 44.87 44.73 47.13 62.22 58.16 50.89 47.52 45.97 45.41 45.61 47.25 52.61 60.96 63.29 61.89 61.30 60.20 60.53 58.03 58.78 57.69 57.40 57.70 57.40 56.16 54.70 53.32 52.80 52.37 51.99 51.99 51.71 50.33
71.26 71.28 70.38 68.73 69.28 67.86 66.39 64.75 60.59 52.01 44.86 43.53 43.85 49.03 52.03 46.92 43.14 42.50 42.56 43.53 46.95 52.15 61.65 60.28 59.02 61.54 60.30 59.71 58.76 58.04 57.10 58.33 57.76 56.66 55.67 54.39 52.58 52.24 51.24 51.08 50.88 51.01 50.42
72.59 64.27 70.17 69.58 69.68 69.20 68.77 67.51 66.76 63.23 61.16 58.47 46.17 48.39 41.92 41.55 41.21 41.52 42.90 48.64 55.60 53.22 58.23 58.37 60.80 60.27 59.39 58.44 58.09 57.15 56.93 56.17 54.99 53.64 51.38 50.80 51.19 51.97 50.70 50.32 50.40 49.64 49.16
70.97 69.36 68.19 70.28 69.94 67.87 68.38 68.18 66.32 64.43 63.68 59.09 54.11 49.45 43.82 41.57 41.89 43.11 43.46 58.46 59.34 59.38 58.33 58.36 59.98 58.88 58.48 58.01 57.71 57.65 56.12 54.70 52.31 51.34 51.06 51.40 52.31 50.71 50.06 50.05 49.56 47.47 47.91
70.63 64.27 66.07 68.80 66.04 67.37 66.72 66.13 65.71 65.50 61.04 59.20 58.93 56.97 54.12 51.99 54.47 55.45 55.98 57.58 58.93 59.84 61.09 59.86 58.96 58.44 58.20 57.58 57.22 56.32 54.62 53.32 52.38 52.63 52.15 51.63 51.73 51.24 49.17 49.06 48.86 48.18 48.72
67.00 67.70 61.98 67.50 65.60 66.03 65.34 64.82 64.78 64.43 63.49 62.34 59.68 58.49 51.02 57.73 58.22 58.65 59.16 59.24 60.15 60.83 61.44 59.93 59.46 59.07 58.48 57.48 56.52 54.16 52.48 51.12 51.57 51.78 51.06 50.52 50.80 49.51 50.10 49.64 48.75 49.00 48.70
65.36 65.42 65.52 65.26 65.45 65.10 65.89 65.47 64.96 64.02 63.11 62.62 62.91 56.75 46.81 59.16 60.86 61.48 59.60 58.05 60.28 60.95 59.36 59.94 59.40 58.75 57.82 55.76 53.64 52.50 50.93 49.83 51.35 51.18 50.16 49.62 49.62 49.44 49.69 48.46 49.03 48.84 48.70
65.39 63.85 63.85 62.94 61.27 59.99 61.58 63.59 63.12 63.54 58.91 61.36 61.23 57.77 55.67 59.41 61.32 59.71 60.12 60.74 60.11 57.64 57.22 57.64 58.60 57.83 57.24 55.29 53.24 51.82 49.30 49.75 50.39 50.27 49.55 49.48 48.63 49.38 49.08 48.89 48.65 48.06 47.73
64.67 62.84 62.94 63.15 62.76 62.70 61.92 62.00 59.90 57.36 61.04 61.04 59.95 59.90 59.25 61.19 60.70 58.70 60.34 59.80 59.80 58.06 57.39 59.26 56.17 56.88 55.56 54.16 53.54 51.53 49.94 50.02 49.30 47.98 47.82 47.12 47.68 48.59 48.81 49.02 48.46 47.93 47.99
62.25 62.98 60.39 61.60 62.16 59.39 61.27 61.59 60.91 61.81 61.60 61.43 60.23 60.15 61.26 60.70 60.53 59.38 58.61 58.09 57.29 57.41 57.90 57.23 55.27 57.04 55.80 54.28 51.00 45.03 35.27 35.98 42.45 36.70 46.03 47.32 47.13 48.53 49.67 47.15 47.87 47.52 48.63
61.84 61.60 59.56 58.67 57.60 60.78 59.45 60.29 60.59 58.34 58.15 60.58 60.97 61.19 61.24 60.30 60.43 60.02 59.69 59.53 58.89 58.20 58.30 57.16 56.08 56.47 55.37 52.99 47.46 36.31 30.74 34.55 39.25 34.04 40.87 44.21 45.75 48.49 48.19 47.47 48.22 47.13 47.87

GFSGL_sfc_wetblb_015.txt.gz
Wetbulb
75.76 75.53 76.30 75.82 75.59 74.86 74.52 73.52 72.80 73.14 71.80 71.66 71.79 71.64 70.19 69.24 69.22 68.41 65.69 65.43 66.48 64.15 64.89 63.62 64.97 64.16 63.00 62.12 63.71 62.30 60.36 59.85 57.43 57.90 59.89 61.07 61.87 60.83 62.35 63.89 65.29 64.78 63.92
76.47 76.09 75.95 76.37 76.36 75.34 74.42 74.09 74.12 72.64 72.72 72.73 71.95 71.44 70.41 69.53 68.47 68.33 65.99 66.00 64.78 65.57 64.72 63.82 63.32 65.53 63.17 62.83 64.93 63.12 62.81 62.57 59.63 57.61 60.26 60.44 60.71 62.29 63.15 63.40 63.99 65.60 64.50
76.56 76.24 75.87 75.55 76.06 75.83 74.72 74.91 74.72 74.67 73.38 72.65 72.50 71.09 70.56 69.89 68.46 68.46 66.75 64.78 65.79 65.54 65.35 65.10 64.23 64.34 62.40 64.16 64.89 64.36 62.66 63.27 62.10 60.33 59.35 61.03 61.54 60.97 59.78 60.30 60.64 61.14 64.31
76.71 76.09 75.47 75.58 75.72 75.87 75.93 74.58 74.95 75.35 74.41 71.76 71.97 71.61 70.90 70.01 68.41 68.25 66.54 65.36 65.79 66.02 65.44 65.72 65.66 64.51 63.87 64.62 64.74 64.09 64.07 62.62 61.47 60.01 59.39 59.81 60.32 61.47 61.29 60.00 59.25 59.57 60.01
75.61 75.55 75.21 75.77 76.08 76.06 75.80 76.01 75.23 74.94 74.61 73.48 71.60 71.65 71.19 69.50 68.57 66.99 67.07 66.43 66.06 65.64 65.65 66.78 66.54 67.01 66.65 65.27 64.97 63.65 64.27 63.17 61.68 59.68 57.56 56.21 57.40 57.46 58.58 58.87 58.62 59.07 59.45
74.88 74.86 75.11 75.12 75.52 75.35 75.49 75.43 75.89 74.74 74.83 73.58 72.81 71.71 70.75 71.15 66.00 65.99 67.47 67.08 66.93 66.06 65.45 67.55 66.49 67.55 67.19 66.08 65.93 65.40 65.40 63.28 60.71 58.59 57.17 56.83 57.34 58.47 58.91 58.55 58.00 56.72 55.37
73.65 74.39 74.42 74.56 74.62 74.96 75.04 74.96 75.25 75.37 75.34 74.92 74.08 72.43 70.94 71.23 64.81 63.84 66.54 67.28 66.57 66.57 66.73 67.24 67.06 67.12 65.94 64.86 63.94 63.61 63.25 63.19 62.44 60.00 58.25 57.87 57.23 58.42 59.12 57.29 56.76 56.58 55.90
71.96 73.20 73.81 74.21 74.24 75.06 74.83 74.89 74.86 75.62 75.21 75.20 74.18 71.89 71.21 69.22 62.83 62.44 64.29 65.55 65.33 65.54 67.19 67.34 65.75 65.52 64.88 66.20 64.52 63.26 62.65 63.26 62.55 61.85 59.87 60.82 60.06 60.88 60.75 59.52 58.03 55.82 54.85
70.65 71.58 73.11 73.48 73.87 74.50 74.68 74.86 75.10 75.18 75.09 73.99 72.11 69.89 68.07 67.18 61.34 60.80 61.93 63.96 64.24 64.09 66.27 66.63 65.70 65.39 63.18 60.29 63.81 63.36 63.29 62.49 62.84 60.67 61.41 61.34 59.45 59.05 59.70 56.78 54.48 52.11 51.27
70.63 72.06 72.88 73.51 74.21 74.81 75.05 74.94 74.34 74.56 71.66 71.95 69.25 68.32 65.28 66.68 60.33 59.10 59.71 63.61 63.38 62.61 63.45 65.95 62.98 64.24 59.46 59.46 63.43 62.03 60.15 60.13 59.84 59.53 58.83 58.70 57.36 56.94 57.92 55.81 57.60 52.30 51.67
71.60 75.71 74.23 75.74 76.07 75.90 75.46 73.93 72.09 71.59 71.46 69.52 67.98 67.44 66.45 66.27 64.75 57.38 56.40 64.12 64.47 64.05 63.30 63.23 63.49 59.36 58.45 56.92 57.25 61.17 61.14 55.58 55.91 53.62 54.40 54.89 54.45 55.12 56.68 59.23 58.42 54.93 53.02
75.89 76.41 76.62 76.82 76.95 74.86 73.05 71.24 70.57 71.04 70.09 68.34 67.24 67.03 67.74 66.01 62.64 56.22 55.35 56.77 62.68 63.61 62.61 63.64 62.65 57.25 53.84 55.39 57.08 56.32 52.49 53.79 52.36 52.26 52.59 52.55 52.55 52.91 54.99 54.65 55.48 57.10 57.16
75.29 75.19 74.53 74.06 73.06 72.30 70.91 70.67 70.20 69.25 68.88 67.74 66.89 66.10 65.39 67.20 63.86 56.38 54.32 54.45 56.48 60.91 62.09 59.07 54.37 53.30 54.51 55.04 54.89 54.13 53.91 51.82 51.19 51.43 51.77 52.51 51.63 53.60 51.86 51.33 51.75 50.65 49.66
73.61 72.69 72.44 71.90 71.01 71.08 70.69 69.96 69.50 68.48 68.06 67.32 66.77 65.36 65.30 64.75 62.39 59.02 58.33 56.96 56.96 57.12 56.78 55.42 55.98 55.15 54.60 54.07 52.88 51.99 50.73 51.02 51.99 52.43 52.69 51.73 51.53 49.23 48.53 49.25 47.63 46.69 44.62
71.23 70.25 69.85 70.12 67.09 59.01 53.51 56.62 63.97 55.27 61.23 65.69 65.96 65.81 64.80 64.45 63.60 59.68 58.61 58.75 57.85 55.43 55.67 54.53 53.07 52.38 51.86 51.59 52.60 53.27 53.18 53.64 53.29 55.01 53.46 49.61 47.47 47.60 47.64 47.18 45.87 44.04 42.96
68.79 68.40 68.33 65.39 63.30 60.92 58.78 54.52 45.99 46.19 45.24 45.68 50.76 59.04 53.64 54.65 50.72 49.52 50.68 51.83 51.08 51.08 55.70 55.38 53.74 54.11 54.19 54.59 54.08 53.47 54.79 56.12 55.36 53.66 48.94 47.87 46.72 46.56 44.94 45.63 44.93 43.83 43.64
68.32 68.05 67.06 65.48 64.52 63.25 61.23 58.37 53.89 49.90 45.46 43.64 44.67 49.40 50.98 47.66 45.47 44.47 43.55 44.65 47.48 51.43 56.04 55.68 54.08 52.73 53.10 52.84 54.49 53.88 52.13 54.72 51.56 48.74 46.34 43.86 44.03 43.93 45.45 44.49 43.75 43.86 43.64
68.60 61.92 67.22 66.27 65.23 63.94 62.82 60.57 57.81 56.37 55.07 53.17 45.23 44.97 42.78 42.37 41.98 42.10 43.27 48.24 51.30 50.64 52.65 52.32 51.67 51.67 51.23 50.54 49.35 49.01 48.40 47.38 46.26 43.85 42.77 42.54 42.53 43.99 43.66 43.11 43.02 42.28 41.84
68.71 68.12 68.06 67.58 66.41 64.67 65.19 63.60 60.91 59.50 57.52 52.71 47.59 45.35 41.85 41.15 41.59 43.22 44.70 53.15 52.55 51.78 51.47 51.15 54.57 50.51 50.15 50.33 49.94 49.06 47.03 45.79 43.78 42.91 42.51 43.06 45.21 42.73 42.26 42.42 42.86 44.53 44.10
64.72 64.23 65.11 66.47 66.46 66.04 65.57 64.71 62.87 61.18 55.97 53.48 52.58 50.37 45.97 46.07 47.54 48.39 49.38 50.98 51.17 52.55 52.66 51.74 50.75 50.42 49.96 49.58 49.06 47.45 45.92 45.13 44.17 43.59 44.83 43.58 42.89 42.29 41.69 42.12 42.41 41.08 41.96
64.62 62.47 61.35 62.01 64.75 63.86 61.59 60.75 62.21 60.90 56.81 55.79 55.45 53.01 47.81 51.87 51.80 51.42 50.88 52.03 52.82 53.89 53.16 52.00 51.32 50.73 50.36 49.68 48.56 46.46 44.71 43.80 42.47 43.04 42.12 41.29 41.80 41.93 42.46 41.96 41.49 42.81 42.09
62.32 62.49 61.19 62.31 61.84 61.83 60.81 59.96 59.42 60.91 58.49 57.92 57.05 51.61 45.04 52.67 53.76 54.17 53.67 53.87 54.77 54.99 55.11 52.57 51.80 51.10 50.41 48.69 46.58 44.26 42.61 41.55 42.28 41.91 41.58 41.71 41.62 41.98 42.31 41.64 42.51 42.32 41.26
60.91 60.82 60.69 60.21 59.12 58.49 59.23 59.73 57.54 59.07 57.80 58.03 57.19 52.76 50.51 52.59 54.61 55.41 55.78 57.36 57.01 55.74 55.07 54.10 53.85 52.10 48.66 46.35 44.81 43.14 41.36 41.63 42.13 42.48 41.63 40.76 40.42 41.13 41.90 41.68 41.76 40.98 40.03
61.06 61.06 60.26 59.03 59.36 58.86 57.74 57.34 56.90 55.39 57.24 57.63 56.30 53.97 53.87 53.30 55.76 56.47 56.57 56.49 54.60 55.30 55.13 52.80 53.12 50.07 47.49 46.18 42.77 40.92 42.38 41.42 40.33 39.39 39.01 39.04 39.63 40.40 41.44 42.08 40.06 40.93 40.73
59.69 59.91 58.98 59.36 57.83 57.17 56.71 56.67 56.38 56.80 57.04 58.02 56.53 54.82 55.09 55.80 55.96 55.36 55.09 54.70 54.18 54.57 54.41 53.23 51.48 50.75 47.77 41.08 38.92 37.24 35.84 35.99 36.38 36.94 38.27 38.39 38.28 39.38 40.58 40.26 39.83 40.76 41.07
58.80 58.40 58.74 56.97 57.33 57.55 56.53 54.82 55.20 57.94 57.40 57.31 57.18 57.60 56.40 56.16 55.27 54.55 53.88 53.06 52.66 52.35 52.11 51.47 51.02 49.78 47.27 42.43 39.83 34.95 32.02 34.35 35.02 33.76 34.73 35.45 36.65 38.63 40.87 40.13 40.44 41.18 40.60

GFSGL_sfc_wetblb_018.txt.gz
Wetbulb
73.78 73.84 73.53 72.75 72.72 73.57 73.34 73.01 72.62 71.69 71.07 71.37 70.80 69.45 68.43 67.21 66.03 67.23 64.98 65.14 63.37 63.41 64.33 63.63 62.95 62.25 61.78 60.90 61.95 60.63 58.75 60.35 57.49 57.23 58.30 59.06 61.65 61.17 60.92 61.19 63.77 62.31 63.10
73.97 74.09 73.94 73.94 73.50 72.85 72.94 73.61 72.86 72.28 71.12 71.32 71.00 69.82 69.21 68.45 67.32 66.47 65.56 65.41 64.76 63.17 62.95 63.14 62.43 64.04 62.60 61.69 61.42 61.21 60.55 61.12 58.27 56.50 57.96 59.34 59.38 60.19 61.82 62.60 63.04 63.84 62.48
74.05 73.91 74.45 74.31 74.04 73.62 73.07 73.18 73.05 72.58 71.35 71.05 70.77 70.47 69.18 69.10 67.70 67.30 66.58 65.26 64.20 64.74 64.21 62.89 62.58 62.00 62.03 62.65 62.74 61.28 62.10 62.02 61.70 59.44 58.38 59.24 59.54 59.99 59.85 59.23 59.48 60.40 62.56
74.36 74.00 73.82 74.39 74.34 74.46 74.23 73.50 73.17 73.32 71.43 71.09 70.77 70.47 70.45 69.21 68.07 67.66 67.00 65.43 64.82 64.28 64.60 64.76 63.66 63.58 63.49 62.55 63.41 62.07 62.35 62.92 60.84 60.51 59.37 58.32 58.89 59.64 59.38 59.02 57.94 58.33 58.49
74.02 74.25 73.83 74.61 75.02 75.00 74.57 74.07 73.36 73.67 73.12 71.59 70.93 70.62 69.97 69.77 69.03 67.68 67.03 65.87 65.21 64.62 64.60 64.61 64.87 65.99 65.89 64.03 63.75 62.74 61.98 62.45 61.40 60.77 58.63 57.36 56.77 56.09 56.38 57.43 57.31 57.69 58.05
74.16 74.14 74.81 74.82 74.53 74.54 74.87 74.69 73.51 73.27 73.17 71.80 70.67 70.50 69.80 69.89 66.30 65.38 67.41 66.75 65.96 65.14 64.21 64.03 64.76 66.81 66.06 64.49 64.23 64.31 64.18 62.38 60.26 59.79 59.61 57.50 57.93 56.38 57.21 57.52 56.52 54.92 53.80
74.07 74.56 74.78 74.80 74.44 74.39 74.52 74.36 74.34 73.33 73.00 72.42 70.86 70.56 69.88 70.41 64.43 63.72 65.96 66.49 66.54 66.29 64.61 64.38 65.11 67.44 65.34 65.68 63.94 63.72 62.28 62.39 63.75 63.30 61.73 59.42 57.17 57.53 57.17 56.30 55.82 55.32 54.66
73.60 74.13 74.75 74.38 74.19 74.37 74.29 74.09 74.23 74.76 73.43 73.36 72.31 71.32 71.06 70.76 64.06 62.06 65.14 67.68 66.99 66.80 66.53 65.60 65.56 66.09 64.82 64.03 63.75 62.19 61.81 63.09 63.39 63.06 61.67 61.70 59.76 59.56 58.97 58.88 57.83 55.62 54.64
72.61 73.27 74.04 74.11 73.64 73.84 73.44 73.66 74.24 74.52 74.37 74.19 74.29 72.36 71.39 70.45 61.10 60.31 63.79 66.40 66.16 66.05 66.00 66.65 65.51 64.47 61.66 60.81 63.64 61.68 62.49 63.42 62.81 60.20 60.33 59.66 58.84 58.19 59.24 57.40 55.84 52.75 51.56
71.60 72.81 73.94 74.05 73.41 73.25 73.72 73.97 74.49 74.70 74.58 74.73 72.88 72.03 68.72 66.78 58.15 58.47 62.40 64.53 63.79 63.86 63.98 64.56 61.81 64.13 59.56 58.07 63.01 61.92 61.01 60.85 60.65 60.12 57.85 57.99 57.91 57.43 58.03 57.43 55.41 52.17 51.47
72.04 72.15 72.80 73.42 73.45 73.54 74.02 74.27 74.27 74.51 73.23 71.75 69.28 67.50 67.82 67.10 63.43 57.95 56.80 63.27 62.54 63.40 63.45 63.93 64.69 57.62 55.19 55.37 57.52 61.69 60.85 59.16 57.86 54.18 52.84 52.98 53.42 53.46 53.57 54.45 55.09 54.77 51.95
71.16 70.50 71.05 72.21 72.86 73.92 74.12 74.01 73.69 72.31 70.64 67.88 67.07 66.57 66.82 66.26 60.90 56.60 55.11 56.80 61.71 64.19 64.07 63.73 61.70 54.59 52.65 53.56 56.46 56.46 55.69 54.60 53.40 52.34 51.17 50.67 51.02 52.04 50.88 52.33 51.45 53.48 55.12
69.35 70.79 71.27 72.05 73.61 74.34 73.29 72.08 71.14 70.25 68.76 67.32 66.64 66.14 65.98 65.56 62.94 56.52 54.38 54.36 56.98 62.31 62.41 59.59 54.39 51.56 51.74 54.64 55.55 56.06 52.58 51.58 49.97 49.40 49.44 50.18 51.41 50.45 49.86 48.66 49.21 48.77 48.23
72.00 74.01 74.43 73.82 73.16 72.92 71.97 71.27 70.32 68.33 67.41 66.41 65.94 66.12 65.12 63.83 61.41 59.58 57.06 55.92 55.49 58.78 57.87 56.14 55.58 54.80 54.15 54.47 53.55 52.67 51.69 50.14 49.61 49.78 50.42 51.10 50.35 47.13 46.52 47.06 45.74 44.87 42.53
72.97 73.01 72.16 70.80 68.97 62.58 56.56 63.76 67.45 63.02 66.45 66.99 65.83 65.39 64.11 63.06 62.27 57.65 56.52 58.73 58.13 55.45 54.73 54.54 53.88 54.43 54.71 51.41 50.80 50.73 49.94 49.81 51.08 51.29 51.93 51.08 46.73 45.66 45.94 44.90 43.90 42.36 41.09
70.43 69.33 66.43 64.06 62.99 61.37 59.37 55.81 48.00 48.30 48.23 51.56 53.92 60.83 57.69 54.75 49.93 47.58 46.12 46.31 47.58 49.72 54.26 52.54 52.08 51.62 51.52 51.40 51.17 51.19 52.00 53.19 51.49 52.25 49.71 46.21 45.32 45.12 43.18 42.92 42.66 41.48 40.44
68.60 66.08 64.38 63.59 63.43 62.32 60.71 58.69 54.57 49.86 45.31 45.31 48.46 50.35 53.87 52.29 47.94 46.12 44.86 45.22 46.45 50.60 54.74 54.92 53.60 53.30 53.27 52.64 52.71 52.06 51.90 52.48 51.31 47.92 44.68 42.44 41.97 41.75 41.94 42.44 41.29 40.82 41.01
66.53 59.34 65.63 64.73 63.85 63.01 61.41 59.51 57.40 57.42 56.76 52.36 45.49 45.15 44.91 45.77 44.85 43.35 43.24 46.95 51.13 50.89 53.07 53.31 51.53 51.24 50.49 50.17 48.74 47.91 46.04 44.96 43.21 42.50 41.59 41.23 40.83 41.93 42.33 40.78 40.01 39.39 39.72
66.47 65.64 65.29 64.41 63.64 62.03 60.66 58.75 57.83 56.38 55.64 51.20 47.99 46.15 42.14 40.93 41.44 42.24 45.69 52.84 51.81 50.97 50.17 49.27 50.64 48.90 48.26 47.80 47.48 46.50 45.54 44.34 42.80 41.41 40.62 40.63 41.65 41.14 40.44 39.61 40.00 42.64 41.81
65.46 62.46 65.05 64.60 63.70 63.17 61.54 59.88 58.46 56.93 53.99 52.05 52.79 50.31 45.15 47.13 48.88 48.66 49.56 51.64 51.44 51.23 51.15 50.26 49.29 48.52 48.27 47.82 46.58 45.62 44.81 43.79 41.89 41.05 41.35 41.68 41.13 40.09 39.29 39.89 40.09 38.77 39.67
62.66 63.30 63.17 65.54 64.92 64.56 63.93 61.83 60.48 58.35 55.89 54.36 54.50 51.51 46.01 52.67 51.83 51.14 49.87 50.19 50.26 50.99 50.04 49.77 48.84 48.59 48.06 47.97 46.22 44.92 43.84 42.63 40.53 40.63 40.53 39.69 39.32 39.34 39.81 39.39 39.12 40.20 39.90
61.98 61.07 61.35 64.40 64.88 64.03 63.73 62.56 61.74 59.26 58.08 56.05 53.81 49.09 43.77 50.97 51.01 51.10 50.60 50.68 51.01 51.93 51.21 50.66 49.75 49.14 48.35 47.97 46.83 44.86 42.86 40.71 40.54 40.56 39.61 39.23 39.07 39.45 39.83 39.69 39.87 39.63 38.91
60.63 59.42 59.24 58.16 59.08 58.12 58.34 58.95 61.83 58.92 56.97 56.93 55.37 51.64 49.11 50.97 51.91 51.90 52.06 52.55 52.40 52.70 52.80 52.04 52.69 49.53 48.39 47.18 44.91 42.93 40.66 41.21 41.07 40.76 40.35 39.37 38.16 38.24 38.99 38.84 39.22 38.37 37.94
59.87 59.19 58.32 58.26 58.36 58.03 58.21 57.05 57.31 55.10 58.34 57.16 55.96 53.48 51.55 53.19 54.32 54.97 54.33 55.28 55.32 53.44 52.47 53.65 52.37 49.95 45.58 44.01 43.46 40.27 41.15 41.16 40.13 39.96 39.07 37.72 37.23 37.21 37.79 38.07 38.34 37.82 38.61
59.48 59.10 58.59 58.54 57.85 56.79 56.96 56.80 56.73 56.68 56.65 56.56 54.09 52.88 53.29 53.27 53.22 54.57 54.05 53.60 53.82 52.42 52.11 51.66 50.06 48.46 44.93 42.43 42.58 41.57 37.65 36.15 36.48 35.65 36.80 37.16 36.76 36.65 37.70 38.44 37.69 38.11 38.76
58.36 58.33 57.55 57.57 56.80 56.74 55.02 55.06 55.65 56.56 56.85 55.63 54.88 53.32 53.55 53.62 54.28 54.10 53.48 52.76 51.74 51.18 50.96 49.83 46.96 45.43 43.04 41.70 40.60 37.58 32.52 33.42 35.94 33.99 34.39 34.04 34.50 36.39 37.22 39.04 37.84 37.95 37.19

GFSGL_sfc_wetblb_021.txt.gz
Wetbulb
71.46 72.13 71.95 71.95 71.96 71.48 71.06 70.93 71.45 71.47 71.21 71.03 71.16 70.20 68.45 66.44 65.85 66.20 65.04 64.49 62.91 63.17 63.24 62.01 60.86 60.84 60.24 60.86 60.71 59.55 58.25 57.26 55.03 56.88 57.97 58.21 59.28 60.60 60.71 59.94 61.48 61.85 61.76
71.52 71.79 71.69 72.18 72.19 72.15 71.65 71.38 71.51 71.43 71.25 70.98 70.76 69.81 68.84 67.39 65.58 66.34 65.39 65.86 64.04 62.05 62.40 62.65 62.49 63.31 61.10 60.66 60.12 60.35 59.75 58.03 57.17 55.24 56.90 58.27 58.90 59.19 59.58 60.51 61.79 62.85 61.46
71.63 71.93 71.78 71.61 71.44 71.87 72.34 72.34 72.06 71.91 70.80 70.84 70.54 70.02 68.87 67.81 66.46 65.56 66.10 65.38 65.16 64.28 62.76 62.48 62.55 61.86 60.59 62.30 61.19 60.78 61.81 61.13 59.85 57.92 57.29 58.47 58.90 59.09 59.14 58.91 59.08 59.84 61.51
71.87 72.06 71.89 71.96 72.07 71.77 72.10 72.27 72.49 72.46 70.76 70.45 70.41 70.29 69.51 68.91 67.98 66.99 65.84 65.43 64.88 64.91 64.99 63.69 62.76 62.45 61.44 62.15 62.43 62.09 61.10 61.74 59.54 59.12 58.36 58.78 58.61 59.39 59.08 57.75 57.68 57.63 58.08
71.65 71.97 72.10 72.63 73.01 72.75 72.34 72.06 71.96 72.00 72.06 70.54 69.93 69.88 69.95 69.10 68.89 67.51 66.93 65.94 65.43 64.92 64.00 64.69 63.96 64.24 64.90 64.02 61.92 61.28 62.61 60.60 60.35 59.29 58.31 58.64 59.05 58.43 58.07 58.29 56.90 57.49 57.79
71.66 71.94 72.47 73.00 73.09 73.06 73.08 72.65 72.26 71.77 71.79 70.69 69.97 69.47 69.09 69.85 66.16 65.51 67.36 66.84 66.19 65.16 63.67 64.61 65.30 65.88 65.52 64.35 63.79 63.68 63.73 61.40 60.04 58.43 59.37 58.65 58.53 59.05 58.44 58.18 56.12 54.74 54.46
71.99 72.34 72.57 72.49 72.76 73.21 73.43 73.05 72.41 71.65 72.06 70.54 70.45 69.95 69.27 69.39 64.48 64.13 66.16 67.30 65.76 65.28 65.72 65.68 65.41 65.72 64.94 65.39 63.50 63.08 63.15 62.88 62.70 60.53 58.90 59.90 60.11 60.77 59.31 56.44 55.76 55.00 54.58
71.87 72.26 72.75 72.83 72.49 73.23 73.29 73.31 73.27 72.33 72.06 71.81 70.45 70.17 70.14 70.14 63.42 62.04 64.72 67.61 66.72 66.41 66.26 65.83 65.17 64.83 64.84 64.20 64.02 62.54 61.86 62.16 63.20 62.58 61.81 62.44 61.97 61.95 59.42 58.14 57.40 55.32 54.94
71.42 72.07 72.80 73.50 73.06 72.96 72.90 73.03 73.74 73.43 72.07 72.12 71.71 70.81 70.69 70.11 61.41 60.43 62.53 67.49 66.67 66.61 66.68 66.88 65.78 64.06 62.40 60.91 63.72 62.71 60.83 61.40 62.13 60.33 61.10 59.86 59.07 58.51 58.93 57.00 56.12 53.64 51.82
71.82 72.36 73.34 73.87 73.46 73.15 73.28 73.34 73.83 74.06 73.71 72.95 72.48 72.49 68.54 70.59 59.50 58.49 63.31 66.96 65.90 66.13 65.52 65.62 62.54 63.98 59.03 58.13 64.29 62.58 60.34 61.52 60.30 59.63 58.96 57.07 56.58 55.72 57.86 56.98 55.24 52.39 49.95
72.36 73.16 73.49 74.03 73.72 73.75 73.66 73.78 73.92 73.71 73.98 73.72 73.51 73.01 70.71 67.14 61.57 56.60 60.10 66.60 66.35 64.82 63.28 61.73 62.73 58.18 55.68 54.59 57.42 62.13 61.71 59.49 59.29 57.63 54.38 52.10 51.90 52.04 52.14 52.47 53.50 53.02 50.67
71.22 71.96 72.79 73.49 73.86 73.58 73.43 73.28 73.66 73.46 73.69 73.18 71.08 69.74 69.18 65.38 58.45 56.82 58.43 59.75 60.60 62.04 61.68 63.73 63.60 56.44 51.71 51.89 54.97 55.85 53.70 56.32 54.48 51.86 49.91 49.41 49.99 51.20 49.59 50.38 49.41 51.48 53.66
69.76 70.59 71.21 72.70 73.26 72.97 72.93 72.93 73.30 73.63 72.89 70.26 69.42 68.38 66.44 66.64 64.50 55.87 55.09 54.93 57.16 62.23 64.38 61.62 55.33 51.52 50.07 52.61 53.88 54.02 53.81 53.94 51.01 49.47 48.84 49.13 50.36 51.11 49.17 47.05 47.89 46.72 45.78
68.75 69.64 70.24 71.42 71.87 72.58 73.43 73.49 73.38 73.04 71.03 69.27 68.77 66.46 65.87 64.49 62.32 60.50 58.17 55.72 55.63 59.82 57.22 55.74 55.56 54.83 54.71 55.19 55.03 53.73 52.73 51.11 49.87 48.69 48.71 49.59 50.06 47.22 45.47 45.68 44.81 43.38 41.57
67.86 68.51 69.15 70.63 71.18 71.81 62.23 68.09 72.58 68.07 67.48 68.52 67.75 67.12 65.59 63.87 62.38 58.91 57.71 59.19 59.91 57.63 55.96 55.31 55.05 54.03 53.71 52.53 51.18 51.16 50.65 49.93 49.83 49.49 49.65 50.03 48.99 45.30 44.70 43.91 42.61 41.39 40.21
67.86 70.52 71.07 71.00 64.76 62.01 61.10 58.33 53.88 53.34 55.33 54.61 55.15 59.24 62.00 55.78 50.26 48.62 47.17 47.72 47.35 49.71 54.87 54.78 53.51 52.71 52.98 51.86 50.53 50.10 49.93 51.61 49.23 49.55 49.77 48.74 45.98 44.20 43.06 41.23 41.41 39.92 38.96
71.48 67.98 65.85 64.18 64.66 65.60 65.78 64.16 61.94 59.04 51.34 45.90 50.07 48.80 51.34 48.80 46.99 44.82 43.73 44.64 46.27 51.48 54.34 52.67 52.28 51.72 51.27 51.49 51.46 50.83 50.84 51.00 50.98 50.47 47.41 45.08 42.46 40.79 40.55 41.16 39.87 39.05 38.76
65.02 59.14 65.78 65.67 65.36 64.76 63.21 62.18 61.63 60.55 61.35 56.92 44.66 49.15 44.82 44.64 43.73 42.64 43.19 47.17 52.98 52.41 53.23 53.27 53.16 52.60 51.78 50.99 50.93 49.88 48.11 46.19 44.80 42.28 41.04 40.40 39.77 40.79 41.16 39.45 38.64 37.35 37.84
66.00 65.18 64.47 64.09 63.16 60.58 61.59 61.82 61.56 61.62 60.03 53.19 49.99 46.22 43.64 42.14 42.59 43.69 45.95 56.75 55.22 53.05 51.90 52.07 51.43 50.16 49.00 48.65 47.52 46.21 44.75 43.50 42.65 41.38 40.24 39.26 39.96 40.48 39.12 38.56 38.37 41.63 40.78
60.36 60.04 62.03 63.21 61.34 60.09 59.63 59.38 59.70 59.13 56.97 55.70 57.19 53.81 46.73 49.73 51.72 51.46 51.77 52.73 53.13 52.26 50.43 49.57 49.30 48.40 47.59 47.31 46.32 45.51 44.50 42.99 41.73 40.82 40.41 40.18 40.08 39.51 38.49 38.55 38.25 37.57 38.09
64.40 64.21 61.83 63.20 61.73 61.02 60.30 59.26 58.47 57.22 55.84 55.88 55.37 50.94 48.62 56.87 54.85 53.26 51.52 51.59 52.04 51.21 50.94 50.29 48.10 47.75 47.63 47.00 45.27 44.47 43.56 42.32 40.53 39.58 39.80 39.89 38.50 38.08 38.27 38.36 38.05 38.47 37.98
63.30 64.26 64.63 63.79 62.86 62.22 61.17 59.83 58.31 56.97 56.24 55.86 51.46 46.21 44.58 52.43 53.05 52.02 51.21 51.18 50.95 50.92 50.80 50.39 49.24 48.88 48.39 47.83 46.31 45.08 43.23 42.20 40.17 39.84 39.16 38.10 38.05 38.35 38.56 38.38 38.24 38.06 36.87
59.88 60.92 61.58 62.69 62.70 59.42 61.41 61.11 59.32 57.79 56.36 53.65 52.09 49.53 49.20 51.13 52.24 51.96 51.74 51.05 50.84 50.57 50.63 49.24 48.73 48.16 48.78 49.77 47.90 46.12 43.11 41.16 40.95 40.37 39.13 38.64 37.84 37.39 37.71 37.34 37.70 36.50 36.24
58.95 58.35 57.94 57.58 58.99 59.65 59.95 58.53 58.39 54.29 56.76 55.28 54.25 52.15 51.61 51.70 51.98 52.21 51.67 52.07 51.55 51.45 51.70 50.58 50.14 51.04 50.26 48.89 45.43 42.07 41.23 40.87 40.34 40.32 39.83 38.46 36.69 36.68 36.53 36.58 37.47 36.56 37.00
57.55 57.43 56.98 56.28 56.38 56.88 56.78 56.76 56.52 57.55 57.75 56.51 55.63 53.87 52.01 53.37 52.29 52.72 52.97 53.03 53.18 52.47 51.29 50.85 49.74 50.70 48.25 46.11 42.03 40.89 38.39 37.08 39.12 37.01 36.57 35.99 35.67 35.25 35.47 37.09 37.44 36.64 36.83
58.39 58.35 57.73 57.03 57.12 56.53 56.42 56.47 55.86 56.13 56.24 55.41 54.83 53.62 52.80 51.81 52.12 53.03 53.28 53.10 52.15 51.39 50.80 49.48 48.34 46.89 44.94 42.85 42.13 39.46 33.61 34.68 35.97 33.66 35.12 34.43 33.55 33.21 35.49 37.76 38.17 37.02 35.93

GFSGL_sfc_wetblb_024.txt.gz
Wetbulb
71.14 71.43 71.45 71.50 71.60 71.56 70.75 70.87 70.65 71.40 71.84 72.36 72.77 72.20 71.15 69.38 68.48 67.35 66.88 66.59 66.03 65.97 65.84 64.40 64.05 64.80 63.55 63.63 63.51 62.82 61.54 60.83 60.44 61.86 62.17 63.38 64.20 65.50 65.83 65.79 65.42 65.91 65.87
71.35 71.70 71.66 71.73 71.76 71.26 71.16 71.44 71.71 71.25 71.90 72.04 72.28 72.16 71.32 69.65 68.76 68.06 66.84 67.02 66.11 65.44 65.72 65.27 64.71 63.82 64.07 64.05 63.14 63.83 62.84 62.94 62.16 62.34 61.93 62.66 63.74 64.56 65.10 65.47 65.26 65.58 66.01
70.36 71.61 71.64 71.57 71.31 71.24 71.28 71.81 71.45 71.74 71.81 72.05 71.97 71.59 71.01 70.11 68.26 68.51 68.28 67.41 67.00 66.53 66.08 65.81 65.30 64.69 64.31 64.05 64.15 63.51 63.51 63.12 63.58 62.10 62.66 62.64 63.37 63.52 64.24 64.26 64.28 64.68 64.67
70.27 70.48 71.05 71.40 71.55 71.68 71.73 71.98 71.72 71.90 71.73 71.78 71.80 71.72 71.09 70.51 69.35 68.39 68.19 67.90 67.45 67.36 66.96 66.20 65.78 65.12 64.40 64.45 64.70 65.02 64.88 64.36 63.96 62.96 62.45 62.93 62.83 62.91 63.01 62.07 61.95 62.94 62.37
70.05 69.98 70.63 71.25 71.78 71.95 72.25 72.35 72.30 72.13 72.00 71.78 71.66 71.56 71.41 70.54 69.91 69.12 68.13 67.70 67.45 67.25 67.06 66.53 66.23 66.01 65.62 64.77 64.64 65.12 65.49 63.87 64.31 63.30 62.36 62.31 62.01 61.78 61.74 61.23 59.43 60.28 61.62
70.13 70.04 71.07 71.45 71.44 71.46 71.65 72.03 72.36 72.41 72.38 71.72 71.35 71.29 70.89 70.85 66.58 65.51 68.42 68.20 67.81 67.22 65.91 66.71 67.30 66.35 65.62 63.87 63.61 63.74 65.12 64.23 64.12 63.33 62.29 61.83 62.23 63.03 62.01 60.14 59.55 58.58 58.72
70.25 70.67 71.13 71.51 71.56 71.70 71.92 71.63 71.49 71.43 72.13 71.33 71.21 71.02 70.88 71.28 63.78 64.02 66.04 69.06 68.45 67.76 67.02 66.11 65.55 66.84 65.86 66.74 63.69 63.01 63.07 62.73 63.80 64.53 63.47 60.76 61.78 64.27 62.55 59.40 58.35 60.12 59.88
70.13 70.54 71.43 71.68 71.80 72.20 72.32 72.10 71.99 71.94 71.44 71.49 71.20 71.01 70.94 70.70 62.98 62.21 64.95 69.46 68.70 68.05 67.65 66.82 66.80 66.97 66.51 65.87 65.87 65.69 65.27 65.73 64.63 64.02 65.89 64.25 63.51 64.84 63.10 62.33 62.18 61.25 60.95
70.36 70.54 71.31 71.90 71.78 72.15 72.13 72.27 72.62 72.27 71.95 71.80 71.93 71.23 70.98 71.04 61.49 60.45 63.63 68.74 68.06 67.63 67.58 67.25 67.11 66.98 62.57 61.25 66.31 65.48 65.35 64.08 61.49 60.86 60.73 59.95 60.07 59.68 62.37 62.07 59.13 58.01 58.06
70.60 71.26 72.08 72.42 72.10 72.07 72.56 72.89 73.30 73.25 72.62 72.62 71.96 71.68 69.23 71.55 59.77 59.42 63.19 68.93 67.81 67.22 67.40 67.56 62.74 65.71 59.06 58.18 66.65 66.60 64.98 63.41 63.67 63.53 62.83 60.57 59.48 58.86 58.82 62.48 60.45 57.13 56.46
70.76 71.94 72.39 72.89 72.85 72.50 72.84 73.44 73.54 73.53 73.25 72.45 72.35 72.11 72.19 71.01 68.69 57.92 58.56 68.98 68.75 67.11 67.13 66.61 66.61 58.74 55.89 54.38 58.71 65.90 63.34 63.08 62.27 63.54 61.56 58.86 57.76 57.72 57.56 58.14 59.45 58.35 56.32
70.99 71.55 72.03 72.89 73.35 73.55 72.95 73.06 73.24 73.43 72.99 72.38 71.82 71.95 72.52 72.33 63.50 56.05 56.53 62.37 64.31 67.70 66.73 66.35 65.11 55.61 53.55 52.46 55.53 57.68 54.59 58.65 60.85 59.08 57.59 56.00 56.19 57.20 56.07 56.67 56.95 57.90 58.78
69.89 70.97 72.22 72.87 73.51 73.69 73.40 72.78 72.92 73.21 72.71 72.08 71.60 71.55 71.17 69.93 61.18 55.14 56.81 58.63 59.31 65.46 65.91 62.71 55.53 50.09 49.53 52.28 54.60 53.65 54.90 60.30 58.41 56.70 55.89 55.28 56.26 57.49 56.24 54.80 54.70 54.38 53.98
68.49 69.38 71.11 72.26 72.68 73.69 73.68 73.57 73.00 72.77 72.04 71.69 71.55 71.17 70.16 65.72 64.10 62.44 63.41 60.75 57.90 61.50 58.26 58.86 56.67 56.51 56.25 57.22 56.81 56.03 60.39 58.89 57.37 56.68 54.84 55.47 55.94 55.21 53.83 53.06 53.01 51.47 50.53
66.50 68.19 69.56 71.23 71.04 73.04 65.10 68.28 72.98 73.63 71.84 72.70 71.57 70.11 66.63 65.70 65.16 60.01 59.65 61.09 61.82 58.94 57.74 59.55 58.83 58.70 57.85 57.53 57.71 57.33 56.97 56.26 55.05 54.68 54.94 55.17 55.33 54.34 52.87 51.50 50.40 49.72 49.48
68.62 66.96 68.38 70.35 71.47 63.21 61.32 57.58 48.84 53.55 54.28 52.28 54.09 62.55 62.55 55.55 50.68 49.56 51.01 49.20 48.29 49.93 60.20 60.47 59.48 59.01 58.50 56.85 56.00 55.44 55.06 54.71 55.05 54.80 55.48 55.58 55.24 53.33 51.38 48.99 49.06 49.16 48.16
69.89 68.91 68.89 68.10 65.25 63.56 65.80 64.80 60.57 54.42 52.28 51.92 52.64 53.73 54.82 55.73 49.56 46.66 46.12 45.21 46.66 52.38 60.60 60.45 60.03 58.24 57.45 56.64 56.05 55.22 55.18 55.87 55.87 55.19 55.28 54.73 52.89 50.16 48.16 48.48 48.33 47.57 47.32
70.97 60.26 67.42 66.52 66.27 67.60 66.05 65.10 63.23 61.04 59.63 58.30 51.92 52.44 51.38 48.48 46.12 45.94 45.76 47.32 56.41 56.83 60.13 59.05 58.02 56.93 56.28 55.95 55.70 56.00 56.04 55.15 55.63 55.21 53.64 50.91 48.71 48.23 48.14 47.83 47.01 46.63 46.94
63.81 65.88 66.54 66.88 66.77 62.82 62.04 61.80 61.97 61.80 60.61 58.81 53.86 49.34 46.92 43.40 43.22 44.11 48.48 61.04 59.76 59.07 58.03 57.57 57.11 56.60 56.34 56.06 55.90 55.74 54.68 54.03 52.41 50.20 48.75 47.89 47.85 48.64 48.07 47.46 46.68 43.73 44.93
62.88 59.77 60.58 63.47 63.08 62.27 62.00 61.33 61.14 61.12 58.24 57.22 59.35 54.52 49.53 52.34 54.05 56.21 57.53 58.34 59.36 57.81 56.94 57.24 56.76 56.53 55.02 55.30 54.36 53.02 51.24 49.73 49.60 49.09 48.56 47.54 47.48 48.20 47.63 46.87 46.91 46.80 47.19
63.54 63.70 60.60 61.83 61.22 61.62 61.66 61.09 61.07 60.20 59.24 59.95 60.49 56.55 52.28 60.50 57.49 57.27 56.40 57.08 57.88 56.81 56.27 56.24 55.15 54.56 54.23 53.69 52.71 51.81 51.72 51.16 50.20 49.88 48.57 47.95 47.67 46.90 46.73 47.34 47.06 46.75 46.53
64.00 64.33 62.80 61.75 61.39 60.96 60.92 61.23 61.33 60.47 59.44 58.60 56.98 52.27 46.79 58.35 57.40 56.66 55.97 56.86 57.46 58.03 57.38 56.02 54.14 54.55 53.86 53.09 52.58 52.28 51.74 50.94 49.62 48.28 47.68 47.01 46.66 46.45 46.76 46.83 46.57 46.67 46.04
62.94 64.26 63.45 62.86 62.29 58.32 60.25 59.72 59.11 59.13 58.38 56.49 54.84 53.93 55.10 56.80 57.02 56.62 56.41 56.50 56.23 55.73 55.55 55.28 54.49 53.62 53.65 53.70 53.73 53.05 51.71 50.43 49.85 48.31 47.42 46.14 45.65 46.20 46.32 46.46 46.27 46.07 45.63
61.02 61.15 61.09 61.25 60.75 62.01 61.69 60.27 58.46 54.00 56.65 55.34 54.86 55.46 56.01 56.24 56.06 56.23 56.63 55.68 55.70 55.30 55.30 54.45 54.19 54.23 53.48 53.45 51.99 50.25 52.08 51.21 49.45 48.44 47.99 46.93 46.27 43.61 45.40 45.31 45.63 45.54 45.51
59.02 58.97 60.07 60.72 60.90 59.31 59.53 59.35 58.70 58.30 57.71 57.25 56.63 55.02 54.53 53.98 53.94 55.51 56.03 55.40 55.60 55.41 55.55 54.84 54.46 54.81 54.64 53.38 51.06 51.74 45.00 37.83 46.88 42.20 47.04 46.80 45.71 44.53 43.72 43.91 45.45 45.30 45.16
58.97 59.43 58.16 58.22 58.04 59.13 58.58 57.92 57.86 58.38 58.06 57.83 57.62 57.05 55.37 55.24 55.04 55.16 55.52 55.72 55.84 55.94 55.65 55.47 54.51 55.10 54.99 53.58 52.58 44.59 33.46 35.13 40.90 37.19 45.52 44.75 43.77 43.14 42.71 44.23 45.66 45.61 45.04

GFSGL_sfc_wetblb_027.txt.gz
Wetbulb
74.52 75.01 74.78 74.99 75.29 75.64 75.63 75.86 76.05 76.74 76.90 76.71 76.72 76.53 76.47 76.21 75.64 74.87 74.52 73.33 71.93 71.86 70.96 70.52 70.46 71.16 69.10 68.91 69.05 68.43 67.56 66.69 64.56 66.44 67.90 69.86 68.81 69.10 69.16 70.66 69.93 70.29 69.55
74.49 74.76 74.73 75.06 75.14 75.01 75.02 75.87 76.24 76.19 76.59 77.11 76.86 76.51 76.19 76.16 75.85 74.73 74.23 73.41 72.12 71.50 71.29 70.64 70.09 69.22 69.69 69.88 68.56 69.14 68.38 68.41 66.02 66.58 68.07 67.48 68.28 69.52 70.12 70.00 69.17 68.77 69.43
74.51 74.58 74.80 74.83 74.72 74.70 75.06 75.73 76.15 76.21 76.41 76.08 76.76 76.60 76.00 75.72 75.51 74.96 74.80 74.04 72.85 72.62 71.93 70.96 70.50 70.25 69.01 68.06 68.30 67.71 67.70 68.20 67.81 66.26 65.94 68.23 68.22 68.55 68.57 69.31 69.42 68.95 68.38
73.66 74.22 74.42 74.71 74.99 74.94 75.32 75.72 75.92 76.29 76.22 76.41 76.81 76.95 76.47 75.65 75.55 74.84 74.47 74.37 73.52 72.97 72.60 71.67 71.08 70.49 69.75 68.86 68.34 68.88 68.75 67.87 67.89 66.39 66.33 66.28 66.97 68.63 67.87 66.41 66.09 67.07 66.11
73.70 73.74 74.19 75.15 75.74 75.75 75.45 75.61 76.06 76.27 76.10 76.44 76.59 76.70 76.52 75.55 74.80 74.80 74.60 74.03 73.64 73.09 72.95 72.17 71.63 70.86 68.17 68.07 68.60 69.63 69.95 67.91 67.04 66.56 66.00 66.11 65.68 65.01 63.15 66.02 64.96 64.99 65.73
73.32 72.99 74.39 75.45 75.51 75.45 75.48 75.57 75.94 75.94 75.87 76.45 76.22 76.36 76.19 75.01 68.81 67.47 72.78 73.87 73.66 73.81 73.00 72.64 72.33 69.08 67.57 64.53 64.63 65.96 69.45 69.08 68.40 66.67 66.35 65.81 66.97 64.06 65.67 65.37 64.72 63.64 61.75
73.26 73.59 74.11 74.83 75.01 75.09 75.56 75.72 75.36 75.58 75.87 75.74 75.82 76.06 75.87 76.18 64.87 64.77 67.09 74.67 73.62 73.91 73.66 73.39 71.93 71.01 67.98 69.03 64.41 63.40 63.91 64.17 65.83 69.61 67.77 67.91 66.69 65.88 66.66 65.95 65.50 64.37 63.54
73.34 74.00 74.02 73.87 74.46 75.20 75.37 75.19 75.54 75.66 75.44 75.50 75.52 75.77 75.75 75.66 63.48 62.68 65.78 74.20 74.48 74.43 74.25 73.59 72.75 72.07 70.50 69.55 70.65 68.59 68.21 67.74 67.67 67.95 69.54 69.76 67.92 68.62 67.57 67.84 67.23 66.60 66.16
73.12 73.69 74.23 73.98 74.50 74.97 74.49 74.62 75.07 75.35 75.44 75.49 75.97 75.84 75.38 75.83 61.71 61.33 65.14 72.92 74.02 74.19 74.30 73.76 72.80 72.15 66.34 62.48 69.91 69.17 68.09 68.59 63.97 61.72 62.77 61.61 60.80 61.40 64.38 66.97 64.81 62.93 61.51
73.41 73.75 74.43 75.20 74.88 74.69 75.07 75.14 75.41 75.55 75.22 75.44 75.65 76.03 72.30 75.70 61.03 59.75 64.37 73.58 73.41 72.82 73.87 73.22 63.79 69.29 60.06 59.03 69.39 69.82 68.80 69.27 69.16 67.75 66.70 62.51 62.59 63.36 60.13 67.30 65.12 60.96 59.39
74.10 74.57 75.36 75.95 75.72 75.53 74.66 75.69 76.26 75.82 75.74 75.40 75.21 75.57 75.57 74.19 73.42 58.46 58.60 73.66 73.30 72.35 71.87 70.29 71.65 59.60 55.87 55.45 59.86 71.06 69.08 69.76 66.61 67.96 66.56 66.25 65.91 65.13 63.86 63.98 64.16 61.99 59.62
74.61 75.10 76.11 76.31 75.61 75.19 75.55 74.98 76.17 74.84 75.33 75.59 75.29 73.84 74.58 75.68 65.64 57.32 57.10 63.09 66.78 72.46 70.01 70.89 71.07 56.51 54.00 53.36 58.59 60.13 55.93 62.34 67.69 66.65 65.44 63.82 63.27 61.85 62.08 62.70 63.53 63.11 62.60
74.52 75.31 75.91 76.54 76.48 76.67 76.09 75.80 73.45 72.94 72.75 73.33 72.33 72.40 72.87 72.95 73.56 57.62 55.29 57.24 60.86 70.23 70.95 67.49 59.19 52.93 53.11 54.68 55.07 54.82 56.22 67.17 66.20 64.44 63.67 63.02 62.13 62.38 62.54 61.86 61.27 61.54 61.21
74.34 74.90 75.51 75.77 75.74 76.57 75.86 75.59 74.50 72.86 72.09 71.44 71.65 71.17 71.67 72.43 70.67 63.05 61.90 62.80 60.70 64.17 60.68 59.80 59.05 59.23 58.60 61.00 58.11 58.80 67.10 67.34 65.60 64.45 63.82 62.49 61.92 61.27 60.46 60.35 59.08 58.91 57.15
73.32 73.23 73.98 74.39 74.22 75.62 76.13 75.66 74.41 74.37 73.44 73.45 74.29 72.16 71.94 66.68 63.63 57.76 60.82 63.81 64.02 60.86 59.87 61.42 62.01 62.08 61.42 62.17 64.09 63.80 66.12 64.21 63.91 63.42 62.14 60.49 60.31 60.56 60.02 59.81 59.07 57.86 55.04
71.37 72.35 71.96 72.56 73.60 74.62 74.27 69.40 53.63 52.95 54.74 53.47 56.19 68.22 68.72 57.14 50.03 50.75 51.30 51.30 51.48 54.02 61.85 62.55 63.44 62.77 62.82 63.19 62.53 62.66 63.86 62.32 63.25 61.91 61.45 60.64 60.13 60.15 59.69 58.35 57.08 55.17 54.06
68.22 69.86 71.31 68.37 72.10 73.61 67.69 69.51 65.51 55.81 48.22 50.03 50.94 51.84 53.11 52.93 50.39 50.03 50.57 50.39 50.57 53.65 62.78 63.05 63.20 63.17 63.56 62.76 62.93 62.77 62.74 62.54 62.35 61.15 60.77 60.59 60.88 60.49 56.81 55.95 54.91 54.26 52.53
68.49 57.72 66.55 69.66 71.90 68.48 68.68 66.65 62.97 62.62 60.92 58.12 49.47 53.76 48.58 48.76 47.85 48.22 50.03 52.57 54.86 59.21 64.11 63.47 63.09 62.89 62.69 61.86 62.15 62.92 62.11 61.48 60.83 61.10 60.95 60.87 60.18 58.26 55.52 54.63 53.88 52.35 51.57
67.21 65.95 65.97 65.08 63.06 63.52 66.58 65.88 64.83 62.19 60.64 59.83 53.34 48.58 45.72 43.68 45.13 46.58 47.13 61.39 60.32 62.15 64.09 63.83 64.01 63.31 62.19 62.41 62.13 61.86 61.82 61.43 61.34 60.86 60.28 59.00 57.47 55.84 55.04 54.18 52.77 47.28 48.00
66.46 59.60 62.18 64.83 63.01 60.79 61.75 61.63 61.79 61.80 60.61 57.62 57.96 56.05 52.28 53.41 56.28 56.90 61.99 62.37 62.39 63.29 64.04 64.03 64.69 64.44 62.96 62.28 61.93 61.53 60.84 59.29 59.50 58.73 57.63 56.66 55.79 55.17 53.64 52.61 51.81 51.16 50.83
65.38 66.51 60.91 66.19 65.03 64.07 62.05 61.35 62.22 60.78 60.26 61.28 59.59 56.20 51.48 61.35 58.77 60.30 62.38 62.14 62.62 65.17 65.43 65.28 64.13 62.93 61.61 61.80 61.34 60.47 59.09 58.15 57.61 57.30 56.55 55.88 54.78 53.06 53.34 52.80 52.02 51.49 50.81
66.37 66.17 65.67 64.24 64.90 63.64 62.74 62.76 62.29 61.65 61.57 60.27 56.84 53.31 46.95 62.72 61.97 61.84 63.06 64.93 64.19 64.45 64.71 63.28 62.64 62.07 62.02 61.00 59.74 59.10 57.67 57.66 57.71 56.99 56.16 55.20 54.18 53.23 52.65 52.02 51.44 51.01 50.60
65.38 65.07 64.38 63.90 64.56 59.88 62.31 61.64 61.15 60.29 59.21 58.35 58.03 58.70 61.66 62.99 62.74 62.40 62.47 63.25 63.33 62.06 62.25 63.23 62.65 61.51 61.13 60.56 60.09 59.32 58.80 58.25 58.21 57.60 56.00 54.66 53.34 52.75 52.15 51.38 50.90 50.31 49.47
66.20 65.70 64.21 63.64 63.66 63.15 62.55 60.76 60.42 55.72 59.11 59.68 59.67 60.75 62.08 61.07 60.25 59.81 61.36 62.67 62.70 62.65 62.67 62.20 61.54 60.90 60.56 60.35 59.99 60.15 60.28 59.67 58.65 57.37 56.06 54.38 53.06 50.47 51.86 51.24 50.23 49.06 49.13
62.65 60.14 62.05 64.70 64.63 63.73 63.29 60.98 59.95 58.81 58.45 58.63 57.86 57.66 57.87 60.10 61.05 61.70 62.28 62.47 62.47 62.36 61.52 61.22 61.24 61.36 60.67 60.44 59.61 59.03 50.65 42.66 55.38 48.99 55.21 54.09 52.66 52.30 51.08 49.89 49.25 48.87 49.05
59.07 58.89 57.69 59.36 59.77 60.82 61.73 62.13 61.78 58.99 58.20 58.05 56.96 56.50 57.18 57.04 58.30 60.12 60.96 61.57 61.34 60.93 61.21 61.04 61.07 61.07 60.87 60.38 58.83 48.73 35.49 36.65 46.97 39.93 53.28 52.94 51.86 50.98 49.99 49.20 48.66 48.30 48.89

GFSGL_sfc_wetblb_033.txt.gz
Wetbulb
79.19 79.32 79.51 79.78 80.08 80.68 79.88 80.53 80.69 81.01 81.60 80.09 80.74 79.91 79.74 79.66 80.27 80.39 79.65 79.61 78.59 78.14 77.20 76.96 75.85 76.80 70.88 70.53 70.75 70.39 69.50 69.12 66.06 67.62 69.73 73.53 73.33 72.34 71.78 72.44 71.91 72.75 70.24
79.40 79.37 79.32 79.94 79.98 80.09 80.34 80.27 81.31 81.17 81.01 81.28 80.94 80.56 79.97 79.62 79.96 80.01 79.09 77.51 78.81 77.27 76.54 76.85 75.26 72.89 75.48 75.54 71.17 75.17 71.84 73.28 68.39 72.70 72.15 70.67 72.41 74.48 74.17 74.60 71.25 70.06 71.00
78.51 78.72 79.48 79.29 79.86 79.42 80.15 80.63 80.77 81.10 81.20 80.93 80.72 80.85 80.16 79.69 79.78 80.35 79.98 79.35 79.24 78.66 78.15 77.64 76.41 75.63 75.29 72.12 72.46 71.18 70.27 71.00 71.09 68.37 67.95 69.89 70.68 71.30 72.17 73.67 73.67 73.23 71.06
77.20 77.70 78.31 79.42 79.49 79.78 80.26 80.67 80.78 81.13 80.79 80.63 80.69 80.64 80.69 80.32 80.01 79.97 79.69 79.47 79.24 79.02 78.79 78.61 77.93 76.63 75.13 75.19 73.96 73.58 73.11 71.20 70.65 68.68 68.06 67.71 68.94 72.61 70.60 68.56 68.40 70.22 69.64
78.10 78.00 78.26 79.68 80.32 80.43 80.21 80.72 80.87 80.96 80.82 81.00 80.53 80.56 80.95 80.52 79.16 79.57 79.30 79.10 79.15 79.11 79.14 79.05 78.76 76.88 72.24 73.20 73.07 73.42 73.42 70.95 67.69 67.86 67.72 68.03 67.51 68.52 69.25 69.33 68.64 68.16 70.35
78.58 78.06 79.08 79.84 80.29 80.39 80.76 80.56 80.92 80.58 80.80 80.75 80.46 80.27 79.95 79.77 71.72 69.01 76.41 79.04 79.27 79.12 78.51 79.07 79.02 73.61 72.05 67.76 67.36 68.10 72.63 73.82 72.41 69.79 69.02 68.90 73.04 71.73 70.06 68.61 68.44 66.22 64.91
78.06 78.95 79.10 79.81 79.85 80.42 80.79 80.83 80.14 80.22 80.70 80.39 80.22 80.48 80.10 80.43 67.97 66.23 68.83 79.10 79.17 78.84 79.24 79.06 78.46 76.82 74.33 75.30 67.05 66.10 65.90 65.85 68.72 74.28 72.13 72.09 73.55 74.27 74.44 70.90 71.14 69.60 67.33
78.02 78.18 79.09 79.33 79.85 80.56 80.72 80.31 80.53 80.70 80.25 80.25 80.14 80.48 80.28 80.32 67.89 63.75 66.70 77.48 78.60 78.79 79.01 79.20 78.93 77.92 77.69 76.46 75.71 72.67 72.41 72.24 71.67 70.99 73.26 74.05 74.50 75.07 72.64 72.80 72.14 71.36 70.44
78.15 78.19 78.53 79.54 79.47 79.93 79.63 80.05 80.45 80.11 80.11 79.85 80.29 80.42 80.16 80.14 66.01 63.11 65.62 76.46 77.16 77.69 78.48 79.38 79.33 79.21 71.97 66.41 76.12 74.94 73.35 72.53 66.60 64.71 64.60 64.78 65.94 64.85 68.37 70.91 68.01 67.56 65.84
77.49 78.77 79.32 80.22 79.74 79.60 79.96 80.39 80.50 80.33 79.68 79.40 79.64 80.24 76.19 79.99 68.18 62.14 65.03 76.65 76.28 76.53 77.85 78.90 68.38 76.29 66.57 62.42 75.26 75.23 73.02 72.54 72.41 69.78 67.29 65.35 66.17 65.38 63.15 71.04 69.20 65.58 65.20
78.03 79.22 79.68 80.09 80.05 80.18 80.33 80.84 80.59 80.22 79.35 79.49 79.26 79.65 80.05 78.66 78.94 60.55 60.27 77.04 76.48 76.24 76.38 76.81 78.18 64.29 61.18 58.43 65.02 74.91 73.61 74.49 70.83 71.75 69.83 69.93 69.84 70.27 69.19 68.61 70.89 68.10 65.94
79.12 78.73 79.42 80.11 79.06 79.13 80.34 80.67 81.07 80.33 79.52 79.23 78.90 78.86 79.54 80.12 69.73 63.92 58.84 63.46 71.92 76.46 76.30 77.01 77.21 60.66 58.12 56.37 61.14 64.67 60.20 66.85 72.64 70.43 70.15 69.45 69.00 68.73 69.44 69.66 70.53 70.29 68.92
79.98 80.01 80.14 80.49 80.33 80.26 80.22 80.10 78.62 79.54 77.90 77.57 77.31 77.82 78.04 79.37 79.58 62.91 57.36 58.07 61.73 73.33 77.08 72.53 66.31 56.15 55.90 56.71 60.34 58.77 59.67 71.27 71.01 69.04 68.82 68.85 69.65 70.02 71.15 70.54 70.46 70.05 69.02
79.74 80.17 80.21 80.27 79.65 79.75 77.86 78.17 77.35 76.81 76.93 76.57 76.57 76.77 77.29 77.82 78.29 79.60 73.30 65.93 59.89 65.92 64.89 70.19 63.43 62.56 63.37 65.59 62.43 62.99 68.98 70.34 70.14 69.68 68.38 69.90 69.45 69.26 66.24 66.40 64.46 63.78 62.30
76.87 76.81 77.15 76.77 77.60 78.96 79.09 76.95 77.17 78.42 75.05 76.81 76.96 76.85 76.39 76.49 76.90 71.89 73.25 77.22 73.36 69.33 70.31 68.44 66.91 67.16 65.30 64.42 65.32 65.19 67.04 69.12 69.39 67.90 67.43 67.81 67.97 65.88 65.96 66.09 64.37 62.99 61.21
76.46 76.38 76.04 76.08 76.52 76.79 76.90 77.34 59.64 60.66 57.13 51.36 48.09 59.48 73.82 59.65 55.07 52.39 52.81 53.35 54.62 54.38 69.12 67.47 66.11 66.48 65.10 64.26 65.33 65.30 66.91 66.86 69.34 68.24 66.48 67.25 66.39 63.59 64.96 64.59 62.80 62.74 61.40
74.18 74.41 74.47 71.31 73.73 74.03 75.55 75.37 74.58 68.20 52.08 51.90 48.27 48.64 47.00 49.90 50.27 47.91 47.73 50.45 51.36 56.33 69.62 67.38 66.37 65.96 65.58 65.58 66.01 65.87 65.80 68.29 67.72 67.90 66.47 65.45 65.47 65.61 63.25 62.75 62.69 62.37 60.91
71.45 58.26 73.02 72.92 73.18 73.22 73.78 74.13 74.18 73.58 73.63 74.04 54.50 51.09 45.36 43.92 44.29 45.37 47.00 50.59 56.69 62.31 68.82 66.78 65.81 65.62 65.69 65.76 66.15 66.42 67.09 67.87 67.08 66.00 65.38 65.49 65.99 64.90 62.46 62.52 63.14 61.69 59.96
71.29 70.67 70.60 70.29 69.77 67.90 69.80 69.33 69.26 68.60 66.40 64.32 64.61 57.38 52.50 45.92 44.65 42.84 43.56 67.90 62.93 64.45 68.17 66.64 67.02 66.19 66.28 67.41 67.25 66.26 68.96 67.69 67.24 65.27 65.68 65.91 64.79 63.68 62.51 63.05 62.05 53.57 56.11
68.63 62.21 64.72 69.31 68.45 68.44 68.82 69.27 68.49 68.14 67.71 66.32 65.27 64.42 62.88 58.86 61.40 60.73 55.77 58.10 62.40 65.44 67.61 67.59 67.11 66.92 66.78 66.96 67.70 67.46 67.45 64.95 65.22 65.40 65.79 65.17 64.61 63.49 62.75 62.02 60.23 58.32 57.00
69.99 69.72 61.66 68.76 67.83 67.98 68.04 67.58 66.91 67.03 65.57 65.72 64.26 60.24 45.34 61.51 63.07 63.67 62.47 62.60 63.31 64.01 64.88 67.11 65.79 66.04 66.80 66.86 66.96 66.49 66.62 65.92 66.16 66.05 65.06 64.44 64.17 62.46 62.52 60.95 59.16 58.16 56.68
69.33 69.45 69.05 68.57 67.72 66.91 67.54 67.19 67.25 66.27 65.32 64.47 65.19 62.78 49.36 63.81 64.39 65.35 65.66 63.90 65.91 66.22 66.54 65.88 66.32 66.96 66.89 66.40 66.08 65.48 65.49 65.68 65.77 65.29 64.00 62.99 62.22 61.51 60.06 58.89 57.71 56.61 55.58
68.21 68.15 68.19 67.96 67.83 63.69 66.63 66.59 64.64 63.40 62.96 62.05 62.78 63.08 63.96 64.88 64.81 64.65 65.02 65.05 65.89 66.22 66.51 66.62 66.54 66.84 67.91 66.67 66.06 65.63 65.27 64.61 64.48 64.55 62.94 61.78 60.65 59.63 58.86 57.49 56.37 55.40 54.68
66.48 66.23 66.31 66.72 66.27 66.20 66.09 65.49 63.15 57.08 61.10 62.05 62.99 63.04 64.21 63.22 62.83 63.22 63.91 63.81 64.38 65.84 66.89 67.80 66.15 65.19 65.92 65.15 65.47 65.28 64.80 63.65 63.06 62.86 62.94 60.94 59.54 56.64 57.83 56.71 55.87 55.39 54.66
63.62 64.77 63.92 63.59 65.01 62.87 62.72 62.47 62.48 61.25 60.18 59.63 59.46 59.56 61.61 63.73 64.65 63.10 65.19 64.58 63.82 64.86 64.79 65.01 65.96 65.78 65.73 64.14 64.35 64.48 56.03 46.03 61.48 54.87 61.59 61.37 59.63 60.21 57.15 56.75 56.08 55.04 54.65
61.32 61.57 62.09 62.34 62.22 61.65 59.06 57.39 56.18 55.48 55.14 55.44 56.13 56.67 58.31 58.59 60.54 63.56 64.64 65.16 65.06 65.58 65.54 65.50 65.24 65.08 64.57 64.28 64.26 47.36 38.67 42.80 53.13 47.29 60.02 59.75 58.45 57.60 57.09 56.36 55.91 54.36 54.23

GFSGL_sfc_wetblb_036.txt.gz
Wetbulb
77.38 77.59 77.48 77.74 77.12 77.59 77.52 77.91 79.00 77.71 80.27 77.77 79.15 77.88 77.97 77.94 78.15 78.17 77.34 77.23 77.58 76.70 75.08 74.81 73.57 73.62 73.04 72.08 71.62 71.35 70.70 69.80 66.67 67.88 71.22 72.62 71.39 70.03 69.51 71.02 70.70 70.46 68.89
77.95 77.77 77.24 77.74 78.16 77.71 77.09 77.91 78.86 79.58 78.36 80.02 78.92 78.23 78.06 77.67 77.93 77.54 77.10 76.21 77.05 76.09 75.28 74.26 74.08 73.35 73.37 73.77 73.66 70.82 70.37 71.41 69.30 68.35 69.61 70.85 71.30 71.32 71.71 71.57 70.07 69.42 69.78
77.94 77.59 77.39 77.27 77.35 77.80 77.92 77.60 78.28 78.46 78.97 78.43 79.34 78.81 77.67 77.48 77.53 77.69 77.42 77.18 75.40 76.96 76.53 75.32 74.55 73.51 72.55 71.19 71.76 71.13 71.06 71.45 71.77 68.38 68.15 70.68 71.39 72.04 70.80 71.12 71.56 70.61 71.25
77.35 77.59 77.04 77.18 77.54 77.68 78.25 78.54 77.85 78.22 78.23 78.61 78.50 78.32 78.72 77.91 77.76 77.54 77.49 77.70 77.01 76.56 77.23 76.64 75.96 74.55 72.62 72.58 71.55 70.58 71.27 70.51 69.38 69.08 68.30 67.65 69.85 70.48 70.24 68.65 68.37 69.81 68.84
76.22 76.82 77.09 77.46 78.11 78.21 78.22 78.41 78.80 78.44 78.14 78.52 78.44 78.47 78.38 78.66 78.14 77.39 77.42 77.62 77.25 76.46 76.71 77.44 76.87 75.77 72.31 71.93 71.99 71.96 69.85 69.85 69.11 67.10 66.30 67.33 67.56 68.26 67.48 68.44 66.50 66.81 68.54
76.05 76.34 76.97 77.42 77.60 78.30 78.08 78.27 78.54 78.70 78.62 78.48 78.30 78.09 78.13 78.44 72.13 69.82 75.18 77.29 77.57 76.91 76.37 76.91 77.20 73.67 72.28 68.68 68.27 68.92 71.12 69.11 67.46 66.23 66.42 66.42 67.22 68.70 70.34 67.87 66.84 65.84 64.35
76.28 77.06 77.14 77.43 77.35 77.69 78.50 78.21 77.96 78.29 78.72 78.28 78.43 78.47 77.72 78.07 68.65 67.48 69.23 77.14 76.76 76.87 76.68 76.68 76.87 77.04 73.42 73.89 67.65 66.94 66.78 67.23 68.34 69.35 68.60 69.70 70.80 71.12 70.87 69.34 68.75 68.09 66.26
77.74 77.24 77.92 77.89 77.52 78.11 78.21 78.17 78.38 78.49 78.45 78.21 78.38 78.57 78.33 78.13 68.19 65.15 67.25 75.79 76.57 76.78 77.02 76.81 76.71 76.55 75.94 75.16 73.09 70.34 70.23 69.87 69.14 70.08 71.57 70.91 72.45 72.56 72.06 71.58 70.07 69.57 69.45
76.53 77.53 77.60 78.27 78.01 78.02 78.01 78.03 78.51 78.73 78.38 78.68 78.59 78.61 78.24 78.21 66.40 64.24 65.37 74.45 75.38 75.79 76.79 77.25 76.88 76.55 72.11 66.27 74.55 71.98 70.41 70.39 66.53 64.25 65.30 67.13 65.92 66.31 70.55 70.09 68.42 66.78 65.23
76.59 76.76 78.10 77.98 77.91 77.73 78.25 78.68 78.95 79.13 78.67 78.83 78.57 78.90 75.25 78.25 68.71 62.62 64.74 75.57 74.62 74.76 75.69 76.74 68.23 74.62 67.46 61.79 73.59 73.57 71.23 70.55 70.90 69.51 67.12 64.30 64.43 64.92 64.92 69.97 68.72 65.68 64.61
77.49 77.84 78.20 78.31 77.86 78.21 78.72 79.35 79.30 79.10 78.90 78.56 78.42 78.69 78.87 77.43 77.43 62.23 60.01 76.03 75.87 74.87 74.53 74.95 76.09 64.22 62.19 59.05 64.17 74.31 72.61 72.87 69.53 70.49 68.57 67.99 68.09 67.93 67.33 67.98 69.49 67.79 65.14
78.99 77.83 78.13 79.22 78.04 78.38 78.83 79.13 79.26 78.97 78.28 77.92 77.83 77.68 78.56 78.81 69.11 65.76 58.85 61.21 71.27 75.73 75.02 75.27 75.13 62.19 58.47 57.51 60.46 66.38 62.53 66.23 72.90 70.53 67.96 66.88 66.67 66.94 68.50 67.87 67.75 68.81 68.76
81.24 79.96 78.66 79.62 79.09 78.33 78.99 78.41 78.25 78.66 77.80 77.48 77.11 76.88 77.14 78.16 78.92 63.24 59.18 57.99 59.74 68.83 76.68 72.62 59.94 56.30 56.59 58.25 59.19 61.75 61.34 71.54 72.69 70.53 68.13 67.35 67.66 68.18 68.22 68.18 67.45 68.19 67.06
81.54 81.35 79.93 79.45 78.59 78.95 78.16 78.55 77.66 77.55 77.47 77.35 77.09 76.47 76.84 77.67 78.04 78.01 74.02 64.72 60.52 64.45 68.37 71.39 70.70 63.23 61.48 64.52 64.37 63.13 71.66 73.12 72.44 70.68 69.55 69.06 69.26 68.54 67.57 67.39 65.96 65.04 62.54
79.55 79.64 79.96 78.94 78.15 78.83 78.73 77.53 78.07 78.47 76.17 77.44 77.32 76.86 76.02 76.38 74.35 60.61 64.23 76.06 72.77 68.85 70.54 74.32 73.90 72.77 72.78 69.01 68.21 69.27 71.50 72.35 71.26 70.76 69.24 67.91 67.26 66.60 65.65 65.79 64.02 62.16 60.15
78.35 77.34 76.64 76.69 77.19 77.59 77.73 77.58 63.40 63.73 56.87 49.42 49.42 61.70 75.21 56.99 50.14 51.05 54.13 55.76 52.13 54.96 68.02 72.48 72.54 71.38 69.82 69.49 67.98 69.17 70.75 69.64 70.43 69.51 67.84 66.71 65.79 64.95 63.46 63.04 62.99 61.33 59.51
77.06 78.41 77.17 74.08 77.04 76.58 76.22 77.04 76.02 59.96 49.05 48.87 46.52 46.52 47.42 47.49 46.70 47.60 48.87 48.87 49.78 53.75 71.26 71.10 71.89 71.07 69.10 69.16 68.41 68.81 68.54 69.40 69.46 67.57 66.76 66.28 65.54 64.77 62.49 62.00 61.20 60.06 59.59
73.31 59.10 74.45 72.67 73.20 73.56 73.35 72.81 73.14 72.67 72.98 71.60 53.42 53.18 44.58 43.96 43.80 43.61 42.71 48.49 65.63 60.72 70.40 70.74 70.37 70.77 68.99 67.93 67.53 68.02 67.59 67.82 67.84 67.19 65.91 65.66 64.82 63.03 61.80 61.02 60.22 59.41 59.01
74.77 71.76 71.48 70.29 70.14 68.41 70.54 69.73 68.84 68.68 67.73 67.30 67.99 60.42 57.11 50.12 46.72 43.98 43.98 56.61 60.20 65.32 66.51 68.68 70.77 70.64 69.62 68.52 68.00 67.87 67.19 67.10 67.14 66.40 66.15 65.13 63.89 62.67 61.51 60.86 60.47 56.73 57.84
69.18 63.35 66.71 70.04 69.37 69.85 69.63 69.24 68.92 68.36 68.36 67.47 65.57 63.08 62.96 61.50 64.70 64.69 65.12 60.03 59.13 59.78 62.50 64.08 64.62 66.14 68.47 68.29 67.84 67.05 66.58 65.97 65.76 65.93 65.38 64.22 63.41 62.76 61.30 60.63 60.21 56.62 57.90
68.73 69.65 64.83 68.75 68.52 68.69 68.84 68.31 68.07 67.59 66.39 66.05 64.95 58.96 47.22 60.44 64.31 65.21 65.04 63.50 62.88 65.35 67.24 66.22 66.42 66.49 66.33 66.26 67.01 67.01 66.47 65.61 65.28 65.42 64.61 63.94 63.55 62.33 61.62 60.87 60.42 58.64 56.22
69.92 69.44 69.09 67.45 67.29 67.22 67.59 67.03 66.39 65.32 64.04 63.64 64.12 60.85 49.23 63.50 65.17 65.92 66.32 66.26 66.99 68.23 68.63 67.28 65.13 65.67 65.00 66.11 65.92 65.51 64.84 64.66 64.65 64.36 63.73 63.59 62.49 61.69 61.45 60.73 59.70 58.10 56.27
67.69 67.78 67.84 67.27 66.58 64.61 64.98 63.77 62.91 62.18 62.28 63.58 64.16 64.16 64.47 64.02 63.98 64.37 64.79 65.81 66.80 66.98 67.79 67.01 67.82 67.48 67.57 67.17 65.98 65.60 64.40 63.83 64.26 64.30 62.71 62.28 61.48 60.86 60.10 58.35 57.29 56.18 54.87
65.69 65.43 65.45 63.55 62.41 61.54 61.66 61.88 60.47 56.35 59.10 59.97 59.58 60.60 62.71 63.93 64.87 64.61 65.22 66.31 66.66 66.80 67.46 65.23 65.64 66.01 64.84 64.54 64.54 64.48 64.21 64.23 63.93 63.27 62.66 61.55 60.07 56.02 58.17 57.29 56.29 55.49 54.27
63.20 63.37 62.25 61.61 60.56 59.86 58.27 56.68 55.64 54.92 55.06 55.31 55.93 56.88 58.19 59.54 60.63 61.71 61.43 65.38 66.36 66.80 65.81 66.19 64.56 64.70 63.86 63.57 63.55 62.92 51.03 48.43 60.97 55.25 61.50 61.11 59.77 58.41 57.25 56.27 55.49 54.65 54.42
59.76 60.42 60.15 60.11 60.64 59.42 57.14 55.11 54.27 54.86 54.17 53.77 53.72 54.68 55.47 55.48 56.38 58.34 59.28 59.16 60.01 63.83 66.34 66.74 66.38 66.00 64.48 64.34 63.96 49.93 40.12 42.72 50.56 48.61 60.24 59.21 58.50 57.47 56.53 56.05 56.67 54.42 54.17

GFSGL_sfc_wetblb_039.txt.gz
Wetbulb
74.32 74.11 74.67 74.29 73.30 74.62 74.42 72.50 74.29 72.92 73.72 73.38 75.02 75.09 74.95 75.16 75.78 75.20 74.04 73.87 74.16 73.49 72.54 71.48 70.43 69.37 66.80 66.93 66.34 65.73 64.49 63.29 60.13 61.68 64.68 66.39 66.00 66.12 67.11 67.35 68.34 67.53 65.56
74.84 74.32 74.41 75.21 74.67 73.60 74.58 74.52 73.03 74.76 73.86 75.37 75.82 75.20 75.39 75.09 74.82 75.30 74.23 74.61 73.21 73.32 72.82 70.75 70.81 71.26 68.10 68.07 69.10 64.81 64.56 65.40 62.53 60.47 64.62 65.89 65.39 65.32 64.94 65.36 67.44 68.75 66.96
74.81 74.88 74.50 74.54 75.10 73.97 74.16 74.74 75.09 73.88 75.74 74.26 75.85 75.50 75.25 75.41 75.20 75.11 75.28 74.58 73.58 74.47 73.97 72.09 70.97 70.66 69.01 68.43 67.83 67.30 66.49 65.39 66.62 63.71 63.74 66.42 66.80 67.05 66.86 67.22 66.45 65.70 67.08
74.54 74.77 74.74 74.93 75.00 75.42 74.92 74.52 74.10 75.76 75.17 76.50 74.57 75.63 75.74 75.79 75.52 75.67 75.30 75.02 74.64 73.73 74.53 74.03 72.81 71.61 70.57 69.32 67.81 66.82 66.56 65.47 64.02 63.99 62.78 62.49 64.16 67.36 65.98 65.14 65.00 67.01 66.14
74.27 74.77 74.85 75.30 75.28 75.32 75.25 75.67 75.50 74.40 75.96 75.46 75.83 75.56 76.14 75.69 75.99 75.31 75.49 75.21 74.81 74.80 73.61 75.13 74.59 73.46 71.11 69.80 69.88 67.90 66.51 65.86 64.63 62.93 62.80 63.43 63.23 64.80 66.08 65.84 64.79 65.23 66.05
73.78 74.19 75.42 75.15 75.19 74.91 75.16 75.21 75.84 75.71 74.77 75.31 75.26 75.41 75.66 76.42 70.94 69.27 73.97 75.11 75.13 74.93 74.48 73.63 75.29 72.79 71.44 67.77 67.55 68.07 68.94 66.24 65.30 65.61 64.10 62.88 64.40 64.80 65.31 66.12 65.40 62.26 61.77
72.83 73.99 74.76 75.02 74.74 75.02 75.16 75.45 75.24 75.69 76.09 75.21 75.17 75.69 75.31 75.93 67.64 66.98 69.31 75.53 74.99 75.22 75.11 74.80 73.74 75.37 72.12 73.63 67.34 66.79 67.00 66.59 66.36 66.23 65.53 64.90 64.20 65.80 66.21 65.40 64.54 62.85 62.24
72.89 73.02 74.08 74.60 74.83 75.06 75.30 74.85 75.62 75.82 75.87 75.95 75.85 75.73 76.08 76.13 67.22 65.20 67.22 75.04 75.22 75.08 75.71 75.51 74.87 74.66 74.47 73.95 73.48 70.41 69.86 69.46 68.36 67.64 66.65 66.50 67.31 68.43 68.59 67.92 66.19 65.41 65.67
72.94 73.16 73.81 74.80 74.49 75.03 74.84 75.32 75.62 75.63 75.72 75.97 76.56 76.31 75.97 76.18 65.07 64.09 65.20 73.71 74.83 74.83 75.33 75.52 75.75 75.09 71.06 65.38 73.78 72.06 70.63 70.25 66.47 63.74 65.04 65.69 64.76 65.73 68.77 68.47 65.59 64.46 63.04
73.72 74.59 74.89 74.99 75.02 74.49 75.04 75.32 75.96 76.27 76.02 76.40 76.06 76.77 73.55 76.51 66.67 61.89 64.69 74.22 74.08 74.24 74.66 74.82 67.78 72.68 66.13 62.48 72.56 73.26 70.96 70.56 70.30 69.21 66.47 63.83 65.16 66.35 65.85 68.87 66.67 63.90 62.81
73.66 73.42 74.84 75.63 75.49 75.66 75.49 75.99 76.15 76.30 76.38 76.21 76.09 76.57 77.04 75.82 75.55 61.15 59.83 74.03 75.00 74.60 74.17 74.02 74.49 63.81 60.44 59.47 61.57 74.31 72.58 72.06 69.49 69.97 69.46 68.68 67.48 66.33 66.74 68.15 67.73 67.05 64.36
72.88 73.43 73.91 74.42 75.18 75.64 75.44 76.02 76.38 76.37 76.02 75.99 75.93 76.12 76.93 77.10 67.19 62.59 58.74 60.92 70.07 74.94 74.78 75.24 74.08 61.55 58.64 58.59 59.50 65.16 62.25 64.35 72.31 69.97 69.56 68.01 66.60 65.82 66.49 67.14 68.13 67.66 66.78
72.82 73.18 73.50 74.77 75.25 73.57 75.45 75.22 76.15 76.34 76.31 75.88 75.72 75.63 75.79 76.70 76.76 61.76 58.72 58.36 59.95 70.54 76.16 73.07 65.95 59.71 56.31 58.18 58.86 60.83 60.36 70.37 72.81 71.22 69.55 69.02 67.36 67.36 67.25 66.69 67.43 66.94 66.31
73.55 75.01 74.39 74.92 75.02 74.47 75.87 76.21 76.07 76.25 75.78 75.68 75.24 75.18 75.35 75.24 75.60 76.38 73.28 65.44 60.17 63.30 67.80 71.35 69.13 66.57 65.20 65.67 64.40 61.38 67.16 72.19 72.76 72.61 72.00 71.06 68.51 66.93 66.37 66.87 65.56 65.69 62.98
72.09 75.84 74.97 75.05 74.81 75.04 74.55 75.06 75.62 75.64 74.56 75.65 75.65 75.53 74.47 74.63 71.78 59.59 61.28 70.29 69.44 66.08 67.43 71.69 73.14 72.99 72.06 71.76 68.88 69.10 67.15 69.19 71.48 72.79 72.44 70.99 67.34 66.71 66.23 66.77 66.05 65.01 63.11
73.82 75.06 74.77 74.34 74.69 75.11 75.14 72.84 52.08 53.75 53.67 51.52 49.95 64.98 60.76 52.96 47.85 47.12 46.94 47.66 48.93 49.48 62.83 69.10 70.71 72.15 72.55 72.65 72.69 71.38 68.60 67.82 70.58 72.07 71.51 69.37 67.34 66.43 65.91 65.96 65.03 63.88 62.25
69.66 72.41 72.36 71.12 72.97 74.30 74.37 74.52 65.93 56.19 46.90 46.38 48.64 48.15 48.04 46.89 45.49 44.40 44.40 46.03 48.93 53.47 65.64 69.17 69.17 70.29 71.89 72.82 72.82 72.31 69.75 69.39 70.74 71.39 70.73 68.24 67.61 66.50 64.28 64.47 63.54 62.95 61.51
68.39 60.52 67.90 68.75 68.51 69.45 69.45 69.43 69.47 65.63 65.46 62.13 49.60 49.91 45.83 44.04 43.50 42.95 46.03 49.98 58.47 58.26 62.94 65.10 67.03 68.69 70.27 71.33 71.76 71.17 70.67 70.20 70.09 70.88 70.23 68.22 67.16 65.51 63.95 63.17 63.11 61.61 60.30
69.77 66.94 66.58 65.95 66.38 65.65 65.96 65.87 65.68 64.56 63.44 63.06 59.93 52.78 51.14 47.48 43.13 44.58 47.85 56.37 57.09 58.80 60.43 60.21 62.03 63.07 63.82 64.85 66.60 68.89 69.96 69.78 69.68 70.18 69.53 67.86 66.46 64.66 62.88 62.63 61.78 57.71 57.96
64.10 63.10 64.50 65.33 65.38 65.35 65.34 64.47 63.70 63.33 62.73 61.00 58.51 57.28 56.75 57.43 59.10 60.17 59.21 57.27 56.97 56.95 59.38 62.04 64.00 64.93 64.63 64.18 64.57 65.68 66.89 67.59 68.38 68.63 68.67 68.15 64.51 63.58 62.31 61.28 59.90 58.76 58.59
64.86 64.44 63.92 64.54 64.08 64.20 63.99 63.85 63.29 62.37 61.36 60.81 57.97 54.85 47.85 57.97 59.28 60.27 60.80 60.41 60.48 60.81 61.59 62.90 62.34 62.25 63.38 64.49 64.69 65.04 65.67 65.97 66.63 67.07 66.95 63.79 63.18 62.16 61.56 61.20 60.36 59.86 58.98
64.94 64.40 64.13 63.55 62.67 62.22 61.73 61.56 61.45 61.20 60.73 60.32 59.41 58.01 45.85 56.97 60.88 60.56 60.40 61.13 61.99 62.95 63.77 63.54 64.35 63.65 63.47 63.53 63.87 63.79 63.94 64.28 64.29 64.31 63.72 63.36 62.63 62.06 61.64 60.85 59.42 56.77 56.34
63.66 63.09 62.70 62.32 61.56 58.98 59.81 59.24 59.48 59.93 59.50 59.15 59.09 59.86 60.07 61.08 60.97 60.88 61.07 62.40 62.89 63.03 63.57 63.34 63.20 63.88 65.62 64.36 63.77 62.69 61.79 62.48 63.14 63.51 63.00 62.85 62.23 61.23 60.44 59.13 57.43 54.58 54.04
62.84 61.31 59.64 58.61 57.88 57.62 56.67 56.09 55.67 52.51 55.31 56.15 56.40 56.62 56.54 57.73 58.49 58.41 58.13 58.46 60.24 63.46 63.84 63.14 62.85 62.26 62.21 63.99 64.02 63.59 63.73 63.59 63.19 62.46 62.15 61.45 58.74 55.89 56.78 55.52 56.65 54.33 53.30
60.98 60.10 58.76 56.86 55.97 54.92 54.70 54.55 53.90 53.66 53.48 53.11 53.01 53.26 53.58 54.68 55.37 54.04 54.08 53.80 54.80 53.55 53.05 52.36 53.76 60.75 61.07 59.61 60.52 61.23 54.23 49.46 58.66 52.84 58.65 57.27 56.74 55.95 54.00 52.65 51.30 50.50 50.06
53.88 58.02 58.24 56.70 54.52 53.88 53.97 53.37 52.56 52.54 51.77 51.31 50.19 49.10 48.62 48.82 49.06 49.58 50.03 50.19 49.75 49.06 47.76 47.53 48.42 45.97 43.41 45.34 44.43 44.03 39.02 40.67 49.76 47.65 56.26 56.44 55.39 54.40 53.19 51.92 51.27 50.27 49.63

GFSGL_sfc_wetblb_042.txt.gz
Wetbulb
71.90 72.75 72.42 71.74 71.76 73.70 72.39 70.37 70.94 71.54 69.83 71.75 73.23 73.88 74.33 73.71 73.21 72.48 72.90 74.01 72.56 72.59 72.27 70.81 69.52 68.82 67.84 65.39 64.79 64.10 62.16 60.93 58.79 59.27 62.48 63.01 64.20 64.65 65.54 64.73 64.21 63.54 63.68
72.36 72.86 72.89 72.94 72.03 71.43 73.45 72.07 71.47 71.53 72.02 70.30 73.39 73.39 74.03 73.98 73.81 73.37 72.84 73.98 73.72 72.79 72.61 71.34 71.07 70.97 68.14 66.24 65.06 65.07 63.12 62.37 60.20 58.39 60.36 64.86 63.91 64.45 64.41 65.34 65.21 66.49 65.23
72.63 72.55 72.87 73.01 72.84 71.92 71.75 74.01 72.91 71.57 72.41 72.35 73.66 73.43 73.88 74.03 74.03 74.16 73.64 73.25 73.28 73.68 73.33 72.35 71.83 70.67 69.91 68.22 65.48 65.76 65.35 63.47 62.95 60.46 60.19 63.56 64.18 64.38 63.43 63.82 64.36 64.86 66.58
72.98 72.83 72.33 72.86 73.58 73.43 72.76 72.34 74.26 73.53 71.31 72.51 74.08 74.30 74.33 74.21 74.12 74.17 74.56 74.12 73.48 73.26 73.57 73.36 72.74 71.14 70.74 68.97 66.57 65.94 65.39 65.11 63.16 63.36 61.41 63.20 63.93 65.33 64.11 63.39 63.56 65.03 64.35
72.97 73.00 72.79 72.95 73.87 74.32 73.63 73.19 73.16 73.72 74.21 72.64 73.74 74.13 74.76 74.58 75.00 74.25 73.91 73.83 74.01 73.50 73.02 74.02 73.72 72.69 70.60 69.79 69.73 67.86 65.23 64.77 63.56 62.24 61.69 61.08 61.04 63.78 64.07 63.56 64.18 65.20 65.86
72.65 72.94 73.41 73.81 73.54 73.62 74.16 73.81 73.13 72.95 72.76 74.31 73.73 74.18 74.10 75.32 69.92 68.83 73.21 74.09 73.85 73.41 72.96 73.13 73.46 71.91 70.59 67.46 66.89 67.55 67.86 66.28 65.02 64.66 64.59 63.26 63.66 62.35 64.42 65.13 64.65 61.67 61.68
72.28 72.79 73.48 73.58 73.86 73.91 74.19 74.10 74.05 73.51 73.35 72.24 73.51 74.27 73.93 74.75 67.01 66.70 68.62 74.38 74.18 73.90 73.72 73.63 73.51 74.17 71.41 73.02 67.22 65.72 65.98 65.42 66.91 66.41 64.73 64.98 64.21 64.52 64.30 63.73 64.38 62.87 63.58
71.33 72.62 73.16 73.99 73.72 74.15 73.90 73.68 73.87 74.42 74.23 73.83 73.02 73.50 74.22 74.41 65.93 64.68 67.01 73.65 74.29 74.24 74.25 74.15 73.93 73.86 73.32 73.17 73.62 71.10 69.40 69.54 67.89 67.84 67.99 66.93 66.88 66.64 65.59 66.23 65.85 65.55 63.90
70.50 71.07 73.10 73.63 73.90 73.81 73.46 73.47 73.94 74.05 74.19 74.62 74.86 74.35 73.46 74.03 64.35 63.11 64.99 72.47 73.75 74.30 74.67 74.51 74.67 74.39 69.95 64.59 72.81 72.61 72.02 71.23 68.08 63.77 64.85 64.05 61.67 61.72 64.49 64.83 64.04 63.35 62.86
71.11 71.62 72.23 73.65 73.86 73.94 73.96 73.99 74.29 74.51 74.59 74.83 74.71 75.38 72.29 74.87 64.75 61.82 64.22 73.39 73.23 73.67 74.68 75.02 67.46 71.97 65.35 62.15 70.46 72.59 71.90 72.56 71.96 71.55 68.03 64.97 62.42 62.99 62.79 67.57 66.50 64.15 63.98
72.69 72.45 72.46 72.70 73.71 74.26 74.50 74.57 74.36 74.51 74.49 74.45 74.46 75.21 75.60 74.31 74.18 60.24 59.92 73.81 74.32 74.02 73.93 74.20 74.94 63.62 60.35 58.86 61.14 73.78 72.59 73.17 71.95 71.80 71.36 69.93 68.98 67.89 66.41 68.51 68.65 67.25 65.27
70.88 72.13 72.66 73.38 73.58 74.26 73.81 74.05 74.39 74.33 74.16 74.07 74.05 74.36 75.31 75.55 65.64 59.89 58.82 61.40 69.86 74.90 74.73 75.18 74.52 62.34 57.94 57.61 59.74 64.25 62.20 63.46 73.28 73.53 71.59 70.71 69.87 68.10 67.98 68.70 69.48 68.76 68.88
70.91 71.36 71.72 72.47 73.26 73.73 73.54 73.47 73.77 74.11 74.00 74.00 74.13 74.11 74.68 75.56 75.33 60.78 58.26 58.86 60.42 70.52 75.89 72.52 64.88 60.11 57.39 58.12 58.09 60.25 59.48 69.36 72.08 72.55 72.48 71.77 71.06 71.11 69.57 68.61 69.22 68.99 68.05
67.96 71.78 70.96 71.65 71.78 72.17 74.50 74.75 74.44 74.46 74.43 74.21 74.32 74.22 74.80 74.85 75.16 75.55 69.02 64.46 60.17 62.71 65.79 70.43 68.25 64.60 61.16 65.66 65.25 63.11 64.20 68.82 70.63 71.73 72.48 73.63 73.45 71.40 68.59 67.96 67.38 67.24 66.29
70.97 70.34 72.72 72.12 71.25 72.02 68.05 67.44 74.01 75.46 74.21 75.20 75.18 75.61 74.99 74.76 73.11 63.11 65.38 71.01 69.57 65.40 66.63 69.70 70.27 71.32 72.34 72.44 72.80 71.43 70.80 67.51 67.40 69.90 71.57 72.33 72.82 71.75 68.53 68.14 67.02 66.27 65.41
68.72 71.13 72.81 72.48 72.59 73.17 67.06 61.26 50.97 48.72 48.90 52.28 55.54 66.15 56.81 53.35 48.65 49.02 49.38 49.02 49.20 51.01 63.47 66.31 67.62 68.75 69.77 70.96 71.94 72.51 73.12 70.08 69.81 69.59 70.49 71.21 71.36 71.81 68.21 67.06 66.31 65.73 64.44
66.75 66.49 69.89 71.10 73.27 73.61 72.89 66.18 61.53 56.77 47.93 46.08 46.81 48.75 50.43 48.91 47.82 47.38 46.66 47.56 48.65 53.00 64.02 64.64 66.44 67.71 68.89 70.04 70.90 71.68 71.95 73.11 72.98 70.58 70.80 70.87 71.05 70.88 67.82 66.51 65.54 64.62 63.60
67.18 60.31 66.66 69.34 70.33 71.42 71.40 67.17 63.79 62.52 59.92 58.12 51.61 49.31 44.12 44.12 44.66 44.66 45.75 50.35 57.35 57.37 60.33 59.60 59.76 60.53 60.93 62.36 63.02 63.36 64.58 66.01 67.02 68.36 69.69 69.89 70.34 69.96 69.15 66.79 65.10 63.93 63.14
66.43 66.95 66.62 65.92 65.06 64.93 66.74 67.49 66.80 65.37 62.29 59.63 57.55 52.23 46.80 42.49 42.85 45.03 46.84 57.17 57.80 57.41 58.40 58.08 58.50 59.57 62.97 64.02 64.14 64.24 63.98 64.40 64.15 64.72 65.49 66.48 67.98 68.18 67.74 67.87 66.43 58.40 59.48
64.47 63.07 65.12 66.03 65.41 64.91 64.81 64.49 63.98 62.88 60.52 59.22 58.86 58.27 56.55 54.77 57.71 57.99 57.23 56.45 56.59 56.87 57.37 58.58 60.59 62.76 62.56 64.30 64.29 64.53 64.87 64.42 64.42 64.85 65.59 66.11 65.84 64.08 62.17 61.67 61.67 60.91 60.87
64.13 64.15 62.48 63.75 63.01 62.92 62.48 61.22 61.95 61.39 59.76 57.85 56.91 52.40 46.30 58.01 57.97 58.35 58.60 58.78 58.78 59.14 59.58 60.03 60.65 61.24 61.76 62.10 61.62 62.95 63.30 64.48 64.14 63.15 62.92 63.19 63.51 62.32 62.03 61.26 61.28 60.96 60.35
63.69 62.08 61.33 60.32 60.24 60.11 60.01 60.23 60.35 60.04 59.24 58.70 58.08 55.76 49.20 59.22 58.52 57.70 57.90 59.32 60.81 60.77 61.27 60.97 61.03 62.32 63.03 64.45 63.75 64.05 62.64 62.94 63.48 63.14 62.80 62.29 61.55 61.59 61.55 60.78 60.24 59.80 57.45
62.58 60.81 59.73 58.94 58.17 56.07 56.27 55.97 56.49 56.57 56.19 55.97 55.61 56.88 57.31 57.11 56.62 56.01 55.81 56.07 55.95 58.94 59.97 61.22 61.37 62.02 63.11 64.80 64.84 62.36 60.63 60.57 61.29 61.37 61.73 61.73 61.53 61.28 60.42 59.76 59.29 58.41 56.87
59.63 59.09 58.10 56.72 55.83 55.02 54.42 54.20 53.84 50.94 53.42 53.72 53.77 53.73 53.87 53.80 52.31 51.97 51.55 51.34 50.68 50.76 51.64 51.98 50.20 48.40 49.91 54.27 59.53 61.30 61.42 62.25 60.99 60.65 60.37 60.44 58.45 57.23 58.25 54.92 54.38 54.58 53.14
58.23 57.13 56.23 55.65 54.76 53.78 53.21 52.73 52.31 51.41 50.51 49.97 49.05 48.88 49.14 48.94 48.98 49.18 48.35 48.73 49.30 48.75 48.46 47.53 46.54 45.23 43.59 45.07 43.28 41.61 39.72 37.43 52.14 51.51 58.64 57.16 55.75 54.86 54.07 53.18 51.77 50.56 49.69
57.20 55.81 54.87 54.57 53.55 52.95 52.17 51.10 50.32 49.76 48.86 48.41 47.36 46.70 46.42 46.17 46.05 46.26 46.68 46.14 46.81 46.95 46.99 46.99 46.68 45.53 43.63 43.88 41.20 36.97 32.74 33.92 42.48 41.17 55.89 55.45 54.01 53.50 52.93 51.54 51.26 50.74 50.14

GFSGL_sfc_wetblb_045.txt.gz
Wetbulb
70.51 70.61 70.80 70.82 71.12 71.21 70.66 69.89 70.33 68.24 69.98 71.20 71.41 72.21 72.43 72.38 72.46 72.18 72.53 72.47 71.21 71.28 71.17 70.00 68.65 67.71 67.39 65.49 64.14 63.54 61.52 59.67 57.79 58.94 61.07 61.93 62.76 63.14 64.93 66.92 65.59 63.92 63.63
70.83 70.93 70.85 71.16 71.63 71.91 71.37 70.14 70.24 70.99 68.93 70.52 71.38 71.74 72.97 72.91 72.63 72.30 71.69 72.70 72.61 71.42 71.81 71.20 70.91 70.57 67.42 66.14 64.38 63.44 62.87 61.36 59.75 58.19 58.67 62.11 62.22 63.25 63.86 65.14 65.76 65.31 63.30
70.08 70.88 70.80 70.41 70.23 70.80 72.59 72.49 70.51 69.97 70.03 69.62 70.77 71.83 72.33 73.11 72.97 72.58 72.29 72.07 72.56 73.03 72.54 71.99 71.95 70.54 69.69 68.23 65.98 64.53 63.71 63.25 61.10 59.38 59.03 60.81 63.44 62.93 62.44 63.54 63.49 63.26 64.42
70.38 70.42 70.71 71.01 71.12 70.59 70.82 72.18 72.68 71.49 70.48 70.80 71.07 71.81 72.45 72.85 73.23 73.13 72.99 72.50 72.18 72.72 73.25 73.07 72.66 71.72 71.53 70.87 68.45 66.88 64.98 63.91 62.33 61.65 60.98 60.65 62.41 63.53 62.84 61.66 61.83 62.69 63.85
70.36 70.46 70.71 71.96 72.20 72.08 71.22 70.85 71.88 73.00 72.26 71.73 71.46 72.57 72.79 72.92 73.37 73.04 73.18 72.90 72.38 72.08 72.58 72.90 73.10 72.98 70.90 70.60 71.05 69.41 66.23 65.30 64.06 63.40 62.74 60.55 61.07 62.33 62.23 62.09 62.91 63.82 63.38
70.70 70.47 71.30 71.51 72.23 72.38 72.28 71.87 70.85 71.88 73.11 71.98 71.24 71.64 72.56 73.70 69.34 68.27 72.10 72.92 72.88 72.67 72.09 72.27 72.96 71.61 70.80 67.72 67.50 68.37 69.16 67.64 66.30 65.00 65.20 63.46 63.51 63.31 63.64 64.38 62.99 59.87 60.12
71.18 71.38 71.62 71.71 71.59 72.30 72.92 72.70 71.62 71.16 71.74 72.63 72.61 71.94 71.88 72.78 66.58 66.66 68.52 73.28 72.68 72.56 72.46 72.48 72.55 73.22 71.11 72.91 68.09 66.32 66.29 65.49 67.76 69.94 66.14 66.76 65.42 65.20 64.51 62.89 64.15 63.53 63.32
71.30 71.51 72.10 72.23 72.00 72.18 72.47 72.86 72.83 72.47 71.72 71.63 71.63 72.69 72.83 73.20 65.90 64.47 67.03 72.94 73.56 73.44 73.30 73.09 72.82 72.81 72.80 72.18 72.37 71.89 69.65 69.84 68.69 67.88 69.98 70.80 69.48 68.19 65.70 65.60 65.08 64.86 65.05
70.41 71.20 72.05 72.52 72.35 72.74 72.31 72.51 73.12 73.32 72.89 72.49 72.51 71.64 71.49 72.68 63.58 63.72 64.97 71.75 72.82 73.13 73.68 73.74 73.79 73.44 69.29 64.61 71.64 71.79 71.98 72.42 67.90 64.17 64.56 65.12 64.14 62.41 65.34 64.99 62.33 62.03 62.21
69.99 71.07 72.19 72.57 72.80 72.58 73.09 72.95 73.45 73.35 73.30 73.82 73.72 73.74 70.05 72.21 64.10 61.46 64.12 72.45 72.23 72.67 73.50 73.96 67.09 71.13 64.96 62.33 70.17 71.77 71.03 72.04 72.90 72.76 70.46 65.96 64.17 66.13 61.21 65.80 67.67 63.28 63.21
69.79 70.23 71.32 72.61 72.93 73.49 73.37 73.62 73.42 73.05 73.35 73.05 73.18 73.79 74.32 72.85 72.68 60.18 59.57 72.26 72.87 72.80 72.90 73.24 74.03 63.97 60.43 59.66 60.98 73.64 72.50 72.98 72.28 72.53 73.30 73.17 72.53 70.88 70.01 66.37 66.95 67.48 65.61
69.86 69.76 70.09 71.06 72.91 73.51 73.41 73.22 73.22 73.10 72.54 72.52 72.79 73.12 74.14 74.61 65.68 60.75 59.07 60.79 69.07 73.47 73.45 74.23 73.88 62.70 58.51 57.61 59.74 63.63 61.79 63.24 72.69 73.33 73.26 73.22 73.12 72.19 71.19 70.32 68.10 67.56 68.55
69.58 69.81 70.08 70.79 71.31 72.61 72.67 72.82 72.70 72.78 72.53 72.46 72.47 72.34 72.82 74.00 74.24 61.90 59.02 58.88 60.16 69.87 74.97 71.85 64.36 59.14 56.47 57.81 57.09 58.21 58.58 67.48 69.63 70.80 71.69 72.45 73.37 74.43 73.77 72.06 69.82 68.76 68.49
69.63 69.13 70.09 70.97 70.95 72.10 72.91 72.92 72.81 72.68 72.26 72.28 72.39 72.62 72.96 73.22 74.39 73.94 68.09 65.65 60.93 63.49 66.33 69.92 66.91 63.74 61.56 65.35 65.51 64.13 64.01 66.63 68.60 69.64 70.99 72.19 73.14 73.35 73.60 72.99 70.12 68.61 67.64
68.92 69.23 69.27 70.28 68.68 70.26 65.47 65.16 71.77 72.97 70.83 72.90 73.05 73.53 73.16 72.99 73.61 68.41 69.54 72.36 71.21 67.27 67.66 69.40 70.13 70.44 70.80 71.25 71.66 71.43 71.46 68.68 66.84 67.93 68.68 69.92 70.68 71.49 71.97 73.09 71.46 69.72 67.86
66.84 66.90 66.56 69.92 70.12 69.54 64.03 59.78 48.96 47.04 46.26 48.69 53.40 66.71 60.91 54.49 51.95 50.68 49.78 51.23 53.22 53.22 65.87 67.95 67.68 67.66 67.89 67.86 67.55 68.93 69.58 69.49 70.93 70.57 70.12 70.37 69.83 70.03 70.14 70.65 70.98 69.94 67.43
64.65 66.12 65.36 65.00 70.78 70.33 66.14 64.57 58.72 54.60 47.71 44.68 44.61 47.73 51.21 49.76 45.97 45.25 45.07 46.33 47.78 54.85 66.58 65.79 65.60 63.66 62.71 61.25 61.19 61.57 62.26 63.12 63.99 64.20 64.38 64.87 65.48 66.50 66.72 67.87 69.33 67.64 67.15
64.01 59.99 64.92 66.67 69.69 71.62 69.15 64.29 61.37 61.51 59.01 56.71 48.67 47.06 43.58 43.71 44.27 44.52 46.15 53.49 60.01 59.50 61.19 59.25 58.53 58.29 58.44 61.56 62.11 62.37 62.65 62.99 63.38 63.66 64.11 64.36 64.48 64.36 64.28 65.01 65.73 66.05 66.19
63.53 64.70 64.35 63.96 64.11 66.16 68.20 64.87 63.73 61.17 59.25 57.96 58.16 53.39 47.73 43.80 44.52 45.43 47.97 59.48 59.00 56.59 58.02 56.97 57.43 60.04 62.06 62.68 62.90 63.02 63.36 62.89 63.35 63.35 63.61 63.34 64.06 65.24 64.86 64.35 62.34 53.22 58.44
62.84 60.84 61.75 63.69 63.75 65.27 65.68 64.87 62.73 60.34 59.75 59.83 59.47 58.97 58.35 57.78 59.46 59.50 57.51 56.51 56.61 56.67 56.89 57.49 58.42 59.20 59.60 60.19 61.80 62.52 62.71 62.49 63.96 63.93 63.62 62.92 63.54 62.78 61.83 61.04 60.03 59.33 59.91
62.72 61.89 60.35 61.62 61.22 62.11 62.64 61.69 60.96 60.39 59.56 58.56 56.35 53.16 47.78 59.76 58.20 58.04 59.10 59.48 60.19 58.68 58.09 58.70 58.70 60.73 62.23 62.44 62.54 62.34 62.57 63.05 63.64 63.66 63.02 62.46 62.57 59.96 60.00 60.56 60.47 60.79 59.44
61.17 60.12 60.11 59.83 60.00 60.13 60.33 60.66 60.63 60.19 59.69 58.39 57.61 54.86 49.23 57.15 56.43 55.69 55.35 55.49 56.01 57.35 58.49 59.84 60.81 60.95 61.09 62.57 63.72 63.22 62.05 61.53 62.49 63.12 63.00 61.87 60.29 60.52 60.42 59.48 60.22 58.15 56.85
60.66 59.81 58.98 57.81 57.47 55.71 57.26 57.48 56.90 56.35 55.89 55.97 56.07 55.25 53.95 52.91 51.82 51.26 50.58 50.26 50.23 51.06 51.41 51.14 50.61 49.31 50.04 50.75 52.53 55.53 58.07 60.06 61.33 61.39 62.14 61.69 61.17 60.78 60.24 59.48 59.01 57.85 56.83
59.33 58.82 57.64 56.39 55.71 55.59 54.75 53.39 52.11 49.53 51.92 51.35 51.00 50.27 49.84 49.92 49.22 48.54 48.42 49.34 49.19 49.10 48.79 48.29 47.22 45.71 46.31 46.77 46.46 45.42 45.41 43.64 43.86 58.42 61.91 61.10 60.72 58.05 58.04 55.01 54.75 54.13 52.40
56.25 55.49 54.98 54.60 53.81 53.04 52.49 51.61 50.57 49.78 49.14 48.65 48.02 47.64 47.38 47.37 47.06 46.98 46.96 47.40 47.27 47.19 47.08 46.78 45.65 44.64 43.13 44.14 43.39 42.16 38.13 34.01 37.28 39.32 55.63 57.96 57.15 56.31 54.78 53.50 52.71 51.49 50.30
55.77 55.19 54.23 53.61 52.77 51.87 50.70 49.62 48.88 47.90 46.92 46.38 45.81 45.35 45.14 44.84 44.72 44.81 44.59 44.61 44.91 44.91 44.79 44.88 44.72 44.17 41.12 40.93 39.09 35.97 33.67 35.01 38.54 34.02 44.35 56.98 56.51 55.69 56.54 54.50 53.24 51.91 50.91

GFSGL_sfc_wetblb_048.txt.gz
Wetbulb
69.20 69.33 69.67 69.82 70.20 70.35 69.91 69.92 69.79 69.86 70.38 71.25 71.69 72.18 72.51 73.17 73.81 73.61 73.50 73.40 72.46 72.75 73.06 72.27 71.39 71.18 70.76 69.36 67.72 67.41 65.79 64.28 63.59 65.71 64.51 67.39 67.98 68.04 68.66 69.73 69.61 69.05 69.04
69.57 69.68 69.72 70.29 70.44 70.39 70.45 70.43 70.58 69.75 70.22 71.37 72.12 72.22 72.65 72.93 73.47 73.25 73.13 73.87 73.01 72.62 72.74 72.79 72.79 71.92 71.09 70.81 68.99 68.04 66.99 65.95 65.10 64.77 66.03 66.00 67.14 68.56 68.58 68.35 68.44 68.20 68.57
70.07 69.94 69.92 70.06 70.32 70.34 70.73 71.09 71.23 71.26 70.22 70.75 71.87 72.00 72.30 73.18 73.48 73.33 73.37 73.39 73.74 73.86 73.69 73.30 73.29 73.16 72.72 71.84 70.76 69.31 67.67 67.11 65.87 64.30 65.57 65.37 66.70 67.47 67.44 67.22 67.98 68.73 68.44
70.03 70.25 69.80 70.00 70.47 70.98 71.57 71.74 70.95 71.07 71.35 70.97 71.08 71.83 72.55 73.04 73.81 73.88 73.58 73.35 73.25 73.72 74.22 74.01 73.92 73.71 73.34 73.33 72.07 71.69 71.14 68.64 67.04 65.67 65.54 65.36 65.72 67.98 66.77 66.50 66.38 66.56 67.11
69.25 69.88 70.06 70.66 70.98 71.30 71.71 72.47 72.66 71.17 70.99 71.59 71.42 71.71 72.45 72.91 73.37 73.78 73.96 73.55 73.27 73.25 73.58 74.14 74.35 73.77 71.32 71.85 73.46 72.90 71.99 70.26 69.97 68.13 67.49 67.63 65.47 65.91 65.73 67.88 65.67 67.44 67.91
69.12 69.35 70.68 70.84 70.98 70.82 70.79 70.85 72.05 72.78 72.23 71.97 71.55 71.83 71.68 72.25 68.02 67.65 72.16 73.65 73.63 73.30 72.82 73.39 74.03 71.79 71.32 68.07 67.49 68.49 71.72 71.05 70.24 69.12 68.80 68.48 68.65 68.31 68.09 66.57 66.36 65.69 64.79
69.20 69.62 70.10 70.86 71.18 71.45 71.63 71.18 70.67 71.10 72.54 72.38 72.08 72.09 71.99 72.90 65.88 65.77 68.01 73.62 73.60 73.59 73.71 73.67 73.50 73.76 71.57 74.10 68.81 66.66 67.00 65.99 68.19 72.54 70.46 69.97 69.74 70.88 70.04 67.62 66.58 66.94 66.52
69.66 69.95 70.66 70.90 71.17 71.89 72.04 71.86 71.82 71.36 71.04 72.25 72.59 72.29 71.96 72.29 64.97 64.05 66.53 72.85 73.78 73.95 73.95 74.05 73.92 73.95 73.98 73.54 73.81 73.59 73.00 72.45 70.68 69.86 71.61 72.89 73.72 74.18 72.84 70.81 69.31 68.34 68.44
69.86 70.37 71.03 71.40 71.28 71.73 71.89 72.16 72.70 72.20 71.88 71.58 72.29 72.90 72.81 72.81 62.95 62.75 65.05 72.32 73.07 73.47 74.38 74.65 74.33 74.10 69.19 64.16 73.21 73.10 73.36 73.70 68.98 64.74 65.06 65.19 64.00 63.27 66.29 71.18 67.09 63.70 64.21
70.52 71.28 72.12 72.26 72.05 71.66 71.91 72.41 73.26 73.52 73.01 72.88 72.60 72.75 69.72 72.88 64.12 61.33 63.99 72.32 72.15 72.61 73.98 74.37 66.86 71.55 64.89 61.70 71.87 73.22 72.49 73.58 74.35 74.77 74.13 68.17 65.32 67.97 63.07 66.76 69.06 67.60 66.01
71.38 72.13 72.27 72.86 72.77 72.87 72.93 73.17 73.19 73.28 73.63 73.71 73.54 73.86 73.83 71.76 71.92 60.07 59.18 72.41 72.91 73.03 73.03 73.35 74.40 63.74 60.36 59.22 60.50 73.72 72.66 73.13 72.56 72.81 73.68 73.95 74.42 73.83 72.27 71.05 68.99 68.72 68.37
70.51 71.13 71.89 72.46 73.14 73.36 73.22 73.62 73.65 73.42 72.95 73.11 73.11 73.34 74.40 75.02 65.04 61.35 58.73 60.07 68.50 73.01 73.23 74.34 74.27 62.09 58.48 57.86 59.38 62.04 60.59 62.41 71.85 72.58 72.83 72.99 73.27 73.98 75.01 74.68 73.50 71.87 71.55
69.36 69.58 70.49 72.08 72.64 73.53 73.26 72.98 72.99 73.38 72.71 72.51 72.60 72.65 73.37 74.50 74.90 60.94 58.44 57.83 59.51 69.19 74.30 71.43 64.66 59.37 57.01 57.90 57.27 58.05 57.68 65.90 67.89 69.16 70.13 71.56 72.95 73.78 74.35 74.38 75.01 73.93 72.18
70.65 70.19 70.15 69.97 70.86 72.74 73.50 73.65 73.11 72.87 72.53 72.65 72.53 72.44 73.20 73.83 74.56 74.75 70.90 66.63 59.59 63.57 65.21 69.91 67.03 64.62 62.99 66.05 66.60 64.49 64.96 66.72 68.23 69.27 70.57 72.25 73.35 72.39 72.25 73.11 72.85 72.98 71.85
70.14 71.10 71.54 71.61 70.47 71.35 69.86 69.42 73.03 74.12 70.69 72.98 73.28 73.60 73.54 73.41 73.72 68.50 69.36 73.69 73.51 69.00 68.55 70.83 70.65 71.17 71.49 71.71 72.03 72.16 72.60 71.28 68.79 69.36 69.29 69.34 69.83 69.70 69.72 71.29 70.58 70.09 68.68
68.47 68.79 68.17 71.69 70.70 71.57 64.95 61.17 49.01 47.75 47.40 48.85 53.20 66.94 66.79 57.45 58.10 53.75 51.94 52.66 53.57 55.02 67.64 70.29 69.93 69.77 69.11 68.86 68.32 67.67 67.72 65.63 66.53 65.36 64.60 64.95 64.66 65.07 65.28 65.71 66.19 66.82 65.33
66.41 67.37 67.77 65.52 72.01 69.18 67.06 66.30 63.29 54.64 45.85 43.56 44.14 49.58 54.29 55.54 46.68 44.87 44.87 46.13 47.58 57.01 69.70 67.98 67.21 66.29 64.35 63.84 64.85 65.01 64.83 65.55 66.33 64.94 64.19 64.32 64.34 64.83 64.09 64.58 65.06 65.09 65.05
66.21 58.22 66.77 67.24 69.14 71.62 68.34 67.28 64.59 64.13 64.65 59.61 47.40 46.70 43.06 43.29 43.05 43.78 45.59 53.58 63.14 60.95 63.31 63.40 62.52 62.87 63.53 64.10 64.72 64.70 64.81 64.67 64.75 65.17 65.20 65.59 64.00 63.44 63.90 64.78 64.73 63.21 61.39
65.19 66.83 66.53 66.63 66.99 69.31 67.87 65.29 64.44 62.81 61.22 58.93 58.26 53.58 48.63 43.96 44.67 47.77 50.67 61.92 61.07 61.07 61.19 61.80 63.19 63.84 64.10 64.33 64.51 64.36 64.48 63.73 63.36 64.22 64.57 64.03 63.91 63.12 63.98 63.75 63.02 56.27 57.21
65.12 60.56 62.52 65.72 66.36 67.22 66.45 64.93 62.13 60.85 61.38 61.16 61.07 59.96 60.04 59.56 60.73 60.41 60.27 60.28 60.62 61.05 62.37 62.78 63.18 63.67 63.25 62.63 63.00 63.74 64.34 63.54 63.98 63.98 64.18 65.23 65.04 64.89 63.36 63.02 63.49 62.58 60.44
64.48 64.04 60.77 63.51 64.08 64.17 62.98 61.73 61.64 61.42 60.79 58.33 56.63 53.89 49.76 60.42 58.94 58.34 58.18 57.69 59.48 60.75 61.53 62.13 62.46 62.66 62.66 64.02 63.95 64.29 64.29 63.89 64.50 64.15 64.39 64.57 64.55 62.85 64.10 63.25 62.27 62.75 61.37
63.82 62.90 62.70 62.36 62.38 62.28 62.11 61.82 61.19 60.06 58.83 57.01 56.05 52.75 48.47 55.67 54.27 53.57 52.76 52.42 53.09 53.00 53.32 53.74 53.41 52.47 52.39 52.96 53.61 56.39 59.42 60.97 62.22 62.66 62.79 63.77 62.88 62.50 63.33 62.33 61.72 59.66 59.79
62.66 61.67 60.64 60.43 60.37 57.76 60.01 59.92 59.09 58.00 57.01 55.69 54.12 52.79 51.95 50.98 50.29 50.03 50.02 50.11 50.17 49.77 49.90 49.43 48.49 48.14 48.95 49.17 49.14 48.46 48.88 50.08 50.61 52.03 59.51 63.04 62.82 62.52 62.34 60.72 60.10 58.67 57.43
61.21 60.39 59.24 58.55 58.32 58.07 57.34 56.17 54.37 50.81 53.41 52.16 51.01 50.20 49.65 49.19 48.90 48.78 48.80 48.78 48.79 48.42 48.39 47.70 47.35 45.87 46.83 46.28 46.07 45.51 45.35 43.67 43.36 47.14 54.75 62.51 63.56 60.27 60.93 61.14 61.23 59.12 57.68
58.24 58.14 57.01 56.43 55.73 54.23 53.25 52.34 50.98 50.31 49.80 49.08 48.27 47.78 47.88 47.51 47.05 47.12 47.50 47.24 47.03 46.72 46.47 46.14 45.79 44.71 44.77 44.24 43.28 42.79 37.73 33.62 39.27 38.95 48.27 59.39 62.74 61.85 61.57 60.76 59.37 58.83 58.62
56.16 55.12 54.07 53.23 52.02 50.98 49.95 48.71 47.96 47.20 46.26 45.98 45.71 45.34 44.92 44.49 44.69 44.86 45.13 45.35 45.07 44.49 44.53 44.25 44.03 43.17 43.22 42.81 40.39 36.17 32.90 33.99 39.56 34.98 50.45 55.07 58.18 59.47 59.88 58.65 59.73 58.22 55.56

GFSGL_sfc_wetblb_051.txt.gz
Wetbulb
73.17 73.36 73.88 73.75 73.75 73.85 74.08 74.56 75.53 75.02 75.07 75.29 76.01 76.24 76.38 76.43 76.93 76.95 76.89 76.82 76.67 76.86 76.78 76.31 76.53 76.88 75.01 74.28 73.44 72.77 71.50 70.69 68.41 70.19 71.55 72.91 73.11 73.65 73.78 73.74 73.41 73.65 72.86
73.40 73.60 73.41 74.24 74.30 73.53 74.30 74.43 75.56 75.60 75.10 75.32 75.91 76.24 76.07 76.24 76.49 76.45 75.95 75.76 76.20 76.45 76.55 76.38 76.09 75.93 76.17 76.21 74.74 74.42 73.42 73.33 70.49 71.47 72.42 71.66 73.29 74.89 74.40 74.16 73.18 72.43 72.94
73.38 72.71 73.08 73.61 73.53 74.18 74.55 74.82 75.25 75.30 75.36 74.92 75.18 75.67 75.91 76.04 76.15 76.23 76.34 76.18 76.35 76.35 77.08 76.95 76.62 76.53 76.20 75.86 75.97 75.06 74.82 74.13 72.81 70.46 70.44 71.97 72.21 72.39 72.96 74.20 73.20 73.97 72.85
72.89 72.86 73.22 73.58 74.08 74.13 75.06 75.40 74.76 75.78 75.34 75.20 75.43 75.63 76.21 76.17 76.31 76.37 76.27 76.34 76.54 76.51 77.10 77.47 77.41 76.96 76.81 76.89 76.40 76.43 76.12 75.18 75.13 73.25 72.40 72.43 72.79 74.37 72.33 70.64 70.63 72.47 71.85
73.27 73.16 73.44 74.19 74.74 75.04 75.18 75.55 75.79 75.70 75.97 75.95 75.50 75.40 75.74 75.51 75.16 75.82 76.24 76.21 76.22 76.46 76.85 77.13 77.47 76.33 72.52 73.83 76.38 77.62 77.08 75.16 73.95 72.87 72.10 72.23 72.12 72.34 72.30 72.64 71.62 72.48 73.59
73.14 73.21 74.08 74.52 74.69 74.92 75.35 75.51 75.84 75.42 75.80 76.38 75.58 75.39 75.18 74.61 68.44 67.39 73.85 75.86 76.65 76.43 76.14 76.88 77.44 73.84 73.18 68.40 67.73 68.51 73.75 76.73 75.09 73.89 73.35 73.10 75.75 74.71 74.59 73.73 73.17 71.86 71.25
73.33 73.91 74.45 74.83 74.50 74.79 75.31 75.59 75.85 75.75 75.56 75.61 75.22 75.36 75.72 76.22 65.58 65.30 68.03 75.48 76.29 76.66 76.95 76.71 76.18 75.97 73.98 76.63 70.82 66.77 67.17 66.03 68.47 76.07 75.71 75.95 76.12 77.09 77.27 75.27 75.45 74.20 73.18
73.33 73.64 74.60 74.90 74.62 75.10 75.07 75.09 75.62 75.58 75.98 75.34 75.31 76.03 76.04 76.04 65.34 63.71 65.68 74.31 76.55 77.24 77.52 77.41 77.51 77.58 77.32 76.32 76.77 76.57 76.88 77.35 75.58 73.59 74.74 76.28 77.56 78.51 78.21 77.43 77.03 74.93 73.54
73.02 73.43 74.12 74.75 74.64 75.12 74.81 75.07 74.96 74.43 74.55 75.25 75.64 76.09 76.00 76.41 63.51 62.88 65.77 74.58 75.05 76.61 77.24 77.47 77.69 77.57 71.33 65.29 75.74 75.94 76.92 77.41 71.67 66.03 67.10 66.79 64.99 63.53 67.57 73.75 71.44 70.73 68.80
73.39 74.02 74.75 74.95 75.02 75.08 75.52 75.55 76.11 75.44 74.96 74.43 74.45 76.08 72.32 76.42 65.02 61.10 64.83 73.98 74.65 74.15 76.76 77.61 67.53 72.89 65.21 62.16 74.94 75.44 75.64 75.84 76.43 77.38 77.88 71.10 66.64 71.49 64.14 68.08 70.90 68.88 70.40
74.01 74.03 74.73 75.44 75.36 75.88 76.28 76.76 76.01 75.55 75.97 75.39 75.06 76.24 76.08 74.80 75.62 60.34 58.82 73.87 74.20 74.25 74.07 74.45 75.72 63.09 60.91 59.80 60.64 76.44 75.45 75.67 74.79 77.08 76.16 75.49 76.03 76.57 76.12 75.46 72.02 70.60 70.35
75.63 75.23 75.69 76.06 74.96 74.93 76.32 76.13 75.92 76.28 75.73 75.72 75.57 75.35 75.96 76.44 66.50 62.33 58.45 60.07 69.75 75.21 75.43 76.22 76.63 62.56 58.49 57.67 60.35 62.93 60.73 63.09 73.65 73.40 73.20 73.39 73.65 73.98 75.23 75.90 77.09 76.41 74.58
75.51 75.83 75.70 75.94 76.05 77.19 75.88 75.87 74.64 75.71 74.68 74.71 74.68 74.71 75.25 76.53 77.08 61.10 58.03 57.54 59.35 71.26 76.13 72.36 64.22 59.29 56.72 59.92 57.85 58.59 57.56 67.71 69.36 69.65 69.79 70.94 72.50 74.35 76.33 75.73 76.67 77.75 77.65
74.27 75.13 75.42 75.02 75.35 76.36 75.55 75.57 74.96 74.87 74.55 74.62 74.68 74.76 75.48 76.16 76.85 77.48 74.28 69.67 60.09 64.84 66.56 71.91 70.05 66.23 64.13 68.91 69.89 64.50 66.23 67.28 68.00 68.88 70.30 72.27 73.90 74.03 72.66 72.39 70.85 71.11 70.11
73.78 73.41 73.89 74.19 74.11 75.09 75.85 74.56 75.23 77.01 72.81 75.12 75.50 75.88 75.47 75.41 76.09 70.89 72.20 76.87 76.10 70.84 70.78 73.88 73.73 73.80 73.77 74.00 73.92 73.58 73.47 71.43 69.74 71.52 71.69 71.05 70.45 69.62 69.24 69.94 69.21 68.70 67.15
73.16 73.87 73.78 73.70 70.92 73.35 74.67 69.50 48.02 49.09 48.78 49.87 52.95 66.40 75.82 61.20 56.36 54.22 52.23 54.22 54.04 53.86 71.02 73.42 73.60 72.27 72.06 72.50 72.01 71.12 69.90 67.91 71.44 68.89 67.38 67.46 66.79 66.29 66.68 67.27 67.19 66.94 66.12
69.22 70.23 70.60 72.78 75.65 74.19 73.45 72.18 70.93 58.22 45.45 43.62 43.71 50.60 51.86 58.91 53.13 50.05 48.24 48.42 49.15 54.22 72.54 72.19 72.31 71.92 71.05 67.95 67.23 68.18 69.59 69.92 69.61 68.24 67.77 67.20 66.17 65.83 64.42 64.61 65.24 66.24 65.74
70.09 58.82 71.38 72.25 73.39 73.15 72.14 71.90 73.02 72.02 71.10 67.56 50.44 49.21 43.84 43.71 43.71 43.71 46.25 54.10 65.57 65.19 70.86 70.87 67.84 65.63 65.75 66.86 69.00 68.84 69.00 68.89 67.59 67.22 66.33 66.24 66.89 64.78 64.19 64.93 66.29 65.26 63.70
69.29 69.81 71.13 72.70 72.29 71.46 71.60 70.21 71.11 72.04 71.95 63.89 60.31 53.45 47.37 44.07 44.61 47.15 50.96 71.94 70.39 65.87 63.96 64.38 65.58 66.46 68.50 68.60 67.77 67.48 67.21 66.36 65.86 65.97 65.10 65.05 64.89 64.75 64.50 66.01 65.92 58.16 59.06
68.24 62.84 63.91 71.21 70.16 69.88 68.42 67.68 69.10 70.26 68.66 67.70 67.09 64.90 62.76 61.83 66.29 62.81 63.73 63.56 63.25 63.45 65.01 65.03 65.65 66.08 66.39 67.41 66.04 67.46 67.10 65.40 65.28 65.31 65.43 65.70 66.13 65.89 64.76 65.34 64.56 64.72 63.25
65.30 68.84 61.97 69.78 70.18 68.70 66.22 65.25 66.62 67.38 66.64 65.81 65.41 61.52 51.48 64.76 61.83 60.54 59.30 58.72 60.48 61.48 63.09 63.51 62.91 61.04 60.14 61.21 62.68 65.51 65.52 65.41 65.38 65.77 65.69 65.74 66.61 65.48 66.07 65.65 64.48 64.00 63.99
63.24 66.68 68.22 68.86 69.94 67.19 65.96 64.71 63.03 62.18 60.05 58.51 56.94 54.14 48.06 58.20 56.95 55.50 54.77 54.69 54.47 56.51 57.33 57.80 55.83 54.46 53.60 53.75 54.58 55.74 57.57 59.74 61.69 62.65 62.74 64.50 65.22 65.38 64.70 63.97 63.67 63.72 61.80
63.51 66.23 67.17 67.55 67.91 61.83 64.57 64.02 61.91 59.71 58.24 57.11 56.49 56.47 56.14 55.16 54.65 53.40 52.86 52.37 52.37 51.95 52.09 51.73 51.66 51.09 51.53 51.88 52.13 53.66 54.64 55.67 57.02 57.04 59.10 62.19 65.22 64.43 63.96 64.00 63.79 63.28 62.09
62.81 64.93 65.89 65.74 63.30 63.58 62.84 61.99 60.44 54.15 55.50 54.32 53.15 53.02 53.26 52.55 51.59 50.79 50.40 50.26 50.26 50.06 50.57 50.38 50.83 51.45 52.58 53.16 54.06 54.40 53.23 48.78 48.37 53.35 56.76 60.60 64.57 63.09 64.40 64.92 64.69 63.83 64.09
60.68 61.14 62.02 60.65 59.87 58.71 56.94 56.25 54.70 53.92 52.47 51.70 50.65 50.24 50.28 50.54 49.89 49.31 49.12 49.47 49.66 50.09 50.97 51.77 52.15 52.12 51.52 50.53 50.16 49.55 40.50 33.45 42.73 40.65 54.33 58.99 61.88 65.06 65.64 65.76 65.09 64.21 63.42
56.68 56.18 55.44 55.06 54.50 53.54 52.59 51.21 49.88 49.23 48.41 48.71 49.04 48.95 48.94 49.42 49.96 50.83 52.12 52.36 51.74 50.86 49.72 48.66 47.56 47.46 47.33 45.97 42.90 36.06 31.94 32.58 42.09 34.35 54.34 59.76 59.37 61.47 63.25 63.96 64.04 63.50 64.06

GFSGL_sfc_wetblb_054.txt.gz
Wetbulb
76.17 76.33 76.36 75.86 76.21 76.47 76.33 76.57 77.13 77.25 77.25 77.22 76.80 76.46 76.33 77.63 78.13 78.13 77.99 77.51 77.97 78.13 77.89 77.20 77.93 78.64 76.17 74.62 74.57 74.11 73.02 72.57 69.88 70.93 72.14 74.64 76.39 76.01 75.99 76.23 75.82 75.84 74.61
76.19 77.07 76.66 76.99 77.12 75.92 76.31 76.64 77.31 77.21 77.49 77.58 77.52 76.94 76.52 76.96 78.01 77.88 77.33 76.78 76.93 77.17 77.67 77.81 77.32 76.86 78.21 77.93 75.69 76.83 75.55 76.14 72.00 74.08 74.21 72.42 75.92 77.78 76.71 76.23 75.54 75.16 74.55
75.84 74.98 75.13 75.62 75.92 76.59 76.87 76.54 77.76 77.17 77.36 77.22 77.34 77.16 76.76 76.81 77.44 78.05 77.86 77.33 76.94 77.22 77.56 77.78 77.52 77.78 77.34 76.77 76.87 75.67 75.71 75.78 76.16 73.99 73.32 74.17 74.31 75.40 76.29 77.92 77.56 76.96 75.51
74.77 74.63 75.49 75.57 76.32 76.02 77.75 78.12 76.95 78.00 77.36 77.33 77.45 77.39 77.15 76.81 76.73 77.28 77.28 77.48 77.31 77.28 77.99 77.92 78.30 78.20 78.29 78.32 77.88 77.97 77.90 76.84 76.81 74.94 73.75 73.37 73.60 76.08 75.15 73.92 73.74 75.11 74.73
76.27 74.52 75.80 77.35 77.51 77.72 78.13 78.37 78.03 78.15 77.60 77.64 77.63 77.68 77.35 76.85 75.77 76.71 76.87 76.71 77.16 77.24 77.67 78.30 78.53 77.27 73.25 74.79 77.88 79.76 80.46 77.45 75.27 73.92 72.90 73.01 73.07 73.42 74.69 74.81 74.70 75.31 76.83
76.86 76.14 77.28 78.16 78.00 78.14 78.56 78.86 78.92 78.25 78.37 78.15 77.23 77.37 77.13 76.27 68.73 67.31 73.45 76.08 76.81 77.08 76.92 77.79 78.46 74.73 74.21 69.09 68.36 68.51 72.79 78.08 78.62 75.50 74.15 73.87 78.15 77.08 76.33 75.65 75.03 74.44 74.06
77.09 77.25 77.63 78.28 77.94 78.33 78.68 78.90 78.56 78.58 78.21 78.28 77.31 77.54 78.06 77.95 65.70 65.30 67.61 75.58 75.83 77.06 78.34 77.62 77.09 76.79 75.43 78.31 70.64 67.59 68.29 66.90 68.06 75.90 76.44 77.01 77.60 78.97 79.93 79.25 77.77 77.46 76.66
77.39 77.18 77.76 78.16 77.96 78.56 78.56 78.64 78.91 78.13 78.14 77.75 77.38 78.69 78.64 78.39 65.35 63.60 66.07 75.65 76.99 77.76 78.27 78.24 78.58 78.44 77.83 76.74 77.49 77.38 77.63 78.20 76.70 75.23 76.49 76.99 77.35 78.50 79.23 78.87 78.54 77.15 77.66
76.83 77.14 77.76 78.10 77.88 77.57 77.72 77.94 77.66 77.91 77.52 77.54 77.61 78.28 78.11 78.86 63.71 62.82 66.57 75.45 75.34 77.37 77.89 78.80 79.06 78.85 72.12 66.03 77.10 77.28 77.77 77.57 71.90 65.12 66.96 66.77 65.87 65.19 68.90 75.88 74.39 74.23 74.02
76.70 77.16 78.10 78.27 78.38 77.83 78.19 78.42 79.04 77.85 77.74 77.34 77.38 78.37 73.97 78.41 65.39 61.33 66.11 75.56 75.82 74.98 78.07 79.15 68.05 73.92 66.03 62.57 76.76 76.54 76.35 75.99 76.20 77.15 77.72 74.44 67.19 70.99 64.75 73.09 75.92 72.80 73.08
76.15 76.26 77.41 78.40 78.50 78.89 79.26 79.15 78.89 77.66 78.09 77.83 77.48 78.67 79.37 77.33 77.27 60.21 59.29 75.75 74.95 74.89 74.71 74.57 75.64 63.22 61.91 60.72 61.25 77.13 75.70 75.21 74.49 77.53 78.05 78.43 79.12 79.23 78.94 79.22 77.97 74.95 73.13
77.09 76.97 78.07 78.26 76.93 76.94 79.08 78.19 78.08 78.19 77.87 78.12 77.55 76.97 77.28 78.02 67.14 61.03 58.14 61.13 69.81 75.85 75.63 75.26 76.35 60.96 57.19 57.88 61.57 63.89 61.21 64.01 75.50 75.71 76.20 76.96 76.46 76.67 77.11 77.04 78.86 79.02 78.05
77.38 77.70 76.70 77.02 76.94 78.82 77.86 77.45 76.68 77.46 76.77 75.99 76.07 75.95 76.36 77.41 78.15 61.88 57.81 57.76 60.10 71.94 76.77 72.68 62.75 59.65 55.76 60.01 57.44 59.48 58.32 74.05 75.29 74.99 74.23 74.69 75.56 75.20 77.27 77.49 77.91 80.05 79.01
76.22 76.48 76.90 76.62 76.29 76.98 76.94 77.19 76.46 76.29 76.02 75.99 75.99 75.99 76.60 77.21 77.84 78.85 75.17 68.81 60.48 66.29 68.70 73.72 71.80 67.28 63.69 67.67 71.80 69.28 75.07 76.64 75.51 74.16 71.60 71.88 74.93 75.35 75.59 74.97 71.90 71.59 70.78
76.05 76.43 76.81 76.80 76.42 76.82 77.65 75.86 77.06 78.73 71.58 76.55 76.76 77.21 76.76 76.83 77.39 72.12 73.63 78.76 77.54 72.25 73.06 76.16 75.96 75.60 75.49 76.26 76.75 76.74 77.13 75.78 71.27 70.84 72.13 73.36 74.82 74.28 71.39 71.35 70.82 70.46 69.27
74.69 75.07 75.23 75.74 76.20 76.60 76.71 74.66 48.99 49.32 48.76 49.33 51.32 64.26 77.58 65.42 58.91 57.70 56.76 54.40 55.13 55.11 73.64 75.51 74.45 74.73 74.77 74.71 74.98 75.12 74.75 71.83 73.80 73.44 74.57 73.01 71.28 70.35 69.80 69.98 69.73 68.81 67.83
73.83 75.55 75.67 72.86 75.45 75.48 75.09 74.85 71.65 60.76 47.66 46.59 46.43 49.87 51.50 53.73 53.31 52.41 49.51 48.78 50.60 58.44 76.41 74.96 75.45 76.08 75.30 74.34 73.87 72.89 73.21 72.21 74.45 72.77 71.89 71.09 70.20 69.71 68.60 68.10 67.77 68.81 68.62
71.79 59.49 74.66 73.77 72.16 71.78 71.18 70.05 69.83 70.09 73.50 74.79 52.04 52.18 47.73 48.60 49.33 48.24 46.61 54.64 67.11 64.42 74.21 74.17 73.56 72.14 70.72 70.36 70.25 71.01 71.20 72.50 71.93 71.07 70.15 69.90 69.78 69.08 67.03 66.04 68.41 68.85 67.96
71.21 72.15 73.74 72.89 71.94 69.35 73.35 72.53 71.55 73.25 74.68 74.97 70.68 55.68 48.83 42.44 43.34 44.80 47.70 76.42 75.49 72.00 69.48 69.18 69.92 69.83 69.53 69.43 70.72 71.89 72.14 71.64 69.49 69.68 69.62 68.81 68.46 67.71 66.52 65.54 68.03 59.45 60.42
69.77 63.80 66.71 73.01 72.79 72.54 72.35 71.79 72.73 74.53 74.66 73.79 72.30 69.84 60.98 61.63 66.40 65.70 66.87 71.33 72.58 70.77 68.81 68.18 67.57 68.74 67.91 68.46 69.43 69.92 69.56 68.32 68.68 67.81 67.57 67.44 67.08 67.14 66.51 66.37 66.11 65.50 66.48
66.24 69.21 64.50 73.33 72.32 71.09 69.92 69.03 69.85 71.92 73.69 73.71 72.31 63.44 54.20 70.05 69.95 68.76 67.55 67.74 68.06 68.51 68.86 66.88 66.92 64.51 66.95 67.22 69.15 70.33 69.16 67.73 66.54 66.30 66.25 66.30 66.20 65.91 67.43 67.38 66.82 64.93 64.73
63.38 65.99 69.15 70.45 70.71 70.76 69.55 67.71 67.03 69.81 67.94 63.79 61.33 60.94 52.36 67.42 66.09 64.02 62.36 61.29 60.22 60.94 63.07 64.32 64.54 64.04 63.73 65.70 66.11 67.38 66.77 66.69 67.11 67.04 66.93 66.58 65.88 65.14 65.20 65.05 65.95 65.75 66.10
62.46 64.16 66.37 70.28 71.15 64.01 69.16 68.33 66.74 66.10 66.98 65.82 65.83 65.88 65.17 63.11 61.02 58.89 56.37 54.69 55.67 55.64 56.97 59.26 61.10 60.28 60.07 60.29 60.29 61.80 62.99 63.43 63.44 63.33 63.20 64.72 65.78 65.07 65.10 66.14 67.25 66.47 66.18
62.07 64.64 66.09 67.84 66.37 67.87 68.80 66.76 65.04 58.88 62.26 61.94 61.25 60.77 60.46 59.38 56.95 54.26 54.70 54.93 55.31 55.77 55.54 55.25 55.58 55.76 56.52 57.91 59.15 60.74 57.08 53.77 53.84 57.97 61.16 63.08 64.67 63.76 65.46 66.48 67.58 66.82 65.95
62.35 63.34 61.92 61.92 62.39 61.69 62.01 62.21 61.92 60.65 59.47 57.90 57.34 58.01 57.09 56.25 54.50 53.65 54.48 54.38 53.59 52.86 53.54 54.87 55.87 55.75 55.45 53.86 53.17 53.25 41.37 32.97 43.44 41.89 56.63 61.76 63.82 64.95 65.40 66.28 66.38 65.76 66.00
50.15 52.20 52.55 50.95 49.81 49.99 51.17 51.25 51.18 52.97 53.52 53.08 53.45 53.29 53.91 54.22 53.44 52.97 53.52 53.95 54.22 54.06 53.54 53.49 53.37 52.66 51.35 48.55 44.28 36.04 31.58 31.95 41.37 32.91 50.25 62.94 63.09 63.03 63.20 62.94 64.46 65.83 65.62

GFSGL_sfc_wetblb_057.txt.gz
Wetbulb
77.42 77.76 77.37 77.41 77.41 77.56 78.83 79.10 79.67 79.37 80.14 79.56 79.12 78.22 77.87 77.97 78.89 80.34 80.00 79.15 77.90 78.92 78.70 78.09 79.05 80.26 76.32 75.05 74.48 73.80 73.05 72.48 69.96 71.42 72.60 76.40 79.57 78.88 78.06 78.02 76.55 77.39 75.59
77.20 78.01 77.38 78.11 77.45 76.92 77.26 78.73 79.85 79.68 79.59 80.26 79.52 79.03 77.96 77.51 79.11 79.54 77.63 77.64 77.64 77.58 78.16 78.98 77.22 76.69 79.59 79.69 76.37 79.51 76.03 77.37 72.58 74.69 74.63 74.21 77.17 78.60 78.83 78.96 76.11 76.17 76.55
76.83 76.66 77.30 77.41 77.49 77.11 78.28 78.40 79.30 79.71 80.04 78.03 79.48 79.42 78.75 77.84 79.10 79.56 79.50 78.64 78.25 78.31 78.31 78.57 78.32 78.85 79.31 77.23 78.97 75.92 75.02 76.07 75.89 74.20 74.05 75.62 76.03 76.39 77.28 79.02 78.97 78.38 77.35
75.32 75.53 76.53 77.32 77.70 77.72 78.73 78.84 79.29 79.71 79.79 79.59 79.89 79.74 79.40 78.66 78.38 78.28 78.76 78.90 78.83 78.06 78.83 78.99 78.92 79.12 79.65 80.07 78.61 79.88 78.53 77.39 76.16 74.76 74.55 75.02 75.80 78.39 76.81 75.01 75.42 76.96 76.83
76.27 76.01 76.38 77.80 78.38 78.73 78.29 79.27 79.30 79.72 79.69 80.02 80.11 80.11 79.95 78.37 76.97 78.31 78.86 78.88 79.08 78.37 78.92 79.27 79.05 78.09 73.44 76.10 77.74 79.17 79.21 77.78 75.63 75.26 74.48 74.31 74.02 74.29 75.30 75.91 75.23 76.86 78.69
77.23 76.26 77.14 78.22 78.49 78.26 78.22 78.89 79.40 79.58 79.85 80.00 79.66 79.75 79.54 77.08 69.92 68.04 75.09 77.86 78.91 78.72 78.74 79.23 79.81 74.88 74.51 69.31 68.53 68.95 72.95 77.91 78.68 75.67 74.52 73.91 76.52 76.63 76.81 76.04 76.29 75.05 74.52
77.75 77.89 77.91 78.27 78.21 78.34 78.66 78.95 79.17 79.18 79.91 79.85 79.69 79.89 79.53 79.92 66.41 65.77 68.03 77.10 78.15 78.49 79.08 79.29 78.47 76.37 75.80 79.47 71.45 68.55 69.15 67.49 68.45 76.37 75.90 76.18 76.55 78.24 79.02 78.35 76.30 76.71 77.21
77.89 78.71 78.11 78.78 78.32 78.77 79.04 78.97 79.43 79.56 79.34 79.57 79.68 80.04 80.03 79.87 66.47 63.23 66.19 76.87 76.98 78.09 79.43 79.53 79.56 79.42 79.46 78.69 79.60 78.86 78.40 78.76 78.11 75.85 76.46 77.38 78.98 79.61 79.58 78.87 78.32 78.17 78.70
78.48 78.06 78.67 78.86 78.90 79.11 78.64 78.95 79.59 79.61 79.51 79.55 80.00 80.16 80.11 80.01 64.93 62.80 66.11 76.33 76.06 77.59 78.39 78.68 79.36 79.89 73.03 66.55 77.97 77.65 78.49 79.02 72.59 64.77 66.69 67.47 66.27 65.15 68.77 74.07 74.21 75.40 74.96
78.12 78.26 79.50 79.43 79.62 79.16 79.54 79.91 80.10 79.91 79.59 78.79 79.23 80.47 76.19 80.61 66.00 61.56 66.10 76.14 76.14 75.49 78.13 78.94 68.47 74.10 66.97 62.97 77.43 77.83 77.16 78.08 78.51 78.15 78.48 74.94 68.05 72.41 64.31 73.06 77.27 74.41 74.80
79.00 79.54 80.04 79.95 80.04 80.36 80.67 80.67 80.39 80.02 78.90 79.71 79.44 80.02 80.56 78.87 79.23 60.57 59.56 76.99 75.45 75.45 75.17 75.17 76.43 64.27 62.03 60.94 61.51 77.92 76.59 77.21 75.43 77.12 76.76 77.83 78.72 79.26 79.15 78.02 79.75 78.37 75.86
79.20 79.27 79.60 80.20 78.86 79.01 80.42 80.44 80.50 79.96 79.63 80.16 79.64 79.56 78.77 80.86 68.85 61.40 58.39 61.81 70.99 76.17 75.63 74.17 75.28 61.01 58.23 59.06 61.90 63.76 60.32 63.89 75.03 75.09 75.50 76.23 77.12 78.13 78.66 79.11 79.86 80.05 80.48
79.43 79.28 79.44 79.90 79.90 80.18 79.80 79.92 78.43 79.60 77.16 77.08 76.85 76.15 76.52 77.50 78.83 61.93 57.76 58.57 61.23 72.69 76.59 69.80 62.01 58.13 55.56 58.38 57.02 60.11 59.82 74.33 75.13 75.08 75.69 76.74 77.46 78.20 76.55 75.76 79.80 80.50 80.51
79.18 79.05 79.36 78.98 78.69 79.48 78.67 78.46 77.33 76.85 76.37 76.23 76.07 75.85 76.00 76.07 76.14 77.61 73.63 67.41 61.07 66.97 69.48 73.98 71.64 66.87 62.48 68.52 72.22 67.75 74.49 76.74 76.43 76.19 76.91 76.99 76.61 74.80 75.99 77.09 76.04 72.82 71.21
78.26 77.91 77.95 77.40 77.12 78.27 78.44 77.64 77.26 79.15 74.06 77.03 76.27 75.96 74.87 75.83 76.33 72.20 73.37 77.67 76.14 72.03 73.24 76.03 75.35 75.08 75.67 76.54 77.48 77.71 77.75 77.74 77.02 76.96 76.12 74.25 74.82 75.52 76.10 75.45 72.32 71.34 69.80
75.43 76.06 76.14 76.49 77.04 77.09 77.05 74.66 51.03 55.72 52.53 53.62 53.56 64.84 75.67 60.05 58.53 53.69 54.52 58.45 59.70 57.06 72.75 75.32 75.68 76.18 76.31 76.66 76.87 77.32 77.43 75.29 77.52 75.45 73.96 74.64 74.95 74.54 73.23 72.17 71.23 70.11 68.99
75.78 75.93 76.91 74.34 76.81 77.48 77.34 75.74 74.20 64.22 50.12 49.81 50.17 53.44 54.34 54.03 54.71 54.34 51.62 50.17 50.72 58.71 76.51 76.42 76.44 76.88 76.40 76.80 76.36 75.95 75.40 75.92 75.98 75.12 75.21 74.53 73.90 72.91 70.01 70.00 69.76 69.14 69.26
75.03 63.40 76.37 75.97 75.64 76.46 76.01 76.01 76.09 74.66 73.41 74.87 53.91 56.32 45.66 48.72 50.36 51.26 50.17 56.88 73.75 71.38 77.32 76.36 76.78 76.64 77.42 76.92 76.34 75.78 74.91 74.57 74.44 74.15 73.70 73.35 72.38 70.92 69.90 69.53 68.81 68.77 69.60
69.19 71.03 71.83 75.59 75.82 73.05 74.44 72.86 72.10 71.24 72.42 71.74 68.89 59.25 53.33 45.10 44.92 45.82 48.91 75.82 75.90 76.29 75.85 76.18 76.20 76.16 75.79 73.58 73.08 72.01 73.17 72.68 71.64 73.60 72.35 71.51 70.80 70.05 69.43 68.97 68.22 60.75 62.17
68.88 64.38 68.17 73.53 72.10 72.16 71.63 71.06 71.01 70.53 69.81 64.82 64.85 70.90 65.49 62.99 69.97 72.83 71.93 75.08 76.62 75.98 73.47 74.19 74.54 73.10 72.46 71.82 72.34 72.95 71.46 69.88 70.59 70.22 70.24 70.01 69.35 68.39 68.38 68.33 67.95 66.94 67.14
64.14 69.55 66.97 73.09 71.95 71.33 71.50 69.24 70.59 71.74 71.91 73.03 72.52 64.77 57.97 70.15 71.80 71.57 67.11 65.97 65.43 70.02 73.32 72.70 71.38 70.66 69.48 69.98 71.01 71.16 69.09 70.58 69.26 69.62 67.31 67.86 67.30 66.31 68.51 68.37 68.95 67.65 65.97
61.42 64.27 67.80 70.15 70.76 72.42 71.76 72.01 72.63 72.78 73.33 70.94 68.08 63.58 54.28 66.61 67.19 64.18 63.39 63.03 63.94 65.95 67.10 69.13 68.14 67.33 67.15 65.28 65.55 67.08 67.01 67.64 68.35 68.19 68.05 68.32 68.18 67.06 65.78 65.59 66.18 67.24 67.28
59.78 61.96 65.54 69.16 69.46 64.95 70.24 70.13 70.50 70.64 71.13 70.41 68.97 67.66 66.30 64.69 66.92 65.90 64.32 64.56 65.04 64.66 65.33 65.92 65.20 63.67 64.47 64.85 65.66 65.60 65.16 65.05 63.86 64.41 64.34 65.00 65.79 66.65 65.99 65.37 66.56 67.05 66.91
59.27 62.16 65.11 67.54 68.09 67.11 64.53 66.47 66.03 58.50 60.69 63.69 63.92 66.87 66.20 65.39 64.60 63.11 61.50 60.83 60.50 61.46 60.63 60.27 60.45 60.76 61.59 62.55 62.73 61.67 55.41 53.38 55.16 59.97 61.44 62.65 64.14 63.96 66.03 66.26 66.30 66.67 66.59
58.94 63.35 59.93 57.99 59.29 63.56 63.88 59.84 59.65 59.41 58.89 57.16 57.39 57.51 57.98 57.99 57.50 58.62 59.37 60.00 59.78 60.04 60.49 60.34 59.45 58.20 55.73 52.74 51.18 50.90 36.90 32.45 46.03 39.49 58.01 61.34 63.49 64.91 65.08 65.08 65.06 64.88 65.06
46.50 48.05 47.84 47.30 46.24 46.48 47.54 48.90 47.44 47.80 50.23 50.35 51.06 53.70 54.39 54.03 53.97 54.35 55.30 56.28 56.13 55.47 55.29 55.07 54.41 52.67 50.26 46.58 43.67 34.66 31.31 32.14 40.53 31.93 47.11 60.56 62.77 62.29 61.83 61.75 62.00 62.13 62.89

GFSGL_sfc_wetblb_063.txt.gz
Wetbulb
71.86 72.87 71.20 70.24 72.15 72.07 71.10 70.17 72.41 71.60 73.60 75.34 74.99 75.02 75.07 74.77 74.81 74.51 72.71 73.64 72.77 72.34 72.77 72.68 72.27 72.43 70.80 72.04 73.69 71.82 68.31 67.97 65.02 66.21 69.19 69.94 69.67 70.16 70.91 71.63 71.90 71.67 71.41
72.74 72.34 72.87 71.33 70.45 71.96 71.05 71.06 70.59 71.79 72.51 74.82 75.41 75.25 74.40 73.87 74.79 74.18 73.28 73.15 73.18 72.84 73.07 72.68 73.21 74.38 72.39 72.25 72.76 71.76 71.48 71.64 69.39 66.25 68.12 68.34 68.93 70.56 70.63 70.87 73.20 75.21 73.13
73.39 72.68 72.92 72.66 70.62 70.52 70.82 70.98 70.06 73.18 71.41 74.72 74.57 74.69 74.54 74.50 73.90 74.23 74.31 73.74 72.87 73.34 73.50 73.68 72.72 73.08 72.68 73.87 73.06 72.10 71.44 71.54 71.27 69.40 68.66 70.72 71.92 72.31 71.69 71.30 72.28 73.50 74.82
73.67 73.73 72.86 72.72 72.84 70.77 71.00 70.27 72.02 72.29 74.64 72.96 74.90 74.34 74.64 73.88 73.78 73.95 74.30 74.40 73.78 73.47 74.79 74.17 74.27 73.69 73.16 73.10 73.59 73.03 72.91 72.35 71.71 70.88 70.68 70.13 70.40 72.05 71.77 71.16 69.89 70.62 71.56
73.77 73.66 73.45 73.57 73.50 73.26 71.88 71.28 69.65 73.11 72.68 74.55 73.73 74.82 74.73 74.97 74.72 73.25 74.05 74.67 74.32 73.69 73.47 74.27 74.12 74.15 72.95 73.03 74.82 74.00 73.83 72.82 72.38 71.81 71.09 70.88 70.49 69.92 69.82 71.05 70.36 70.83 71.41
72.97 73.47 74.00 73.53 73.73 73.47 73.06 72.79 70.94 70.33 73.89 72.82 73.55 73.92 74.66 75.60 70.61 69.17 72.32 73.97 74.90 74.36 73.82 73.63 74.50 72.95 72.13 69.42 68.73 69.94 73.56 73.57 72.61 71.93 71.05 70.55 70.18 70.23 70.92 70.57 70.56 69.72 68.89
72.15 73.23 73.49 73.47 73.45 73.29 73.46 72.94 72.78 70.57 71.92 73.82 73.74 74.08 74.22 75.27 67.91 67.14 69.00 73.36 72.92 74.50 74.39 74.22 74.17 75.56 72.25 73.85 69.59 67.24 67.21 66.64 68.37 72.15 70.41 70.70 70.47 72.01 71.33 71.04 71.44 71.89 71.81
71.59 71.99 73.10 73.31 73.21 73.71 73.43 73.15 72.73 73.24 71.55 71.99 73.37 74.35 74.66 75.11 67.42 65.34 67.31 72.47 73.13 73.41 74.75 74.54 74.24 74.11 72.93 72.59 73.01 73.37 72.57 71.64 70.47 70.02 69.93 72.06 72.72 73.52 72.89 73.21 72.83 72.89 73.98
71.23 72.19 72.83 73.22 73.46 73.68 72.92 73.32 73.14 73.61 73.52 73.02 74.06 74.28 74.50 75.05 65.57 64.42 64.72 69.90 72.09 72.74 73.52 73.90 74.42 74.42 70.13 66.65 71.72 72.35 73.16 74.06 71.33 66.10 66.41 66.36 66.05 65.33 68.41 71.13 71.51 71.27 70.63
72.59 73.23 73.50 73.51 73.64 73.41 73.75 73.23 74.19 73.59 73.56 74.46 73.83 74.77 72.39 74.94 65.95 63.30 64.09 71.85 69.66 71.32 72.26 72.65 66.97 72.26 66.87 64.57 71.32 72.16 70.54 71.01 71.23 71.87 71.78 67.98 65.15 68.01 64.36 68.61 72.04 69.59 69.06
74.03 73.86 74.04 74.05 73.60 74.16 74.08 74.41 74.00 74.24 74.08 73.71 74.32 74.56 75.05 74.26 74.36 61.58 60.45 73.68 73.03 71.27 71.29 71.87 72.89 63.60 60.00 58.85 61.18 71.91 72.05 73.04 70.91 72.45 72.96 73.52 72.74 72.23 73.15 73.06 69.53 71.26 72.12
72.97 73.37 74.10 74.74 74.05 74.62 74.16 74.16 74.24 73.91 73.69 73.45 73.61 74.20 74.97 75.69 67.30 63.08 59.61 60.92 69.83 73.02 71.76 72.54 72.01 63.71 59.54 59.28 60.36 61.76 60.88 61.72 70.39 71.38 70.66 70.05 70.32 71.67 73.37 74.80 75.71 75.50 75.36
71.68 73.83 73.08 74.87 74.97 74.59 74.34 74.05 73.89 74.14 73.76 73.47 73.58 73.54 74.22 75.37 76.09 63.25 59.42 58.70 60.57 71.62 74.24 70.69 65.63 61.46 58.85 59.05 58.77 59.87 59.68 65.08 68.53 68.32 69.32 70.24 71.67 73.53 74.91 74.27 74.03 74.19 75.51
68.36 72.65 74.74 74.55 74.66 74.74 75.63 75.02 74.58 74.13 74.07 73.77 73.86 73.71 74.36 74.75 75.48 76.24 68.91 64.12 60.66 63.79 67.86 68.41 64.99 65.68 64.88 66.77 66.82 59.19 63.10 67.10 68.31 68.66 69.64 71.51 73.21 73.98 73.26 73.05 72.17 73.89 69.94
65.41 72.82 74.37 74.76 73.56 75.16 75.20 75.78 75.42 75.94 74.27 74.67 74.69 74.83 74.01 74.39 74.87 71.41 71.34 71.97 71.78 68.23 68.74 71.94 70.55 70.05 71.10 70.32 70.71 69.97 65.33 68.84 69.90 71.93 72.47 72.86 73.74 72.93 72.06 72.58 73.15 72.57 66.18
62.39 69.43 74.03 74.85 75.05 75.33 74.65 68.91 52.32 56.09 58.04 59.52 61.35 71.22 74.68 61.95 64.09 59.26 56.87 58.44 58.54 56.93 68.33 71.39 70.91 71.41 71.35 71.46 70.31 71.82 72.49 70.17 71.90 72.51 72.75 72.93 72.48 71.76 71.89 71.62 71.38 66.56 65.06
60.31 63.54 66.81 72.51 74.98 74.67 74.70 73.81 70.59 61.39 49.06 46.70 48.70 58.26 57.53 60.44 50.51 52.50 49.51 54.32 51.05 56.95 71.36 71.79 71.83 71.85 71.99 72.05 71.68 71.15 71.38 74.15 74.64 74.72 74.50 73.85 73.52 73.00 71.74 68.86 66.46 65.67 64.20
58.35 57.42 62.25 67.94 73.01 74.39 74.72 74.34 73.02 70.22 69.06 65.65 53.23 53.05 49.06 48.15 48.33 47.79 47.43 52.85 59.71 63.29 71.62 71.08 71.85 72.52 72.77 72.70 73.16 73.26 74.43 74.42 73.56 73.02 72.27 72.07 71.62 70.99 69.61 67.81 66.47 64.60 63.83
58.13 59.13 60.28 63.97 69.81 69.47 73.33 73.79 72.97 70.87 70.69 68.01 61.14 56.67 49.20 47.43 48.88 48.70 48.15 71.47 69.07 69.68 71.42 71.98 71.87 72.35 72.68 74.03 73.65 74.53 74.47 73.54 72.89 72.89 72.01 71.37 71.19 69.26 66.63 66.02 65.43 60.03 60.22
56.63 57.65 58.39 61.61 67.78 68.03 70.01 70.44 70.71 71.78 71.99 68.37 67.01 64.97 62.59 59.89 65.29 66.19 67.39 69.18 70.62 70.69 71.55 71.59 71.82 73.19 72.99 73.11 71.85 70.92 69.72 69.22 69.82 68.61 67.14 66.50 66.30 65.57 64.28 64.64 65.16 63.66 62.64
54.57 57.19 58.27 65.68 65.57 67.83 67.53 67.65 68.05 68.39 68.89 67.46 67.44 64.88 57.94 64.97 66.81 67.71 66.26 65.70 65.81 69.27 69.45 69.13 68.68 68.07 68.73 68.41 68.07 68.03 68.84 67.84 67.57 66.48 65.34 64.70 64.59 64.75 64.99 64.45 63.96 62.86 62.40
54.97 58.07 61.20 64.39 68.07 67.37 66.47 67.92 67.53 67.83 67.42 65.70 65.40 61.82 54.50 65.09 63.55 63.42 62.78 62.41 61.82 62.96 66.96 67.17 65.31 65.93 65.18 62.30 62.31 62.64 59.93 58.84 60.70 63.01 64.84 64.05 64.79 65.02 64.88 64.00 62.48 61.55 61.55
53.14 54.94 56.83 58.43 63.49 60.59 60.65 61.25 62.04 61.79 62.44 64.32 65.97 65.79 64.09 63.00 62.27 61.60 60.60 59.71 59.06 57.35 54.49 54.43 52.12 51.31 53.26 51.89 48.24 48.98 50.46 49.82 51.20 55.49 57.77 59.57 61.43 62.98 64.59 62.61 62.15 61.73 61.50
47.41 47.80 48.43 48.82 52.50 53.26 59.01 58.06 57.26 55.45 57.98 58.52 60.53 60.08 59.60 59.44 59.12 59.25 59.25 58.89 57.59 52.52 50.14 46.42 44.41 43.90 43.32 43.05 43.18 40.97 37.94 37.49 45.59 45.89 50.40 55.51 56.05 56.51 58.74 59.41 62.36 63.08 62.49
42.98 43.35 42.84 43.15 43.12 44.06 46.06 46.28 47.39 48.36 48.63 50.92 54.02 55.27 55.91 58.04 58.44 57.41 55.78 53.96 49.27 46.84 44.62 43.56 42.23 41.44 40.50 40.68 39.71 38.10 34.53 34.63 39.33 35.69 45.83 49.12 52.99 55.64 56.42 55.56 55.67 56.07 56.76
41.21 40.95 40.46 40.42 40.31 40.52 40.13 40.00 40.16 41.13 42.55 43.12 42.96 43.16 44.77 46.53 49.36 52.93 49.62 46.49 44.21 43.71 42.77 41.60 40.91 40.37 39.08 37.85 36.69 35.72 32.47 34.05 38.46 35.04 38.59 45.82 50.48 46.27 46.77 48.51 50.51 51.88 54.99

GFSGL_sfc_wetblb_069.txt.gz
Wetbulb
68.91 69.23 68.99 68.71 69.29 69.74 68.97 69.31 70.37 70.82 70.89 70.92 72.42 72.44 71.99 71.91 72.17 71.18 70.47 70.51 70.63 70.41 69.77 69.49 69.45 69.52 69.45 68.59 69.31 69.88 67.65 65.11 63.30 65.02 64.85 68.38 68.14 67.74 70.33 70.41 71.26 71.09 71.01
69.24 69.06 68.67 68.57 68.62 69.69 69.59 68.88 68.75 69.42 69.99 71.05 71.26 72.62 72.30 72.19 71.70 71.35 71.04 71.20 69.97 70.13 70.60 69.30 69.61 71.32 70.00 69.76 69.09 69.07 68.86 67.92 66.49 65.31 65.71 67.35 68.09 69.97 70.60 70.76 72.31 72.76 71.90
69.68 69.31 68.76 68.39 67.98 68.38 69.39 69.71 68.40 68.60 69.24 70.72 71.51 72.23 72.38 72.50 72.25 71.87 71.73 71.08 70.80 70.87 71.19 70.32 70.05 70.19 70.16 70.19 69.54 69.61 70.10 70.49 68.53 67.27 68.69 68.60 69.77 69.97 70.14 70.76 70.76 71.18 71.95
69.56 69.78 69.17 68.63 68.11 68.45 68.69 69.14 69.78 68.31 68.76 69.51 72.10 72.37 72.92 72.64 72.76 72.54 72.37 71.85 71.37 71.33 71.29 71.38 71.53 71.15 70.39 70.43 70.44 70.72 70.57 69.99 69.47 68.66 67.94 67.92 68.62 70.23 69.92 69.61 70.62 69.93 70.16
68.70 69.20 69.42 69.89 69.48 68.59 68.09 68.59 69.03 69.22 69.04 68.77 70.28 72.48 72.66 72.92 73.31 72.50 72.54 72.39 72.07 71.68 71.38 71.72 71.86 71.94 70.72 70.20 71.13 70.16 69.98 69.45 69.14 68.71 68.39 68.37 68.64 69.12 69.20 69.07 68.30 69.25 70.10
69.34 68.92 69.91 70.16 70.29 69.34 68.13 67.54 67.92 68.72 68.74 68.29 68.84 70.08 72.04 73.39 68.85 67.80 71.62 72.49 72.30 71.63 71.17 71.21 71.95 71.27 70.50 68.14 67.58 68.13 70.72 70.48 69.49 68.91 69.48 69.41 69.67 69.16 68.75 68.24 67.27 66.45 67.11
69.72 69.74 69.91 69.86 70.21 70.72 70.03 68.27 67.32 67.63 68.23 67.73 68.68 69.51 70.16 71.88 66.41 66.14 68.13 72.48 71.87 71.80 71.48 71.38 71.15 73.03 70.50 72.11 68.54 66.69 66.78 66.60 68.16 71.29 70.72 70.30 70.23 70.01 68.75 67.43 67.43 67.42 67.47
68.95 70.23 70.47 70.75 69.78 70.39 71.16 70.24 68.71 68.05 67.83 67.43 67.48 68.03 69.98 70.85 65.51 64.58 66.55 71.46 72.14 72.15 72.05 71.93 71.57 71.70 71.35 71.71 71.78 71.46 70.97 70.83 69.15 69.27 70.53 72.52 72.00 72.25 70.06 70.50 69.46 69.05 70.13
66.71 67.89 69.99 71.31 71.36 70.84 70.57 70.87 71.09 69.91 68.95 68.68 68.30 67.93 68.40 69.54 63.74 63.50 64.75 70.79 71.41 71.26 71.80 72.22 72.49 72.35 68.41 64.64 71.43 70.93 70.86 71.41 68.63 63.93 64.69 64.53 63.60 63.18 64.57 69.00 68.21 67.85 67.78
66.26 67.90 69.19 68.59 72.01 71.87 71.85 71.56 71.90 71.60 70.98 70.56 69.83 69.03 66.99 69.73 62.51 61.83 64.24 71.85 71.13 71.61 72.03 71.75 65.62 69.89 64.50 61.97 69.64 71.20 70.21 71.04 71.05 70.42 69.74 66.23 63.94 66.48 62.75 67.25 69.65 69.03 68.39
64.43 64.60 66.06 68.71 69.47 70.24 72.52 72.82 72.56 72.04 71.94 71.36 71.11 70.73 69.70 69.49 70.52 59.28 60.03 71.95 71.86 71.39 71.28 71.40 71.87 62.34 60.20 58.72 60.27 71.68 70.41 71.07 69.86 69.62 69.73 69.40 69.81 70.37 70.75 68.82 69.00 70.36 68.66
62.43 63.66 64.89 66.26 69.27 71.45 71.31 72.22 72.64 72.32 71.44 71.21 71.18 71.11 71.52 70.94 63.63 61.17 58.85 60.80 68.05 71.59 71.35 71.92 71.28 60.57 57.75 57.61 58.78 61.45 60.64 60.76 69.93 69.18 68.51 69.93 69.86 70.74 71.74 71.76 71.35 70.18 71.49
60.21 61.26 62.35 63.63 65.71 69.51 71.58 71.14 71.50 72.04 71.69 71.13 70.95 70.65 71.09 72.09 71.86 60.54 58.29 58.54 60.77 69.76 73.02 69.76 63.65 58.62 56.77 57.57 57.49 59.31 58.66 65.10 68.17 66.22 68.18 68.74 69.47 70.57 70.50 69.83 70.62 71.71 73.95
57.43 59.73 61.09 62.01 62.28 66.37 71.16 72.18 71.54 71.48 71.44 71.20 71.01 70.62 70.61 71.75 72.54 72.91 67.65 63.09 60.43 63.48 67.43 69.91 67.77 64.40 62.17 64.44 62.93 60.89 63.51 66.13 66.50 66.78 67.33 68.35 68.62 67.76 68.44 69.43 70.06 71.33 72.76
54.25 57.85 59.32 60.13 60.81 62.21 65.33 72.05 72.08 72.57 71.41 71.61 71.80 71.76 71.03 70.50 71.37 68.51 69.36 71.36 70.31 67.47 68.20 70.75 71.69 69.05 70.38 68.41 67.00 67.77 66.37 65.16 65.22 66.64 66.93 67.07 66.70 67.13 68.57 70.22 71.62 72.03 71.70
52.69 54.85 56.59 57.82 59.14 60.60 63.48 66.64 57.34 56.83 55.49 55.89 56.49 66.36 72.19 64.34 58.97 55.81 54.27 53.91 55.18 53.91 65.85 70.73 70.90 71.19 70.69 70.73 70.98 69.52 68.62 65.77 65.57 65.77 66.19 66.55 66.84 67.63 68.60 70.18 71.58 72.01 71.18
51.15 53.36 54.38 54.25 57.57 59.86 60.77 62.64 68.17 63.89 51.74 50.47 49.20 52.82 53.84 62.38 52.64 51.92 51.56 51.56 49.92 54.09 70.70 70.89 71.13 71.59 71.24 71.30 70.80 70.81 70.16 69.90 69.49 68.08 68.03 68.55 69.05 69.36 68.91 70.63 71.18 68.89 66.69
51.92 50.52 51.74 54.01 55.77 56.37 58.44 60.44 64.07 69.86 71.14 70.99 55.61 53.55 51.37 51.37 49.20 50.29 48.47 51.74 58.72 57.30 71.01 71.24 71.35 71.34 71.56 71.34 71.20 70.94 71.18 71.04 70.49 70.80 69.90 70.12 70.35 70.66 70.81 71.01 70.43 67.65 64.13
48.81 50.11 51.71 53.25 54.77 55.51 57.17 58.58 59.69 65.32 71.62 72.11 68.14 55.54 50.07 46.30 45.57 45.75 46.12 70.01 70.06 67.51 67.08 70.77 71.70 72.05 71.91 71.44 70.50 71.20 71.42 71.13 70.72 71.28 71.08 71.04 70.27 69.59 70.50 70.13 69.30 59.89 60.95
48.14 51.17 52.31 53.52 55.21 56.95 58.42 59.12 61.27 64.37 69.50 71.41 71.35 70.15 61.32 57.09 63.73 64.98 60.49 65.32 68.94 69.79 68.33 68.44 70.74 70.95 70.92 71.15 69.59 68.64 68.51 66.90 64.26 62.76 62.85 63.13 63.11 63.28 62.95 64.42 67.29 65.32 63.27
48.62 50.24 52.20 52.85 53.03 53.30 55.57 61.38 63.29 64.91 67.18 70.76 71.03 67.94 56.27 66.88 68.96 70.31 67.08 67.67 68.19 68.44 67.42 68.12 69.37 68.44 65.97 66.11 65.93 64.58 64.22 63.07 64.02 63.81 64.06 63.68 63.68 63.39 63.89 64.33 63.71 65.03 64.31
46.32 48.41 49.56 50.21 49.85 49.58 50.44 56.47 60.95 64.73 66.75 68.60 66.47 59.11 50.29 66.22 65.06 63.03 61.22 59.23 56.87 56.67 58.02 59.83 54.86 52.16 51.78 54.26 56.51 61.96 63.85 63.63 64.16 64.35 63.76 64.20 64.06 64.53 65.18 65.00 64.78 64.41 63.51
45.00 46.40 46.26 47.03 47.15 46.79 47.60 48.74 50.11 52.18 64.20 68.42 65.64 63.83 64.55 61.88 59.51 56.41 54.00 51.78 50.94 50.34 50.32 49.92 48.35 45.94 45.22 45.66 45.68 49.73 56.21 54.54 54.15 58.54 63.22 64.41 65.20 64.09 64.25 63.78 63.63 62.78 61.89
43.45 43.95 43.65 43.66 43.47 43.78 43.93 43.87 45.58 46.12 49.23 54.12 61.16 60.95 59.02 54.45 50.47 48.63 48.27 47.48 46.92 45.09 45.75 45.18 45.11 45.19 44.59 43.95 43.31 43.05 44.20 44.47 48.45 53.44 57.45 59.42 59.95 59.46 62.35 61.69 62.01 62.29 61.75
41.80 41.66 40.93 41.05 41.30 41.23 41.72 42.36 41.67 44.20 44.63 46.16 50.35 50.26 49.91 48.76 47.19 45.33 44.64 44.08 43.53 42.43 41.57 41.82 41.40 41.13 40.08 39.36 39.59 39.32 35.74 34.87 45.48 47.53 56.15 55.74 56.90 56.54 56.82 55.43 55.36 55.87 56.25
40.56 40.42 39.62 40.12 39.74 39.59 39.79 39.61 40.18 40.12 40.67 41.97 43.56 43.96 43.18 41.56 40.85 40.61 40.84 40.18 39.97 40.38 39.20 38.76 39.12 38.93 38.47 37.71 36.80 35.11 33.38 35.10 40.22 36.66 46.70 47.80 47.58 47.87 48.04 49.94 51.25 52.23 52.49

GFSGL_sfc_wetblb_072.txt.gz
Wetbulb
68.94 69.29 69.34 69.47 69.51 69.19 69.46 70.70 71.40 71.97 72.25 72.59 73.58 73.83 73.28 72.93 73.38 72.30 72.51 72.90 72.72 72.84 72.63 72.55 72.38 72.37 71.81 71.42 71.46 72.33 70.77 68.80 68.50 70.41 69.07 72.14 72.94 74.10 75.61 75.57 75.66 76.05 75.78
68.86 69.12 68.99 69.13 70.05 70.15 69.38 69.93 70.93 71.50 72.03 72.49 72.77 73.68 73.75 73.52 73.35 73.45 72.95 73.07 72.16 71.93 72.57 72.31 72.15 72.03 72.56 72.74 71.84 72.10 72.04 71.64 70.38 70.06 71.06 71.89 73.10 74.68 74.74 75.32 75.42 75.90 75.65
68.87 69.12 68.94 68.56 68.35 69.45 70.18 70.19 70.29 70.65 71.05 71.74 72.54 72.61 73.43 73.67 73.43 73.49 73.42 73.22 72.95 72.55 72.66 72.53 72.64 72.46 72.44 72.86 72.94 72.24 72.17 72.70 72.02 70.96 71.63 72.68 73.10 73.56 74.63 75.48 75.56 76.08 74.70
69.08 68.87 68.51 68.53 68.56 68.85 69.62 70.19 69.92 70.47 70.63 70.62 71.72 72.36 73.25 73.73 73.63 73.71 73.28 73.28 73.08 72.99 73.28 73.36 73.51 73.01 73.02 73.25 72.87 73.29 73.29 73.09 73.17 72.27 71.81 71.85 72.31 74.05 73.62 72.82 73.84 75.27 73.50
69.04 69.16 68.94 69.24 69.31 69.22 69.21 69.33 70.47 70.39 70.35 70.67 70.96 72.19 73.24 73.74 73.57 73.60 73.63 73.31 73.10 73.03 73.48 73.51 73.47 73.16 70.63 71.59 73.50 73.95 73.44 72.45 72.20 72.08 72.08 72.08 72.73 73.19 73.23 74.00 72.49 72.43 74.12
68.53 68.55 69.99 70.22 69.82 69.15 68.83 68.87 69.08 69.99 70.22 69.99 70.01 71.09 72.28 72.92 68.73 67.85 72.13 73.44 73.50 73.42 72.97 73.42 74.04 71.62 71.13 67.76 67.18 67.83 72.11 73.61 73.08 72.84 72.94 71.90 73.32 72.98 74.04 72.84 72.06 71.88 70.78
69.08 68.96 69.07 70.13 70.01 70.01 69.61 68.84 68.32 68.52 69.52 69.74 69.47 70.04 70.53 72.33 65.97 66.31 68.05 73.80 73.50 73.41 73.42 73.61 73.08 73.57 71.44 73.95 68.97 66.42 66.69 65.84 68.46 74.48 73.12 73.47 73.40 74.64 74.51 73.53 72.73 71.33 71.59
68.12 69.25 69.63 69.74 69.90 70.57 70.65 69.61 68.67 68.53 68.22 68.52 69.04 69.61 69.80 70.49 64.58 64.13 66.71 72.70 73.53 73.55 73.48 73.24 73.24 73.60 73.34 73.42 73.57 73.55 73.70 73.80 72.63 71.32 72.24 73.87 75.22 75.70 74.96 74.72 73.55 72.84 73.42
66.20 67.43 69.62 70.31 70.04 70.35 70.28 70.84 70.62 69.51 68.71 68.38 68.95 68.66 69.11 69.82 62.27 62.42 65.02 71.81 72.21 72.75 73.58 73.75 73.67 73.30 68.37 64.41 73.29 73.07 73.41 73.84 69.65 64.19 65.40 65.60 64.61 63.52 67.50 72.44 71.29 70.80 71.29
63.50 64.68 65.60 67.29 70.61 71.28 70.62 70.73 71.21 71.54 70.65 69.96 69.60 69.58 66.62 68.65 61.99 60.31 63.26 71.11 70.44 71.01 72.76 73.18 65.71 71.13 63.96 61.56 71.91 73.10 72.35 72.85 73.90 74.27 73.32 68.32 64.82 68.51 62.07 69.97 72.29 71.06 72.11
62.54 64.05 64.99 65.91 67.59 70.33 71.60 72.10 71.63 71.56 71.59 71.71 70.74 70.93 70.58 68.49 68.94 58.76 59.18 70.70 70.86 70.34 70.67 71.14 73.16 62.06 60.07 57.89 61.26 73.27 71.83 72.78 71.65 73.03 73.67 73.59 73.54 73.25 73.04 70.94 71.89 72.44 72.57
60.27 61.40 63.96 65.19 65.42 67.54 68.33 69.93 72.19 72.52 71.78 71.70 71.66 71.44 71.79 71.27 62.92 59.88 57.46 60.22 67.21 71.36 71.10 72.03 72.03 59.86 57.83 57.45 58.69 61.56 60.56 61.65 71.91 72.89 72.69 71.91 72.09 72.26 73.70 74.42 74.60 73.52 74.42
57.84 59.21 60.80 63.40 64.32 65.77 66.64 67.79 70.46 71.89 72.07 71.68 71.59 71.31 71.66 72.73 72.19 59.46 57.18 57.18 60.09 69.33 72.47 69.14 62.93 57.84 56.49 58.44 57.67 58.81 57.85 66.22 69.34 70.14 70.51 71.30 72.47 73.57 74.47 73.75 74.30 74.80 74.57
55.11 56.56 59.02 60.56 61.69 63.15 65.06 65.83 67.79 71.44 71.52 71.64 71.64 71.48 71.89 72.41 72.68 73.03 67.18 63.15 59.58 63.07 66.43 69.52 67.58 65.29 63.17 66.32 65.75 62.52 65.71 68.46 68.89 69.36 70.28 71.40 72.51 71.60 71.43 72.53 72.01 73.59 72.41
53.07 54.40 56.81 59.23 59.11 59.59 61.60 63.18 64.95 67.92 70.08 71.90 72.18 72.38 71.92 71.41 71.96 67.79 67.90 70.54 69.17 65.78 66.95 70.80 71.68 71.64 71.29 70.78 70.18 70.70 68.96 68.39 67.95 69.12 69.77 69.93 70.19 70.65 70.59 72.11 71.91 72.45 72.04
50.24 52.26 54.67 55.73 56.57 57.06 59.33 61.11 56.29 54.86 52.94 52.22 54.39 66.00 72.47 64.14 58.62 54.17 53.30 52.40 53.12 53.67 66.22 69.91 70.01 70.91 71.20 70.97 70.73 71.34 71.28 68.71 70.08 70.34 70.00 70.30 69.94 70.00 70.07 71.02 71.62 72.17 72.17
48.95 50.46 52.99 52.51 53.88 56.15 58.62 58.68 58.95 60.09 54.21 51.31 48.95 50.58 50.58 58.68 53.12 50.22 50.40 52.03 50.76 53.48 70.91 70.20 70.61 71.36 71.40 70.86 71.20 71.46 72.26 71.92 72.00 71.02 70.32 70.26 69.77 70.22 68.73 70.49 71.97 71.59 72.05
48.09 48.94 50.41 51.55 53.35 54.77 55.19 56.32 58.18 58.92 60.51 63.48 58.23 53.01 50.20 49.86 49.68 48.77 48.41 50.95 60.41 56.12 71.54 71.88 71.93 71.92 72.15 71.97 71.69 71.73 72.25 73.46 72.25 71.22 70.32 70.22 70.31 70.34 70.22 70.93 71.66 71.97 71.46
45.61 47.04 49.26 50.41 52.03 53.03 54.77 55.61 57.66 59.38 59.51 62.85 66.78 59.22 53.63 45.87 44.78 45.87 46.78 69.99 69.87 69.41 68.13 71.64 72.96 73.58 73.09 72.17 72.48 73.07 73.33 73.12 73.16 72.57 72.41 72.33 72.08 71.30 70.40 70.87 71.45 63.27 65.11
45.09 47.13 48.32 49.61 51.20 52.75 54.19 55.73 57.28 59.76 60.82 62.44 65.15 68.82 64.61 57.21 61.49 60.06 59.34 65.10 71.46 72.26 71.45 70.37 71.72 72.83 72.83 72.88 72.38 72.34 72.86 72.34 72.56 72.73 72.98 72.67 70.77 70.60 70.13 69.81 69.52 67.72 65.98
46.13 46.59 48.00 47.89 49.79 51.71 51.72 53.34 55.87 59.60 61.80 62.96 65.27 67.03 57.29 66.63 69.48 70.15 67.70 65.96 68.51 70.81 72.41 71.73 71.26 71.53 72.45 72.57 72.26 72.10 72.27 72.69 72.18 70.86 67.92 67.00 67.23 65.44 65.59 65.48 64.28 63.23 64.92
46.50 46.46 46.82 47.51 49.55 49.66 49.73 51.03 52.15 54.10 56.59 58.83 63.25 65.53 50.40 65.01 70.13 70.34 70.85 66.47 61.88 59.40 58.14 66.05 64.39 61.22 59.52 63.23 66.24 68.80 68.58 67.56 65.78 66.33 66.56 66.93 66.82 66.35 66.27 66.40 65.81 65.14 64.59
44.43 44.58 45.74 46.48 46.98 46.85 47.25 48.06 48.04 48.85 49.59 50.60 57.11 63.65 62.65 65.08 62.80 56.95 52.53 50.54 49.92 48.84 48.42 49.61 48.96 47.45 48.97 48.30 51.41 50.53 56.79 60.01 61.72 63.63 66.18 66.88 67.09 66.91 67.18 67.12 66.78 66.20 65.89
42.65 43.30 43.55 43.41 43.89 43.79 44.00 44.50 44.39 43.58 45.27 47.39 54.30 54.74 52.67 50.63 48.75 47.14 46.26 45.19 44.81 44.76 45.00 44.37 43.91 44.17 45.30 46.21 48.18 45.37 44.31 47.48 52.89 56.66 61.20 64.94 64.88 62.76 67.36 66.73 66.30 63.62 63.28
41.33 41.02 40.99 41.16 41.00 41.26 41.69 41.83 42.14 41.59 41.57 44.20 44.89 45.14 44.96 44.00 42.76 42.79 43.13 42.99 42.41 41.51 41.30 41.67 41.80 41.59 41.82 41.71 41.68 42.40 38.56 38.48 42.54 41.49 55.83 59.58 61.76 62.86 62.96 62.88 61.49 60.39 58.92
40.39 40.51 40.33 40.15 39.76 39.77 39.82 39.54 39.36 40.64 39.89 40.63 40.97 41.20 40.79 40.23 40.03 40.21 40.23 40.13 39.67 40.05 40.69 40.77 41.29 41.78 40.88 39.53 37.86 35.75 34.82 36.66 40.08 37.77 46.41 47.14 48.58 50.93 53.74 54.35 55.21 55.59 55.76

GFSGL_sfc_wetblb_075.txt.gz
Wetbulb
72.32 73.67 73.54 73.34 73.51 74.17 74.12 74.95 76.03 76.67 76.92 76.77 76.97 77.09 77.17 77.03 77.49 77.11 76.97 76.67 76.23 76.50 76.58 76.34 76.34 77.16 74.94 74.95 74.95 75.08 74.68 74.06 71.05 72.14 75.17 76.72 77.53 78.07 78.30 79.17 78.06 78.23 77.22
72.46 72.99 72.12 73.43 73.54 73.12 73.31 74.06 75.28 75.82 76.70 76.83 77.19 77.10 77.09 77.25 77.27 76.84 76.30 76.01 75.86 75.43 75.75 76.22 75.74 75.57 76.38 76.59 75.61 76.09 75.24 75.98 73.83 73.47 75.63 75.36 76.61 77.94 78.48 78.68 77.68 77.24 78.48
71.91 71.18 70.35 71.02 72.33 73.23 73.65 73.95 74.45 74.86 75.94 75.94 76.61 76.73 76.94 77.09 77.02 77.16 77.22 76.80 76.64 76.39 76.05 76.00 75.83 76.25 76.05 75.71 76.22 75.71 75.59 76.01 75.95 74.72 74.24 75.87 76.28 77.01 77.09 78.17 78.15 78.50 77.55
71.95 71.84 71.01 70.19 70.31 72.74 74.56 74.67 74.28 74.63 75.08 75.31 75.81 76.25 76.67 77.28 77.28 77.28 77.03 77.00 77.05 76.75 76.78 76.44 76.44 76.22 76.26 76.84 76.61 76.87 76.55 76.00 75.95 75.17 74.08 74.18 75.17 76.94 76.75 74.67 74.32 76.13 76.27
71.92 71.67 71.91 73.02 71.93 71.07 73.16 74.80 74.64 74.58 74.45 74.92 75.17 75.31 75.91 75.89 75.87 76.69 77.03 76.89 76.82 76.67 76.94 76.78 76.77 75.67 72.11 73.26 75.59 76.72 76.82 75.56 74.80 74.38 73.64 73.82 73.66 73.72 73.95 74.66 73.98 75.17 76.95
70.09 71.61 73.22 73.68 74.05 73.76 74.31 74.37 74.45 74.22 74.27 74.46 74.11 74.70 74.95 74.32 68.46 67.70 73.68 76.41 76.84 76.66 76.38 76.81 77.11 73.30 72.49 68.09 67.65 68.44 72.88 75.97 75.22 73.72 72.82 72.76 75.16 75.30 74.64 74.38 74.06 73.48 71.83
70.51 70.82 72.08 73.32 73.07 73.75 73.53 73.80 73.85 73.97 74.33 73.86 73.61 73.86 74.59 75.64 65.91 65.40 68.27 75.44 76.22 76.58 76.91 76.81 76.50 76.01 74.19 77.03 69.46 66.56 66.96 66.00 68.32 75.86 74.98 74.76 75.26 76.08 76.55 75.96 75.63 75.00 74.11
71.10 70.83 72.07 72.37 72.30 73.54 73.58 73.31 73.79 73.35 73.64 73.55 73.47 74.23 74.52 74.39 65.40 63.63 66.29 74.85 76.33 76.82 77.08 77.11 77.00 77.23 76.87 76.42 76.73 76.35 76.45 76.82 75.66 74.03 75.02 76.00 76.95 77.64 77.91 77.50 76.80 76.43 76.28
64.95 67.78 69.28 71.33 72.72 72.90 72.90 73.19 73.63 73.15 72.87 72.77 73.28 73.86 74.10 74.49 62.91 62.66 65.49 73.68 74.04 76.16 77.03 77.08 77.45 77.23 71.20 65.47 75.52 75.61 76.03 76.18 70.84 65.91 66.29 65.69 65.71 64.68 68.93 75.72 74.45 73.54 72.19
61.26 62.47 66.02 68.75 69.86 72.70 73.40 73.80 74.10 74.31 73.56 73.45 73.04 73.56 69.94 73.94 64.78 60.34 63.77 72.02 73.30 72.90 75.47 76.60 66.88 73.34 65.68 62.02 74.15 75.30 74.82 75.20 75.52 75.44 76.05 71.36 66.96 71.83 62.84 73.40 75.39 73.38 72.91
61.75 61.26 62.44 66.49 67.03 67.96 72.76 74.69 74.06 74.41 74.30 74.22 73.97 74.49 74.53 72.98 72.69 59.40 58.23 71.87 72.39 72.98 73.07 73.51 73.98 62.65 61.14 58.26 61.93 75.88 74.93 75.11 72.93 75.35 74.81 74.72 75.76 76.68 76.91 75.19 76.16 75.36 73.80
60.23 59.97 61.28 62.95 65.22 66.87 67.81 68.58 70.29 72.24 72.52 73.15 73.60 74.20 74.94 75.30 65.80 61.81 57.18 58.89 67.80 73.21 73.84 74.29 74.30 60.25 57.65 57.46 59.81 64.12 61.36 63.63 74.42 73.73 73.07 73.06 73.57 74.39 75.40 76.44 78.20 77.50 77.27
57.87 57.73 59.14 60.35 62.69 65.20 64.95 68.04 69.72 70.90 71.67 72.81 72.98 72.77 73.54 75.23 75.68 60.27 57.23 56.66 58.52 70.05 74.20 71.12 63.42 56.91 55.97 59.37 57.70 59.80 58.78 71.75 73.01 72.41 72.52 73.05 73.99 74.87 77.05 76.69 77.50 78.10 77.74
57.35 55.98 57.19 58.04 59.47 62.27 62.69 64.74 66.89 67.73 69.71 70.68 72.08 72.98 73.81 74.09 75.16 75.82 72.65 67.28 59.60 63.32 66.78 71.52 69.01 66.39 64.11 68.33 68.77 64.24 70.52 73.24 72.96 72.88 73.28 74.17 74.86 74.66 74.55 75.61 74.82 74.91 74.62
56.62 56.03 56.35 56.87 58.53 59.35 61.25 60.94 63.87 66.78 65.87 69.54 71.21 72.54 73.24 73.75 74.55 69.48 70.48 75.28 74.62 68.90 68.99 72.43 72.77 72.85 72.85 73.10 73.20 74.25 74.31 73.65 72.78 73.51 74.01 73.91 73.84 74.24 74.30 75.17 74.87 74.50 73.65
54.62 55.21 55.17 54.67 54.88 57.74 56.04 58.72 55.34 53.04 52.20 50.97 48.80 54.11 67.56 63.56 57.50 53.85 52.78 51.51 53.15 54.41 67.79 72.16 72.54 73.31 72.74 72.23 72.14 72.45 73.11 71.57 74.17 74.16 74.02 73.95 73.61 73.64 73.74 74.58 74.82 74.42 73.51
53.43 53.60 53.83 52.72 54.84 55.01 55.80 55.95 56.76 58.35 51.04 50.31 48.25 48.43 46.98 53.52 53.33 48.80 50.43 50.06 50.25 54.96 70.88 72.62 72.20 71.90 71.84 72.01 72.84 73.38 73.08 73.37 74.86 74.69 73.99 73.87 73.67 73.95 73.01 73.62 73.92 74.28 73.81
51.47 48.41 49.45 52.28 53.54 54.38 54.83 55.85 56.91 57.89 59.12 59.47 57.36 55.32 53.83 47.16 45.71 46.98 49.88 49.34 61.54 55.67 71.76 71.74 72.38 72.12 73.13 73.76 73.90 74.18 74.86 73.51 73.20 74.11 74.31 73.88 74.02 73.65 73.28 73.46 73.84 73.80 74.09
49.67 47.96 48.35 49.24 50.57 51.10 52.23 53.76 54.65 56.14 57.45 59.53 61.94 59.80 60.53 47.16 44.44 44.26 48.07 65.69 69.60 71.80 68.90 71.75 73.50 74.27 73.60 73.84 75.18 75.59 75.15 74.04 72.53 73.18 74.20 74.58 74.45 74.23 73.91 74.44 74.73 64.60 68.17
48.30 47.96 47.84 47.93 48.31 48.90 50.46 51.53 53.50 56.15 57.12 58.38 60.22 61.65 65.71 61.19 66.51 64.57 57.46 61.93 70.70 73.66 74.34 73.13 74.39 75.49 74.92 74.52 74.75 74.73 75.34 74.79 73.34 72.85 73.06 73.11 73.43 73.57 73.41 73.42 73.25 72.70 71.44
46.79 47.42 48.14 48.37 47.61 47.95 49.65 50.87 52.27 53.32 54.12 56.58 60.24 62.46 53.63 65.26 67.21 69.77 71.43 65.89 67.70 73.17 75.31 75.33 75.49 75.42 75.21 75.27 75.07 74.35 73.90 74.22 73.87 73.35 73.74 73.84 73.36 73.05 73.30 73.45 71.84 70.49 70.06
46.08 46.53 47.05 46.97 47.39 48.61 48.84 50.04 50.56 51.21 51.92 53.69 55.32 58.57 50.44 61.99 65.68 67.01 70.85 72.11 70.95 71.34 72.30 72.30 73.31 70.54 69.84 70.52 71.80 72.96 73.29 72.98 73.09 73.25 73.02 72.37 71.27 70.35 68.22 67.70 67.05 67.27 68.58
46.31 45.80 45.43 46.41 47.48 47.86 48.11 48.51 48.54 49.42 49.83 50.45 51.33 53.05 55.63 61.07 64.95 65.87 61.80 55.11 52.96 51.39 50.92 53.03 54.07 52.59 51.54 52.26 52.35 54.12 58.21 59.32 58.78 62.31 67.59 68.04 67.70 67.27 66.82 66.33 66.39 67.70 68.06
42.33 43.04 43.39 44.35 44.93 45.16 45.08 45.34 45.41 44.52 45.46 46.43 47.92 51.09 50.20 50.16 49.80 48.18 47.22 46.82 46.89 46.16 45.61 45.45 45.94 46.90 47.29 47.74 47.34 45.90 46.54 50.19 55.93 58.90 59.80 62.90 65.64 65.20 67.72 68.85 68.76 68.85 68.72
41.44 41.57 41.76 41.81 41.61 42.41 42.70 42.87 42.53 43.66 43.36 43.46 44.05 43.89 44.46 43.76 43.11 43.29 42.94 43.03 43.16 42.94 42.91 43.45 42.98 42.94 43.62 43.99 43.85 43.45 38.27 39.37 50.05 48.52 56.03 56.53 55.56 57.76 63.63 67.46 68.00 68.37 67.75
39.31 40.33 40.59 40.68 40.25 40.24 40.47 40.40 40.33 41.28 40.84 41.09 40.66 41.27 41.24 40.78 41.14 40.94 40.80 40.40 39.89 39.83 40.50 41.11 41.38 41.35 40.58 39.96 39.04 36.59 35.35 37.92 44.01 41.54 53.28 51.71 49.66 49.02 50.82 51.50 53.11 56.31 57.60

GFSGL_sfc_wetblb_078.txt.gz
Wetbulb
75.58 75.68 75.78 75.92 76.34 76.63 76.02 76.21 76.91 76.91 77.39 77.92 78.54 78.25 77.88 77.65 78.21 78.58 78.13 77.17 77.09 76.79 77.12 76.93 77.15 77.79 75.64 74.67 75.18 74.75 74.25 74.19 71.79 72.59 74.51 76.63 78.50 78.66 78.87 79.69 78.72 78.30 76.44
75.10 75.58 75.36 76.24 76.15 75.58 75.82 76.22 77.07 76.80 77.46 78.08 78.65 78.48 77.33 77.46 78.15 78.60 77.40 76.79 76.57 76.28 76.68 77.11 76.59 75.94 77.20 77.14 75.47 76.85 76.62 76.26 73.96 74.39 76.55 74.84 77.44 78.68 78.90 79.17 77.67 77.35 78.06
74.29 73.66 74.41 74.41 75.05 75.14 75.58 76.28 76.59 76.75 76.85 76.83 77.74 78.42 78.03 77.26 77.89 78.34 78.48 78.00 77.17 76.91 76.73 76.96 76.71 76.80 76.64 75.73 76.56 75.36 75.47 75.71 75.65 74.13 73.64 74.82 75.94 77.25 77.80 79.17 78.44 78.97 76.63
74.14 74.33 73.29 74.39 74.66 74.57 75.61 76.37 76.34 77.04 76.69 76.39 76.95 77.61 77.95 77.83 77.87 78.23 78.60 78.47 77.80 77.32 77.96 77.96 77.71 76.63 76.82 77.40 77.17 77.48 77.29 76.41 76.63 74.40 73.83 74.07 74.89 77.49 77.04 74.71 73.42 74.66 75.03
73.74 73.83 74.41 75.23 75.25 75.19 74.17 75.67 76.50 76.77 76.66 76.93 76.36 76.72 77.33 77.29 77.15 78.36 78.44 78.25 78.05 78.17 78.22 78.54 78.28 76.63 72.40 73.42 75.73 78.54 78.47 76.12 74.78 73.80 73.36 73.89 73.62 73.79 75.15 74.08 73.29 73.88 76.33
72.95 73.36 74.86 75.30 75.67 75.68 75.39 72.84 76.08 76.35 76.76 76.90 76.30 76.11 75.71 74.86 68.89 67.40 73.62 77.69 78.06 78.15 77.61 78.12 78.70 74.45 73.75 68.91 68.60 68.81 72.42 76.66 75.86 73.18 71.91 72.50 76.45 75.42 74.73 73.55 73.31 72.43 71.10
70.72 73.42 73.28 73.95 74.79 75.24 75.78 75.98 75.55 75.52 76.36 76.40 76.30 76.30 76.58 76.87 65.98 64.94 67.68 75.56 76.07 77.20 77.88 77.55 77.10 76.59 75.41 77.90 70.19 67.50 67.77 66.37 67.99 76.32 75.58 75.64 76.35 76.84 77.61 76.33 77.39 75.29 74.45
63.49 64.46 65.86 71.88 73.09 74.72 74.90 75.16 75.75 75.87 75.82 75.57 75.80 76.82 76.71 76.97 65.64 64.34 66.08 75.37 75.93 77.13 77.90 78.12 78.35 78.41 77.39 76.75 77.33 77.04 77.56 77.60 76.55 75.34 75.72 76.43 77.89 78.46 78.56 78.43 78.11 77.78 77.31
62.17 62.79 63.29 64.90 68.17 72.03 73.87 74.12 75.57 75.26 75.55 75.59 75.95 76.10 76.50 76.99 63.75 62.88 66.45 74.53 74.20 76.32 77.45 78.48 79.02 78.99 72.26 65.41 76.84 77.41 77.18 77.52 70.85 66.63 67.32 66.50 64.77 64.19 68.97 76.03 74.03 73.03 71.48
63.98 63.24 63.56 64.69 64.78 66.23 70.96 73.08 74.73 75.86 74.88 75.39 75.61 76.29 72.22 76.30 66.30 60.58 65.00 73.97 73.88 73.93 76.72 78.04 67.92 74.42 66.33 63.11 76.77 77.57 76.47 76.93 75.20 75.45 76.19 72.44 68.63 73.51 64.59 74.88 75.84 73.34 72.36
63.78 64.02 63.22 63.59 64.68 65.72 66.27 69.54 73.09 75.35 76.74 76.37 75.55 76.41 76.99 75.24 75.41 60.09 58.89 73.90 73.90 74.11 74.15 74.61 75.35 63.31 61.60 59.31 61.91 77.82 75.57 76.12 73.34 74.68 74.32 74.33 74.94 75.37 76.78 77.03 77.63 76.06 73.35
62.98 62.84 63.45 63.54 62.35 64.34 67.14 67.62 67.80 71.19 72.12 74.87 75.63 76.58 76.24 77.69 67.46 63.28 57.85 59.24 68.89 74.54 74.96 75.36 76.05 61.13 57.60 58.59 61.50 64.75 61.25 63.37 73.49 71.39 70.94 71.22 71.87 72.74 73.37 76.02 80.48 79.72 78.60
61.87 61.75 62.08 62.73 63.41 63.98 64.42 66.10 67.28 68.89 70.32 71.90 72.98 72.82 75.71 76.18 77.65 61.95 58.37 57.37 58.73 69.36 75.47 72.02 62.53 57.27 54.61 58.34 57.48 59.33 59.70 72.40 72.61 72.15 71.43 71.98 72.65 73.46 77.22 78.00 80.55 81.76 81.09
59.88 60.65 61.05 60.82 60.91 62.65 62.88 64.02 65.53 65.87 66.38 68.67 70.42 72.65 73.83 75.74 77.16 77.07 74.89 69.66 60.04 64.39 66.69 70.63 69.72 66.57 62.72 67.86 70.26 65.90 71.20 73.68 73.29 73.28 72.83 72.98 74.24 73.75 73.69 74.71 74.27 74.55 74.77
58.87 59.59 59.51 59.65 60.56 60.54 61.48 62.43 61.93 62.89 62.52 63.73 65.39 68.18 69.21 72.16 75.34 61.42 62.37 76.03 77.10 71.29 70.13 74.15 73.87 73.90 74.02 74.72 75.14 75.43 75.61 74.69 73.45 74.20 74.22 74.05 74.31 74.39 74.24 74.90 74.28 74.09 72.99
57.48 57.72 57.83 58.14 58.40 59.07 59.43 60.14 54.66 50.77 48.80 48.29 48.54 53.18 63.90 58.11 54.70 53.78 50.75 52.93 53.84 55.65 70.73 73.23 74.04 74.67 74.70 75.10 75.11 75.52 75.60 73.55 75.60 75.17 74.75 74.49 74.01 74.02 73.95 74.31 74.43 73.46 73.10
51.71 55.50 55.59 55.79 57.45 57.31 57.84 58.39 57.94 58.47 51.35 48.68 47.35 47.08 46.64 49.91 48.04 50.57 46.77 48.22 51.48 54.40 72.27 73.02 74.05 74.69 75.43 75.47 75.27 74.96 75.06 75.93 77.86 76.30 76.16 75.49 74.87 74.50 73.26 73.35 73.44 73.63 73.74
50.44 49.72 53.33 55.21 56.12 56.70 57.28 57.78 58.32 58.07 58.07 58.71 55.01 52.14 51.91 45.63 45.68 45.86 45.68 50.75 61.41 56.60 71.38 72.86 73.94 74.96 74.98 74.44 74.01 75.05 75.23 75.71 75.96 76.22 75.33 75.58 75.98 74.81 73.80 73.67 73.71 74.34 73.97
50.49 51.15 52.86 54.29 55.33 54.47 55.28 55.77 56.22 56.31 56.73 57.83 59.65 56.46 56.63 50.14 46.40 45.32 42.96 61.86 67.01 70.63 70.09 72.33 74.28 74.67 75.41 75.74 76.11 76.39 77.13 76.62 76.88 76.74 75.89 76.13 76.26 75.38 74.53 74.33 74.32 65.28 68.76
48.47 49.02 49.77 51.29 52.68 53.95 54.54 54.51 54.78 54.47 54.56 56.96 57.96 58.94 62.06 61.81 65.37 67.42 62.11 63.63 64.42 69.18 72.80 73.20 73.81 75.14 76.04 76.13 76.41 76.61 77.01 75.93 77.16 76.52 76.29 75.87 76.15 75.55 75.67 75.37 75.43 75.08 75.80
45.87 47.59 48.41 50.33 51.07 52.46 52.34 50.78 50.83 52.95 52.98 53.84 55.74 57.99 48.38 57.86 60.98 64.45 66.04 68.02 68.08 70.04 71.43 73.63 75.03 75.88 75.91 76.97 77.93 77.98 76.36 76.81 76.11 75.45 75.82 76.07 75.77 74.00 74.18 73.96 73.98 74.46 74.05
45.52 45.20 45.43 46.08 47.63 48.67 49.72 50.42 50.17 50.96 51.39 51.83 54.61 56.82 47.38 57.59 59.25 61.47 64.55 66.78 68.99 70.67 72.27 72.42 72.65 70.84 69.93 72.89 75.77 76.69 75.56 74.71 74.92 74.27 74.29 74.90 75.44 74.14 73.59 73.48 73.18 72.65 72.31
44.30 43.67 43.97 44.74 46.13 46.71 47.73 48.80 49.32 49.71 50.64 51.87 52.64 53.19 54.94 56.81 57.60 59.15 61.37 64.39 63.14 55.36 53.20 54.12 57.62 58.71 55.20 55.23 55.21 55.71 61.09 66.83 66.92 66.88 72.81 73.66 73.52 72.99 72.60 70.44 69.92 68.93 68.67
40.89 41.37 42.10 42.34 43.11 43.99 44.91 46.47 47.25 46.88 48.56 49.27 50.10 50.47 51.25 52.76 51.68 50.61 49.52 49.32 49.00 48.03 47.85 48.07 47.72 48.14 48.13 48.92 49.64 51.17 52.18 51.64 55.98 59.50 61.36 64.21 66.29 64.84 67.82 67.37 66.97 66.59 66.54
39.39 39.11 39.55 40.66 41.47 41.72 42.32 43.18 44.23 45.21 46.05 46.65 46.49 46.58 47.08 46.92 46.09 45.21 45.12 44.86 44.74 44.77 44.02 44.41 44.67 45.06 44.92 44.80 44.36 44.59 40.78 40.97 51.23 50.42 58.99 59.58 59.35 59.53 59.44 60.02 60.59 65.28 67.24
39.22 38.39 37.52 38.14 39.17 40.43 40.58 40.70 41.53 42.37 42.45 43.42 43.59 43.54 43.60 42.95 42.71 42.57 42.42 42.10 41.74 41.55 41.56 42.27 42.77 42.39 41.81 40.53 39.19 36.13 32.94 35.65 46.39 42.96 55.86 55.34 54.66 54.18 53.92 54.19 53.94 53.82 54.13

GFSGL_sfc_wetblb_081.txt.gz
Wetbulb
76.80 77.33 77.23 77.28 77.25 77.71 77.05 76.95 77.17 77.35 77.79 77.62 78.30 78.76 77.90 78.09 78.06 79.42 79.04 77.19 77.28 76.92 77.35 77.24 77.50 79.57 75.42 74.39 74.04 73.67 73.33 73.41 71.23 72.70 74.76 77.28 80.01 80.30 79.99 80.33 79.04 79.92 77.25
76.66 78.02 76.99 77.65 77.96 76.76 77.07 77.23 77.71 78.08 77.65 78.25 78.80 78.04 78.05 77.36 78.64 78.44 77.25 76.57 76.43 76.43 76.44 77.37 76.16 75.48 78.77 78.94 75.65 79.35 76.52 77.81 74.01 75.77 75.97 74.47 78.24 80.92 81.21 81.65 78.70 77.47 78.29
76.07 76.37 76.63 76.34 76.22 76.72 77.48 77.17 78.57 78.07 78.25 76.74 77.90 78.44 77.90 77.01 78.50 78.66 78.38 77.98 77.39 77.17 77.17 76.95 76.57 77.23 78.46 76.49 78.16 75.44 74.83 75.74 76.02 74.40 73.88 74.68 75.49 76.30 77.63 80.36 80.94 79.57 77.27
73.97 75.51 75.73 75.82 75.99 76.34 77.80 78.89 77.45 79.09 78.26 77.81 78.22 78.92 78.28 77.45 77.36 77.67 78.38 78.17 78.05 77.73 77.85 78.34 77.83 77.58 78.43 78.69 77.32 78.85 77.47 76.15 75.54 73.52 72.77 73.80 75.03 78.51 76.67 75.43 74.63 75.10 74.87
73.50 73.26 75.91 76.48 76.34 76.75 77.01 77.47 78.06 78.69 78.77 78.66 78.68 78.31 78.70 77.28 76.78 78.06 78.30 78.13 77.96 78.54 78.31 78.78 79.08 77.10 73.02 74.74 75.53 78.02 79.20 76.87 74.11 72.77 72.48 73.16 73.23 73.93 75.31 74.79 73.84 74.31 76.60
69.35 71.13 71.06 75.38 74.94 77.04 76.76 76.79 76.83 77.10 79.27 79.61 78.50 78.48 77.91 75.62 69.20 68.14 74.47 78.49 79.21 79.63 78.13 78.79 79.41 75.01 74.21 69.04 68.52 68.85 72.69 77.40 78.34 73.92 72.49 72.02 77.02 75.27 73.93 72.97 73.51 72.16 70.93
64.83 65.30 66.49 69.83 72.25 74.05 76.30 77.36 76.93 76.16 77.46 79.03 78.62 78.56 78.63 78.71 67.51 65.03 68.44 76.13 77.64 79.05 79.32 79.09 78.08 76.01 75.60 79.05 70.61 68.30 68.75 67.08 68.02 76.46 76.80 76.80 76.49 78.47 79.09 78.88 76.94 76.38 74.35
63.70 63.79 64.23 66.20 68.77 71.50 72.82 74.80 75.81 76.89 76.54 76.93 78.10 78.97 79.10 78.74 66.92 64.22 65.70 76.42 76.98 77.80 78.31 79.62 79.68 79.08 79.08 78.25 78.98 78.34 77.62 78.00 77.21 74.75 75.50 76.82 78.39 79.40 79.43 78.62 79.39 79.24 78.13
64.65 64.07 63.76 63.88 65.21 67.94 69.70 69.82 74.20 76.36 75.43 75.31 75.82 77.68 77.86 78.86 65.51 63.19 66.10 75.38 74.70 76.11 77.58 78.21 78.23 79.07 73.15 67.34 77.71 78.08 78.62 78.67 71.41 68.07 69.29 68.89 68.41 66.77 69.88 75.27 73.29 72.66 71.56
63.67 64.88 66.24 65.71 64.49 65.24 65.93 68.76 70.52 74.24 75.53 77.18 75.66 76.86 72.87 77.83 68.00 62.33 64.73 75.08 75.36 75.01 77.16 77.59 68.34 73.33 66.82 63.66 77.08 77.57 76.85 77.49 78.79 77.12 75.83 72.39 68.77 73.18 64.89 73.79 74.79 72.08 71.67
63.14 64.19 64.69 65.41 65.73 65.22 66.27 68.24 68.36 69.15 72.07 74.63 75.44 77.22 77.96 76.20 77.08 61.24 59.27 75.77 75.10 75.04 75.29 75.37 76.64 63.96 61.84 61.01 60.99 77.85 76.13 77.06 75.74 77.03 76.60 76.25 75.81 77.04 77.50 77.44 77.68 75.77 73.10
61.19 62.36 64.08 64.47 64.04 64.64 66.38 66.58 68.17 68.74 68.52 70.75 73.45 74.84 76.88 77.86 69.03 65.31 58.92 60.31 70.54 74.99 75.64 76.09 76.41 61.50 58.07 58.79 61.69 65.05 62.15 65.00 75.87 75.07 74.14 72.88 72.42 72.76 74.03 75.37 79.16 79.19 78.40
59.86 60.47 61.92 63.34 63.64 64.25 63.88 65.39 65.09 69.38 69.58 69.32 69.63 72.03 72.77 74.58 77.79 64.09 59.52 58.37 59.89 70.60 76.18 72.69 59.94 57.86 54.62 57.45 57.04 58.45 59.21 72.11 73.69 73.74 73.97 74.30 74.32 73.86 75.03 76.55 78.22 82.42 80.90
59.71 59.92 60.63 61.73 61.68 62.24 62.70 62.97 63.24 64.29 65.05 65.53 67.72 67.08 67.40 70.14 75.43 77.03 70.09 67.24 63.89 67.38 67.56 72.41 70.21 66.32 60.15 65.01 69.28 65.40 70.66 74.01 74.03 74.21 74.32 75.41 75.48 74.74 73.97 74.86 73.99 74.15 74.17
56.72 57.93 59.81 60.54 61.06 61.78 63.04 61.68 61.75 64.28 60.98 61.39 61.64 62.48 62.77 64.38 68.09 57.69 57.97 64.89 62.97 61.47 59.16 70.32 74.99 74.75 74.29 75.11 75.97 76.44 76.95 75.68 74.19 74.50 74.70 74.90 75.00 75.03 74.44 75.43 74.98 74.70 73.77
54.16 55.04 56.53 57.43 58.45 59.15 59.50 59.95 55.07 51.67 50.72 48.25 47.34 53.20 60.99 54.49 51.84 49.52 48.35 50.18 52.17 53.26 60.64 70.45 74.18 74.73 74.99 75.42 75.78 76.34 76.92 74.53 77.19 76.50 75.49 75.08 74.65 74.90 75.05 75.67 75.63 75.17 74.07
50.44 52.54 54.31 54.21 56.14 56.98 57.71 58.13 57.48 58.04 48.31 47.15 46.22 46.43 45.62 47.84 45.58 44.86 43.83 44.01 45.64 52.35 63.87 67.63 72.48 74.07 73.89 75.65 75.02 74.91 74.91 76.03 77.65 76.20 75.24 76.87 75.46 75.92 74.23 74.47 74.81 75.22 74.61
51.08 48.88 51.18 53.47 54.59 55.17 56.41 56.99 57.43 57.44 57.52 58.88 52.45 50.25 48.52 46.38 45.91 44.94 44.92 47.08 62.89 58.53 65.60 67.00 72.79 73.73 73.90 74.40 76.09 75.60 75.40 76.74 77.14 77.25 77.11 76.89 76.99 76.24 75.84 76.11 75.51 74.88 74.35
49.59 49.23 49.37 50.59 50.86 51.85 53.97 55.66 56.35 56.20 56.29 57.17 58.69 54.84 54.64 46.38 45.82 45.08 43.81 59.91 64.12 66.19 67.75 68.24 71.80 73.64 74.66 75.85 75.85 76.87 76.63 75.93 76.18 77.02 77.18 76.47 76.54 76.46 76.26 76.38 76.46 65.37 68.79
49.12 48.93 48.16 47.63 48.79 49.57 51.08 53.11 54.48 55.82 56.36 56.65 56.78 57.72 59.23 58.23 60.11 61.64 64.40 66.13 67.13 67.62 68.39 70.47 72.51 71.14 74.13 75.85 75.59 75.92 76.91 76.61 77.23 77.31 76.88 77.96 77.92 76.56 75.83 76.37 76.16 74.80 75.50
47.62 47.48 47.13 47.87 47.83 47.59 47.85 49.33 51.46 53.18 54.23 55.25 55.40 56.74 47.29 57.35 58.00 59.00 60.12 61.46 63.52 66.28 67.80 70.07 72.33 72.44 73.99 76.20 76.00 74.58 75.35 75.63 76.98 77.25 77.02 77.21 77.39 76.76 75.80 76.05 76.03 76.38 75.97
46.66 45.81 45.18 45.20 45.24 45.85 46.60 47.00 46.76 47.35 49.22 51.52 53.45 54.82 47.59 56.19 57.70 58.43 59.42 61.52 63.70 66.01 67.95 65.11 64.57 67.14 71.36 70.65 68.71 69.34 73.55 75.25 76.25 76.78 76.75 76.84 76.10 75.80 76.08 74.80 75.68 75.06 74.30
45.49 43.88 42.42 42.41 42.89 43.29 44.17 44.89 44.88 46.29 47.40 48.16 49.79 52.05 54.23 56.00 57.36 58.47 59.78 61.25 62.28 61.55 60.60 59.84 59.09 57.30 59.07 59.86 59.93 57.63 57.49 62.14 62.52 62.95 67.41 72.81 74.63 73.90 73.82 73.26 73.33 73.31 73.14
42.87 41.03 40.08 39.92 40.52 41.38 41.66 42.21 43.05 42.87 44.88 46.52 47.70 48.69 49.88 51.42 52.30 53.57 54.60 55.12 54.49 53.37 52.30 51.13 51.78 52.04 52.23 53.20 53.93 54.37 53.69 54.32 54.94 56.78 60.59 62.32 64.56 64.80 68.44 69.80 70.04 68.92 68.92
42.39 41.11 40.03 38.94 38.39 38.58 39.91 40.34 41.00 41.66 42.42 43.40 44.62 46.12 47.78 49.11 49.78 50.11 50.41 49.88 48.65 47.55 46.94 46.04 45.86 46.04 46.03 45.68 46.16 47.64 45.37 36.15 44.13 49.19 59.21 60.75 62.17 63.15 63.08 64.13 64.34 64.88 65.25
42.57 41.63 40.74 39.40 37.87 37.47 37.50 38.29 38.80 40.08 40.78 41.59 42.57 43.44 44.79 45.22 45.62 45.74 45.56 45.16 44.62 44.22 43.72 43.92 43.30 42.85 42.30 42.08 41.01 36.66 32.32 33.36 45.61 38.94 57.70 60.39 59.84 58.54 57.88 56.96 56.98 55.54 55.66

GFSGL_sfc_wetblb_084.txt.gz
Wetbulb
76.97 77.14 77.13 77.22 77.92 78.40 77.95 79.12 79.21 80.38 75.83 73.43 67.99 71.48 77.35 78.47 77.81 77.90 77.00 76.30 75.73 76.28 77.01 76.76 76.12 77.61 75.90 75.49 74.83 74.86 73.67 74.21 71.62 72.79 75.20 76.53 75.98 77.11 77.33 78.82 78.93 78.39 77.00
76.99 77.40 77.28 77.94 77.43 77.46 77.47 78.06 79.16 78.60 79.30 79.27 77.03 77.50 77.81 77.36 77.25 77.02 77.04 76.55 75.79 76.05 76.23 75.62 75.53 76.03 77.15 77.18 75.93 75.25 75.44 75.73 74.20 72.24 73.96 73.54 74.19 74.73 79.29 78.36 78.99 77.79 76.73
76.57 77.08 77.15 76.90 77.32 77.24 77.56 77.78 78.71 78.44 78.29 77.90 77.89 78.38 77.97 78.19 78.18 77.77 77.06 77.11 76.98 75.65 76.59 76.31 76.37 77.00 76.75 75.45 77.30 75.97 74.95 75.26 74.86 74.00 72.44 75.22 74.32 74.36 74.79 76.98 78.51 78.29 78.90
72.90 71.24 76.19 76.96 77.08 77.06 78.90 78.52 78.09 78.62 78.07 78.02 78.19 78.50 77.52 77.94 77.92 77.56 77.86 77.63 78.21 76.85 77.69 77.25 77.53 77.09 76.81 76.74 76.36 76.20 76.01 75.55 74.65 74.05 72.55 72.03 72.61 74.03 75.80 74.97 74.26 74.03 73.56
70.63 71.33 71.09 72.36 76.86 78.64 78.29 77.51 78.63 78.34 78.15 78.50 78.24 77.80 78.37 77.84 76.83 77.14 77.61 77.43 76.53 76.17 77.18 77.28 77.70 77.18 74.17 75.25 76.08 75.97 75.60 75.01 74.50 73.24 71.94 72.38 72.36 74.29 72.91 73.69 72.01 74.08 73.20
67.33 67.35 69.89 72.37 72.86 74.85 76.57 77.61 77.67 78.36 78.53 78.48 77.65 77.71 77.12 76.19 70.23 68.18 73.91 76.07 77.54 76.89 75.76 77.16 77.99 75.45 73.33 68.98 68.59 68.99 71.90 75.55 75.10 75.11 73.84 71.60 72.24 73.68 74.62 74.51 73.63 71.45 69.75
64.40 65.49 66.27 68.57 70.12 70.26 72.27 75.20 76.03 76.35 76.99 77.43 77.54 77.68 77.21 77.65 69.10 65.87 66.98 75.82 77.08 77.11 76.99 76.95 77.17 75.94 72.97 76.97 69.83 67.76 68.09 66.83 68.52 72.47 72.00 73.16 73.93 74.66 75.98 75.60 74.98 74.42 73.64
65.11 64.89 65.50 65.45 66.98 68.85 70.35 69.94 71.01 73.25 75.64 75.80 76.04 77.08 77.03 77.47 68.02 66.39 66.44 72.70 74.66 75.63 76.02 77.07 77.01 76.03 76.30 76.82 77.28 76.74 75.04 75.02 74.05 71.52 71.65 72.26 73.03 74.05 75.37 75.00 74.58 74.58 75.98
64.36 65.93 65.36 64.86 64.89 65.62 67.07 67.38 69.00 69.65 70.45 73.74 75.51 75.78 76.30 76.82 67.16 63.28 65.93 73.65 74.28 74.22 74.78 75.88 76.02 75.70 71.83 67.15 74.11 75.01 76.10 77.07 72.15 68.14 68.85 68.18 67.19 66.51 68.90 73.66 72.44 71.06 69.53
62.20 64.29 66.11 66.64 66.99 66.12 66.53 67.17 69.40 69.76 69.83 71.57 72.97 75.37 72.43 75.47 68.32 63.85 64.80 74.89 74.64 74.61 75.02 75.07 67.81 71.10 66.20 63.65 72.57 75.39 73.59 73.88 74.89 75.58 74.60 69.55 66.76 69.66 65.29 71.12 73.14 71.56 70.86
61.40 62.36 64.14 66.08 65.77 67.20 68.03 68.52 68.17 69.04 70.10 70.42 71.58 74.10 75.24 74.29 75.13 62.72 60.36 73.68 75.34 74.74 74.50 74.43 75.43 64.24 61.61 60.80 60.77 73.42 72.97 74.28 73.61 74.77 75.22 75.26 74.89 75.44 75.38 73.65 74.00 73.63 71.67
61.75 61.68 62.48 63.73 64.20 63.93 65.99 66.69 66.65 67.78 68.82 69.59 70.01 71.25 75.04 75.37 67.05 65.17 58.70 58.34 63.36 70.91 73.97 75.31 74.99 59.20 55.73 56.20 60.07 63.05 61.61 63.99 74.09 74.09 74.11 73.54 73.17 72.90 73.29 73.35 75.56 75.29 75.11
59.08 59.64 62.08 62.60 62.67 64.57 65.11 63.76 63.82 66.05 67.20 68.47 68.62 68.88 68.79 69.50 71.05 59.24 59.43 58.70 60.47 64.39 68.72 66.98 60.20 59.40 57.53 59.93 56.99 57.71 57.48 67.91 70.56 71.37 71.37 72.18 73.29 74.01 74.40 73.31 72.55 76.63 76.16
57.01 57.93 58.55 58.41 60.78 62.73 62.67 62.47 62.67 62.01 62.90 64.33 63.84 63.07 63.46 64.19 69.87 67.26 62.98 62.61 61.18 63.36 63.50 64.03 63.01 60.56 61.03 64.66 66.05 70.38 65.80 69.58 70.92 71.40 71.61 72.82 73.84 73.70 73.40 73.83 71.97 71.05 71.02
53.26 54.51 56.17 57.05 57.80 58.72 61.30 62.00 61.92 63.63 59.90 60.26 60.87 60.64 59.71 59.47 62.19 53.23 53.38 60.33 62.61 61.41 58.14 62.91 66.56 70.63 73.26 74.15 74.38 74.02 74.37 72.40 71.59 72.63 72.95 73.16 73.26 73.34 72.98 73.35 72.32 71.48 71.00
50.57 50.99 51.98 53.26 54.80 55.93 56.85 57.59 55.43 50.87 49.22 47.35 46.89 52.70 60.12 54.44 49.66 47.81 45.70 44.89 45.11 47.82 58.58 62.31 63.94 66.62 69.66 70.00 72.05 72.82 74.15 72.78 74.41 74.00 73.18 73.11 72.57 72.67 72.62 73.45 73.96 72.10 70.77
48.99 50.05 50.41 50.58 51.90 53.68 55.07 55.43 54.94 56.48 51.76 48.71 46.14 45.56 45.39 49.19 46.75 45.11 44.07 43.62 42.91 46.74 56.53 61.96 64.19 65.48 67.86 69.68 70.33 69.75 69.87 73.27 74.45 74.86 74.39 74.36 73.39 73.09 71.62 72.07 72.16 72.02 72.26
50.58 48.76 50.23 50.62 50.51 51.14 52.09 52.57 53.48 53.76 54.83 57.23 54.30 47.76 47.77 44.12 44.33 44.35 43.94 44.60 58.53 53.90 61.00 64.29 65.95 67.14 68.06 70.41 72.21 71.41 71.09 72.40 72.92 73.73 73.73 74.23 74.13 73.56 73.19 73.38 73.21 72.10 71.28
48.90 48.61 48.82 48.99 49.69 49.19 49.43 50.79 51.33 52.27 53.29 54.71 56.75 54.31 54.21 45.37 43.74 44.04 42.82 55.75 60.11 62.27 65.14 66.85 67.67 68.56 69.49 71.70 72.51 72.58 74.01 72.69 68.00 70.79 74.03 74.75 74.88 74.41 73.83 74.10 73.86 64.13 65.77
49.31 49.68 48.71 47.70 47.84 48.01 48.42 48.67 48.29 49.07 50.24 51.73 53.35 54.80 57.88 56.38 57.34 57.97 60.02 61.72 63.62 64.24 64.52 66.05 67.75 68.92 70.14 71.10 70.51 69.93 70.21 72.20 73.14 72.76 72.65 72.99 74.17 74.34 74.09 73.84 73.46 73.04 72.35
47.39 47.47 48.20 46.96 46.04 45.72 45.69 45.96 45.90 46.32 47.94 48.85 49.42 51.47 45.97 49.70 52.96 55.00 56.23 57.48 57.98 58.92 60.45 62.58 64.91 67.11 69.42 68.99 69.89 70.72 70.94 71.79 72.13 72.16 72.66 72.68 73.10 72.47 73.68 73.95 73.57 73.34 73.27
46.34 45.50 44.78 43.97 43.53 43.15 43.43 43.46 43.37 44.06 45.04 45.14 46.66 49.28 45.04 49.74 51.27 53.44 55.70 56.66 58.02 59.75 60.46 63.81 62.93 62.30 62.43 61.69 61.76 61.74 61.76 63.26 66.85 67.90 69.19 72.32 72.77 73.18 72.99 72.05 72.51 73.20 73.20
45.55 44.34 43.36 42.24 41.76 41.58 41.66 42.02 42.04 42.19 42.38 43.07 44.50 45.42 47.29 48.25 49.31 50.98 52.40 54.34 55.90 56.81 56.88 56.79 55.91 55.35 56.75 58.25 59.58 58.02 56.75 57.55 58.49 58.13 59.88 63.69 66.46 70.54 72.07 72.20 71.97 72.29 72.73
45.73 44.45 43.02 42.10 40.37 39.29 38.90 38.55 39.01 39.90 40.53 40.99 41.98 42.81 44.07 45.46 47.17 48.69 49.80 51.24 52.69 53.26 53.51 52.71 51.91 51.02 50.29 50.59 51.93 53.27 54.44 55.01 53.86 53.42 55.89 58.27 61.18 62.35 66.50 69.12 70.59 71.55 71.74
46.10 44.61 43.34 42.16 41.02 39.51 38.03 37.12 36.73 38.07 38.63 39.32 39.90 40.86 42.01 43.04 43.98 45.90 47.48 48.14 49.06 49.68 50.01 49.61 48.66 47.60 46.39 46.37 46.16 46.27 44.59 39.09 41.17 42.11 48.69 55.27 58.39 60.58 62.96 65.08 66.32 67.61 67.59
45.98 44.43 43.73 43.24 40.93 39.64 38.23 37.19 36.82 36.05 36.34 37.07 37.97 39.28 40.55 40.85 42.01 43.31 44.66 45.23 45.57 46.26 46.16 45.85 45.13 44.56 43.85 42.98 42.26 38.67 33.94 32.99 37.37 35.83 46.26 53.34 57.05 60.12 60.95 60.83 60.38 58.86 59.20

GFSGL_sfc_wetblb_090.txt.gz
Wetbulb
71.39 71.61 71.71 72.42 72.45 72.25 72.48 72.57 71.75 71.05 71.00 70.75 70.72 71.71 71.14 72.25 72.78 71.94 71.08 71.10 71.02 71.08 70.80 70.58 70.31 70.15 69.74 69.73 70.92 69.59 68.75 68.64 65.27 67.19 70.64 71.31 69.69 69.49 71.27 71.06 71.91 73.09 74.56
70.08 70.12 71.55 72.47 72.66 72.87 72.79 72.82 73.00 71.10 70.60 70.24 70.24 68.55 68.71 70.72 72.22 72.13 71.55 72.23 71.07 70.71 70.58 70.21 70.74 71.64 69.58 70.61 71.08 68.89 69.79 69.00 68.53 66.90 67.76 68.98 69.57 70.50 69.43 69.36 72.04 74.39 74.19
69.09 69.09 70.43 70.68 70.97 72.51 72.78 73.39 73.21 71.27 70.49 70.63 68.70 66.86 66.21 69.28 71.22 72.68 72.18 71.48 71.85 71.68 70.88 70.40 70.86 70.35 69.56 69.64 69.87 69.20 69.94 70.44 70.27 69.08 68.31 69.67 69.87 68.55 69.55 70.02 71.05 70.93 72.07
68.61 67.65 66.75 68.73 69.58 70.41 72.34 73.06 71.89 72.89 71.18 71.08 71.19 70.58 70.91 71.87 72.22 72.42 72.87 70.93 71.51 72.10 72.45 72.14 72.04 71.50 69.97 69.62 69.97 69.73 69.46 69.21 68.83 68.19 67.69 67.91 68.15 69.43 69.41 68.91 69.38 69.58 70.34
67.65 67.19 67.62 69.36 69.20 70.17 71.72 71.85 73.41 72.72 73.13 73.02 72.64 72.86 72.76 73.15 73.60 72.57 73.22 72.97 71.94 71.54 72.66 72.86 72.75 73.06 70.97 69.93 71.90 70.81 69.71 69.07 68.54 68.03 68.14 68.01 68.79 68.90 68.28 69.54 69.40 69.53 69.17
66.32 66.29 67.03 68.21 68.66 69.13 68.89 68.57 69.88 71.00 71.57 72.21 72.87 72.50 72.08 74.26 68.52 67.27 70.68 72.57 73.12 72.37 71.73 71.74 72.29 71.83 71.17 68.81 68.18 68.46 69.43 69.90 68.89 68.84 68.39 67.83 67.80 68.27 68.84 69.40 68.34 67.24 65.61
64.06 64.49 65.79 66.85 67.10 67.58 67.51 68.10 67.58 67.98 68.98 70.13 70.16 71.32 72.17 72.30 67.96 65.61 66.59 69.07 70.48 71.09 72.19 71.81 72.14 74.14 71.39 73.13 69.90 66.81 66.33 66.28 68.31 69.94 68.27 67.66 67.19 68.04 68.27 66.91 66.62 67.13 66.93
63.63 63.73 64.53 64.90 64.65 65.09 65.49 65.42 66.81 67.35 67.53 68.12 69.40 69.63 69.65 72.07 66.76 64.65 65.72 68.72 69.02 69.46 70.90 72.35 72.55 72.69 72.11 71.95 71.71 71.41 71.66 71.23 68.50 68.18 68.98 70.53 69.48 70.52 68.04 69.37 67.77 67.73 69.34
56.99 58.21 60.76 62.62 62.69 64.10 64.34 65.26 65.80 66.88 66.61 67.40 68.84 68.37 69.33 70.61 63.58 61.77 64.01 69.15 69.38 69.98 70.70 70.81 71.20 71.60 68.37 64.94 69.89 70.66 70.77 71.31 69.93 64.57 65.10 64.66 64.00 63.36 65.68 69.06 67.89 67.53 68.64
54.86 56.37 58.24 59.20 59.93 61.57 61.37 62.30 64.75 64.19 65.18 66.79 66.88 68.75 66.68 71.10 58.31 58.14 62.13 68.30 69.11 70.22 71.44 71.53 65.57 67.43 61.83 58.58 67.58 70.39 70.12 70.47 70.66 70.75 71.13 67.00 64.23 66.81 63.34 67.73 70.40 68.65 68.20
53.86 54.30 54.81 54.53 56.24 57.99 58.30 59.07 60.74 58.90 59.70 61.75 64.25 66.39 66.77 64.23 60.94 57.06 58.14 64.09 64.19 66.08 67.51 69.61 69.79 58.51 55.43 55.06 55.43 63.40 65.52 66.85 66.57 68.52 69.26 70.68 71.75 71.16 70.70 69.01 69.74 70.49 69.49
50.40 50.51 50.76 51.84 53.65 54.90 55.28 57.50 57.86 57.29 58.16 58.96 60.62 65.23 66.74 65.35 58.77 56.65 55.61 56.61 59.79 61.93 62.26 64.87 65.99 57.96 53.43 53.07 56.49 59.78 57.96 59.47 63.49 65.59 66.93 68.30 69.60 70.64 72.22 72.19 71.43 70.92 72.10
47.80 47.69 48.20 48.63 49.71 50.82 52.13 52.98 53.47 54.13 53.40 52.90 53.84 54.67 55.73 56.94 61.85 54.91 55.48 56.42 57.36 59.97 63.07 60.89 56.45 53.79 53.42 56.44 58.28 57.92 58.16 62.51 63.85 63.91 65.46 67.06 68.80 70.50 71.41 71.21 70.98 72.43 72.33
46.01 46.08 46.26 46.12 46.33 46.93 50.22 51.77 51.41 50.51 49.54 49.70 51.03 50.79 51.76 53.19 53.91 55.45 58.32 55.10 55.75 57.80 59.38 59.01 58.25 56.79 55.99 57.56 58.92 63.69 65.77 66.61 66.97 67.77 68.92 70.07 70.35 69.46 69.28 70.55 69.95 70.33 70.05
44.28 44.60 44.09 44.76 44.18 45.43 46.72 47.64 48.41 47.77 47.06 47.40 48.54 48.21 49.34 50.02 51.27 47.16 46.24 49.43 52.41 50.90 47.96 53.52 55.16 56.18 57.63 58.88 60.40 61.95 63.74 68.77 69.43 69.25 68.98 68.91 68.66 68.95 68.99 69.50 69.78 69.85 68.94
43.21 43.40 43.38 42.83 42.99 43.78 43.90 44.14 46.35 45.73 45.21 43.34 42.66 44.22 48.04 46.65 44.35 43.18 42.43 43.19 42.32 43.12 49.43 51.02 52.06 53.85 55.68 57.42 58.97 60.50 62.36 64.45 66.61 67.90 69.29 68.77 68.73 69.13 69.36 69.90 69.41 70.01 69.67
41.47 41.71 41.11 42.22 42.09 41.94 42.20 42.19 42.35 44.69 45.74 44.11 43.11 43.36 43.17 42.25 42.30 42.01 42.02 42.63 43.27 44.32 47.63 49.65 50.73 53.15 55.18 57.74 59.85 61.48 62.39 64.35 66.57 67.76 68.52 68.68 68.75 69.31 69.23 69.88 70.17 70.54 69.72
41.38 45.82 40.56 40.84 40.89 41.17 41.60 41.35 41.80 41.46 41.08 41.68 43.52 43.04 42.69 41.86 41.21 41.18 41.74 44.84 47.93 48.33 47.70 50.12 52.14 54.51 56.62 58.85 61.12 63.01 64.40 65.44 67.24 68.41 68.21 67.67 68.05 67.91 67.01 66.61 66.65 66.11 65.39
40.68 40.47 39.66 39.48 40.07 41.00 39.88 40.24 40.39 39.83 39.58 39.82 40.99 41.60 42.19 41.10 40.66 40.76 41.77 44.50 45.29 46.41 48.87 50.69 52.39 53.22 53.43 53.90 55.77 59.08 62.78 64.32 64.01 65.03 65.80 66.54 67.85 68.03 66.29 65.73 65.55 58.87 60.09
41.29 45.24 42.21 38.31 38.38 38.19 38.65 38.19 38.05 38.21 38.31 38.70 38.93 39.39 40.53 40.26 39.12 39.85 41.59 42.76 43.94 45.13 46.59 48.25 51.34 53.34 54.93 56.06 58.08 58.72 59.11 58.05 57.79 58.44 58.57 59.61 62.08 63.69 64.07 64.90 64.63 64.22 65.31
39.26 40.12 43.05 38.21 37.56 37.37 37.07 36.80 36.91 37.01 36.89 36.90 37.25 38.80 39.78 38.08 38.13 39.06 40.01 40.74 41.72 42.82 44.52 46.28 47.53 48.54 50.01 52.85 54.39 54.13 53.53 53.71 53.48 52.94 53.47 54.12 54.76 55.04 57.00 59.64 63.23 65.97 68.12
38.95 39.14 38.92 38.06 37.44 37.24 36.55 36.25 35.68 35.43 35.46 35.88 36.73 37.49 38.42 37.79 37.58 37.63 38.42 39.80 41.24 42.20 43.27 44.21 45.40 47.22 49.62 50.29 51.05 50.70 50.17 50.18 50.68 50.91 50.56 51.55 51.48 51.97 53.38 55.40 57.81 61.91 64.51
38.79 38.57 38.06 37.64 37.70 38.99 36.69 35.83 35.04 34.53 34.97 36.93 36.98 36.79 37.03 36.67 36.82 36.88 36.87 37.58 38.83 40.38 42.51 42.93 42.79 44.01 45.96 48.72 50.53 50.31 48.67 47.73 48.71 49.13 48.92 49.64 50.41 50.21 51.17 51.44 52.31 55.50 59.01
39.16 39.09 38.48 37.87 37.47 36.74 35.99 35.50 34.87 35.86 35.06 35.64 36.22 36.17 35.54 35.91 36.05 36.15 36.45 36.39 37.73 39.97 41.23 41.56 41.68 42.20 43.06 44.38 46.34 47.59 48.15 47.84 47.89 47.76 47.35 46.16 45.95 45.64 48.94 50.58 52.48 54.43 57.01
38.44 38.12 38.21 38.13 37.96 37.01 36.14 34.96 34.15 33.91 34.67 35.78 35.69 35.88 35.86 35.92 36.24 36.22 36.68 36.70 37.02 36.92 38.53 40.40 41.43 42.00 42.63 43.00 43.55 44.42 44.07 39.20 41.72 41.34 43.79 43.64 42.67 43.05 44.59 46.89 48.79 50.93 53.94
37.72 38.79 38.51 37.75 37.60 36.91 35.80 34.72 33.76 33.32 34.51 36.02 35.71 36.02 35.32 34.75 35.34 35.78 36.08 35.57 35.51 36.03 36.85 37.92 39.14 40.50 41.75 43.02 43.54 40.84 35.92 34.38 37.12 35.18 38.60 39.51 39.33 40.27 43.08 45.23 47.30 49.57 52.42

GFSGL_sfc_wetblb_093.txt.gz
Wetbulb
70.03 69.07 69.33 70.26 70.84 71.19 70.58 71.02 71.19 70.35 70.13 70.66 71.18 70.88 70.99 71.20 71.73 70.90 70.45 70.63 70.05 70.01 69.61 69.70 69.38 69.06 68.90 68.51 70.04 68.82 68.19 67.40 65.03 66.97 68.73 69.89 69.23 69.47 70.19 70.25 71.46 71.92 72.54
68.63 69.61 70.39 70.65 71.33 71.22 69.99 71.43 72.22 71.31 69.84 70.09 70.23 70.57 70.25 70.36 71.14 71.46 71.08 71.48 70.50 69.95 69.77 69.21 69.14 71.29 68.98 68.87 70.04 67.97 68.68 68.59 67.63 65.76 67.32 68.36 68.96 69.49 69.11 69.13 71.20 72.83 71.02
67.86 68.56 69.12 69.57 70.22 70.96 71.03 71.80 72.32 72.25 70.13 69.93 69.49 68.88 68.09 67.79 69.18 71.30 71.87 70.53 70.77 70.58 70.66 70.03 69.19 69.35 68.97 68.84 68.48 68.46 68.67 69.53 68.83 68.04 67.32 68.36 68.59 68.36 68.95 69.40 70.48 69.86 71.74
68.11 67.95 68.58 68.47 68.47 69.49 70.14 70.76 70.85 72.25 71.21 70.03 69.74 68.64 67.56 67.47 68.12 70.13 71.58 71.03 70.69 71.02 71.11 71.23 70.69 70.69 69.93 69.13 68.78 68.75 68.85 68.17 67.70 67.10 66.58 66.87 67.66 68.92 68.73 67.81 68.57 69.27 69.76
67.39 67.12 67.43 68.74 69.03 68.99 68.36 68.74 70.03 71.33 72.06 71.09 70.41 70.82 70.81 71.34 72.08 71.38 71.57 71.94 71.29 70.54 70.93 71.20 71.84 71.82 70.36 69.41 71.15 70.42 69.65 68.63 67.93 67.03 66.80 66.76 67.19 66.90 66.67 67.84 67.86 67.91 67.86
66.95 66.66 67.54 67.34 67.41 67.23 67.39 67.88 67.84 68.45 69.17 70.23 70.66 70.76 70.27 72.88 69.52 67.52 70.50 71.49 71.87 71.77 71.30 71.46 71.50 70.85 70.27 68.12 67.17 67.93 70.22 69.90 68.65 67.25 67.52 66.98 67.32 67.28 67.52 67.61 67.05 65.39 64.07
64.41 65.13 66.08 66.62 65.36 65.52 65.93 66.09 66.67 66.75 67.55 67.84 69.19 70.12 70.77 70.43 65.60 64.71 66.72 70.01 70.18 70.24 70.82 71.05 71.51 73.02 70.45 71.82 69.32 66.29 66.45 65.75 67.48 70.01 68.44 68.31 67.61 67.39 67.30 66.27 65.69 65.64 65.44
61.75 63.36 64.51 64.35 64.21 64.50 64.39 64.04 65.30 65.28 65.65 66.62 67.66 67.84 68.02 69.51 62.83 62.67 65.03 67.61 68.78 68.91 69.22 70.13 70.80 71.31 71.56 71.38 71.43 70.69 70.69 70.79 69.33 68.23 68.92 70.58 70.05 70.38 68.50 69.37 67.75 66.34 66.78
56.18 57.29 58.60 60.22 62.47 63.03 62.89 63.85 64.36 63.60 63.26 64.23 66.65 67.25 67.48 68.31 59.14 59.52 65.08 68.24 68.63 69.12 69.57 69.93 70.00 70.07 65.79 61.36 68.31 69.46 70.10 70.67 68.90 64.16 64.24 64.25 63.66 62.79 65.29 67.70 67.05 66.28 68.54
53.02 53.82 54.20 54.98 57.45 57.65 59.24 60.68 63.02 61.22 61.90 62.98 64.83 67.09 64.67 64.98 58.17 59.82 63.54 66.49 64.81 65.58 67.23 68.76 60.97 62.17 57.57 56.26 64.06 64.60 65.49 67.87 68.63 68.23 68.75 68.23 63.90 66.32 63.02 66.67 69.86 68.11 68.56
51.04 51.04 51.27 51.78 53.60 53.84 55.83 57.84 57.86 57.59 58.15 62.53 65.63 65.81 65.37 63.17 62.70 55.56 56.50 61.41 60.76 60.64 62.54 64.15 65.47 60.29 58.86 57.23 55.01 60.10 64.10 65.31 65.94 67.66 68.25 68.56 69.15 69.86 70.45 67.84 68.39 69.49 68.95
48.48 48.33 48.05 48.10 50.13 51.37 51.49 52.14 53.26 53.08 52.59 53.07 53.97 55.16 57.66 57.97 55.81 55.00 54.45 55.41 57.40 58.55 59.34 61.05 61.41 54.49 52.56 52.66 54.43 57.19 55.21 57.13 63.10 64.92 66.52 67.38 68.39 68.90 69.94 71.12 70.95 70.06 71.14
46.01 45.65 45.70 46.22 46.91 48.04 48.54 49.02 48.84 48.40 48.96 50.23 50.43 50.42 50.91 52.94 52.29 50.67 50.81 51.87 53.99 56.68 58.78 58.44 55.31 53.48 52.71 55.84 56.69 56.58 56.67 61.47 62.29 63.90 64.81 66.72 68.44 69.39 69.72 69.44 70.16 71.28 71.14
43.78 43.54 43.99 43.98 44.07 45.00 46.68 47.21 45.85 45.43 46.11 47.47 47.30 47.96 48.98 49.93 48.46 47.30 47.23 48.00 50.33 51.31 52.64 51.34 53.66 54.28 54.47 55.83 57.18 59.22 61.53 63.54 64.65 65.70 66.68 68.47 69.95 69.74 69.01 68.72 68.53 68.89 68.32
42.81 42.63 41.77 42.32 42.08 42.45 43.39 43.75 44.44 44.17 44.81 43.75 43.85 45.18 45.73 45.54 44.89 44.14 42.90 44.83 46.03 46.00 45.00 50.28 51.41 51.58 52.72 53.68 55.22 57.19 59.51 60.67 61.59 63.74 66.22 67.23 68.04 68.49 68.53 68.92 68.21 68.25 67.32
40.94 40.91 41.12 40.52 40.86 41.49 41.51 41.37 44.94 44.50 43.83 42.33 42.04 42.50 44.03 44.27 42.60 41.48 40.62 41.48 42.52 43.82 48.26 48.14 49.63 50.00 51.02 52.54 54.68 57.04 59.55 61.23 62.57 64.10 65.20 66.24 67.07 68.49 68.90 69.46 68.99 68.63 67.93
39.95 39.17 39.49 40.51 40.08 39.69 39.81 39.48 38.60 40.37 43.55 42.13 41.24 41.74 41.39 41.10 40.53 39.77 39.79 40.64 43.13 45.50 47.12 47.91 48.88 50.29 52.08 53.88 55.64 57.30 58.19 60.25 63.44 64.62 65.43 66.17 66.67 67.48 66.69 67.55 68.79 68.99 68.74
40.53 42.93 38.37 38.24 38.20 37.69 38.11 38.09 38.33 37.52 36.82 37.74 40.58 40.71 40.17 39.61 39.30 39.09 39.85 41.42 42.15 43.89 44.06 45.14 46.24 48.00 49.92 51.17 51.77 52.80 55.27 59.03 60.65 60.53 61.47 62.61 62.23 62.10 63.82 66.18 67.05 66.00 66.31
38.37 37.46 37.21 37.22 37.67 37.98 36.91 36.70 36.61 36.38 36.19 36.23 37.28 38.69 39.52 38.78 38.74 38.81 39.57 38.96 39.36 40.68 42.37 43.38 45.21 46.57 48.56 50.61 50.82 51.15 52.12 54.73 56.65 56.26 57.58 56.79 56.39 56.57 57.13 58.00 58.24 56.23 59.30
40.30 43.32 39.55 36.49 36.52 36.12 35.92 35.77 35.30 35.06 34.78 34.88 35.03 35.24 36.60 37.05 35.97 36.86 37.96 38.40 38.78 39.38 39.97 40.60 41.93 43.07 43.99 45.35 46.62 48.43 50.84 52.02 52.87 53.82 54.22 54.01 53.89 54.02 53.38 53.13 53.90 53.94 56.90
39.46 39.81 42.04 37.05 36.42 36.12 35.86 35.12 34.89 34.57 34.06 34.05 34.06 36.03 39.19 35.99 35.56 35.53 35.83 36.15 36.83 37.37 37.73 38.88 40.08 40.86 41.78 43.24 43.74 44.51 47.22 48.79 51.30 51.11 50.37 51.01 50.93 49.96 50.79 52.09 52.45 52.68 54.14
38.27 37.97 37.43 37.16 36.79 36.64 36.00 35.39 34.65 34.15 33.99 33.99 33.91 35.28 37.81 35.11 35.67 35.96 36.25 37.18 37.39 37.44 37.60 37.85 38.84 39.71 40.54 41.21 41.54 42.95 44.52 46.24 49.08 49.44 48.78 49.00 47.85 48.08 48.59 49.27 50.04 50.59 50.85
37.90 37.68 37.25 36.99 37.20 38.47 36.68 35.52 34.44 34.02 33.67 33.70 34.16 34.63 35.18 35.02 34.96 35.12 35.62 36.42 36.86 37.23 37.53 37.74 37.43 37.34 39.07 40.81 41.65 41.03 41.32 42.18 44.56 46.36 46.52 46.52 45.49 45.89 46.03 45.59 45.96 46.67 48.30
38.24 38.02 37.69 36.95 36.75 36.30 35.68 35.35 34.89 35.46 34.66 33.88 34.05 34.03 33.79 35.58 35.83 35.11 35.42 35.62 36.47 36.84 37.01 36.75 36.34 36.62 37.43 38.27 39.75 41.23 41.83 42.44 43.31 43.65 44.81 44.76 44.57 43.55 43.12 42.98 43.61 45.14 46.82
38.57 37.86 37.28 37.10 36.77 36.87 35.94 35.50 34.66 33.91 33.40 33.63 33.63 34.03 35.91 36.14 35.68 35.29 35.39 35.40 35.22 35.57 35.72 35.60 35.95 36.42 37.28 37.95 38.42 38.83 38.66 36.58 37.90 38.70 41.72 42.75 42.68 42.90 42.40 41.60 41.08 41.55 43.02
39.38 38.35 38.04 37.19 36.47 36.34 35.57 34.89 34.56 33.82 32.95 33.33 33.58 34.61 36.17 35.78 35.72 35.38 35.10 34.94 34.75 34.91 35.37 35.55 35.89 36.29 36.76 36.98 37.93 36.96 34.93 34.00 35.66 34.74 36.63 37.49 37.57 38.30 39.32 40.10 40.63 40.16 40.58

GFSGL_sfc_wetblb_096.txt.gz
Wetbulb
69.18 69.26 70.09 70.54 71.48 71.95 71.31 71.92 72.33 72.38 71.94 71.04 71.58 72.07 72.36 72.59 73.38 73.19 72.72 72.56 72.36 72.49 72.68 72.48 72.65 72.49 71.77 71.49 72.28 72.09 71.15 70.17 69.12 71.18 71.22 73.85 73.94 74.23 74.75 75.16 74.65 75.95 74.91
70.41 70.33 69.79 70.61 71.56 71.78 71.10 71.70 72.98 73.09 72.19 70.76 71.89 72.28 72.59 72.01 72.88 72.95 72.54 73.08 71.45 71.95 72.19 72.04 71.48 72.15 72.48 72.16 72.02 72.59 71.50 72.07 70.58 69.96 71.24 71.78 72.78 74.04 73.83 73.69 74.35 74.87 74.90
68.71 69.31 70.51 70.39 71.15 71.16 71.99 72.65 72.84 73.10 72.70 71.68 71.28 71.28 70.20 70.76 71.48 72.58 72.69 72.86 72.43 72.37 71.68 72.13 71.80 71.82 72.32 71.95 72.02 71.61 71.24 71.84 71.56 71.03 70.82 71.54 71.89 72.29 73.16 74.27 74.27 74.62 73.84
68.62 68.75 68.30 68.91 69.09 69.76 70.53 70.89 71.69 72.73 73.10 71.88 71.37 71.27 70.79 70.80 70.09 70.01 71.94 73.05 73.05 73.03 72.71 72.86 72.73 72.32 71.86 72.68 72.27 72.42 71.71 71.35 71.39 70.84 70.42 70.19 70.87 72.98 72.38 71.22 71.74 73.19 72.75
67.69 67.83 67.98 68.50 68.35 68.95 68.71 68.77 69.70 70.24 71.50 72.48 72.04 71.72 71.46 70.57 70.60 71.41 72.24 72.59 73.21 73.22 73.64 73.53 73.53 72.98 70.53 70.70 73.86 74.10 73.12 72.11 71.57 70.96 70.36 70.42 70.82 71.08 71.37 72.02 71.14 71.71 72.91
67.72 67.47 67.51 67.67 67.18 66.46 67.92 67.92 67.94 68.14 68.75 69.54 70.73 71.41 71.56 72.25 66.66 66.57 71.28 73.28 73.77 73.56 73.86 74.32 74.21 71.85 71.58 67.56 66.75 67.04 70.94 73.27 72.79 71.25 72.11 71.25 72.27 71.47 71.95 71.47 71.30 71.05 69.77
65.68 65.98 66.50 65.53 65.51 65.67 66.15 65.99 65.72 66.06 67.20 67.99 68.57 68.75 68.82 70.22 62.80 63.54 65.93 71.24 72.88 73.03 72.91 73.02 72.78 73.65 71.65 73.60 69.56 66.93 66.71 65.31 67.96 74.08 72.33 72.75 72.35 73.52 72.89 72.12 72.02 70.59 70.96
59.36 60.72 63.41 64.90 64.72 64.77 63.79 63.68 63.48 63.73 64.83 65.59 66.95 67.99 68.91 67.33 59.84 60.81 64.28 69.69 71.01 70.51 70.97 71.15 71.40 71.85 67.92 67.78 71.04 72.63 73.25 73.62 73.09 70.76 71.27 72.92 73.95 74.17 73.24 73.52 72.86 71.56 71.41
54.70 55.44 56.59 59.74 60.49 61.76 62.78 63.04 62.77 61.73 61.77 62.59 65.21 68.12 64.21 61.63 57.39 59.88 65.13 68.91 67.94 68.25 69.54 68.48 68.53 65.98 60.56 59.55 67.37 68.49 69.33 70.90 68.70 64.97 63.40 63.53 62.73 62.38 64.97 70.49 70.83 70.41 70.19
52.53 53.01 54.48 55.29 56.60 58.03 59.74 61.52 61.89 60.89 62.10 63.88 65.31 65.25 61.39 61.38 53.71 55.56 59.92 62.31 62.01 63.81 65.53 66.37 62.07 61.28 59.15 58.97 62.13 62.75 64.06 67.82 68.75 68.39 69.40 69.64 67.59 69.75 63.43 68.57 71.15 69.99 70.49
51.61 51.32 51.55 52.60 53.44 54.44 54.50 55.17 55.95 55.49 56.38 60.61 59.27 57.56 55.91 53.81 52.22 51.59 52.66 57.70 58.88 61.83 62.31 62.47 63.44 56.00 54.75 54.51 53.94 61.12 61.10 61.77 62.47 63.78 65.68 67.41 69.78 71.32 71.90 72.75 71.53 71.27 70.81
49.51 49.28 49.65 50.11 51.68 52.24 52.40 50.53 51.22 52.92 53.09 52.59 53.07 53.78 54.61 53.79 50.40 49.71 50.01 51.18 53.33 57.80 58.52 60.22 60.38 52.21 50.77 51.47 56.28 55.72 53.81 55.60 62.44 64.09 64.59 65.52 67.05 68.74 71.14 72.48 73.97 72.57 73.09
47.03 46.84 47.39 48.11 48.90 49.83 49.21 48.82 48.41 49.20 50.13 50.06 50.35 49.90 50.65 49.61 48.12 47.96 47.99 49.35 51.35 53.51 55.38 53.05 52.02 51.19 51.59 55.30 55.39 55.39 56.66 63.85 64.61 64.15 64.80 66.63 68.56 69.82 71.76 72.48 73.03 73.56 73.83
45.54 45.33 45.54 46.00 45.88 46.78 47.52 47.48 47.02 46.43 46.30 46.24 46.48 46.31 47.51 45.69 44.56 44.93 45.66 46.88 49.01 51.35 51.35 53.19 53.88 53.62 53.22 54.83 57.36 59.12 61.46 62.47 62.80 63.61 64.06 66.61 68.95 68.87 68.90 72.01 70.59 71.99 70.61
43.84 43.79 43.84 43.91 44.37 44.70 45.33 45.60 45.74 45.18 45.09 43.66 43.69 44.57 43.02 41.58 41.72 42.27 41.61 42.86 45.02 47.27 47.06 54.46 54.26 53.62 54.19 55.35 56.47 58.33 59.78 61.24 61.48 63.60 62.73 63.19 64.76 65.35 65.70 69.20 70.29 69.55 68.47
42.52 42.70 42.85 42.90 42.89 42.82 42.69 42.48 43.50 43.56 42.21 41.06 41.20 42.30 42.79 41.19 40.99 40.08 39.30 39.97 42.05 43.64 50.30 50.10 49.82 51.47 51.09 52.28 53.12 55.04 56.61 57.58 59.48 61.00 61.38 63.12 63.91 63.71 62.34 65.10 67.04 67.72 67.49
41.54 41.81 42.41 41.46 41.13 40.65 40.44 40.20 39.37 40.89 42.22 40.64 40.10 40.19 39.76 38.95 39.14 38.66 38.79 39.47 41.92 44.17 45.86 45.26 46.15 46.90 47.85 50.24 52.94 53.52 53.31 53.95 55.99 55.78 60.43 60.00 59.35 58.49 58.47 59.07 59.94 60.17 60.24
42.36 42.02 40.04 39.73 39.66 39.41 39.36 39.19 39.25 38.46 37.80 38.26 39.85 39.82 38.86 38.42 38.18 38.39 38.88 40.46 41.35 42.31 42.31 42.24 42.69 43.52 44.27 45.36 45.64 46.79 48.09 49.71 51.76 53.87 55.77 56.66 57.57 56.62 56.58 56.27 56.00 56.42 56.48
40.27 39.64 39.69 39.53 39.22 39.25 38.93 38.61 38.45 37.98 37.62 37.34 38.05 38.76 38.87 38.02 37.76 38.06 38.60 39.45 39.05 39.37 40.17 40.36 41.47 41.90 42.36 43.12 43.67 45.69 47.01 47.35 48.85 52.45 54.05 53.12 53.16 53.98 53.00 52.86 52.74 50.70 51.19
40.69 41.86 40.07 39.47 39.30 38.92 38.86 38.40 37.82 37.47 37.15 37.20 37.19 37.23 38.61 38.61 37.72 37.75 38.51 38.55 38.22 38.25 38.27 38.31 39.33 40.48 41.16 41.88 43.08 42.59 43.23 43.42 44.69 46.83 48.56 49.49 50.09 50.10 49.62 49.78 50.47 50.34 50.85
42.47 43.31 41.60 39.58 39.53 39.42 38.96 38.55 37.92 37.61 37.23 37.18 37.06 38.07 38.30 37.73 37.20 37.12 37.34 37.55 37.81 37.81 37.74 37.49 37.45 38.01 38.90 39.73 40.81 41.60 40.98 41.42 41.88 42.91 44.02 45.25 49.27 48.57 48.94 48.63 48.21 47.96 48.65
41.88 42.07 40.71 40.10 39.83 39.71 39.41 39.15 38.36 38.00 37.66 37.38 37.28 37.80 37.27 37.75 37.24 37.08 37.07 37.53 38.11 38.28 38.09 37.91 37.39 37.32 37.20 37.33 38.58 38.73 39.61 40.71 40.82 41.29 42.70 44.87 46.12 46.26 46.32 46.01 45.28 45.09 46.24
41.22 40.70 40.09 40.19 40.29 40.75 40.82 39.69 39.12 38.71 38.23 37.91 37.98 37.64 37.35 37.04 37.09 37.31 37.14 37.15 37.01 36.99 37.70 37.73 37.39 36.77 37.03 36.93 38.20 38.30 37.13 37.94 39.65 40.65 40.21 40.11 40.33 41.04 42.32 43.45 44.15 44.00 43.08
41.25 40.97 40.69 40.24 40.14 40.09 40.16 40.10 40.04 38.47 39.01 38.42 38.36 37.79 37.37 37.45 37.72 37.68 37.58 37.35 36.97 36.83 36.96 36.66 36.33 36.03 36.07 36.45 37.34 38.07 38.50 38.96 39.38 38.48 38.37 37.67 37.38 37.68 38.26 41.31 43.44 43.48 42.74
41.54 40.97 40.75 40.46 40.20 40.95 40.34 40.18 40.07 40.01 39.15 38.51 38.33 37.80 38.02 38.09 37.92 37.96 37.98 37.55 37.14 36.10 36.15 36.15 36.30 36.59 36.16 35.93 35.86 36.21 35.90 34.06 35.18 35.37 36.34 36.65 36.51 36.23 36.91 38.04 38.84 40.31 41.18
42.72 41.81 41.54 40.98 40.78 40.68 40.77 40.46 40.37 40.32 39.66 39.11 38.56 38.43 38.25 37.95 38.23 38.43 38.26 37.76 36.79 36.31 36.05 35.60 35.94 35.72 35.10 35.64 35.61 34.70 33.28 32.72 34.05 32.96 34.11 34.16 33.65 34.14 35.12 35.91 36.97 37.74 38.68

GFSGL_sfc_wetblb_099.txt.gz
Wetbulb
72.49 73.14 74.41 74.50 75.50 75.79 75.49 75.57 76.20 76.23 76.17 76.10 75.97 75.19 75.17 75.48 76.66 77.08 76.90 75.85 75.90 76.02 76.29 76.12 75.99 76.92 75.33 75.15 75.50 75.51 74.74 74.23 71.10 72.37 74.84 75.93 76.85 76.96 76.99 77.94 77.41 77.89 76.43
73.52 72.77 73.44 74.87 75.07 75.34 75.33 75.92 76.23 75.86 76.51 76.17 75.98 76.04 76.26 75.86 76.35 76.53 76.15 76.10 75.74 75.23 75.39 75.77 75.45 75.19 76.34 76.32 74.89 75.76 75.20 75.68 73.45 72.98 75.19 75.05 76.19 77.53 77.65 77.80 76.47 76.73 77.63
72.12 73.36 73.77 74.38 74.03 74.31 75.07 75.70 75.81 75.84 76.56 76.30 76.03 75.93 75.97 75.24 75.06 75.80 75.95 76.05 76.24 76.04 75.94 75.51 75.41 75.71 76.08 75.69 76.32 77.56 74.95 75.04 75.40 73.91 73.89 75.65 75.98 76.54 76.62 77.56 77.66 78.13 77.24
70.81 71.08 71.33 72.82 73.96 74.06 74.99 74.76 75.71 76.22 75.87 76.31 76.02 75.90 75.97 74.92 74.68 74.80 74.91 75.68 76.26 75.89 76.22 76.47 76.05 75.93 76.05 76.34 75.52 76.63 75.77 75.91 75.64 74.02 73.70 73.94 74.91 76.69 76.19 75.15 74.58 75.64 75.31
68.49 68.52 68.70 70.45 70.88 72.93 73.46 73.63 73.39 74.93 75.15 75.84 75.91 75.95 75.53 75.17 74.08 74.58 74.80 74.70 74.80 76.21 76.81 76.41 76.79 75.40 71.46 72.05 76.34 77.75 77.29 75.63 75.73 72.75 72.67 73.32 73.42 73.58 73.97 74.77 73.92 74.42 76.09
67.91 67.64 68.67 68.31 69.70 71.08 71.74 71.69 71.84 72.10 73.24 73.73 73.63 73.66 73.28 73.95 62.78 64.51 70.29 75.66 76.48 76.55 76.32 77.06 77.25 73.61 72.87 67.09 66.71 67.07 70.62 75.76 76.16 73.29 72.75 73.04 75.23 75.50 75.32 74.68 73.99 73.05 71.48
68.54 68.31 67.80 67.12 66.81 67.41 69.17 69.70 69.40 70.36 71.21 71.46 71.88 72.64 70.48 66.74 60.56 61.53 65.65 75.21 75.98 76.44 76.12 75.86 75.52 75.52 71.93 74.13 71.43 67.79 67.64 65.34 67.12 74.98 74.57 74.91 74.92 76.07 76.39 75.44 75.14 74.55 73.75
62.47 63.89 65.68 65.72 65.62 65.69 67.13 67.50 67.91 68.88 69.00 69.98 71.53 67.56 65.24 61.77 58.06 59.87 64.89 73.96 74.13 73.13 71.49 70.95 69.51 65.78 63.51 64.69 72.07 74.46 75.47 76.10 76.44 75.55 75.68 75.95 76.55 76.85 76.52 76.28 75.63 75.19 75.47
58.48 58.64 61.32 65.16 64.12 64.67 64.45 65.11 65.94 67.16 67.72 70.45 66.77 65.56 61.93 59.17 54.64 57.53 64.87 66.55 67.25 66.70 66.85 63.90 64.27 63.26 60.55 60.60 65.17 67.10 69.65 72.53 69.08 64.96 63.95 62.76 62.40 61.65 65.25 72.81 73.34 72.94 72.68
56.75 57.15 58.68 60.32 62.75 61.49 63.87 63.41 64.89 66.12 67.06 64.76 60.12 58.47 54.91 55.52 51.89 52.60 59.80 64.67 64.27 64.58 65.13 65.21 57.86 58.55 54.52 55.41 63.44 64.38 64.64 65.66 65.97 66.75 67.96 68.11 68.31 70.91 64.34 73.02 74.03 72.23 72.54
56.84 57.03 57.63 59.30 59.99 60.10 59.38 59.96 61.00 61.07 58.97 57.94 57.06 55.87 53.03 51.08 49.81 49.87 51.21 57.59 58.26 62.23 61.44 61.88 60.77 54.11 51.65 51.44 52.76 63.37 61.71 61.05 64.35 66.24 67.01 67.80 68.74 70.12 71.07 73.08 75.11 74.40 73.00
55.92 56.25 56.61 56.94 57.32 56.70 57.72 57.91 56.68 58.11 57.33 57.87 57.24 55.58 53.00 50.76 48.62 48.43 48.66 49.82 52.46 56.73 56.30 57.73 57.56 51.13 50.15 51.30 56.96 53.39 53.63 58.11 66.99 66.98 66.95 67.36 68.51 69.54 70.85 72.17 73.47 73.92 74.60
54.38 54.24 54.49 54.69 54.71 55.43 56.29 55.73 55.77 56.13 54.86 53.11 53.20 53.62 51.43 50.30 48.86 47.91 47.77 48.57 50.56 54.87 56.82 54.29 52.45 51.48 52.64 56.36 55.25 55.56 56.99 63.68 64.08 64.62 65.11 66.40 67.41 68.41 69.59 70.19 72.12 73.98 74.84
52.96 52.96 53.16 53.16 52.79 53.56 53.57 53.46 53.05 52.78 52.92 53.12 51.55 49.75 47.92 47.05 46.14 47.27 47.27 48.78 50.65 52.24 52.80 56.86 54.83 54.62 54.17 56.29 58.86 59.84 61.55 61.76 61.62 62.39 63.41 63.34 64.87 66.01 68.14 68.33 67.31 68.03 70.48
51.41 51.27 51.43 51.65 51.73 50.53 50.19 50.33 48.54 47.11 48.26 49.20 48.66 47.77 47.55 45.05 43.37 41.71 41.32 46.16 48.94 48.74 51.31 53.77 52.96 53.55 54.79 55.55 56.71 58.22 59.22 59.83 60.07 59.74 58.98 60.69 62.61 62.93 62.67 63.81 64.50 63.28 62.89
49.98 49.88 50.01 49.76 49.75 49.53 48.21 45.03 42.80 42.73 41.53 40.29 39.88 42.96 44.15 41.07 40.42 39.67 39.12 40.15 41.54 43.73 49.81 49.63 48.82 49.41 49.97 50.43 52.16 52.79 54.40 53.80 54.13 54.62 56.17 57.88 58.80 58.91 59.80 60.58 61.98 61.90 60.98
49.14 48.73 47.44 47.68 47.66 47.26 47.26 46.67 44.22 42.25 41.41 40.12 39.34 39.32 39.21 38.60 39.16 38.24 38.33 39.54 41.27 44.83 46.51 45.88 45.54 45.97 45.92 47.09 47.57 48.59 48.69 50.38 51.86 52.55 53.28 54.53 55.66 56.44 56.37 56.90 57.90 57.75 57.67
48.90 45.31 46.97 46.36 46.32 46.09 46.21 45.96 46.18 45.65 44.62 44.18 40.02 39.97 38.63 38.20 38.22 37.84 38.37 41.90 46.48 46.15 46.21 45.85 45.81 46.21 46.55 46.04 46.34 46.60 46.94 47.80 47.22 47.86 49.48 50.90 53.13 52.89 52.85 52.48 51.88 52.08 52.72
47.83 46.44 46.23 46.21 45.90 45.34 45.52 45.34 45.20 45.01 44.73 44.30 44.91 42.21 41.58 38.71 38.28 38.48 39.87 45.07 44.37 44.26 44.37 44.30 44.78 44.80 45.26 45.80 46.15 46.53 46.66 46.44 45.73 46.49 47.76 48.48 49.43 50.64 51.29 52.02 51.62 48.24 48.52
46.94 45.04 45.95 46.16 45.10 45.43 45.27 44.87 44.33 44.32 44.19 44.07 43.71 43.40 44.59 44.92 44.17 44.11 44.13 44.25 43.85 43.71 43.67 43.46 43.25 43.41 43.50 43.81 44.11 44.42 44.56 45.11 45.69 45.89 45.63 45.71 46.71 47.51 47.11 47.47 48.52 48.29 48.09
46.53 46.42 45.67 46.41 46.00 45.73 45.38 44.80 44.64 44.36 44.00 43.98 43.47 41.26 37.16 44.13 43.41 43.18 43.35 43.38 43.16 43.16 42.98 42.95 42.64 42.75 42.72 42.47 42.25 42.95 43.00 43.07 43.29 43.24 43.71 44.27 44.94 44.41 44.16 43.45 43.95 45.89 47.98
46.86 46.83 46.65 46.32 46.47 45.93 45.87 45.94 45.74 45.06 44.52 44.17 44.10 42.41 37.73 45.22 44.18 43.62 43.54 43.35 43.17 42.82 43.03 42.37 42.22 42.13 42.29 41.43 40.38 39.67 38.94 39.40 39.83 40.27 40.24 40.62 41.04 41.47 41.65 41.40 42.29 43.02 43.69
47.60 47.01 46.80 46.74 46.90 45.99 45.83 46.85 46.53 46.43 45.98 45.68 45.13 44.60 44.82 45.11 45.35 45.12 44.51 44.44 44.33 43.34 42.98 41.94 40.57 40.85 41.27 39.56 38.92 38.62 38.04 37.81 38.06 38.21 37.38 37.03 37.25 37.42 38.27 38.82 40.03 40.44 39.92
47.94 47.32 46.51 46.52 46.58 46.79 47.08 47.15 47.19 43.53 46.75 46.17 45.52 44.82 44.93 45.52 45.76 44.57 45.02 45.01 44.32 44.01 42.65 40.70 39.45 38.99 38.86 38.33 38.43 38.44 38.32 38.07 37.69 37.62 37.73 36.74 35.97 36.19 37.08 37.31 37.68 37.91 39.07
48.62 47.87 47.31 46.83 46.75 46.32 47.00 46.94 47.25 47.47 47.09 46.77 46.26 45.45 45.30 45.13 44.97 45.33 45.87 45.48 44.38 43.48 42.61 41.08 39.84 39.12 38.24 37.89 37.51 37.95 36.74 33.77 35.88 35.26 36.89 36.62 36.08 36.33 36.38 36.51 36.44 36.56 36.89
49.52 48.60 48.15 47.89 47.44 47.20 47.15 47.18 47.35 47.62 47.51 47.45 47.47 47.07 46.13 45.60 45.70 45.44 45.46 45.25 44.48 43.64 42.55 41.36 40.02 39.03 38.85 38.35 38.42 36.23 33.01 32.16 35.02 32.96 35.01 35.27 34.42 34.96 36.11 36.34 36.25 36.19 36.12

GFSGL_sfc_wetblb_105.txt.gz
Wetbulb
75.34 75.54 75.50 75.06 75.14 75.87 75.05 75.65 76.52 76.41 76.65 76.98 77.33 77.15 76.89 77.23 77.61 77.38 78.46 77.08 76.77 76.70 76.63 76.31 76.03 78.22 75.31 74.80 75.01 74.25 72.82 72.53 70.41 72.56 73.33 75.73 79.63 79.12 77.73 78.71 76.87 78.50 75.84
74.13 76.08 75.56 75.70 75.43 74.57 75.02 75.38 76.80 76.65 77.45 76.94 77.58 77.22 76.50 76.98 77.21 77.06 76.93 76.18 75.84 75.62 75.59 76.02 75.59 74.76 77.04 78.83 75.56 79.55 76.46 76.69 72.47 75.31 74.92 74.49 77.62 78.49 78.15 80.08 76.37 75.85 76.50
75.82 75.69 76.70 75.02 74.71 74.86 74.94 75.55 76.37 76.88 76.72 76.90 76.85 76.55 76.66 76.88 76.47 77.03 77.19 76.53 76.61 75.72 75.51 75.87 75.65 75.93 76.48 75.84 76.45 75.52 74.53 75.64 74.75 73.55 72.20 73.41 74.62 75.69 77.59 79.20 79.52 79.35 75.61
73.15 74.78 75.62 75.48 74.89 75.15 77.16 75.98 76.05 77.04 76.68 76.38 77.09 77.61 77.04 76.96 76.83 76.47 76.53 76.57 76.76 76.31 76.53 75.97 76.63 75.93 76.36 76.78 75.99 77.38 77.06 75.66 75.11 73.70 71.73 73.11 74.53 75.80 77.81 73.55 73.55 74.33 74.20
71.64 72.56 72.35 76.26 76.50 76.42 76.17 76.84 76.20 76.34 76.28 76.36 76.25 77.58 76.78 76.26 74.63 75.60 76.41 76.39 76.78 76.41 76.44 76.54 76.63 75.16 72.51 72.12 74.89 77.70 77.20 75.55 73.58 72.70 72.06 72.13 71.98 73.92 73.37 73.63 73.53 74.04 76.10
70.99 71.83 72.93 74.20 74.67 75.07 75.66 75.86 76.36 75.92 76.25 76.49 75.96 76.25 75.97 76.08 62.57 63.50 69.09 76.35 76.49 76.67 76.15 76.61 76.50 76.34 73.41 69.92 69.18 69.08 71.57 75.78 75.10 73.61 72.94 72.46 75.95 74.79 74.70 74.36 74.43 72.91 71.81
69.90 70.52 70.98 71.67 70.88 71.60 72.45 74.42 74.36 74.81 75.66 75.85 75.47 75.26 74.51 72.20 58.71 60.93 66.02 74.73 76.22 76.66 76.40 76.40 76.23 73.94 73.91 75.31 70.80 68.72 68.37 67.03 68.20 75.00 75.08 75.57 75.29 76.87 76.41 76.45 76.02 75.19 73.67
71.52 70.86 70.84 69.53 69.55 70.69 70.08 69.34 70.63 72.00 74.13 74.30 73.65 72.08 70.15 65.11 55.77 57.25 62.78 75.34 76.49 75.47 75.52 74.60 74.53 73.06 62.94 63.04 69.46 73.82 74.48 75.66 76.63 74.81 75.88 74.40 74.46 72.98 72.66 74.26 75.12 75.51 75.97
70.58 71.22 70.86 70.90 69.42 67.46 67.10 68.31 69.46 70.59 71.25 70.04 69.62 68.86 66.28 62.85 52.48 54.37 63.03 74.41 72.39 71.94 70.61 67.11 70.12 65.89 56.47 56.85 69.35 70.23 71.09 71.69 67.16 65.16 65.79 63.26 61.64 61.02 64.13 70.62 71.65 74.21 73.51
65.64 67.55 68.21 69.25 66.83 66.36 66.45 66.11 67.61 67.46 66.47 66.67 64.11 63.75 57.92 60.60 50.45 51.45 57.75 72.16 71.69 69.39 67.16 63.70 56.38 58.57 54.67 54.86 66.63 66.22 65.50 65.09 65.63 68.89 71.29 69.97 65.10 68.85 62.71 71.19 72.69 70.05 69.63
62.51 63.42 64.11 65.54 65.80 66.76 67.43 68.30 66.46 65.46 64.04 63.37 61.85 59.60 57.17 55.51 51.22 49.75 50.83 61.64 63.02 68.39 67.59 65.74 62.55 54.43 52.38 52.65 54.08 64.09 61.53 61.23 64.04 68.28 68.85 69.90 71.23 71.50 71.66 72.14 74.53 70.86 68.68
62.10 63.15 63.32 64.17 63.18 64.50 67.02 64.05 62.65 62.48 62.15 61.67 60.49 59.98 58.63 56.65 50.03 49.69 49.98 51.03 54.29 62.35 60.64 59.86 59.50 51.77 50.66 51.73 56.77 54.53 54.14 56.56 64.71 63.89 64.16 65.37 66.58 65.82 66.69 68.48 73.03 71.87 70.36
60.57 62.24 63.15 63.69 64.41 65.63 65.02 64.24 62.21 62.02 61.63 61.69 61.98 60.99 59.13 57.47 56.27 50.04 49.75 50.86 52.33 58.77 57.42 55.53 53.38 51.64 51.58 53.92 55.15 55.57 55.78 62.91 62.40 62.39 62.59 62.74 61.93 64.31 69.39 68.51 68.56 69.72 70.18
58.65 60.41 61.22 61.06 62.34 64.08 64.78 63.95 63.38 63.95 63.46 63.19 62.44 61.45 59.09 57.27 56.54 53.95 54.37 56.34 53.96 55.60 55.98 58.07 55.48 54.64 54.39 56.63 59.61 60.60 60.81 58.83 58.62 57.48 57.76 59.23 60.05 60.32 60.70 62.62 60.98 60.66 60.98
59.70 59.62 59.08 58.44 60.70 57.08 51.85 47.26 56.00 47.63 45.50 52.36 60.66 60.08 57.08 57.97 49.26 43.21 43.67 50.38 51.94 50.61 51.40 56.92 55.41 55.92 54.73 54.53 54.75 56.08 55.90 56.07 54.82 55.33 55.34 55.57 56.29 57.21 58.30 59.32 58.90 58.67 57.69
58.01 58.13 57.58 58.06 58.13 56.97 55.08 50.46 41.00 41.40 40.78 40.05 40.21 47.12 47.97 41.96 40.68 40.38 39.81 40.51 41.40 42.81 53.98 55.02 53.79 53.81 53.49 52.46 52.22 51.85 53.03 52.58 51.51 52.16 52.04 53.27 53.27 53.98 53.75 55.20 56.48 56.51 55.67
55.13 55.79 56.92 53.44 57.11 56.31 55.06 53.50 50.04 43.08 40.90 39.97 39.27 39.81 39.79 39.40 39.95 39.31 39.23 39.95 42.33 43.79 54.49 54.09 53.62 53.45 53.56 53.84 53.51 52.91 52.13 53.04 55.49 53.00 52.89 53.33 52.71 51.80 51.73 51.16 51.62 52.34 52.29
54.77 48.60 54.23 54.22 54.89 55.43 55.41 54.56 53.39 51.09 50.15 48.27 40.73 42.81 39.10 39.68 39.59 39.51 39.77 41.75 52.19 51.33 53.40 52.73 52.20 52.44 52.17 52.15 51.89 51.85 52.11 51.98 51.40 52.02 51.63 51.27 50.73 50.48 50.44 50.46 50.83 50.54 49.86
53.91 54.38 53.28 54.56 54.59 52.54 54.06 53.90 53.23 53.06 53.79 51.39 47.67 42.72 42.47 40.85 40.96 40.80 41.14 52.63 52.90 52.02 52.11 51.53 51.91 51.84 51.55 51.38 51.12 51.17 51.36 50.08 49.88 50.09 49.98 49.74 49.81 49.09 48.73 48.89 48.59 46.40 46.70
53.04 49.30 49.67 51.86 51.91 51.05 52.64 51.34 51.47 52.16 51.89 51.62 51.37 52.09 50.30 47.26 50.47 51.91 53.45 53.45 52.99 51.61 51.81 51.22 51.19 51.21 50.84 50.57 50.27 49.83 49.55 49.23 49.22 48.82 48.43 48.05 47.61 47.01 46.50 46.33 46.59 46.22 46.50
51.51 50.71 49.90 49.85 50.24 50.68 51.40 50.32 50.49 50.65 49.71 49.84 50.69 47.57 38.29 48.92 52.07 52.48 51.43 51.61 52.10 51.28 51.11 50.85 50.93 51.12 50.76 50.05 49.29 48.67 48.06 47.96 48.04 47.33 46.34 45.67 45.35 44.44 45.12 45.16 44.97 44.95 45.05
51.74 50.47 48.63 49.07 49.98 49.77 50.24 50.45 50.06 49.53 49.71 50.17 49.49 46.50 41.21 47.65 51.07 51.15 51.23 51.04 50.84 51.50 51.16 51.24 50.73 50.06 49.53 48.68 47.93 47.35 46.82 46.29 46.33 45.24 44.22 43.78 43.59 43.46 43.48 43.19 42.86 42.90 43.17
52.82 50.61 50.12 49.69 50.07 49.83 49.66 50.10 49.78 50.07 50.13 49.94 49.71 48.56 47.61 50.07 50.45 50.40 50.13 50.92 50.73 51.17 51.09 51.31 50.80 50.24 49.53 49.58 48.82 47.50 45.91 45.27 44.52 43.87 42.39 42.05 41.72 41.74 41.29 39.77 39.22 39.53 39.81
53.84 52.60 51.39 50.62 50.65 50.54 50.07 49.84 50.32 47.29 50.04 50.43 49.97 49.25 49.46 49.79 49.87 50.02 50.60 50.57 50.39 50.50 50.94 50.76 50.65 49.34 49.36 48.94 49.39 48.92 47.91 45.93 43.99 42.81 41.81 40.45 39.32 39.34 39.44 39.06 39.17 39.49 39.73
53.36 53.77 52.52 51.40 51.42 50.51 50.73 50.59 50.91 51.41 50.87 50.67 50.90 50.57 50.23 50.24 50.08 50.31 50.56 50.80 50.59 50.44 50.07 50.88 50.20 49.01 48.04 47.14 46.92 46.19 37.47 34.51 39.83 36.55 41.16 40.55 39.78 39.77 40.15 40.05 40.22 39.94 39.61
54.74 53.16 52.70 51.40 50.49 50.76 51.38 50.98 51.15 51.75 51.67 51.50 51.48 51.86 51.28 50.60 50.68 50.92 51.15 51.05 50.94 50.99 50.76 50.76 50.06 48.82 48.11 47.84 47.31 38.46 34.24 33.51 38.37 32.70 38.90 40.46 40.19 40.21 40.39 39.65 39.23 38.72 38.51

GFSGL_sfc_wetblb_108.txt.gz
Wetbulb
75.55 75.38 76.08 75.55 76.31 77.09 76.83 75.79 70.65 72.15 74.14 71.05 75.66 79.35 78.76 77.04 76.85 78.55 77.66 77.21 76.24 77.56 77.72 76.00 75.96 77.11 76.17 75.44 74.98 74.38 73.14 73.77 70.88 72.20 73.02 74.04 74.82 76.76 76.84 77.11 77.39 75.56 75.10
74.67 75.93 76.38 76.03 75.85 75.56 76.82 75.78 78.45 77.69 78.79 78.09 78.25 78.09 78.22 78.09 78.65 77.79 76.39 76.34 74.19 75.46 76.78 77.06 76.34 75.35 75.95 77.62 76.08 75.59 74.58 75.55 73.82 70.38 74.59 72.26 73.29 75.23 77.64 76.51 77.53 75.15 75.25
73.93 74.70 73.88 75.88 76.00 76.90 74.67 76.34 78.09 78.35 77.98 77.54 77.90 77.34 76.83 76.77 75.86 77.82 77.74 77.18 76.05 75.33 76.84 76.81 76.12 76.49 75.84 75.22 76.19 75.82 74.74 74.83 74.91 73.57 73.00 73.50 73.30 74.64 73.00 74.84 75.05 76.14 76.78
73.78 74.81 71.69 76.20 75.24 76.14 74.67 76.17 77.44 78.24 77.37 77.92 76.96 76.09 76.97 76.96 76.08 77.09 77.67 76.49 76.73 75.83 76.17 76.08 73.48 74.95 76.38 75.95 75.03 75.59 74.69 74.69 73.71 73.22 72.34 72.40 72.81 74.36 72.48 72.96 72.33 74.56 74.01
73.42 73.57 71.39 73.07 75.39 76.11 76.12 77.43 77.31 77.43 76.32 76.61 77.42 77.14 77.07 72.74 67.40 68.41 75.54 76.87 76.00 75.52 77.16 75.92 76.90 74.48 71.84 72.13 75.00 75.82 76.37 75.13 74.28 72.62 71.69 71.67 72.02 73.02 72.43 73.80 73.41 73.98 74.14
71.44 71.50 73.25 73.34 72.82 72.34 73.32 76.08 76.71 76.59 76.93 77.54 76.09 76.45 75.85 66.92 61.76 62.98 66.91 75.46 76.29 76.17 75.63 75.66 75.00 74.82 72.35 70.27 69.70 69.51 71.11 73.84 73.72 73.20 72.43 71.61 72.59 73.39 73.89 73.68 73.26 72.24 70.61
71.69 71.93 73.00 73.99 73.06 72.00 72.10 74.29 73.04 74.16 75.72 75.69 75.90 74.94 70.12 64.09 57.72 59.22 63.42 71.23 74.89 76.56 77.08 76.94 75.64 68.57 64.87 67.81 70.01 69.28 68.60 67.06 67.78 72.61 72.42 72.70 72.74 74.04 72.84 71.66 71.63 71.67 71.26
71.63 71.79 71.48 71.25 70.74 70.34 69.97 72.40 72.46 71.20 70.72 70.77 70.23 70.14 68.23 58.82 54.92 56.33 60.62 70.09 75.53 75.69 73.31 73.61 69.68 64.18 59.03 60.46 66.87 72.73 72.96 74.00 73.17 71.74 72.33 70.83 69.97 70.73 70.37 70.09 70.58 71.99 73.66
71.70 70.98 70.85 70.82 69.64 69.52 68.57 69.25 69.50 69.38 69.05 67.38 66.75 64.31 64.10 56.65 52.46 54.13 60.70 75.64 72.06 66.92 65.43 62.29 65.18 62.04 57.68 57.31 68.62 67.55 68.72 67.29 63.75 63.79 64.70 62.72 61.60 61.18 62.69 66.76 69.86 69.77 69.19
70.29 70.22 70.83 70.82 69.76 68.52 67.86 67.07 68.57 68.72 66.20 64.28 61.51 59.09 59.02 56.31 50.95 52.26 59.41 71.35 70.29 65.92 63.28 60.06 56.91 57.13 55.14 55.27 64.19 64.55 62.46 62.78 61.45 63.45 65.98 67.76 67.45 67.77 62.37 69.21 71.20 67.66 67.19
63.56 65.70 67.98 69.00 68.77 68.05 67.15 69.53 67.38 65.17 63.23 61.18 58.89 57.38 55.26 54.27 51.85 50.83 51.92 60.64 62.29 61.54 64.29 61.70 60.09 54.37 52.51 52.79 54.28 62.76 60.29 57.85 60.31 62.20 64.19 67.47 66.29 65.92 68.10 67.65 71.66 67.94 65.77
62.55 62.45 63.16 64.82 64.18 66.08 64.65 62.63 64.38 63.39 61.78 60.95 59.77 59.96 57.49 55.76 51.20 50.58 50.78 51.65 54.04 61.40 59.66 60.11 59.46 51.77 50.59 51.67 55.59 54.43 53.65 56.33 63.18 62.15 60.47 60.29 60.52 62.11 64.72 67.53 68.82 66.85 65.22
59.77 60.28 61.73 64.69 64.71 65.42 63.58 63.30 61.79 61.96 60.44 60.74 61.06 60.53 59.39 59.09 56.33 50.69 50.74 51.68 53.33 58.75 56.30 54.32 53.25 51.59 51.94 56.31 56.29 55.71 56.72 57.37 58.13 57.11 57.71 58.22 58.94 60.51 62.64 61.33 61.36 62.40 62.13
58.49 59.86 60.34 59.60 58.16 54.86 56.33 60.44 58.59 53.37 58.48 61.54 63.24 61.80 60.11 58.98 57.21 53.78 54.84 57.43 54.36 57.67 57.01 59.39 56.19 54.95 54.82 55.27 55.28 55.98 55.41 54.51 54.25 53.78 54.50 56.10 57.25 56.47 56.36 56.34 56.51 57.28 57.03
58.42 58.19 58.24 58.01 57.48 50.76 46.06 47.46 49.66 43.62 43.61 50.19 49.53 51.04 54.91 56.07 46.25 43.56 43.11 47.24 47.89 47.77 47.04 58.32 57.10 57.10 54.91 53.99 53.36 53.38 52.89 52.19 51.07 52.06 52.18 52.25 52.37 52.71 51.09 53.88 53.68 53.46 52.62
56.36 56.43 56.87 58.64 58.15 55.78 54.98 47.50 41.70 41.89 40.92 40.10 40.52 47.26 43.91 42.60 41.48 40.85 40.11 40.64 41.56 42.73 52.72 57.71 55.18 55.73 54.80 54.62 54.32 54.83 53.99 54.10 54.00 54.01 54.12 53.25 52.79 52.31 50.89 52.39 52.72 51.31 49.53
56.15 54.33 55.30 54.65 57.91 56.03 55.88 52.67 50.12 42.90 41.29 40.44 39.86 40.37 39.84 40.48 40.24 39.65 39.64 40.38 42.12 45.01 52.20 57.04 55.98 55.35 54.62 54.86 54.20 53.61 52.92 52.76 54.59 54.24 53.03 52.37 51.34 50.52 49.86 49.26 49.36 48.53 47.27
53.23 50.66 50.39 54.62 55.42 55.64 55.99 54.18 52.73 51.31 49.29 46.87 41.69 42.59 39.95 40.16 40.54 39.73 39.90 42.23 52.27 47.81 55.44 54.58 53.92 53.47 53.36 52.51 52.41 51.41 52.21 51.02 51.30 51.47 50.64 50.10 48.97 48.25 47.45 47.29 47.04 46.39 45.87
53.03 52.96 52.81 55.44 52.80 50.38 52.62 53.09 54.25 53.56 54.94 48.94 44.82 41.82 42.05 41.47 41.28 41.04 41.79 47.75 51.72 53.00 53.09 52.79 53.11 52.67 52.46 52.21 52.25 52.30 52.24 50.54 50.63 49.90 48.90 48.05 47.06 46.11 45.84 45.79 45.72 44.86 44.93
54.11 51.65 51.65 52.78 52.56 51.11 53.10 50.70 53.71 52.26 53.35 51.67 49.76 50.66 47.58 46.45 48.86 51.32 53.76 54.85 55.04 52.39 53.30 52.25 52.45 52.60 52.13 52.33 51.81 51.95 50.90 49.75 48.93 47.74 46.73 46.05 45.36 45.15 44.14 44.02 43.98 43.27 43.21
52.92 52.23 51.73 50.74 50.98 51.34 51.78 50.39 51.74 50.80 51.00 52.73 49.55 44.40 40.09 49.87 49.78 52.99 52.00 53.15 53.71 51.97 53.08 52.39 52.37 52.78 52.21 51.17 51.22 50.50 48.74 48.04 47.26 46.09 44.90 44.30 44.37 43.12 43.61 43.47 43.05 42.59 41.86
52.49 51.68 50.37 48.92 50.48 51.76 51.21 50.12 51.63 50.73 51.68 51.56 48.84 44.68 42.15 47.99 48.98 52.90 52.25 51.79 51.63 51.84 51.56 52.99 51.59 51.08 49.87 49.48 49.50 47.86 47.20 46.26 45.43 44.33 43.43 42.98 42.72 42.49 42.20 41.17 40.79 40.22 40.31
52.53 52.11 51.32 49.68 50.36 50.59 50.80 50.83 50.32 49.78 49.26 50.59 50.66 47.27 45.54 46.84 49.27 51.51 51.41 51.55 51.31 51.63 50.85 50.70 50.49 49.77 49.12 49.33 48.78 47.53 45.69 44.74 43.97 43.26 42.04 41.43 41.18 40.55 39.86 40.01 39.83 39.54 39.76
54.94 53.89 51.82 51.17 50.94 50.68 50.63 50.80 50.82 48.06 50.40 51.29 51.12 48.59 47.98 48.12 50.04 51.79 51.13 51.31 51.10 51.26 50.12 49.68 49.63 48.60 49.08 49.40 48.75 48.17 46.97 44.67 43.76 42.74 42.26 40.76 40.12 40.04 40.10 39.79 40.05 40.34 40.38
54.41 54.13 52.91 53.22 52.75 51.58 51.32 50.54 50.53 50.78 50.83 50.78 51.49 51.16 50.66 51.26 50.80 50.59 50.08 50.52 50.61 49.68 49.64 50.23 50.29 49.78 48.97 48.49 48.33 46.39 37.33 35.85 40.36 34.72 41.06 41.64 40.43 40.65 40.53 40.46 40.45 40.17 39.45
55.62 54.36 53.89 53.95 53.38 52.71 52.22 50.85 50.78 51.72 51.22 51.46 51.17 51.60 51.81 50.46 50.33 51.21 50.65 51.02 50.61 50.53 51.05 50.68 50.69 50.25 49.57 48.66 48.06 39.77 32.32 33.75 38.51 32.69 38.26 39.47 39.42 40.02 40.91 39.82 39.32 39.02 38.98

GFSGL_sfc_wetblb_111.txt.gz
Wetbulb
72.15 72.65 72.39 72.36 72.12 71.21 71.55 70.15 69.54 68.70 70.12 70.27 70.84 71.50 72.86 72.21 73.29 72.69 72.36 71.97 73.16 71.47 72.24 71.70 71.24 71.92 71.46 70.93 72.53 71.85 70.91 71.09 66.71 67.72 69.96 71.06 70.33 71.37 73.14 73.55 74.94 73.78 72.56
72.07 72.59 72.27 72.34 72.27 72.07 71.97 70.39 68.30 68.98 71.04 71.12 70.15 72.76 72.69 72.77 73.14 71.42 72.09 73.28 71.77 71.64 71.63 71.21 71.11 73.21 70.95 71.62 71.30 71.30 70.68 71.08 69.31 66.61 68.61 69.96 69.71 71.61 71.26 71.80 73.80 75.60 72.77
72.19 72.86 72.41 72.35 72.56 71.37 71.99 72.50 71.87 71.44 72.63 73.38 73.51 72.41 72.80 73.20 72.86 73.24 73.22 72.66 72.58 72.46 72.17 71.82 71.21 71.16 70.42 69.84 70.88 71.08 70.24 71.22 70.05 69.28 68.88 70.71 70.71 70.17 67.42 69.78 71.93 72.61 74.76
72.33 71.53 71.13 70.90 71.56 71.84 71.45 72.00 73.50 73.24 72.72 71.91 72.77 72.81 72.32 72.14 69.87 71.91 73.37 72.67 72.28 72.78 74.01 72.59 71.05 71.25 71.13 70.43 71.12 70.83 71.44 70.90 70.45 70.13 68.96 68.66 69.83 71.58 70.81 70.08 71.24 72.79 72.46
69.67 70.55 70.48 71.81 71.87 72.68 72.96 71.15 73.46 73.18 72.98 72.54 72.28 72.08 68.64 67.68 65.33 65.62 68.08 71.72 71.63 71.52 72.38 72.11 72.72 72.34 71.24 69.94 70.63 70.19 70.31 70.24 70.04 69.43 68.89 68.78 68.46 69.62 69.59 71.01 70.02 71.05 70.86
69.23 69.45 70.06 70.25 71.08 71.36 71.55 71.01 70.74 70.90 70.24 71.29 71.21 70.37 64.83 62.73 61.73 63.49 65.74 68.28 71.81 71.69 71.18 71.47 68.51 64.78 67.15 67.36 67.53 68.34 68.49 68.74 67.79 68.85 68.94 68.49 68.64 69.62 70.13 68.97 69.34 67.86 66.91
68.80 69.16 68.95 70.49 70.24 70.38 70.44 71.03 71.16 70.83 70.74 69.70 69.48 64.31 58.05 56.22 56.72 58.02 62.35 66.51 70.32 71.25 70.66 70.28 65.17 60.96 59.98 62.75 65.92 68.12 68.95 66.78 67.27 68.44 67.65 68.58 68.10 67.51 65.69 64.02 65.31 66.28 66.78
68.71 69.83 70.61 69.79 69.02 68.01 68.03 68.32 70.05 70.07 69.97 68.44 66.91 65.57 59.07 54.32 55.01 56.08 59.45 66.13 65.92 63.69 65.16 62.69 59.52 57.42 57.24 59.85 65.10 64.99 65.86 61.82 59.55 63.21 64.05 64.25 64.33 63.31 64.77 64.97 64.85 68.24 69.20
68.64 68.94 68.80 68.26 67.32 67.41 66.84 67.09 68.40 68.49 66.39 64.74 64.01 61.56 55.95 51.53 53.33 55.30 62.20 66.91 64.31 59.97 59.02 60.36 57.80 55.66 56.71 59.28 61.55 59.55 58.01 57.98 59.50 60.41 60.90 61.30 61.08 60.30 61.36 64.22 66.57 64.96 63.66
68.62 68.60 68.84 68.46 67.56 66.32 65.65 65.87 66.79 64.79 62.56 61.05 59.30 58.38 55.35 50.56 51.91 53.42 60.26 67.07 61.80 57.30 55.72 54.93 56.58 54.52 54.36 54.57 59.45 54.83 52.43 54.16 55.39 58.65 61.38 62.73 64.48 62.74 63.50 66.95 65.37 62.49 61.54
65.61 68.01 67.86 67.61 67.36 66.39 65.63 65.20 65.30 62.42 59.61 58.14 55.91 53.56 52.64 52.32 50.26 51.57 53.20 57.16 60.76 60.69 58.54 55.44 53.71 53.67 52.13 52.34 54.67 53.91 53.26 53.74 57.23 57.92 57.18 57.66 58.43 58.50 61.38 61.38 62.11 59.39 56.53
62.37 62.94 63.52 65.38 65.82 64.68 63.52 64.91 61.80 61.51 59.84 58.67 57.28 54.65 52.89 49.78 51.11 50.91 51.40 52.40 57.58 58.51 57.35 56.25 54.48 51.34 50.68 51.64 53.47 53.54 53.88 55.47 55.53 55.84 54.45 53.82 54.06 56.04 54.60 55.56 55.89 55.17 58.20
60.09 60.42 62.73 59.66 61.48 63.28 62.23 61.53 61.35 61.00 60.31 59.77 58.72 57.25 55.15 52.52 49.51 51.80 51.03 52.13 53.80 52.68 53.59 52.72 52.89 51.99 51.52 52.65 53.33 53.26 52.91 51.51 50.23 50.09 49.68 51.11 51.62 51.75 51.49 52.85 53.81 54.10 54.32
58.21 58.88 58.16 52.62 50.34 48.81 51.59 50.75 50.02 49.23 52.73 54.00 58.96 57.13 53.99 52.93 48.91 48.02 48.59 50.70 52.79 50.36 52.04 53.93 53.51 52.73 52.45 51.87 50.67 50.46 49.43 49.06 48.25 48.62 47.72 49.26 48.89 49.29 49.72 50.74 48.89 50.61 49.81
56.55 56.92 57.95 54.53 49.54 44.57 42.96 45.64 44.35 40.92 42.67 46.31 49.08 48.63 53.52 47.45 42.14 41.86 41.73 42.19 41.49 42.78 44.47 51.27 49.96 49.29 48.67 48.06 48.71 48.93 48.32 48.10 47.18 47.60 47.84 47.84 48.01 48.59 48.00 48.51 48.06 46.84 45.96
54.52 55.11 55.34 57.98 55.11 48.42 45.80 43.04 42.23 41.70 41.03 40.46 40.96 42.68 40.67 42.10 41.48 40.44 39.80 40.23 41.09 42.47 45.69 49.78 47.26 48.67 47.07 47.08 47.65 48.34 48.02 47.62 48.02 48.67 47.47 46.68 45.32 45.33 45.65 45.61 45.64 43.98 43.58
51.28 49.62 52.62 54.26 54.76 52.83 51.05 48.14 44.04 40.76 42.01 40.66 39.91 40.05 41.17 40.48 39.94 39.31 39.39 39.86 41.94 43.29 44.40 49.43 48.17 47.64 47.21 47.05 46.99 46.59 45.32 46.10 46.28 46.68 45.26 45.43 44.63 44.22 44.38 43.39 43.73 42.77 42.01
51.55 50.85 48.42 50.68 51.31 52.86 52.60 51.71 48.66 46.29 45.47 43.63 41.54 41.49 39.82 39.72 40.17 39.81 39.70 41.73 45.36 43.45 45.10 46.96 46.51 46.45 45.94 45.45 45.19 45.02 43.96 44.45 44.59 44.25 43.94 43.47 42.72 42.29 42.29 41.37 41.39 40.16 40.10
49.52 48.23 48.58 48.99 47.77 48.64 49.42 47.48 48.13 48.44 46.83 43.91 40.81 41.71 41.09 40.68 39.59 39.48 39.83 40.18 43.02 45.41 45.15 45.92 46.30 46.22 45.75 45.39 45.03 45.12 43.49 43.72 43.59 42.14 41.25 40.71 40.44 40.34 39.58 40.06 40.04 41.77 41.14
48.28 51.02 49.62 48.15 47.38 46.59 45.65 46.98 47.42 47.54 44.20 43.70 41.29 41.68 43.00 43.29 43.51 43.17 44.58 46.60 46.24 45.35 45.81 45.63 45.82 46.14 45.52 45.07 44.30 44.43 44.25 42.58 41.08 40.49 39.76 39.41 39.45 39.47 38.80 39.00 38.94 37.82 37.33
49.67 46.73 50.09 44.55 45.31 44.92 44.32 45.42 44.45 45.00 44.70 44.64 42.92 45.35 44.20 45.36 46.71 45.86 47.82 46.06 46.46 46.87 47.04 46.28 45.65 45.57 45.81 45.21 43.84 42.95 42.37 42.24 40.98 39.89 38.83 38.48 38.62 37.82 38.21 37.82 37.43 37.30 36.90
48.29 47.59 46.00 45.24 45.16 45.57 44.98 44.67 45.11 45.22 44.68 43.68 40.35 40.72 42.37 44.13 44.76 46.17 47.78 47.10 47.26 47.73 47.86 47.82 46.29 44.54 45.37 44.66 43.98 41.66 41.66 40.34 39.86 39.17 38.52 38.27 37.87 37.51 36.90 36.88 36.75 36.59 36.63
48.77 47.20 46.53 44.92 45.08 46.77 45.99 45.22 45.84 45.59 45.65 44.69 43.82 41.60 40.92 42.12 44.35 45.65 46.92 47.43 46.75 46.53 46.35 46.46 44.71 43.43 44.28 43.92 43.12 41.21 40.45 39.25 38.71 38.05 37.59 37.57 37.40 36.87 37.07 36.52 36.46 36.25 36.24
50.96 48.68 47.09 45.64 45.19 44.42 44.43 45.14 45.25 44.62 45.22 45.58 45.93 43.13 42.03 41.78 43.11 44.70 45.57 46.40 46.49 46.71 45.88 45.00 43.83 43.77 43.17 42.60 42.69 42.08 41.49 40.44 39.46 38.54 38.18 36.95 36.60 36.86 36.99 36.95 36.73 37.49 39.63
50.80 49.80 50.34 47.77 47.70 46.91 46.15 45.06 45.35 45.42 45.67 45.45 45.04 43.62 43.29 43.88 44.46 45.23 45.33 45.34 45.39 45.50 45.24 45.28 44.83 44.88 44.70 43.92 41.15 39.56 36.91 37.02 37.77 36.38 37.32 37.88 36.58 36.70 36.56 37.55 39.12 39.18 38.99
51.43 50.22 50.90 50.50 48.75 48.47 47.70 44.96 46.67 47.11 45.96 46.95 47.02 46.33 45.67 44.67 44.15 45.13 44.41 44.77 44.32 44.30 44.70 44.26 44.24 44.60 44.15 43.87 42.98 38.15 32.64 34.12 36.01 34.83 37.10 36.30 35.70 35.64 36.36 38.89 39.42 38.93 38.77

GFSGL_sfc_wetblb_114.txt.gz
Wetbulb
71.42 71.14 70.44 70.63 70.78 69.59 69.26 69.00 67.63 65.97 66.70 68.29 70.10 70.00 70.66 71.84 71.96 72.01 71.33 70.90 71.89 70.76 70.84 70.57 69.82 70.74 70.31 71.07 70.70 70.57 69.37 68.90 65.24 66.55 68.76 70.04 69.33 69.55 69.74 72.44 73.36 73.56 71.80
72.16 71.52 70.77 70.81 70.98 69.34 69.40 69.49 69.29 66.96 68.05 69.12 69.72 69.49 70.27 71.88 71.90 71.07 71.04 73.21 71.14 70.25 70.14 70.24 70.27 72.10 69.74 70.15 70.17 69.73 69.14 69.61 67.59 65.60 67.29 69.33 68.68 69.44 68.67 70.81 72.89 74.65 72.91
71.60 70.89 71.01 71.19 70.36 69.94 69.49 69.88 68.00 68.49 67.86 69.70 69.89 68.98 70.93 71.95 70.71 70.94 71.20 70.71 71.49 71.74 71.43 70.70 70.20 69.70 69.12 68.55 69.80 69.45 69.10 70.29 69.22 68.06 67.74 69.17 69.54 69.99 69.74 70.77 71.58 71.81 73.64
70.14 70.76 70.44 70.50 70.96 71.00 70.93 70.85 68.78 67.54 68.05 70.37 71.43 71.22 70.72 69.15 68.19 69.07 70.83 71.23 71.35 71.22 71.53 71.49 70.58 70.30 70.15 69.36 70.15 69.72 70.09 69.47 69.02 68.10 67.81 67.79 68.62 70.68 70.15 69.37 68.04 69.86 70.12
68.50 69.27 69.90 70.50 70.97 71.13 70.65 70.39 71.11 70.95 71.37 71.29 70.99 68.58 67.25 66.62 66.06 66.16 67.63 68.98 70.72 69.94 70.74 71.69 70.20 69.85 68.40 68.06 69.47 68.97 68.54 68.01 67.79 67.72 67.20 67.49 67.70 68.31 68.08 68.78 67.20 68.31 68.16
68.39 69.03 69.57 69.72 70.03 71.10 71.31 71.77 71.50 70.72 69.47 69.10 69.18 66.44 63.35 62.30 58.96 63.16 64.94 67.29 69.38 69.57 69.47 66.65 64.85 66.51 67.02 65.69 65.57 66.80 68.22 67.83 66.64 67.36 67.33 66.47 67.11 67.58 67.14 64.13 65.24 65.35 64.85
68.89 69.16 69.25 69.34 69.35 69.28 70.37 70.86 70.71 69.88 70.18 68.26 65.17 61.90 60.56 57.91 56.98 58.26 61.46 64.67 68.78 69.05 69.00 65.97 61.40 60.15 61.56 64.82 66.56 64.33 62.82 63.80 65.32 67.14 65.54 64.63 64.52 63.27 63.11 62.14 62.46 64.71 65.24
68.58 68.69 68.89 69.07 68.46 68.19 68.41 69.31 70.01 69.68 69.50 68.33 64.79 61.86 58.05 58.18 56.45 57.29 61.23 65.02 64.06 64.23 62.20 59.46 57.38 58.15 59.42 63.92 63.32 62.25 58.82 57.01 57.51 59.57 59.66 60.89 62.28 63.19 62.80 63.21 63.94 65.08 66.67
68.01 68.53 68.60 68.33 67.38 67.38 66.91 67.00 67.61 67.44 66.92 65.79 63.97 60.17 57.73 54.69 54.58 57.27 64.95 63.23 60.24 58.76 58.34 56.71 55.72 55.42 57.05 59.17 55.79 53.59 53.32 55.88 58.74 59.50 60.05 60.11 59.62 59.86 62.10 62.78 62.23 59.22 59.17
67.74 67.88 68.44 67.67 67.47 66.70 66.39 66.65 65.82 64.62 62.12 60.70 58.49 54.63 53.62 52.89 53.35 54.76 64.35 62.57 58.42 56.19 53.57 53.77 56.12 54.21 53.72 54.97 53.66 52.43 53.48 53.49 56.06 56.34 56.56 57.47 58.37 58.04 58.69 58.71 58.07 55.44 56.16
67.81 68.42 68.08 67.58 66.93 66.00 64.69 64.89 62.34 60.37 58.02 55.70 52.73 52.84 52.05 51.05 51.48 52.21 56.77 61.86 59.19 57.15 54.54 53.29 53.13 53.14 51.65 52.26 53.46 53.99 54.88 55.25 56.12 53.28 53.55 53.83 54.17 53.14 53.74 54.17 54.14 55.48 53.07
63.74 63.78 64.71 66.13 66.52 65.68 64.65 62.03 61.33 59.98 58.24 56.26 53.32 51.38 50.12 50.35 50.90 51.31 52.51 55.42 58.88 57.86 56.17 54.29 52.33 51.37 50.63 51.34 52.64 51.77 51.83 52.69 51.46 50.96 50.59 49.74 49.41 49.66 50.11 51.13 53.44 55.02 53.31
58.79 57.21 56.12 55.29 55.99 58.36 62.54 61.79 60.62 59.71 58.85 57.55 56.02 53.29 51.74 51.31 51.67 50.77 51.31 52.75 53.52 52.60 52.64 52.63 51.35 49.55 49.71 50.70 51.96 51.63 50.62 48.12 47.17 47.01 45.85 45.77 46.52 47.24 48.50 48.36 49.09 49.85 48.71
58.05 55.39 54.23 52.22 50.70 51.55 52.16 51.32 49.85 51.00 55.62 59.38 58.66 55.80 53.57 50.93 48.22 47.02 48.51 48.79 49.05 48.03 51.27 52.17 52.16 51.56 51.31 50.49 48.83 48.79 48.44 47.25 46.49 45.40 45.16 45.35 46.09 46.09 46.59 46.47 45.18 45.23 43.99
57.44 56.01 52.86 50.51 49.26 48.00 44.94 47.15 48.39 43.40 42.18 47.16 49.95 55.14 53.32 49.19 45.21 42.36 43.33 43.72 42.73 43.08 45.84 49.77 48.36 46.92 45.74 46.41 46.44 46.90 47.01 46.72 46.54 46.08 44.99 44.29 44.90 45.78 45.58 45.17 44.40 42.55 42.09
54.37 56.23 54.99 51.61 49.26 46.12 44.19 43.66 42.73 42.89 42.14 41.03 41.93 44.20 42.79 44.15 41.59 40.29 39.53 39.82 40.74 42.31 46.61 47.55 46.17 45.99 45.71 45.86 46.17 44.73 44.85 47.28 45.53 44.80 43.54 42.94 43.03 42.43 41.77 42.45 42.08 40.53 40.24
49.09 50.77 50.46 54.52 52.98 49.21 46.86 43.69 42.51 43.49 43.12 42.50 41.05 41.09 41.05 40.44 40.00 38.98 38.85 39.54 41.22 42.68 45.75 47.28 46.30 46.11 46.07 46.17 45.03 44.73 43.41 43.79 44.10 43.13 41.88 41.86 42.24 42.14 40.35 40.01 39.82 39.69 39.41
48.75 48.79 46.86 50.22 53.19 52.26 50.68 49.86 45.97 42.63 42.37 41.25 40.72 40.60 39.60 39.32 39.29 39.20 39.48 42.53 43.60 43.88 44.37 45.56 44.56 44.01 43.89 44.14 43.80 42.77 42.58 42.47 41.32 40.71 40.33 40.07 39.81 39.71 39.21 38.56 38.58 37.79 37.39
46.36 45.13 44.59 44.58 44.65 46.39 46.52 48.25 48.20 46.66 43.93 40.92 36.74 40.49 40.29 39.44 39.15 39.07 39.93 43.19 42.17 43.44 44.46 44.59 45.35 44.56 43.56 43.18 43.13 42.14 42.21 40.69 39.46 38.95 38.28 38.12 38.33 38.05 37.53 37.94 37.86 39.46 37.78
48.08 50.49 47.52 44.61 44.40 42.48 42.81 43.18 43.12 46.59 45.08 43.06 39.57 40.90 42.04 41.94 43.31 44.92 45.89 46.77 45.80 44.32 46.05 46.05 45.77 44.90 43.59 42.90 42.42 41.73 40.75 39.84 38.38 37.93 37.47 37.44 37.23 37.24 36.85 36.47 36.46 35.73 35.54
47.45 45.97 49.45 42.67 43.36 43.14 42.61 43.49 41.80 41.61 43.14 42.81 42.12 42.82 41.95 41.08 42.90 43.63 43.93 43.73 44.36 44.67 45.22 46.47 44.35 43.67 43.53 43.23 41.81 41.30 41.00 40.79 39.62 37.71 37.18 36.97 37.01 36.14 36.16 36.35 36.26 36.23 36.00
47.18 45.62 44.17 43.07 42.31 42.93 42.85 42.81 43.28 42.35 41.79 42.23 41.39 41.11 41.73 43.74 42.58 42.56 45.04 45.56 46.15 46.23 46.11 46.17 46.30 45.89 45.10 44.43 43.56 42.63 41.12 39.57 39.24 38.93 37.36 37.02 36.33 36.67 36.82 36.27 36.22 35.70 35.73
47.98 46.01 45.06 43.87 43.07 44.08 43.35 42.73 42.78 43.05 42.23 41.79 40.38 40.06 40.25 40.48 41.52 42.40 44.82 45.20 45.59 44.87 45.09 44.93 44.03 42.89 43.44 43.18 42.31 41.87 40.28 39.21 39.18 39.15 38.34 37.79 37.22 37.00 36.97 36.24 35.94 35.50 35.79
50.15 47.78 46.20 44.39 43.28 42.22 42.02 42.68 43.18 42.81 43.22 43.22 42.58 41.59 39.81 39.57 40.19 42.78 44.99 44.52 44.80 44.55 44.95 44.41 43.94 43.10 42.88 42.25 41.65 40.91 39.98 38.77 38.23 38.47 38.20 37.23 36.61 36.53 36.38 35.64 36.01 36.44 36.86
48.56 47.74 47.55 45.94 44.60 43.91 44.50 42.25 42.48 43.36 43.57 43.39 43.28 43.16 41.52 40.76 39.84 41.81 43.87 43.71 44.17 43.60 43.16 42.99 43.43 43.25 42.40 41.16 40.56 40.05 37.78 36.56 38.24 36.91 37.56 37.41 36.49 36.10 35.70 36.13 37.61 37.77 37.41
51.29 48.96 48.16 47.92 48.52 47.35 45.32 45.83 45.53 44.69 42.96 44.56 45.54 43.24 42.54 41.60 41.76 42.89 43.27 43.39 42.99 42.92 42.69 42.56 42.89 43.08 42.50 41.46 41.22 38.57 33.74 33.75 36.22 34.57 37.34 36.50 35.22 34.81 35.23 35.16 36.14 36.25 35.92

GFSGL_sfc_wetblb_117.txt.gz
Wetbulb
68.88 68.98 68.92 69.44 69.63 69.25 68.74 68.93 68.76 67.60 66.59 66.77 67.53 70.02 69.47 70.85 71.29 70.54 70.70 70.31 69.68 70.10 70.05 69.07 68.94 69.61 69.46 69.76 69.67 69.40 68.41 67.22 63.73 65.61 67.66 69.36 69.02 68.59 69.43 71.63 73.51 72.61 72.14
69.86 69.54 69.48 69.67 69.72 68.75 68.35 68.34 68.13 66.46 65.65 66.14 67.96 69.21 68.94 70.44 69.74 70.15 70.42 71.46 70.50 69.58 69.35 69.33 69.23 70.69 68.58 69.07 69.37 68.53 68.15 68.25 66.46 64.52 66.70 68.38 68.30 69.72 69.41 70.19 71.74 72.81 71.78
70.42 70.34 69.86 69.39 69.73 68.70 68.20 68.37 68.31 67.91 66.39 67.39 69.24 68.61 68.37 70.17 70.92 70.84 70.39 70.52 70.81 70.41 70.53 69.92 69.70 69.45 68.54 68.24 68.47 68.51 68.25 69.85 68.59 67.19 66.54 68.05 68.47 70.01 69.93 70.08 68.77 69.51 72.06
70.78 70.58 69.83 69.85 69.77 69.90 69.18 68.98 68.65 67.73 67.15 66.72 68.85 69.45 69.97 70.25 69.03 69.45 70.51 71.30 71.28 70.95 70.99 71.09 70.63 69.73 68.84 68.88 68.91 68.87 69.05 68.27 67.89 66.74 66.31 66.94 67.53 69.49 68.93 66.99 65.81 67.69 68.91
70.23 70.25 70.27 70.62 70.49 70.27 69.61 69.50 69.68 68.51 67.81 68.40 69.71 68.99 67.64 67.42 66.88 66.11 67.71 69.73 70.58 69.90 70.26 70.26 69.19 69.17 67.96 67.71 69.35 68.78 68.09 67.01 66.70 66.29 65.93 66.24 66.62 66.49 65.30 65.84 64.94 66.13 67.24
69.60 70.20 70.62 69.46 70.16 70.12 70.25 70.18 70.66 69.83 69.92 69.15 69.04 66.79 63.97 62.92 59.75 63.83 64.11 67.17 68.48 69.46 68.83 66.70 66.36 68.00 66.68 65.96 65.89 66.81 68.00 67.35 66.21 66.92 66.51 65.43 64.50 64.14 63.42 62.19 63.25 64.19 63.18
68.32 68.90 69.49 69.56 68.63 69.35 69.89 70.48 69.87 69.54 69.38 67.53 65.18 63.05 61.38 59.59 57.89 58.71 61.85 64.32 66.92 68.14 68.32 65.02 61.25 60.74 63.14 66.01 62.96 60.95 60.81 61.73 65.46 66.92 64.24 63.26 62.70 62.57 62.17 61.15 62.31 63.75 62.60
67.62 68.50 68.63 68.70 68.27 68.79 68.92 68.95 69.11 69.38 69.20 67.39 64.52 62.32 59.62 59.15 56.44 57.46 60.68 63.74 64.91 63.29 63.94 61.42 59.18 60.51 61.07 64.70 61.19 56.83 56.22 56.69 57.10 58.45 59.05 60.20 60.54 61.69 62.49 62.42 63.62 63.23 65.75
67.30 67.73 68.18 68.57 67.84 67.62 67.48 67.42 67.66 68.47 68.97 66.76 64.25 60.74 60.26 58.61 55.99 56.56 63.50 63.42 60.60 59.26 59.49 60.36 60.96 60.16 58.23 59.15 58.39 53.36 56.15 56.86 58.82 58.44 58.71 57.87 57.14 57.63 60.20 60.76 58.32 56.29 57.23
67.19 67.37 68.05 67.80 67.12 66.78 66.80 67.12 66.30 66.10 63.56 61.85 59.09 58.06 56.83 57.25 55.74 56.60 62.21 61.17 58.23 56.68 56.92 57.05 57.08 56.11 56.43 55.06 52.81 54.15 55.32 53.83 54.21 54.52 53.58 53.87 53.66 54.57 56.74 54.97 55.75 54.48 53.75
68.07 68.07 67.34 67.30 67.10 66.73 66.46 65.94 63.00 60.22 57.86 56.05 54.00 52.33 51.53 52.22 52.34 54.47 57.42 58.98 56.85 54.92 53.96 53.32 53.58 53.54 52.51 52.59 53.66 55.94 54.77 54.30 53.69 51.84 51.58 50.70 50.67 51.63 52.75 53.14 50.99 50.62 47.37
63.50 63.16 65.92 66.10 66.60 65.89 64.27 62.25 60.44 57.91 54.88 52.40 50.22 49.97 50.44 50.90 52.02 52.21 54.58 57.21 58.40 55.45 54.35 54.19 53.59 51.38 50.05 50.78 52.42 52.54 53.49 53.85 51.72 49.67 47.57 46.57 46.33 47.14 48.09 49.20 48.45 47.81 47.82
58.63 58.13 56.56 55.96 57.45 59.96 62.43 61.45 60.58 60.23 57.47 54.44 52.61 50.49 50.59 51.72 50.77 51.60 51.94 53.08 54.15 52.72 54.15 54.22 50.44 49.18 49.45 50.72 51.94 51.44 51.70 50.45 47.87 45.18 44.19 44.41 44.28 45.73 45.91 46.45 46.85 44.76 44.69
55.54 55.68 56.00 56.66 55.32 55.06 54.03 54.01 55.50 55.62 58.88 58.25 55.80 53.04 50.77 48.56 48.61 49.28 49.77 49.67 51.14 51.83 53.60 52.59 51.67 50.95 50.72 49.76 49.56 49.36 48.28 47.51 46.91 46.12 45.49 45.80 46.11 44.73 43.63 44.58 42.88 43.82 41.88
54.55 53.17 52.48 52.27 50.86 48.33 46.56 48.01 49.34 44.79 46.86 52.16 52.04 54.18 52.09 49.86 46.04 43.83 45.48 46.79 46.46 45.43 48.21 48.33 46.70 45.82 45.69 45.43 45.38 46.02 46.28 46.19 44.72 43.44 42.56 42.21 41.93 41.93 40.87 40.85 40.21 39.94 39.65
54.89 53.71 52.32 51.51 49.27 48.18 48.00 46.34 43.03 43.11 42.21 41.21 41.71 45.89 45.04 44.26 41.75 40.40 39.70 40.09 41.09 42.72 47.65 47.37 46.08 45.29 45.11 44.29 44.18 44.67 45.13 45.20 43.27 42.39 41.56 41.24 40.70 40.13 39.78 40.21 39.99 38.53 38.03
48.21 46.93 50.92 50.98 49.48 47.38 45.53 44.88 43.46 43.68 43.12 41.36 40.68 40.81 40.68 41.40 40.23 39.19 38.95 40.23 40.93 43.08 48.14 47.60 46.28 45.52 45.55 44.86 43.61 43.01 42.48 41.92 41.44 41.05 40.84 40.48 40.17 39.83 38.65 38.31 38.24 37.65 37.07
46.73 47.86 48.49 50.49 51.56 48.62 46.86 46.47 42.24 42.38 42.33 41.97 41.03 40.48 39.52 39.12 39.16 38.80 39.71 41.21 44.93 44.56 47.36 47.67 46.35 46.61 45.22 43.13 42.29 41.67 40.79 39.81 38.76 38.56 38.58 38.64 38.36 38.00 37.44 36.89 36.48 35.45 35.72
45.28 45.72 46.10 45.61 45.57 46.41 46.77 47.46 45.06 43.44 43.31 42.96 39.97 40.68 40.03 39.01 38.96 38.91 39.35 43.55 44.08 45.78 45.79 46.13 46.36 45.49 43.04 42.35 41.62 41.67 41.57 40.29 38.89 38.28 37.57 37.16 37.38 37.07 36.36 36.53 37.14 38.63 36.73
45.51 49.38 46.79 43.78 42.17 42.98 41.99 41.73 41.78 43.79 42.51 40.01 39.10 39.73 41.09 40.68 41.91 42.50 44.36 44.14 44.96 45.82 45.94 45.69 45.72 44.94 44.18 43.17 43.45 42.48 41.41 40.10 39.32 37.90 37.48 36.95 36.54 37.12 36.43 36.02 36.02 35.38 35.33
45.74 44.43 47.29 41.09 41.45 41.52 41.31 41.50 40.69 40.43 41.49 40.96 40.25 40.44 41.32 39.24 40.35 42.27 43.38 44.61 45.01 45.86 45.71 44.93 44.62 44.40 43.21 43.81 41.93 41.39 40.77 40.01 38.13 36.87 36.82 37.29 37.49 36.41 35.74 36.23 36.46 36.69 36.53
46.47 44.78 43.06 41.93 40.88 40.65 40.73 40.73 40.53 40.72 41.43 41.74 41.35 40.91 41.37 41.28 42.17 41.96 43.13 43.85 45.16 45.49 45.58 45.58 45.00 44.55 43.87 43.00 42.39 41.11 40.30 39.77 39.51 39.01 38.26 38.28 38.15 37.95 37.80 37.21 36.83 36.39 36.78
46.84 45.76 44.07 42.95 42.08 43.25 40.90 40.82 39.98 40.42 40.47 41.07 41.35 41.08 40.52 40.78 40.82 40.21 42.73 44.35 44.71 44.64 44.81 45.03 44.56 42.99 43.21 43.11 43.53 42.52 40.34 39.62 39.76 39.58 38.52 38.22 37.68 37.66 37.87 37.14 37.16 36.93 36.96
48.12 47.24 45.71 43.71 42.55 41.36 40.65 40.53 40.57 41.21 41.36 41.57 41.26 40.31 39.61 39.51 39.29 39.89 42.83 43.57 43.62 43.40 43.16 43.48 42.77 42.32 41.50 41.12 41.51 40.37 40.41 39.73 39.24 39.13 38.53 37.33 36.75 36.64 36.25 35.93 36.37 36.86 36.93
49.60 48.01 46.75 45.65 44.58 43.58 42.40 41.52 40.77 40.95 41.74 41.91 41.77 41.77 41.67 41.02 39.31 39.33 40.68 43.04 42.97 42.40 42.33 41.98 41.75 41.77 41.27 40.21 39.89 39.24 37.45 36.59 37.70 37.12 37.76 37.46 36.80 36.19 35.69 35.83 36.55 36.75 36.75
49.32 49.48 48.72 48.75 47.43 45.87 45.17 45.90 44.83 44.22 44.11 44.39 42.08 41.67 41.93 41.36 40.20 38.98 39.70 42.04 42.06 41.83 41.33 41.22 41.55 41.56 41.26 40.84 40.48 38.13 33.64 33.41 36.16 34.76 37.03 36.70 35.54 34.69 35.00 35.44 35.96 36.13 35.89

GFSGL_sfc_wetblb_120.txt.gz
Wetbulb
68.72 69.18 69.47 69.65 70.39 70.75 70.31 70.38 70.10 69.99 68.78 69.02 70.26 71.10 71.42 71.93 73.27 73.29 73.11 72.92 71.98 72.38 72.52 72.21 71.76 72.01 71.80 72.20 72.39 72.22 71.12 69.65 68.14 69.17 71.00 72.74 73.41 73.19 73.86 74.18 73.68 74.84 74.53
69.22 69.25 69.35 69.68 70.29 69.93 69.76 69.99 70.24 69.62 69.02 68.67 68.59 69.65 71.13 71.41 72.88 72.31 72.48 73.62 72.10 71.82 71.71 71.94 71.95 71.52 71.91 72.42 71.70 72.23 71.26 71.54 69.36 69.02 70.98 72.26 72.41 73.58 73.58 72.92 72.59 73.69 74.31
69.25 69.35 69.48 69.52 69.89 70.01 69.74 69.94 69.99 69.52 68.74 67.97 68.29 69.72 70.77 70.99 72.22 71.82 71.97 72.51 72.59 72.64 72.38 72.18 72.06 72.14 72.35 71.50 71.27 71.65 71.20 72.61 71.62 70.77 70.58 71.45 72.23 73.30 72.97 71.53 71.41 72.35 71.86
69.89 69.76 69.69 69.99 70.38 70.39 70.38 70.08 70.07 69.99 69.45 68.32 69.36 70.76 70.41 70.67 72.24 72.04 71.98 72.29 72.54 72.87 72.82 72.86 72.97 72.58 72.18 72.31 71.60 72.23 71.66 71.22 71.26 70.09 69.97 70.67 71.18 72.64 71.40 69.56 69.87 70.96 67.42
69.87 70.14 70.10 70.70 71.20 71.23 70.93 70.48 70.56 69.87 69.78 69.61 69.09 71.09 70.94 70.20 68.77 68.68 70.10 71.16 70.82 71.49 72.31 72.49 71.74 71.63 68.81 70.08 72.69 72.24 71.64 70.57 70.13 69.92 69.59 69.92 70.43 68.91 68.43 68.61 68.91 69.96 68.78
69.79 70.01 70.48 70.42 70.79 70.93 70.79 70.77 70.91 70.89 69.90 69.61 70.65 70.50 68.06 65.65 61.68 64.37 66.29 69.14 70.34 71.02 71.45 70.98 69.65 68.53 67.75 65.98 66.78 67.25 70.82 71.07 70.56 70.20 69.92 69.28 68.18 68.07 67.58 66.61 67.88 68.93 65.00
68.25 68.92 69.67 70.50 70.18 69.84 70.49 70.43 70.36 70.41 69.58 70.18 68.83 66.51 64.18 63.52 59.03 60.74 62.36 66.65 68.44 69.92 70.78 69.07 66.05 64.40 65.67 66.27 62.41 61.52 61.69 61.91 66.58 70.95 69.75 68.27 67.24 67.40 66.69 66.38 67.21 67.33 61.30
67.91 68.27 68.83 68.99 69.01 69.10 69.74 69.24 69.26 70.19 68.02 68.11 66.59 65.10 63.21 62.11 57.92 57.96 60.52 64.52 67.17 66.85 68.31 66.33 64.27 64.33 64.90 65.81 62.45 60.56 61.16 62.19 63.00 62.47 65.12 64.47 64.69 65.24 66.47 66.96 67.81 67.53 64.22
66.89 67.82 68.27 68.72 68.33 68.27 68.13 67.95 68.83 68.92 68.72 67.59 66.10 63.81 62.91 61.30 57.79 58.65 63.36 64.35 61.79 62.22 62.78 63.03 64.19 63.33 59.16 60.33 63.46 60.57 60.39 59.57 57.49 57.23 57.14 56.52 56.55 57.43 62.37 65.59 62.15 63.04 62.03
66.91 67.57 68.20 68.61 68.09 67.95 67.21 67.32 66.93 67.45 66.57 64.78 62.20 61.97 60.32 60.78 56.17 56.71 62.06 63.21 60.48 59.00 58.84 57.97 57.49 58.71 55.52 55.92 58.96 59.24 59.34 58.43 58.36 57.52 56.84 56.56 57.02 56.73 55.80 59.21 60.90 60.39 58.58
66.47 67.68 67.79 67.72 67.95 67.93 67.05 66.18 64.55 63.13 60.77 59.74 57.99 57.23 55.13 55.21 56.99 55.97 59.25 61.70 60.18 57.68 56.57 55.48 55.26 53.67 52.19 52.56 53.94 60.50 58.66 57.42 55.62 54.86 54.30 54.74 54.39 54.08 53.44 52.79 53.46 54.93 52.34
62.57 63.00 65.05 66.66 67.00 66.28 64.45 62.22 60.55 60.37 57.31 56.61 56.39 55.14 53.35 54.07 53.28 56.25 57.27 56.86 57.64 56.45 54.97 54.99 54.76 50.75 49.93 51.11 53.86 52.45 52.29 54.39 54.34 53.47 52.43 52.02 50.95 50.63 50.27 50.01 51.04 50.99 50.14
58.36 58.06 57.15 57.15 57.85 60.79 62.66 61.05 58.94 57.71 55.87 53.89 53.74 50.84 51.27 52.75 52.55 51.75 52.73 54.00 54.60 54.93 55.64 53.45 50.47 48.91 49.64 51.19 52.17 52.50 53.10 52.49 50.36 49.52 49.07 49.31 49.48 50.48 50.87 50.14 49.84 50.19 49.35
55.69 54.80 54.82 55.71 54.84 54.64 54.03 54.60 55.72 58.46 58.74 57.59 55.79 54.69 53.12 52.00 50.76 51.47 51.53 53.17 52.79 54.40 54.19 53.77 52.35 50.99 50.36 50.86 51.94 51.46 50.25 49.83 50.69 50.22 49.33 48.88 48.71 47.58 47.00 47.86 47.10 46.79 45.01
54.85 53.97 53.34 53.96 51.82 50.16 48.01 49.20 49.87 45.58 48.46 54.18 54.88 55.41 52.11 50.24 45.26 43.16 45.61 47.80 48.34 48.31 51.10 51.05 50.23 50.14 49.65 49.92 50.30 50.60 50.35 50.06 49.43 48.75 47.89 46.70 46.02 45.99 44.79 45.51 44.40 44.21 43.22
52.89 51.92 51.84 51.16 49.95 50.47 50.46 47.52 46.46 46.01 46.65 43.66 43.83 47.91 45.97 44.22 41.71 40.51 39.51 40.07 41.25 43.24 51.73 50.62 49.17 49.31 49.13 49.12 49.25 48.76 48.46 47.50 47.12 47.10 46.41 45.69 44.60 44.37 43.83 43.99 43.84 42.79 41.36
49.55 52.68 51.26 50.42 48.51 46.92 46.79 46.94 45.62 42.73 42.37 40.61 40.66 41.25 43.07 43.40 40.51 39.32 39.03 40.33 41.04 43.61 50.39 50.68 50.13 49.06 48.15 47.56 47.24 47.68 46.61 45.83 46.65 45.45 45.21 44.47 44.08 43.72 43.21 42.71 42.58 42.10 41.05
47.96 47.86 51.01 52.32 50.80 49.33 48.38 46.08 45.30 45.90 43.88 42.98 40.90 40.61 39.53 39.73 39.43 38.92 39.53 42.17 45.24 44.73 47.10 48.86 47.75 47.68 47.63 46.85 46.18 45.57 44.33 44.12 44.04 44.16 44.10 43.95 43.73 42.94 41.95 41.23 41.42 41.17 41.13
46.79 47.08 47.21 47.45 47.85 48.76 48.85 49.65 48.07 47.37 46.90 44.72 43.66 41.66 40.69 39.23 38.93 38.95 39.51 46.05 46.23 47.36 48.60 48.63 48.00 48.20 47.46 47.34 46.89 45.94 44.06 43.37 43.19 42.90 42.77 42.74 42.71 42.14 41.21 41.38 40.93 40.16 40.04
48.53 49.51 47.37 45.52 44.90 45.76 46.16 45.71 46.59 47.44 46.53 45.05 43.85 43.02 43.77 44.21 45.36 46.96 47.48 47.60 47.16 46.70 48.38 48.85 48.63 48.42 47.70 47.65 46.58 44.99 44.67 43.71 42.78 42.59 42.17 42.14 42.24 42.15 41.03 40.87 41.20 41.10 41.24
48.46 47.29 46.99 44.69 45.52 44.86 45.00 45.07 44.72 45.28 45.91 45.78 45.03 43.98 41.03 44.38 44.64 46.98 46.85 47.54 48.38 48.72 48.79 48.96 48.35 47.92 47.48 47.06 46.25 45.17 44.08 43.36 43.05 42.19 42.09 41.68 41.17 40.47 41.20 41.14 41.36 41.44 41.45
48.76 48.03 46.50 46.01 44.66 44.77 44.66 44.75 44.86 45.12 45.46 45.87 45.69 44.82 41.18 44.53 46.34 46.81 46.28 47.56 48.61 49.24 49.57 49.46 48.59 48.14 47.65 47.16 46.35 44.89 43.76 42.53 41.90 41.79 41.76 41.51 40.77 40.38 40.42 40.26 40.77 40.84 40.74
50.04 48.98 47.64 46.82 46.27 45.40 44.81 44.94 44.66 44.78 44.80 45.01 45.56 45.32 45.12 45.54 45.20 45.96 46.13 47.31 49.03 49.05 49.45 49.42 49.19 47.92 47.78 47.65 46.85 46.00 44.48 43.32 43.05 42.83 41.43 41.30 41.07 40.87 40.44 40.28 40.44 40.24 40.50
51.22 50.39 49.16 48.27 46.83 46.23 45.67 45.39 45.28 43.01 45.78 46.18 46.27 46.12 45.96 45.91 46.08 46.40 46.48 47.04 48.65 49.00 49.27 49.17 49.06 48.41 47.45 47.03 46.86 46.16 45.83 44.96 44.15 43.39 42.82 41.64 40.80 39.64 40.36 40.37 40.27 40.10 40.39
52.58 51.39 49.89 49.68 48.94 48.25 47.43 46.92 46.59 45.91 45.79 45.97 46.36 46.35 46.81 46.76 46.04 45.89 45.85 45.89 48.02 48.47 48.18 48.31 48.52 48.20 47.54 46.82 46.60 46.22 41.68 36.82 42.33 39.70 42.53 42.09 41.43 40.99 40.43 40.13 40.40 40.38 40.28
53.04 52.06 51.36 50.78 49.88 49.40 48.45 48.25 49.02 48.85 47.85 47.02 46.43 46.16 47.05 46.61 46.78 46.78 46.35 45.49 46.45 47.43 47.79 47.45 47.54 47.57 47.06 46.58 46.36 41.50 33.64 33.64 39.04 35.53 42.40 42.37 41.34 40.32 40.05 40.14 40.39 40.57 40.51

GFSGL_sfc_wetblb_123.txt.gz
Wetbulb
72.50 73.29 73.98 74.04 74.32 74.59 74.52 75.02 75.16 74.93 74.39 73.94 74.64 74.88 75.34 75.63 76.26 76.68 76.83 76.58 76.16 76.21 76.09 76.24 76.18 76.51 74.92 75.24 75.62 75.83 74.47 74.39 71.12 73.49 74.93 76.97 77.00 76.62 76.36 76.34 76.83 77.11 70.04
72.72 73.04 72.95 73.62 74.19 73.79 74.26 74.67 75.22 74.92 74.83 74.66 73.80 73.84 73.94 74.99 75.85 76.04 75.75 75.59 75.70 75.41 75.31 75.77 75.78 74.97 75.96 76.60 75.54 76.29 75.39 75.41 73.02 72.59 74.67 75.58 76.16 76.59 75.45 75.80 75.18 75.85 70.03
72.92 72.66 72.83 73.10 73.43 73.40 73.95 74.41 74.89 74.58 74.26 73.65 72.80 72.94 73.16 73.37 74.78 75.80 76.22 75.90 75.39 75.63 76.00 75.30 75.20 75.64 76.06 75.60 76.04 76.12 74.29 75.28 74.53 74.00 72.72 75.08 75.78 76.25 74.44 74.86 74.23 74.24 73.04
72.63 72.41 72.46 72.72 73.01 73.30 74.12 74.38 74.45 74.49 73.99 73.49 73.12 72.56 73.16 74.40 74.19 74.86 75.63 75.37 75.47 75.63 76.15 75.87 75.59 75.53 75.59 76.01 75.44 76.13 75.62 75.67 75.20 73.64 72.58 72.42 74.12 75.95 74.03 73.35 71.58 72.22 72.57
72.33 71.52 71.68 74.01 73.83 73.97 74.46 74.74 74.85 74.74 74.20 74.35 73.22 73.07 73.98 74.62 73.84 74.45 74.67 75.15 75.47 75.28 75.18 75.64 75.68 73.77 70.32 72.26 76.58 76.06 76.05 75.67 75.10 74.73 71.40 72.39 73.01 72.10 71.86 73.25 72.83 70.13 70.40
70.15 71.86 72.62 73.74 73.51 74.19 74.53 74.92 75.06 74.91 75.16 74.72 73.94 73.56 73.29 73.14 63.06 64.89 68.96 73.12 73.80 74.10 73.05 74.26 75.23 70.30 70.49 66.93 67.56 67.88 71.15 75.39 74.27 74.32 73.59 72.72 73.27 71.16 71.19 72.00 72.42 71.93 67.05
72.38 72.51 72.75 72.18 72.69 71.40 72.23 74.51 73.25 74.99 75.54 74.82 74.29 74.19 73.27 71.76 59.82 60.87 62.46 70.63 72.60 73.37 74.13 74.94 74.14 72.38 68.35 73.00 64.60 63.52 63.23 62.71 65.60 74.34 73.89 73.95 71.36 71.33 71.85 70.85 72.48 70.61 66.42
70.96 69.70 70.17 71.76 71.25 70.87 70.47 71.10 70.27 73.77 71.93 74.41 73.35 72.16 69.77 68.40 58.65 58.66 60.76 69.13 70.62 72.11 71.88 73.42 73.55 71.36 70.49 70.51 68.63 67.55 66.95 66.74 67.77 68.61 70.18 70.58 70.44 71.65 71.85 72.76 72.81 67.85 66.01
67.60 68.26 68.64 69.38 68.96 69.31 69.27 69.57 69.82 70.13 70.25 68.82 69.90 71.33 68.91 65.73 58.71 58.77 62.45 68.42 67.54 67.56 67.29 67.39 68.87 69.86 60.45 61.81 68.51 65.63 63.71 61.39 57.21 56.80 57.02 56.86 56.03 57.39 63.14 70.43 68.91 69.10 67.34
68.81 68.61 68.64 69.00 69.23 68.84 69.25 68.51 69.05 69.73 69.07 68.57 67.10 67.38 61.98 63.50 57.65 56.56 61.05 65.75 63.55 61.99 61.23 61.62 56.92 59.38 54.78 56.36 67.60 63.59 61.73 60.70 61.45 60.96 62.70 61.08 61.50 58.94 58.39 64.69 67.40 64.93 65.81
67.31 69.07 69.51 70.10 70.26 69.56 68.46 67.62 66.78 64.95 64.03 62.19 59.74 58.01 57.95 57.39 59.21 56.81 56.68 63.84 63.15 61.19 60.82 60.03 58.98 53.88 52.51 52.36 54.24 61.78 61.03 60.31 57.97 60.44 60.60 61.19 60.28 59.39 59.01 58.98 59.47 61.04 61.92
65.36 63.89 64.30 66.61 68.03 68.05 65.73 64.00 62.22 60.04 57.85 56.18 54.94 54.96 56.33 56.77 52.85 56.79 58.19 58.56 59.77 63.39 59.64 57.92 57.40 50.95 50.31 51.82 56.20 52.39 53.12 56.55 59.05 57.87 57.69 55.94 55.40 54.57 56.16 55.29 55.74 54.20 55.09
58.73 57.49 57.97 58.51 57.43 58.51 61.75 61.91 59.50 59.64 57.61 55.70 54.62 54.14 54.46 54.49 55.52 52.96 52.73 55.11 55.82 57.74 58.35 55.85 51.98 48.97 50.64 52.91 52.66 53.14 54.41 57.11 55.81 55.41 54.06 52.74 55.81 54.55 54.14 52.80 52.37 54.46 53.93
55.96 56.14 55.96 54.20 52.71 53.78 54.51 54.80 54.99 58.64 58.29 56.92 55.22 54.36 54.60 54.54 54.61 53.94 54.59 57.16 55.36 54.96 54.75 55.02 52.96 52.30 51.98 52.68 54.88 55.43 55.00 54.32 56.50 51.73 51.36 51.81 52.05 54.23 53.11 54.19 53.23 53.01 52.12
56.68 55.25 54.26 53.83 53.79 50.94 48.28 51.05 50.25 47.25 49.29 56.91 56.10 55.24 53.52 50.47 45.63 42.52 45.43 48.32 51.04 50.26 52.55 53.17 52.52 53.06 54.17 54.96 55.62 56.47 56.71 57.42 57.02 55.97 55.00 54.02 53.42 54.14 52.61 53.40 53.24 53.12 52.14
52.75 52.82 53.19 53.55 53.64 52.99 51.56 48.64 45.98 47.08 45.67 44.82 48.04 49.42 46.29 44.57 42.14 41.31 40.88 41.45 42.36 44.29 52.57 52.52 51.99 51.82 52.60 54.39 55.53 55.09 54.79 53.72 54.95 54.51 53.56 53.20 53.08 52.61 51.48 50.30 50.35 50.06 46.96
54.16 52.26 51.75 50.76 49.83 49.39 51.18 51.62 46.10 43.70 42.55 42.38 42.87 43.27 45.08 44.11 41.17 40.38 40.22 40.95 42.43 45.91 51.50 51.27 51.77 51.41 51.14 50.93 50.42 49.48 48.71 48.16 50.89 51.12 52.08 51.54 51.03 49.46 48.65 48.05 48.62 48.21 48.00
52.13 50.93 54.93 53.85 53.71 53.33 52.37 51.06 50.05 48.43 47.28 46.37 41.91 42.09 40.51 40.42 39.64 38.97 39.62 42.11 46.50 45.78 48.64 50.41 50.13 49.06 49.91 49.20 50.25 47.24 47.18 47.52 47.11 48.83 47.90 50.32 50.47 49.15 48.75 47.99 48.28 47.61 47.65
52.85 51.37 52.34 53.12 53.65 52.98 53.96 53.90 51.81 52.52 51.04 48.47 47.58 43.82 43.49 39.29 39.33 39.17 39.73 49.24 48.33 49.86 50.50 51.81 52.90 51.63 50.00 49.33 49.97 48.88 48.84 48.49 47.92 48.98 49.72 49.64 48.72 48.87 46.96 46.92 46.71 43.65 43.93
53.06 50.27 51.30 52.02 51.08 52.05 52.23 52.33 52.24 51.54 51.24 51.77 50.89 49.27 50.11 49.18 50.73 53.07 53.36 53.18 52.91 53.24 53.42 53.70 54.36 54.23 53.23 53.78 52.82 51.30 49.34 48.57 48.36 46.92 46.99 47.61 46.18 46.43 47.58 47.12 46.68 46.32 46.89
54.95 53.79 49.20 52.08 51.29 51.39 51.77 50.90 51.22 52.75 52.21 52.02 51.80 49.74 41.14 50.49 51.23 52.90 52.98 52.75 52.76 53.36 55.41 55.55 54.79 54.35 54.38 53.68 52.64 50.99 51.00 49.45 47.79 47.30 47.98 46.86 45.56 44.98 46.28 45.90 46.01 45.87 46.18
56.99 55.28 54.14 53.42 52.56 52.26 52.21 52.63 52.16 51.35 51.27 51.79 51.74 50.59 41.96 51.20 52.36 52.98 52.55 51.92 52.75 54.22 55.78 55.24 54.63 54.54 54.24 53.66 52.79 52.01 50.61 49.47 49.29 48.21 46.92 46.13 45.70 45.24 45.67 45.45 45.34 45.24 44.67
57.89 57.02 55.30 54.23 54.04 49.75 51.20 52.44 52.18 52.00 51.84 51.45 51.91 51.98 52.45 52.69 52.14 51.34 52.26 52.72 52.55 53.89 55.83 55.55 54.85 53.90 54.34 53.85 53.17 52.44 50.91 50.08 49.87 48.92 47.57 46.41 45.72 45.55 45.69 44.95 44.66 44.61 45.08
58.96 58.17 57.31 56.06 53.85 53.37 53.13 53.17 53.55 47.42 51.25 52.65 52.81 52.63 52.54 52.44 52.39 52.52 53.02 53.31 53.00 53.92 54.93 54.83 54.46 53.78 53.99 53.49 53.45 52.58 52.10 51.80 51.22 49.73 48.39 47.19 46.41 44.25 46.29 46.18 45.95 44.72 45.30
59.44 58.41 56.99 54.02 51.87 51.57 52.07 52.57 53.77 54.53 54.67 54.53 54.11 53.64 53.13 53.37 53.18 53.10 53.40 53.48 53.19 53.36 54.13 54.88 54.75 54.48 54.03 53.52 52.73 52.36 44.71 39.88 48.49 43.14 48.23 47.04 46.44 46.03 45.81 45.89 45.70 45.60 45.02
59.29 58.80 58.26 57.72 56.77 56.59 56.30 54.45 52.42 52.78 53.86 55.54 55.06 53.27 51.39 52.89 51.63 51.62 53.61 53.99 53.47 53.34 53.75 54.41 54.66 54.47 54.50 53.89 53.11 45.93 33.54 34.53 42.98 36.52 47.21 47.21 46.35 45.86 45.50 44.90 44.59 45.18 44.89

GFSGL_sfc_wetblb_126.txt.gz
Wetbulb
74.26 74.69 74.82 75.04 75.42 76.48 76.36 77.21 76.96 77.39 77.40 77.08 76.83 76.68 76.96 77.22 77.57 78.11 77.40 76.48 76.54 76.69 77.01 76.40 76.60 77.39 75.30 74.55 74.87 74.64 73.61 73.54 70.47 71.43 75.62 77.06 76.58 76.64 76.77 77.78 77.61 75.07 69.63
74.68 74.82 74.80 75.11 75.44 75.31 75.93 76.23 77.15 77.27 77.66 77.16 76.75 76.73 76.58 76.87 77.16 77.40 76.41 76.13 76.00 75.78 75.98 76.14 76.02 75.68 76.70 76.74 74.79 75.30 74.78 75.62 73.12 73.20 75.40 74.68 75.53 77.02 77.45 77.32 76.67 73.62 69.25
75.17 74.65 74.71 74.62 74.87 74.75 75.19 75.88 76.37 76.75 76.97 76.90 76.85 76.33 75.81 75.67 75.97 76.88 77.09 76.36 76.35 75.99 76.29 76.10 76.11 76.10 75.80 75.03 75.57 75.61 74.99 76.41 75.51 73.56 72.83 74.82 75.29 75.87 76.10 76.75 76.47 74.41 70.40
74.94 74.80 74.78 74.90 74.86 74.77 75.56 76.02 76.09 76.77 76.64 76.67 76.84 76.26 75.42 75.30 75.41 75.70 76.46 76.67 76.45 76.02 76.54 76.35 76.12 75.98 76.08 75.68 75.51 76.89 76.00 76.07 76.27 73.46 73.85 72.86 73.44 76.45 75.00 74.23 72.98 74.77 69.63
74.35 74.73 75.04 75.80 75.98 75.86 76.00 76.15 76.53 76.41 76.26 76.62 76.81 76.45 75.99 75.74 75.58 76.03 76.19 76.51 76.17 75.82 76.20 76.14 75.76 74.79 70.78 71.40 76.36 75.93 77.75 75.99 74.67 72.70 71.30 71.99 73.14 73.14 72.58 74.03 74.32 72.33 74.51
70.91 73.03 74.99 74.77 75.44 74.12 75.35 76.75 76.91 76.93 76.82 76.83 76.38 76.11 75.64 74.66 65.92 67.04 70.67 75.48 75.78 75.98 75.95 76.20 76.45 72.03 71.85 68.57 68.14 68.46 71.12 76.23 75.66 73.04 71.42 72.72 74.38 74.29 73.18 72.47 73.60 70.73 67.95
73.96 72.49 73.80 73.69 74.85 73.58 75.63 73.18 74.75 75.70 76.43 75.94 76.11 75.93 75.27 75.68 62.94 63.29 64.29 73.31 74.65 75.41 75.54 76.15 75.56 74.61 72.53 75.80 67.41 65.88 64.47 64.15 66.42 74.50 74.18 73.90 74.35 73.89 73.58 72.90 74.16 73.42 72.74
73.77 72.02 74.01 73.78 73.28 73.64 74.50 74.28 74.51 72.66 71.80 71.01 74.37 75.14 75.50 75.20 60.56 60.41 61.87 71.40 71.85 73.48 75.02 75.04 75.80 75.57 74.27 73.85 73.82 73.26 73.07 71.05 70.52 71.95 72.85 74.07 73.73 74.32 73.91 74.28 74.63 72.97 69.93
71.72 72.92 72.61 72.98 73.09 73.99 71.23 72.03 74.05 73.72 69.90 70.19 70.63 72.53 71.97 72.31 59.20 59.64 63.52 71.14 69.72 69.94 69.70 68.09 72.69 73.23 61.30 62.76 72.53 71.41 70.81 67.54 58.15 57.51 57.01 56.68 57.15 58.61 63.98 71.58 74.28 71.52 70.63
71.22 70.39 70.23 70.29 70.92 69.66 70.13 70.11 71.51 71.32 70.75 70.62 70.08 69.52 63.39 66.18 57.71 56.83 62.25 65.70 67.70 65.00 66.56 61.68 56.36 59.28 55.20 58.34 71.38 70.43 68.27 68.16 64.96 65.32 62.09 62.81 63.29 61.35 61.08 68.39 70.00 67.52 66.95
70.32 71.48 71.10 71.46 71.83 72.30 72.28 70.15 69.81 69.09 67.73 65.38 60.95 60.27 59.52 57.63 58.19 54.68 55.64 62.96 64.75 63.24 62.21 61.00 57.46 53.87 52.99 53.68 54.61 66.73 64.24 62.17 60.36 62.96 64.11 63.70 63.12 64.00 62.16 62.81 61.42 63.17 64.04
68.93 67.20 65.85 66.80 65.32 66.32 65.23 63.62 62.53 62.17 60.18 58.28 57.17 55.76 56.51 57.45 53.60 54.01 56.24 57.87 60.63 63.35 61.15 59.06 55.87 50.93 50.58 52.06 56.44 53.82 54.56 58.41 61.56 61.64 60.97 59.22 60.64 59.31 58.27 58.02 58.49 58.06 58.96
61.74 60.41 60.77 60.96 60.92 61.00 61.99 64.14 63.02 62.36 60.14 58.03 57.72 56.07 54.82 56.83 57.01 53.99 53.07 54.35 55.67 59.07 58.39 52.71 50.95 49.81 50.95 53.23 53.39 53.82 55.27 59.09 60.44 60.76 60.87 59.68 55.24 57.73 56.91 57.25 57.50 58.30 55.30
58.33 59.78 58.49 56.13 55.40 57.87 57.08 58.42 60.22 59.84 58.63 58.44 58.97 57.68 56.23 53.00 49.37 51.44 58.08 57.99 56.19 57.02 55.98 55.89 53.58 53.60 52.93 54.94 56.73 57.06 59.24 59.70 57.87 56.98 52.97 53.99 56.25 53.35 58.18 54.05 54.28 54.24 55.10
58.26 57.24 56.11 54.86 54.02 51.47 47.74 48.30 52.06 48.72 49.90 58.45 58.17 57.20 55.61 51.82 47.14 43.52 47.02 50.25 52.44 52.27 54.10 55.21 54.47 55.94 54.89 56.54 56.55 57.26 60.16 59.21 58.83 58.96 59.07 58.89 58.63 58.46 58.16 57.97 57.41 57.20 54.87
58.03 55.63 55.55 55.49 54.88 53.90 52.75 52.20 44.08 45.25 44.37 44.95 47.14 51.23 48.95 46.93 43.65 41.91 41.78 42.60 45.70 47.40 53.79 54.23 53.86 54.61 53.95 55.10 56.40 55.84 56.98 57.72 58.23 58.20 57.85 57.70 56.35 56.38 56.29 56.20 54.83 54.38 54.50
54.46 53.59 52.48 52.14 51.02 52.26 53.13 53.99 52.55 48.97 42.05 41.47 42.42 44.43 45.05 43.51 41.01 40.41 40.03 40.82 42.62 47.17 54.90 53.10 54.36 53.17 52.26 52.45 52.64 51.91 50.92 50.24 52.04 50.28 50.40 50.89 50.94 51.38 51.07 53.07 53.32 52.89 53.18
59.34 52.29 57.15 57.78 56.99 56.82 55.70 53.93 54.40 54.70 53.54 52.59 42.19 44.05 41.91 41.18 40.17 39.30 39.72 42.16 50.13 48.04 51.59 50.67 53.36 52.40 51.98 51.92 51.98 50.43 51.05 51.71 51.05 50.56 50.38 50.92 50.05 50.14 49.45 49.14 49.73 49.36 51.62
57.07 56.83 57.84 57.18 56.30 55.71 56.18 56.88 57.11 56.15 54.91 52.79 51.07 45.41 44.05 39.65 39.76 40.75 40.60 54.45 53.76 54.27 55.49 54.88 56.32 55.76 53.95 54.73 54.40 53.25 53.51 52.57 51.82 52.69 52.22 51.92 51.47 53.05 51.47 50.61 50.18 42.94 44.24
55.66 52.99 54.89 55.91 55.60 55.73 56.03 55.33 55.35 55.56 55.72 55.22 55.27 54.10 53.34 51.38 55.32 56.45 57.45 56.29 55.30 55.36 55.36 55.27 56.57 57.71 57.17 56.85 56.23 55.13 54.99 53.02 53.54 53.38 53.57 52.88 52.64 49.68 50.42 50.76 50.43 48.66 47.81
57.62 55.92 51.38 57.37 56.41 55.88 55.62 55.50 55.09 55.27 54.93 55.37 54.66 51.30 39.66 53.35 55.30 56.29 55.25 54.39 54.13 55.02 56.00 56.55 58.53 58.22 58.15 56.94 56.19 55.59 54.52 54.39 53.25 52.54 51.48 50.90 50.94 48.75 49.50 49.47 48.27 48.62 48.89
60.26 58.54 58.85 58.64 57.32 56.63 56.68 57.28 56.41 56.44 56.48 55.84 54.87 52.26 43.24 52.43 54.53 54.97 55.73 55.42 55.54 56.09 56.49 58.32 58.33 57.58 57.29 57.30 56.34 54.86 53.96 53.27 53.65 52.54 51.43 51.73 51.37 50.36 49.52 48.95 48.77 48.09 47.57
61.05 60.56 59.61 58.68 58.05 51.62 54.84 57.46 57.90 57.98 57.88 57.72 57.78 57.14 55.79 56.67 56.81 55.90 55.87 55.60 55.59 55.25 56.32 57.24 57.57 56.69 57.22 57.03 56.97 55.28 53.61 53.43 53.91 54.27 51.96 51.17 49.89 49.22 49.16 48.71 48.55 48.35 48.28
60.36 60.13 59.67 59.49 59.32 57.76 57.17 56.83 56.73 49.66 54.84 56.79 56.99 57.14 56.81 56.79 56.24 56.09 55.90 56.20 55.97 55.60 56.17 56.23 56.13 55.86 56.27 55.46 55.50 55.37 55.47 55.33 55.56 53.41 51.93 50.77 49.67 47.54 48.78 49.05 48.95 48.52 48.78
60.09 58.71 59.40 59.24 59.33 58.30 58.07 57.10 57.19 56.40 57.27 58.01 57.61 57.64 57.61 57.23 56.44 56.29 56.36 56.37 56.27 56.06 55.76 55.93 56.40 56.53 56.47 56.10 55.66 54.58 44.22 42.36 50.22 44.46 52.29 50.65 49.53 48.50 48.89 48.90 48.91 48.60 47.94
59.51 59.77 59.47 59.11 59.15 58.92 58.45 58.10 58.28 58.11 57.91 58.37 56.98 56.47 57.30 57.15 56.89 56.67 56.52 56.28 56.24 56.43 56.55 56.30 56.33 56.68 56.70 56.37 56.12 44.41 34.61 37.34 45.96 37.03 49.54 50.20 49.34 49.13 48.91 48.35 47.84 48.11 48.15

GFSGL_sfc_wetblb_129.txt.gz
Wetbulb
75.17 74.78 74.78 74.90 75.70 76.63 76.23 77.08 77.01 77.46 78.23 77.60 77.65 77.73 77.13 77.20 77.55 77.91 77.93 77.79 76.48 77.81 77.33 76.74 77.62 78.21 74.72 73.73 74.85 73.80 72.87 72.57 70.87 71.08 74.34 77.62 77.61 76.71 77.04 77.43 76.29 74.05 66.06
75.61 75.41 74.82 75.21 75.79 75.07 76.02 76.70 77.49 77.39 77.84 77.93 78.14 77.41 77.35 77.20 77.51 77.71 76.73 76.89 76.07 75.93 76.71 77.12 75.86 75.08 78.28 78.78 75.13 78.00 74.67 76.60 72.82 74.93 75.24 74.57 76.89 77.19 76.86 77.20 75.43 72.10 66.63
75.76 75.09 75.13 74.73 74.64 74.95 75.58 76.38 77.09 77.21 77.36 76.81 77.37 77.87 77.31 76.47 76.46 77.22 77.07 76.67 76.11 76.51 75.74 76.28 75.57 76.65 78.02 76.00 76.53 75.75 74.12 73.10 75.77 73.68 72.54 75.01 75.20 75.74 76.92 76.76 76.82 72.83 68.66
75.52 75.39 75.32 75.23 75.11 75.04 76.11 76.54 76.27 77.27 76.89 76.91 76.92 77.49 77.13 76.70 76.13 76.22 76.07 76.25 76.78 76.50 77.31 77.04 76.62 77.04 77.46 76.49 75.90 77.50 76.23 76.45 75.45 75.58 74.66 72.96 73.41 75.96 74.93 76.09 74.21 75.96 70.81
75.94 75.64 75.99 77.14 77.04 76.87 77.27 76.95 76.89 77.08 76.78 77.04 76.62 76.88 76.75 76.43 75.41 76.67 76.16 75.89 76.41 76.15 76.33 76.96 76.71 76.22 71.15 72.11 78.05 77.90 77.71 77.05 74.41 74.19 72.64 72.07 70.94 72.24 71.41 74.26 74.60 74.22 73.17
74.43 71.86 76.60 77.26 77.39 76.81 76.49 76.33 76.44 76.63 77.15 77.02 76.40 76.21 76.07 75.11 68.21 70.17 71.68 75.04 75.98 75.53 75.99 76.40 76.82 73.29 72.87 70.41 70.19 69.90 73.05 76.27 75.79 75.93 74.85 70.50 70.47 76.35 73.70 72.76 76.19 72.28 70.83
74.43 74.60 74.38 76.20 76.32 76.09 76.00 74.97 75.18 74.81 77.21 76.93 75.83 76.43 75.94 76.32 65.71 66.84 66.70 73.90 74.83 75.19 75.68 75.79 75.39 74.88 73.37 75.84 68.86 67.50 67.85 67.58 69.03 74.94 74.04 74.82 74.21 75.24 77.06 76.18 75.12 74.63 74.94
74.17 73.65 73.62 74.73 73.53 73.67 75.55 75.94 76.00 75.55 75.38 74.69 75.72 74.56 72.98 72.41 62.97 63.50 63.70 72.27 74.60 75.10 75.20 75.46 75.37 75.45 73.02 72.15 75.37 74.90 74.80 71.03 68.90 70.86 74.47 73.78 71.51 72.23 74.73 76.32 74.81 75.16 74.88
73.25 74.07 74.32 75.18 75.16 75.00 74.58 74.46 74.73 75.16 75.39 74.82 74.79 74.14 72.78 70.75 60.63 60.69 61.42 71.94 72.38 72.90 72.73 67.47 66.98 67.56 61.30 64.32 72.37 73.43 73.21 70.26 57.99 58.19 58.25 58.36 58.56 60.26 64.13 70.16 73.40 71.82 72.10
72.24 72.46 71.87 72.97 72.22 71.03 71.56 71.74 72.90 72.99 72.96 73.77 73.47 73.68 67.52 63.99 58.16 58.08 61.09 66.46 67.92 68.94 67.55 64.66 56.47 55.16 55.47 56.74 69.03 72.50 71.41 71.58 68.73 68.08 66.97 63.19 62.87 62.36 62.20 63.93 63.39 68.47 68.45
72.24 71.98 71.51 71.70 71.66 72.27 71.61 70.70 68.40 66.59 62.70 60.43 60.05 58.86 56.92 56.74 58.14 55.45 56.21 64.04 64.78 64.42 62.61 61.52 57.84 53.95 52.98 54.02 56.44 64.12 63.39 66.12 62.31 64.43 65.04 64.79 64.13 60.28 59.35 59.62 61.28 61.36 61.98
69.09 68.02 67.79 67.97 68.11 68.11 67.50 67.03 65.12 64.29 59.57 58.20 56.76 56.09 57.22 56.58 54.28 53.94 54.79 55.67 59.15 63.71 61.22 58.73 55.43 51.47 50.73 52.08 55.14 53.41 54.88 58.86 63.63 64.76 61.71 60.99 59.25 58.40 56.80 57.51 58.22 59.23 59.05
64.32 63.03 63.40 63.90 65.19 65.53 66.40 65.89 65.04 64.99 62.04 59.09 57.88 58.14 57.87 56.66 56.32 53.90 53.09 54.21 55.32 56.07 55.73 53.75 51.64 50.05 51.98 53.72 53.80 54.47 56.60 60.21 61.10 59.31 57.76 58.13 58.09 56.93 59.89 56.83 58.83 58.67 56.72
60.27 59.66 58.87 57.71 59.94 61.08 62.45 64.48 64.45 63.33 63.25 63.62 61.91 58.25 55.46 54.79 54.99 54.59 55.56 57.52 56.83 56.60 55.40 55.40 53.93 54.96 54.92 56.24 57.30 58.50 60.80 60.67 60.52 58.36 56.54 55.05 57.06 55.91 57.83 56.63 57.58 56.22 56.30
58.53 57.94 56.79 56.16 54.90 54.34 50.94 52.65 56.27 52.86 54.18 60.40 61.31 59.36 57.69 53.12 49.20 44.33 47.99 52.78 54.35 52.26 55.38 56.68 56.37 56.95 56.64 56.52 57.23 56.75 59.06 58.27 58.77 59.77 59.50 58.07 57.78 58.24 58.79 60.12 58.57 57.03 55.85
57.44 57.94 58.68 57.34 57.44 60.31 59.99 55.83 44.60 46.14 45.06 44.34 45.03 53.47 53.47 47.15 43.28 42.42 41.47 42.55 45.21 47.48 54.57 53.75 53.04 54.63 54.52 55.66 56.48 54.92 52.51 53.80 53.69 53.44 53.21 53.68 56.64 56.50 54.65 58.13 58.68 57.12 55.29
58.19 57.94 56.75 56.03 55.63 56.17 58.36 58.54 57.29 50.50 43.27 43.28 43.69 44.71 45.12 45.96 41.54 40.39 40.59 40.85 42.85 47.33 54.60 55.16 53.69 52.67 52.44 53.69 53.88 53.19 52.07 51.84 51.68 50.80 50.43 51.34 51.07 49.02 49.40 49.80 49.32 51.02 50.10
59.89 53.00 58.96 58.25 57.04 54.94 55.70 55.69 57.25 55.90 56.00 54.29 43.51 47.58 42.44 41.89 41.67 40.50 40.60 41.51 51.76 50.07 54.63 53.89 54.63 53.82 54.24 54.74 54.08 53.67 52.80 51.26 53.23 52.87 52.79 53.10 52.39 51.44 51.21 50.00 50.94 50.68 50.63
59.88 59.64 59.47 58.47 57.79 57.23 58.28 58.77 58.21 57.42 55.46 53.26 50.72 44.97 44.41 40.74 40.46 41.09 42.77 53.17 56.02 56.40 56.65 56.33 56.49 56.38 56.02 56.20 55.85 54.47 55.48 54.33 54.05 54.19 53.65 53.87 52.77 52.31 52.26 51.41 50.99 45.05 46.62
57.95 54.45 57.11 58.79 57.47 58.67 58.59 58.61 57.66 57.38 56.90 56.97 56.24 55.17 54.42 50.07 53.59 56.83 57.17 56.61 55.99 56.09 56.45 56.80 58.06 58.48 58.32 58.15 57.36 57.00 55.92 54.96 54.66 54.84 54.34 54.05 53.63 51.75 50.20 50.36 49.60 48.55 48.54
57.75 56.73 52.71 57.60 57.99 57.82 58.11 56.89 57.84 57.38 56.79 57.02 55.72 51.49 41.46 53.96 55.12 56.57 56.80 55.50 55.14 55.33 56.25 57.09 58.08 58.50 58.90 58.89 58.71 56.88 55.65 55.23 55.79 54.41 53.57 52.86 52.08 50.60 50.99 50.38 49.67 49.76 50.02
59.90 58.89 58.81 59.45 58.40 57.75 58.29 58.22 57.49 57.99 57.99 57.05 56.41 52.70 45.34 53.84 56.71 56.83 57.54 56.53 56.90 56.31 56.49 57.68 57.56 58.51 58.31 58.46 57.70 56.88 55.21 54.52 54.25 54.08 53.50 52.85 52.11 51.32 50.52 49.63 49.57 49.68 49.04
60.84 60.57 59.92 59.04 58.63 54.46 56.93 57.64 58.09 58.01 57.91 58.59 58.82 57.37 56.09 57.59 57.89 57.56 57.20 57.37 57.80 57.26 57.53 57.07 57.09 57.24 57.78 57.63 57.19 56.15 54.51 53.95 54.50 54.77 53.59 52.74 51.78 50.83 50.21 49.43 49.46 49.22 49.07
60.55 60.22 59.45 59.17 59.83 58.87 58.14 57.71 57.89 51.69 56.18 57.65 57.98 58.02 58.09 58.23 57.57 57.34 57.54 57.42 57.33 57.19 57.49 56.82 56.93 56.63 57.33 57.41 56.67 56.38 56.29 56.70 55.99 54.34 53.65 52.65 51.37 49.06 49.67 49.78 49.78 49.64 49.38
60.62 59.40 59.80 59.21 59.22 58.95 58.48 57.92 57.92 58.30 58.53 57.15 57.24 57.04 56.88 58.56 57.75 57.75 57.71 57.43 57.30 57.27 57.24 57.26 56.91 56.86 57.13 57.17 56.92 56.73 47.57 43.36 51.06 41.03 52.89 52.45 51.27 50.92 50.11 49.75 49.64 49.48 49.35
59.57 59.20 59.03 58.79 58.57 58.25 58.21 58.21 58.06 57.30 57.91 58.13 56.88 57.38 57.63 57.21 56.90 56.91 57.34 57.26 57.09 57.14 57.25 57.68 57.72 57.65 57.31 56.97 56.44 44.40 34.76 38.82 47.74 38.35 50.22 51.59 50.68 50.22 50.02 49.75 49.50 49.03 48.94

GFSGL_sfc_wetblb_132.txt.gz
Wetbulb
75.67 75.28 75.15 75.29 76.07 77.06 76.88 75.49 77.13 78.50 72.42 75.36 78.17 77.32 78.39 78.23 79.16 78.97 78.09 76.61 76.02 76.25 76.57 76.01 76.33 77.29 76.31 75.24 75.20 73.90 72.70 73.16 70.92 70.54 75.66 75.02 71.36 76.00 74.91 73.26 68.89 66.08 63.48
75.56 76.12 75.35 75.66 75.63 75.50 76.67 77.85 79.46 78.56 79.13 79.07 77.87 79.13 78.12 78.16 77.51 78.24 76.94 76.55 75.98 75.17 75.27 74.91 75.44 75.27 76.05 75.18 75.65 75.41 74.66 75.32 73.27 71.33 73.60 75.03 75.29 77.07 76.20 74.94 73.64 65.99 63.21
76.04 75.18 75.13 74.96 75.41 75.37 75.08 77.01 77.81 76.43 77.42 77.94 77.35 77.46 77.34 77.28 77.21 77.23 77.37 77.37 76.41 76.15 75.53 74.23 75.02 75.68 74.41 75.01 75.31 75.16 75.20 73.57 73.04 71.36 71.46 73.69 73.60 75.49 74.61 74.79 70.45 64.77 63.73
74.74 75.00 75.04 75.46 74.76 75.31 76.97 78.28 79.03 79.22 79.08 78.29 78.53 78.35 77.75 77.42 76.95 77.08 77.12 76.70 76.92 76.30 76.39 75.32 75.58 75.09 75.38 74.99 74.03 74.74 74.16 74.41 73.96 72.15 72.52 71.15 72.51 73.56 73.19 72.34 71.16 70.38 63.72
75.74 75.52 76.08 76.33 77.19 77.44 77.54 77.12 77.42 78.31 77.81 77.67 77.69 78.38 78.21 76.39 75.37 75.92 76.22 76.28 76.29 76.49 76.43 75.97 75.38 75.33 72.23 73.02 75.99 74.45 75.57 74.17 73.30 73.21 71.78 71.01 71.46 70.90 69.04 69.94 70.09 71.64 71.13
77.24 76.29 76.50 76.45 77.64 78.32 78.58 77.82 78.09 77.71 77.89 77.66 76.86 76.52 76.48 74.97 67.73 69.90 72.32 77.03 76.62 76.15 75.03 75.86 76.42 73.77 72.21 70.09 70.97 70.45 72.02 74.59 73.03 72.33 71.39 71.27 71.50 68.70 67.44 69.22 70.96 69.82 67.93
76.59 76.02 75.35 76.28 77.07 77.31 76.70 77.86 76.93 76.86 77.19 76.52 76.11 76.44 76.35 76.75 66.93 68.23 70.24 73.27 75.20 75.70 75.56 74.88 74.37 74.42 73.88 75.60 69.80 67.64 68.59 68.58 69.54 72.10 72.57 72.10 71.88 72.73 72.52 71.96 71.45 71.10 70.38
73.90 74.98 73.42 75.53 75.28 76.90 76.09 74.65 75.45 75.95 76.18 75.44 76.09 75.86 75.33 74.64 63.99 64.85 65.41 69.56 71.60 72.55 73.69 73.28 71.58 73.31 65.52 67.82 71.83 73.82 73.99 68.21 66.51 66.90 68.31 67.05 67.80 66.43 69.11 71.61 70.61 71.66 72.17
70.81 72.39 73.44 74.41 71.53 73.36 72.82 74.41 74.95 74.98 74.87 74.93 74.89 74.44 73.98 72.75 61.16 60.79 64.45 69.67 71.65 71.43 67.28 60.82 63.47 65.90 57.31 58.81 68.05 70.05 69.80 65.70 60.98 59.21 58.94 59.71 59.67 60.57 62.66 69.34 64.04 67.82 67.42
72.01 71.31 70.96 72.99 72.04 70.79 71.15 71.98 73.20 73.08 70.35 68.76 60.49 59.26 60.15 60.43 56.01 57.08 62.04 68.25 68.02 67.86 65.03 60.16 56.78 54.94 55.06 55.65 64.02 66.52 66.81 66.36 64.32 64.78 64.90 64.09 63.34 60.34 59.71 59.35 58.91 60.45 62.90
72.89 72.77 72.15 72.43 70.03 69.84 69.15 68.69 67.89 65.48 62.92 59.76 58.34 57.72 56.97 56.51 56.09 55.36 56.47 63.63 64.08 64.83 62.78 59.55 57.12 54.51 52.89 53.45 55.62 58.50 57.77 62.31 62.03 63.64 62.30 59.55 58.82 56.95 56.90 57.37 57.31 56.94 58.34
68.68 67.74 67.84 68.33 68.22 68.08 67.88 66.10 65.45 63.15 60.21 58.68 57.68 57.42 57.42 56.47 54.37 53.53 53.64 55.69 61.11 63.05 59.87 57.36 54.44 51.57 51.21 52.54 55.53 54.77 56.31 59.61 60.79 59.79 59.31 57.64 57.52 56.04 56.37 56.89 55.26 55.69 57.95
63.94 63.65 64.33 65.45 65.45 66.54 66.88 66.01 64.74 64.83 62.70 61.12 59.63 59.02 57.52 56.86 56.53 54.19 53.09 54.27 55.50 56.83 56.63 54.21 51.98 51.75 52.70 54.33 55.00 55.76 57.21 58.37 58.80 58.08 56.93 56.25 56.65 55.87 57.15 54.83 55.40 54.97 54.56
60.90 59.63 59.01 60.66 61.61 63.04 64.07 63.51 64.25 63.49 64.64 63.32 61.59 59.13 57.81 58.79 58.81 58.66 58.22 58.16 56.45 55.44 55.06 55.38 55.62 55.84 55.64 55.93 56.84 58.32 59.09 58.77 59.19 57.54 57.69 57.17 57.89 56.84 57.20 56.47 56.04 55.62 54.39
59.58 58.60 57.93 57.15 56.52 54.59 53.16 54.50 58.11 54.04 52.81 59.42 59.86 59.41 58.73 54.52 49.44 46.35 51.23 54.88 55.17 53.00 56.15 55.65 55.74 55.74 55.38 55.87 55.38 55.04 55.13 54.70 54.05 55.57 54.56 56.53 55.82 56.09 56.66 56.78 55.41 55.19 54.86
60.34 60.03 58.74 58.89 60.16 59.39 57.87 54.40 46.01 46.23 44.69 44.31 44.99 52.93 51.07 47.39 43.92 42.51 41.97 44.16 46.84 47.81 56.35 54.93 54.94 55.17 55.27 55.07 54.67 54.17 53.32 54.16 56.13 54.00 52.60 52.22 51.15 49.28 49.04 50.83 51.25 51.30 51.02
60.66 59.87 57.78 57.83 59.46 60.36 60.41 58.79 55.93 50.64 44.50 44.07 44.42 44.67 47.72 46.87 42.25 41.29 42.02 41.44 43.32 46.20 56.80 55.64 54.42 54.63 54.26 54.19 54.22 54.19 54.19 53.12 52.98 52.77 51.29 50.63 49.78 49.60 47.89 49.29 50.32 49.82 50.44
60.98 54.36 58.61 57.82 56.76 56.97 57.74 57.87 57.60 56.50 55.00 53.72 45.02 47.86 42.54 42.07 42.14 41.39 42.68 41.73 50.61 48.09 55.34 55.46 55.89 54.81 55.15 55.08 54.91 53.80 53.66 53.48 54.02 53.41 53.06 53.47 52.30 51.75 50.76 50.18 49.47 48.93 49.77
62.36 60.08 59.97 60.14 58.59 58.70 59.93 59.63 58.03 56.48 53.70 51.48 49.19 44.75 44.34 42.56 41.33 41.02 42.50 47.64 54.14 57.45 57.73 57.52 56.52 56.69 56.64 56.88 56.17 56.40 56.30 55.48 55.12 55.31 54.91 53.98 53.90 52.74 52.31 51.96 48.66 46.40 46.52
59.39 55.95 58.63 60.14 58.19 59.68 59.90 59.89 58.93 60.07 57.98 56.08 54.56 54.53 52.56 48.16 51.36 53.98 52.73 58.12 56.93 56.20 57.24 57.78 59.05 58.53 59.02 59.46 57.75 57.69 56.48 54.50 55.54 55.13 55.21 54.19 53.94 52.16 50.18 49.55 49.47 48.24 47.97
57.56 57.33 57.53 57.70 59.34 58.92 59.45 58.29 59.30 58.59 57.72 57.70 54.90 50.99 43.58 54.73 57.65 58.16 58.06 57.51 57.32 56.42 57.15 58.11 58.27 59.92 60.70 59.79 59.04 58.05 56.53 56.10 56.47 54.93 54.32 54.40 53.00 50.70 51.34 50.53 49.39 48.87 49.24
59.39 58.39 58.62 58.98 58.56 59.59 59.02 58.90 58.18 57.84 57.93 57.28 55.44 52.39 46.38 54.00 57.26 58.20 59.05 58.53 58.88 58.40 58.77 59.14 58.70 59.63 59.08 58.98 57.02 56.92 56.39 54.96 55.61 55.09 54.65 53.49 53.07 52.50 51.54 50.35 49.46 49.38 49.07
60.10 59.48 58.82 59.13 59.44 56.35 58.54 58.00 58.20 57.94 57.81 57.90 57.57 55.09 54.13 55.89 58.34 58.08 58.58 58.91 59.67 59.58 59.77 59.04 58.31 56.73 57.14 56.30 57.62 57.40 55.71 54.99 54.99 54.78 53.44 53.00 52.54 52.08 51.05 49.83 49.12 48.62 48.33
59.83 58.71 60.04 59.52 59.36 58.40 57.85 57.68 58.45 52.51 56.72 57.84 58.21 56.70 57.50 58.67 59.13 60.16 59.74 59.67 59.64 59.25 59.48 59.03 58.47 57.21 58.40 58.66 58.73 56.08 54.67 55.78 55.61 54.64 54.27 53.31 51.92 49.61 50.21 49.36 48.51 49.11 49.03
60.05 59.17 60.65 57.74 59.50 59.36 59.16 57.29 57.81 57.26 55.61 57.35 57.85 57.21 57.94 57.23 58.18 58.75 59.01 58.41 57.70 58.11 58.05 58.03 55.64 57.21 58.76 58.24 57.70 56.44 44.56 44.29 52.97 45.07 52.82 52.67 52.53 51.96 49.99 49.37 49.00 48.88 49.07
60.31 59.90 59.94 59.88 59.29 59.08 59.26 58.26 57.80 57.93 57.86 58.11 56.48 56.50 57.30 57.90 57.85 57.54 57.63 57.09 56.21 55.93 55.66 56.65 57.64 56.48 57.24 57.29 55.66 47.72 35.26 38.17 45.82 41.18 51.56 51.78 50.68 50.60 50.08 49.93 50.06 48.47 48.73